W61901 / HA-LWC 7700 Squawk Report (10th of December, 2017)

Aircraft A320 Reg No. HA-LWC Age 8 years old
Model A320 Jet engines 2 First flight 21-05-10
Registered 09-06-10 Rollout 05-10 Delivered 09-06-10
Construction No. 4323 Line No. N/A Series 232
ADSHEX 471F4A Airline name Wizz Air Owner N/A
Airfield based Budapest-Ferihegy~ ~HA First tracked 2011-04-01 16:22:02

Flight history for HA-LWC

Route Flight No Date Playback
Luton (LTN) - Strachowice (WRO) W61802 2018-07-20 08:45:00
Strachowice (WRO) - Luton (LTN) W61801 2018-07-20 06:09:00
???? N/A 2018-07-19 22:57:00
Strachowice (WRO) - Luton (LTN) W61803 2018-07-19 21:20:00
Eindhoven (EIN) - Strachowice (WRO) W61826 2018-07-19 18:03:00
Strachowice (WRO) - Eindhoven (EIN) W61825 2018-07-19 10:45:00
Lviv Intl (LWO) - Strachowice (WRO) W61844 2018-07-19 08:21:00
Strachowice (WRO) - Lviv Intl (LWO) W61843 2018-07-19 05:39:00
Koln Bonn (CGN) - TZL W64300 2018-07-18 23:33:00
Strachowice (WRO) - Birmingham (BHX) W61807 2018-07-18 21:39:00
Skavsta (NYO) - Strachowice (WRO) W61872 2018-07-18 18:11:00
???? W62698 2018-07-18 16:55:00
Eindhoven (EIN) - Strachowice (WRO) W61826 2018-07-18 13:57:00
Strachowice (WRO) - Eindhoven (EIN) W61825 2018-07-18 12:37:00
Luton (LTN) - Strachowice (WRO) W61802 2018-07-18 09:45:00
Strachowice (WRO) - Luton (LTN) W61801 2018-07-18 07:42:00
???? N/A 2018-07-18 04:21:00
Strachowice (WRO) - Luton (LTN) W61803 2018-07-17 19:56:00
Lviv Intl (LWO) - Strachowice (WRO) W61844 2018-07-17 18:07:00
Strachowice (WRO) - Lviv Intl (LWO) W61843 2018-07-17 15:33:00
Time Lat Lon Altitude Heading Speed Vertical Rate
2017-12-10 09:33:37 GMT 51.15356 -0.17684 0 345 0 0
2017-12-10 09:33:33 GMT 51.15352 -0.17683 0 345 0 0
2017-12-10 09:33:23 GMT 51.15337 -0.17677 0 345 4 0
2017-12-10 09:33:20 GMT 51.15331 -0.17675 0 345 4 0
2017-12-10 09:33:10 GMT 51.15303 -0.17660 0 348 8 0
2017-12-10 09:33:08 GMT 51.15295 -0.17658 0 11 6 0
2017-12-10 09:32:59 GMT 51.15270 -0.17668 0 78 8 0
2017-12-10 09:32:56 GMT 51.15269 -0.17682 0 78 10 0
2017-12-10 09:32:46 GMT 51.15258 -0.17754 0 78 13 0
2017-12-10 09:32:43 GMT 51.15255 -0.17782 0 75 15 0
2017-12-10 09:32:37 GMT 51.15246 -0.17847 0 78 15 0
2017-12-10 09:32:34 GMT 51.15241 -0.17886 0 78 16 0
2017-12-10 09:32:28 GMT 51.15233 -0.17944 0 75 17 0
2017-12-10 09:32:26 GMT 51.15230 -0.17962 0 78 17 0
2017-12-10 09:32:23 GMT 51.15225 -0.17998 0 78 17 0
2017-12-10 09:32:16 GMT 51.15213 -0.18087 0 78 19 0
2017-12-10 09:32:13 GMT 51.15206 -0.18133 0 78 19 0
2017-12-10 09:32:08 GMT 51.15197 -0.18200 0 78 18 0
2017-12-10 09:32:03 GMT 51.15189 -0.18259 0 81 17 0
2017-12-10 09:31:58 GMT 51.15184 -0.18326 0 81 17 0
2017-12-10 09:31:53 GMT 51.15178 -0.18387 0 78 16 0
2017-12-10 09:31:47 GMT 51.15169 -0.18452 0 75 19 0
2017-12-10 09:31:43 GMT 51.15161 -0.18509 0 78 20 0
2017-12-10 09:31:37 GMT 51.15151 -0.18586 0 75 21 0
2017-12-10 09:31:32 GMT 51.15139 -0.18664 0 78 21 0
2017-12-10 09:31:24 GMT 51.15125 -0.18775 0 78 19 0
2017-12-10 09:31:16 GMT 51.15111 -0.18881 0 78 21 0
2017-12-10 09:31:14 GMT 51.15105 -0.18918 0 78 22 0
2017-12-10 09:31:06 GMT 51.15089 -0.19035 0 78 23 0
2017-12-10 09:30:55 GMT 51.15064 -0.19211 0 78 21 0
2017-12-10 09:30:44 GMT 51.15041 -0.19375 0 78 25 0
2017-12-10 09:30:36 GMT 51.15020 -0.19531 0 78 23 0
2017-12-10 09:30:34 GMT 51.15017 -0.19556 0 78 23 0
2017-12-10 09:30:24 GMT 51.14994 -0.19720 0 78 23 0
2017-12-10 09:30:13 GMT 51.14971 -0.19884 0 78 21 0
2017-12-10 09:30:06 GMT 51.14956 -0.19997 0 75 24 0
2017-12-10 09:30:02 GMT 51.14947 -0.20067 0 78 23 0
2017-12-10 09:30:00 GMT 51.14943 -0.20091 0 78 23 0
2017-12-10 09:29:53 GMT 51.14928 -0.20206 0 78 21 0
2017-12-10 09:29:42 GMT 51.14906 -0.20355 0 78 18 0
2017-12-10 09:29:32 GMT 51.14890 -0.20477 0 78 16 0
2017-12-10 09:29:21 GMT 51.14876 -0.20590 0 56 14 0
2017-12-10 09:29:10 GMT 51.14822 -0.20644 0 340 11 0
2017-12-10 09:28:59 GMT 51.14786 -0.20586 0 284 16 0
2017-12-10 09:28:49 GMT 51.14766 -0.20444 0 281 26 0
2017-12-10 09:28:40 GMT 51.14737 -0.20239 0 281 37 0
2017-12-10 09:28:26 GMT 51.14708 -0.19857 0 261 44 0
2017-12-10 09:28:18 GMT 51.14741 -0.19566 0 258 62 0
2017-12-10 09:28:04 GMT 51.14841 -0.18850 0 258 94 0
2017-12-10 09:27:52 GMT 51.14965 -0.17940 0 258 130 0
2017-12-10 09:27:49 GMT 51.15006 -0.17632 1,300 258 129 -256
2017-12-10 09:27:47 GMT 51.15025 -0.17494 1,300 258 129 -512
2017-12-10 09:27:38 GMT 51.15146 -0.16647 1,425 258 127 -704
2017-12-10 09:27:30 GMT 51.15257 -0.15841 1,525 258 126 -640
2017-12-10 09:27:28 GMT 51.15276 -0.15694 1,550 258 127 -640
2017-12-10 09:27:21 GMT 51.15362 -0.15091 1,625 258 127 -768
2017-12-10 09:27:17 GMT 51.15407 -0.14740 1,675 258 128 -704
2017-12-10 09:27:09 GMT 51.15509 -0.13993 1,775 258 127 -640
2017-12-10 09:27:07 GMT 51.15541 -0.13755 1,800 258 127 -640
2017-12-10 09:27:00 GMT 51.15621 -0.13184 1,875 258 128 -704
2017-12-10 09:26:56 GMT 51.15672 -0.12833 1,925 258 128 -576
2017-12-10 09:26:50 GMT 51.15756 -0.12245 2,000 258 128 -704
2017-12-10 09:26:46 GMT 51.15807 -0.11862 2,050 258 127 -640
2017-12-10 09:26:40 GMT 51.15877 -0.11330 2,100 258 127 -704
2017-12-10 09:26:36 GMT 51.15933 -0.10918 2,175 258 126 -704
2017-12-10 09:26:31 GMT 51.15990 -0.10511 2,225 258 126 -640
2017-12-10 09:26:29 GMT 51.16026 -0.10254 2,250 258 127 -704
2017-12-10 09:26:26 GMT 51.16063 -0.10002 2,275 258 127 -704
2017-12-10 09:26:24 GMT 51.16086 -0.09827 2,300 258 127 -704
2017-12-10 09:26:19 GMT 51.16156 -0.09323 2,375 258 127 -640
2017-12-10 09:26:14 GMT 51.16205 -0.08967 2,425 258 125 -576
2017-12-10 09:26:09 GMT 51.16273 -0.08469 2,475 258 125 -576
2017-12-10 09:26:07 GMT 51.16305 -0.08255 2,500 258 125 -640
2017-12-10 09:26:03 GMT 51.16351 -0.07891 2,550 258 127 -768
2017-12-10 09:25:59 GMT 51.16392 -0.07601 2,575 258 126 -704
2017-12-10 09:25:54 GMT 51.16466 -0.07037 2,650 258 127 -832
2017-12-10 09:25:50 GMT 51.16510 -0.06722 2,700 258 127 -832
2017-12-10 09:25:48 GMT 51.16521 -0.06644 2,725 258 127 -832
2017-12-10 09:25:45 GMT 51.16580 -0.06221 2,775 258 127 -832
2017-12-10 09:25:43 GMT 51.16594 -0.06094 2,800 258 127 -768
2017-12-10 09:25:38 GMT 51.16668 -0.05570 2,875 258 126 -704
2017-12-10 09:25:36 GMT 51.16678 -0.05486 2,900 258 125 -576
2017-12-10 09:25:33 GMT 51.16719 -0.05196 2,925 258 125 -448
2017-12-10 09:25:31 GMT 51.16750 -0.04988 2,950 258 124 -512
2017-12-10 09:25:28 GMT 51.16780 -0.04753 2,975 258 124 -704
2017-12-10 09:25:26 GMT 51.16804 -0.04565 3,000 258 123 -640
2017-12-10 09:25:22 GMT 51.16864 -0.04164 3,050 258 122 -640
2017-12-10 09:25:18 GMT 51.16910 -0.03845 3,075 258 121 -704
2017-12-10 09:25:16 GMT 51.16942 -0.03608 3,100 258 122 -768
2017-12-10 09:25:15 GMT 51.16942 -0.03608 3,100 258 121 -704
2017-12-10 09:25:12 GMT 51.16978 -0.03326 3,150 258 125 -640
2017-12-10 09:25:10 GMT 51.17003 -0.03174 3,150 258 123 -640
2017-12-10 09:25:06 GMT 51.17055 -0.02770 3,200 258 124 -576
2017-12-10 09:25:02 GMT 51.17110 -0.02388 3,250 258 123 -512
2017-12-10 09:24:58 GMT 51.17152 -0.02068 3,275 258 123 -576
2017-12-10 09:24:55 GMT 51.17194 -0.01759 3,325 258 125 -640
2017-12-10 09:24:53 GMT 51.17213 -0.01625 3,325 258 127 -768
2017-12-10 09:24:51 GMT 51.17258 -0.01314 3,375 258 127 -704
2017-12-10 09:24:49 GMT 51.17258 -0.01314 3,375 258 127 -768
2017-12-10 09:24:46 GMT 51.17303 -0.00980 3,400 258 129 -768
2017-12-10 09:24:44 GMT 51.17325 -0.00824 3,425 258 129 -704
2017-12-10 09:24:42 GMT 51.17371 -0.00488 3,475 258 131 -704
2017-12-10 09:24:40 GMT 51.17376 -0.00427 3,475 258 131 -768
2017-12-10 09:24:36 GMT 51.17427 -0.00069 3,525 258 133 -832
2017-12-10 09:24:34 GMT 51.17464 0.00198 3,575 258 134 -832
2017-12-10 09:24:31 GMT 51.17509 0.00527 3,625 258 134 -960
2017-12-10 09:24:29 GMT 51.17520 0.00610 3,625 258 134 -1024
2017-12-10 09:24:27 GMT 51.17546 0.00794 3,675 258 135 -1024
2017-12-10 09:24:25 GMT 51.17578 0.01024 3,700 258 135 -1024
2017-12-10 09:24:23 GMT 51.17601 0.01210 3,750 258 135 -960
2017-12-10 09:24:21 GMT 51.17641 0.01472 3,800 258 136 -960
2017-12-10 09:24:19 GMT 51.17655 0.01579 3,800 258 136 -832
2017-12-10 09:24:16 GMT 51.17693 0.01871 3,850 258 137 -768
2017-12-10 09:24:14 GMT 51.17734 0.02145 3,900 258 140 -512
2017-12-10 09:24:12 GMT 51.17743 0.02227 3,900 258 138 -704
2017-12-10 09:24:10 GMT 51.17799 0.02624 3,950 258 141 -256
2017-12-10 09:24:08 GMT 51.17802 0.02635 3,950 258 141 -256
2017-12-10 09:24:06 GMT 51.17853 0.03006 3,975 259 145 -576
2017-12-10 09:24:04 GMT 51.17862 0.03073 3,975 259 145 -704
2017-12-10 09:24:02 GMT 51.17892 0.03319 4,000 259 146 -832
2017-12-10 09:23:59 GMT 51.17935 0.03637 4,050 259 147 -576
2017-12-10 09:23:56 GMT 51.17976 0.03944 4,075 258 145 0
2017-12-10 09:23:54 GMT 51.17999 0.04127 4,100 259 145 -384
2017-12-10 09:23:52 GMT 51.18027 0.04350 4,100 259 145 -256
2017-12-10 09:23:50 GMT 51.18059 0.04595 4,125 258 145 -64
2017-12-10 09:23:48 GMT 51.18074 0.04715 4,125 258 144 64
2017-12-10 09:23:46 GMT 51.18116 0.04997 4,125 258 144 -128
2017-12-10 09:23:44 GMT 51.18139 0.05196 4,150 258 143 -128
2017-12-10 09:23:42 GMT 51.18160 0.05352 4,150 259 141 -192
2017-12-10 09:23:40 GMT 51.18195 0.05615 4,150 258 143 -320
2017-12-10 09:23:38 GMT 51.18223 0.05806 4,150 258 143 -384
2017-12-10 09:23:36 GMT 51.18246 0.05989 4,150 258 144 -512
2017-12-10 09:23:34 GMT 51.18279 0.06226 4,175 258 143 -448
2017-12-10 09:23:32 GMT 51.18301 0.06406 4,175 258 143 -384
2017-12-10 09:23:28 GMT 51.18363 0.06844 4,225 258 144 -512
2017-12-10 09:23:26 GMT 51.18391 0.07065 4,250 258 145 -512
2017-12-10 09:23:24 GMT 51.18418 0.07263 4,250 258 144 -576
2017-12-10 09:23:21 GMT 51.18462 0.07579 4,275 258 144 -576
2017-12-10 09:23:18 GMT 51.18507 0.07889 4,300 258 145 -448
2017-12-10 09:23:16 GMT 51.18540 0.08133 4,325 258 145 -384
2017-12-10 09:23:14 GMT 51.18562 0.08292 4,325 258 145 -512
2017-12-10 09:23:12 GMT 51.18594 0.08537 4,350 258 146 -448
2017-12-10 09:23:09 GMT 51.18636 0.08826 4,375 259 146 -512
2017-12-10 09:23:08 GMT 51.18651 0.08934 4,375 259 146 -448
2017-12-10 09:23:07 GMT 51.18658 0.09004 4,400 259 146 -448
2017-12-10 09:23:05 GMT 51.18691 0.09257 4,400 259 146 -448
2017-12-10 09:23:03 GMT 51.18712 0.09407 4,425 259 146 -448
2017-12-10 09:23:00 GMT 51.18768 0.09836 4,450 258 146 -512
2017-12-10 09:22:58 GMT 51.18800 0.10058 4,475 258 146 -512
2017-12-10 09:22:56 GMT 51.18819 0.10200 4,475 258 146 -512
2017-12-10 09:22:54 GMT 51.18837 0.10355 4,500 258 146 -512
2017-12-10 09:22:52 GMT 51.18875 0.10620 4,525 258 146 -576
2017-12-10 09:22:50 GMT 51.18897 0.10764 4,525 258 146 -512
2017-12-10 09:22:48 GMT 51.18928 0.11023 4,550 258 145 -448
2017-12-10 09:22:46 GMT 51.18970 0.11320 4,575 258 144 -448
2017-12-10 09:22:44 GMT 51.18996 0.11490 4,600 258 144 -448
2017-12-10 09:22:41 GMT 51.19029 0.11766 4,600 259 145 -512
2017-12-10 09:22:39 GMT 51.19056 0.11955 4,625 258 144 -512
2017-12-10 09:22:37 GMT 51.19093 0.12226 4,650 258 145 -512
2017-12-10 09:22:35 GMT 51.19116 0.12404 4,675 258 145 -576
2017-12-10 09:22:33 GMT 51.19140 0.12588 4,675 258 145 -512
2017-12-10 09:22:31 GMT 51.19171 0.12805 4,700 258 145 -512
2017-12-10 09:22:29 GMT 51.19194 0.12991 4,700 258 145 -512
2017-12-10 09:22:27 GMT 51.19221 0.13191 4,725 258 144 -512
2017-12-10 09:22:25 GMT 51.19257 0.13428 4,750 258 144 -512
2017-12-10 09:22:23 GMT 51.19303 0.13763 4,775 258 144 -512
2017-12-10 09:22:20 GMT 51.19336 0.14008 4,800 258 144 -512
2017-12-10 09:22:16 GMT 51.19396 0.14450 4,825 258 144 -512
2017-12-10 09:22:14 GMT 51.19409 0.14557 4,850 258 144 -576
2017-12-10 09:22:12 GMT 51.19441 0.14757 4,875 258 144 -576
2017-12-10 09:22:09 GMT 51.19489 0.15114 4,900 258 143 -512
2017-12-10 09:22:06 GMT 51.19528 0.15396 4,925 258 143 -576
2017-12-10 09:22:04 GMT 51.19565 0.15678 4,950 258 141 -512
2017-12-10 09:22:02 GMT 51.19601 0.15938 4,975 258 140 -448
2017-12-10 09:21:59 GMT 51.19620 0.16090 5,000 258 139 -448
2017-12-10 09:21:57 GMT 51.19657 0.16350 5,000 258 139 -448
2017-12-10 09:21:55 GMT 51.19679 0.16517 5,025 258 139 -640
2017-12-10 09:21:53 GMT 51.19707 0.16717 5,050 258 139 -704
2017-12-10 09:21:51 GMT 51.19731 0.16899 5,050 258 139 -704
2017-12-10 09:21:48 GMT 51.19766 0.17155 5,100 258 139 -768
2017-12-10 09:21:45 GMT 51.19817 0.17541 5,125 258 139 -768
2017-12-10 09:21:43 GMT 51.19843 0.17738 5,175 258 140 -704
2017-12-10 09:21:41 GMT 51.19881 0.17994 5,200 258 139 -640
2017-12-10 09:21:38 GMT 51.19913 0.18254 5,225 258 139 -576
2017-12-10 09:21:36 GMT 51.19936 0.18402 5,250 258 139 -640
2017-12-10 09:21:34 GMT 51.19955 0.18555 5,250 258 139 -640
2017-12-10 09:21:32 GMT 51.19995 0.18855 5,300 258 139 -704
2017-12-10 09:21:28 GMT 51.20062 0.19340 5,350 258 139 -640
2017-12-10 09:21:24 GMT 51.20113 0.19707 5,375 259 140 -576
2017-12-10 09:21:22 GMT 51.20141 0.19920 5,400 259 141 -576
2017-12-10 09:21:19 GMT 51.20178 0.20203 5,425 259 141 -704
2017-12-10 09:21:15 GMT 51.20219 0.20503 5,450 258 144 -704
2017-12-10 09:21:13 GMT 51.20251 0.20748 5,475 258 144 -704
2017-12-10 09:21:11 GMT 51.20279 0.20948 5,500 259 145 -704
2017-12-10 09:21:07 GMT 51.20348 0.21460 5,575 259 146 -768
2017-12-10 09:21:03 GMT 51.20402 0.21866 5,625 259 145 -640
2017-12-10 09:21:01 GMT 51.20421 0.22040 5,650 259 145 -640
2017-12-10 09:20:58 GMT 51.20476 0.22461 5,675 259 146 -704
2017-12-10 09:20:56 GMT 51.20480 0.22514 5,700 259 146 -640
2017-12-10 09:20:54 GMT 51.20509 0.22736 5,725 260 144 -640
2017-12-10 09:20:52 GMT 51.20535 0.22923 5,725 259 145 -640
2017-12-10 09:20:50 GMT 51.20563 0.23146 5,750 259 145 -512
2017-12-10 09:20:47 GMT 51.20595 0.23390 5,775 260 144 -640
2017-12-10 09:20:45 GMT 51.20636 0.23724 5,825 261 144 -640
2017-12-10 09:20:43 GMT 51.20653 0.23880 5,825 261 144 -704
2017-12-10 09:20:41 GMT 51.20682 0.24162 5,850 261 143 -640
2017-12-10 09:20:39 GMT 51.20686 0.24214 5,875 261 143 -640
2017-12-10 09:20:37 GMT 51.20714 0.24460 5,900 261 144 -704
2017-12-10 09:20:35 GMT 51.20737 0.24704 5,925 261 144 -704
2017-12-10 09:20:35 GMT 51.20737 0.24704 5,925 262 144 -704
2017-12-10 09:20:33 GMT 51.20760 0.24933 5,950 262 144 -768
2017-12-10 09:20:31 GMT 51.20782 0.25157 5,975 262 144 -640
2017-12-10 09:20:29 GMT 51.20797 0.25337 6,000 263 144 -704
2017-12-10 09:20:27 GMT 51.20816 0.25566 6,025 264 143 -576
2017-12-10 09:20:25 GMT 51.20835 0.25810 6,050 265 143 -704
2017-12-10 09:20:22 GMT 51.20851 0.26033 6,075 266 143 -704
2017-12-10 09:20:22 GMT 51.20851 0.26033 6,075 266 143 -704
2017-12-10 09:20:20 GMT 51.20862 0.26306 6,100 266 143 -640
2017-12-10 09:20:17 GMT 51.20881 0.26642 6,150 267 143 -576
2017-12-10 09:20:15 GMT 51.20886 0.26817 6,150 268 143 -576
2017-12-10 09:20:13 GMT 51.20891 0.27023 6,175 272 144 -832
2017-12-10 09:20:11 GMT 51.20895 0.27313 6,200 270 144 -640
2017-12-10 09:20:10 GMT 51.20895 0.27290 6,200 271 144 -832
2017-12-10 09:20:08 GMT 51.20897 0.27585 6,225 272 144 -832
2017-12-10 09:20:06 GMT 51.20895 0.27786 6,250 274 145 -960
2017-12-10 09:20:04 GMT 51.20891 0.27992 6,275 274 145 -960
2017-12-10 09:20:02 GMT 51.20883 0.28149 6,300 276 146 -832
2017-12-10 09:20:00 GMT 51.20867 0.28427 6,350 277 146 -704
2017-12-10 09:19:56 GMT 51.20824 0.28973 6,400 281 145 -832
2017-12-10 09:19:54 GMT 51.20801 0.29173 6,425 283 144 -640
2017-12-10 09:19:52 GMT 51.20792 0.29262 6,450 283 143 -576
2017-12-10 09:19:50 GMT 51.20746 0.29572 6,475 285 143 -576
2017-12-10 09:19:47 GMT 51.20718 0.29752 6,500 287 142 -576
2017-12-10 09:19:45 GMT 51.20673 0.29982 6,525 289 141 -640
2017-12-10 09:19:43 GMT 51.20622 0.30235 6,550 291 140 -768
2017-12-10 09:19:41 GMT 51.20593 0.30357 6,575 293 141 -768
2017-12-10 09:19:40 GMT 51.20567 0.30465 6,575 294 141 -768
2017-12-10 09:19:39 GMT 51.20532 0.30601 6,600 295 141 -768
2017-12-10 09:19:37 GMT 51.20480 0.30784 6,600 296 142 -768
2017-12-10 09:19:35 GMT 51.20430 0.30947 6,650 297 143 -768
2017-12-10 09:19:32 GMT 51.20348 0.31214 6,675 297 144 -768
2017-12-10 09:19:30 GMT 51.20297 0.31370 6,700 297 145 -768
2017-12-10 09:19:28 GMT 51.20224 0.31600 6,725 297 145 -768
2017-12-10 09:19:26 GMT 51.20160 0.31801 6,750 297 145 -704
2017-12-10 09:19:24 GMT 51.20122 0.31921 6,775 297 145 -704
2017-12-10 09:19:22 GMT 51.20039 0.32188 6,800 297 146 -704
2017-12-10 09:19:20 GMT 51.19987 0.32349 6,825 297 146 -704
2017-12-10 09:19:18 GMT 51.19922 0.32558 6,850 297 146 -704
2017-12-10 09:19:16 GMT 51.19843 0.32799 6,875 297 147 -640
2017-12-10 09:19:14 GMT 51.19798 0.32952 6,900 297 147 -640
2017-12-10 09:19:11 GMT 51.19708 0.33234 6,925 297 147 -576
2017-12-10 09:19:09 GMT 51.19643 0.33442 6,950 297 147 -448
2017-12-10 09:19:07 GMT 51.19579 0.33649 6,975 297 147 -384
2017-12-10 09:19:05 GMT 51.19519 0.33835 7,000 297 148 -448
2017-12-10 09:19:02 GMT 51.19437 0.34110 7,000 297 149 -448
2017-12-10 09:19:00 GMT 51.19363 0.34340 7,025 297 149 -448
2017-12-10 09:18:58 GMT 51.19286 0.34592 7,050 297 150 -448
2017-12-10 09:18:54 GMT 51.19177 0.34958 7,075 297 152 -448
2017-12-10 09:18:51 GMT 51.19070 0.35297 7,100 297 155 -448
2017-12-10 09:18:49 GMT 51.19011 0.35490 7,100 297 156 -448
2017-12-10 09:18:47 GMT 51.18963 0.35644 7,125 297 156 -448
2017-12-10 09:18:43 GMT 51.18851 0.36002 7,150 298 158 -512
2017-12-10 09:18:41 GMT 51.18778 0.36218 7,150 299 160 -512
2017-12-10 09:18:39 GMT 51.18702 0.36438 7,175 300 162 -512
2017-12-10 09:18:37 GMT 51.18590 0.36752 7,200 302 165 -512
2017-12-10 09:18:32 GMT 51.18437 0.37148 7,250 305 168 -512
2017-12-10 09:18:30 GMT 51.18361 0.37324 7,250 306 170 -512
2017-12-10 09:18:28 GMT 51.18256 0.37569 7,275 307 171 -512
2017-12-10 09:18:25 GMT 51.18107 0.37888 7,300 306 172 -448
2017-12-10 09:18:23 GMT 51.17967 0.38200 7,325 303 173 -448
2017-12-10 09:18:21 GMT 51.17930 0.38292 7,325 303 173 -448
2017-12-10 09:18:19 GMT 51.17802 0.38616 7,350 296 173 -448
2017-12-10 09:18:17 GMT 51.17748 0.38779 7,350 296 173 -448
2017-12-10 09:18:14 GMT 51.17664 0.39055 7,375 289 173 -512
2017-12-10 09:18:12 GMT 51.17606 0.39313 7,400 284 173 -512
2017-12-10 09:18:09 GMT 51.17553 0.39742 7,425 275 174 -448
2017-12-10 09:18:07 GMT 51.17537 0.39981 7,425 270 176 -448
2017-12-10 09:18:04 GMT 51.17546 0.40345 7,450 256 180 -512
2017-12-10 09:18:01 GMT 51.17604 0.40802 7,475 253 180 -512
2017-12-10 09:17:59 GMT 51.17623 0.40916 7,500 246 184 -448
2017-12-10 09:17:57 GMT 51.17744 0.41374 7,525 236 191 -512
2017-12-10 09:17:55 GMT 51.17837 0.41626 7,550 236 191 -512
2017-12-10 09:17:51 GMT 51.17995 0.41971 7,550 228 196 -512
2017-12-10 09:17:48 GMT 51.18164 0.42260 7,575 224 200 -448
2017-12-10 09:17:46 GMT 51.18269 0.42409 7,600 219 204 -512
2017-12-10 09:17:43 GMT 51.18485 0.42661 7,625 212 210 -512
2017-12-10 09:17:41 GMT 51.18732 0.42891 7,650 203 219 -512
2017-12-10 09:17:39 GMT 51.19010 0.43083 7,675 197 225 -576
2017-12-10 09:17:37 GMT 51.19093 0.43129 7,675 197 225 -576
2017-12-10 09:17:35 GMT 51.19284 0.43220 7,700 193 230 -704
2017-12-10 09:17:35 GMT 51.19284 0.43220 7,700 193 230 -704
2017-12-10 09:17:31 GMT 51.19783 0.43358 7,775 183 240 -1152
2017-12-10 09:17:27 GMT 51.20160 0.43374 7,825 174 247 -1152
2017-12-10 09:17:25 GMT 51.20403 0.43352 7,875 172 249 -1088
2017-12-10 09:17:23 GMT 51.20618 0.43314 7,900 171 250 -1024
2017-12-10 09:17:21 GMT 51.20793 0.43274 7,950 171 250 -1024
2017-12-10 09:17:19 GMT 51.20984 0.43233 7,975 171 250 -960
2017-12-10 09:17:17 GMT 51.21355 0.43144 8,025 171 250 -960
2017-12-10 09:17:15 GMT 51.21528 0.43098 8,050 171 250 -960
2017-12-10 09:17:13 GMT 51.21845 0.43022 8,100 171 250 -960
2017-12-10 09:17:10 GMT 51.22208 0.42938 8,150 171 249 -960
2017-12-10 09:17:08 GMT 51.22427 0.42885 8,175 171 248 -960
2017-12-10 09:17:06 GMT 51.22549 0.42854 8,200 171 248 -960
2017-12-10 09:17:04 GMT 51.22719 0.42817 8,225 171 248 -896
2017-12-10 09:17:01 GMT 51.23106 0.42725 8,275 171 247 -896
2017-12-10 09:16:59 GMT 51.23323 0.42676 8,300 171 247 -896
2017-12-10 09:16:57 GMT 51.23657 0.42602 8,325 171 247 -896
2017-12-10 09:16:55 GMT 51.23930 0.42534 8,400 172 247 -896
2017-12-10 09:16:51 GMT 51.24316 0.42453 8,425 172 247 -896
2017-12-10 09:16:49 GMT 51.24536 0.42409 8,475 172 247 -896
2017-12-10 09:16:47 GMT 51.24728 0.42364 8,500 172 248 -960
2017-12-10 09:16:45 GMT 51.24994 0.42312 8,525 172 248 -960
2017-12-10 09:16:42 GMT 51.25383 0.42229 8,575 172 249 -960
2017-12-10 09:16:40 GMT 51.25532 0.42198 8,600 172 249 -960
2017-12-10 09:16:38 GMT 51.25722 0.42164 8,625 172 249 -960
2017-12-10 09:16:36 GMT 51.25895 0.42130 8,650 173 249 -1088
2017-12-10 09:16:34 GMT 51.26165 0.42076 8,700 173 250 -1088
2017-12-10 09:16:32 GMT 51.26384 0.42030 8,725 173 250 -1088
2017-12-10 09:16:29 GMT 51.26683 0.41978 8,775 173 251 -1024
2017-12-10 09:16:27 GMT 51.27073 0.41901 8,850 173 251 -960
2017-12-10 09:16:25 GMT 51.27296 0.41859 8,875 173 251 -832
2017-12-10 09:16:23 GMT 51.27466 0.41830 8,900 173 251 -704
2017-12-10 09:16:21 GMT 51.27713 0.41785 8,925 173 251 -640
2017-12-10 09:16:19 GMT 51.27859 0.41756 8,950 173 251 -448
2017-12-10 09:16:17 GMT 51.28162 0.41704 8,975 173 252 -320
2017-12-10 09:16:15 GMT 51.28450 0.41644 8,975 173 252 -192
2017-12-10 09:16:13 GMT 51.28674 0.41607 9,000 173 252 -64
2017-12-10 09:16:11 GMT 51.28949 0.41555 9,000 173 252 0
2017-12-10 09:16:08 GMT 51.29192 0.41510 9,000 173 252 0
2017-12-10 09:16:06 GMT 51.29442 0.41458 9,000 173 252 0
2017-12-10 09:16:04 GMT 51.29638 0.41420 9,000 173 252 0
2017-12-10 09:16:02 GMT 51.29912 0.41374 9,000 173 252 0
2017-12-10 09:16:00 GMT 51.30136 0.41328 9,000 173 252 0
2017-12-10 09:15:58 GMT 51.30383 0.41283 9,000 173 252 64
2017-12-10 09:15:56 GMT 51.30750 0.41214 9,000 173 252 64
2017-12-10 09:15:54 GMT 51.30778 0.41206 9,000 173 252 64
2017-12-10 09:15:52 GMT 51.30949 0.41176 9,000 173 251 64
2017-12-10 09:15:50 GMT 51.31295 0.41115 9,000 173 251 64
2017-12-10 09:15:48 GMT 51.31616 0.41054 9,000 173 251 0
2017-12-10 09:15:46 GMT 51.31863 0.41008 9,000 173 251 0
2017-12-10 09:15:44 GMT 51.31886 0.41000 9,000 173 251 0
2017-12-10 09:15:42 GMT 51.32281 0.40924 9,000 173 250 0
2017-12-10 09:15:40 GMT 51.32403 0.40901 9,000 173 250 0
2017-12-10 09:15:38 GMT 51.32626 0.40863 9,000 173 250 0
2017-12-10 09:15:36 GMT 51.32822 0.40825 9,000 173 250 0
2017-12-10 09:15:34 GMT 51.33041 0.40787 9,000 173 250 0
2017-12-10 09:15:32 GMT 51.33339 0.40731 9,000 173 251 0
2017-12-10 09:15:30 GMT 51.33632 0.40679 9,000 173 251 0
2017-12-10 09:15:27 GMT 51.33902 0.40627 9,000 173 251 0
2017-12-10 09:15:25 GMT 51.34251 0.40566 9,000 173 251 0
2017-12-10 09:15:22 GMT 51.34419 0.40538 9,000 173 251 0
2017-12-10 09:15:20 GMT 51.34813 0.40464 9,000 173 251 0
2017-12-10 09:15:17 GMT 51.35084 0.40420 9,000 173 251 0
2017-12-10 09:15:15 GMT 51.35284 0.40382 9,000 173 250 64
2017-12-10 09:15:13 GMT 51.35578 0.40329 9,000 173 250 64
2017-12-10 09:15:11 GMT 51.35802 0.40286 9,000 173 250 0
2017-12-10 09:15:09 GMT 51.36067 0.40241 9,000 173 251 0
2017-12-10 09:15:07 GMT 51.36264 0.40204 9,000 173 251 -64
2017-12-10 09:15:05 GMT 51.36488 0.40160 9,000 173 251 0
2017-12-10 09:15:03 GMT 51.36686 0.40123 9,000 173 251 0
2017-12-10 09:15:01 GMT 51.37053 0.40062 9,000 173 251 0
2017-12-10 09:14:59 GMT 51.37151 0.40039 9,000 173 251 0
2017-12-10 09:14:57 GMT 51.37398 0.40001 9,000 173 251 0
2017-12-10 09:14:55 GMT 51.37617 0.39963 9,000 173 252 0
2017-12-10 09:14:53 GMT 51.37770 0.39929 9,000 173 252 0
2017-12-10 09:14:51 GMT 51.38092 0.39879 9,000 173 252 64
2017-12-10 09:14:49 GMT 51.38434 0.39818 9,000 173 253 64
2017-12-10 09:14:47 GMT 51.38562 0.39796 9,000 173 253 64
2017-12-10 09:14:45 GMT 51.38785 0.39757 9,000 173 253 64
2017-12-10 09:14:42 GMT 51.39079 0.39699 9,000 173 253 64
2017-12-10 09:14:40 GMT 51.39330 0.39658 9,000 173 254 64
2017-12-10 09:14:38 GMT 51.39606 0.39610 9,000 173 254 0
2017-12-10 09:14:36 GMT 51.39851 0.39566 9,000 173 254 0
2017-12-10 09:14:34 GMT 51.40028 0.39536 9,000 173 254 0
2017-12-10 09:14:32 GMT 51.40275 0.39490 9,000 173 254 0
2017-12-10 09:14:30 GMT 51.40521 0.39447 9,000 173 253 0
2017-12-10 09:14:28 GMT 51.40626 0.39432 9,000 173 253 0
2017-12-10 09:14:26 GMT 51.41098 0.39350 9,000 173 253 64
2017-12-10 09:14:24 GMT 51.41322 0.39306 9,000 173 253 0
2017-12-10 09:14:22 GMT 51.41569 0.39268 9,000 173 253 0
2017-12-10 09:14:19 GMT 51.41844 0.39217 9,000 173 252 0
2017-12-10 09:14:19 GMT 51.41844 0.39217 9,000 173 252 0
2017-12-10 09:14:16 GMT 51.42267 0.39146 9,000 173 252 0
2017-12-10 09:14:14 GMT 51.42490 0.39105 9,000 173 252 -64
2017-12-10 09:14:11 GMT 51.42733 0.39062 9,000 173 252 -64
2017-12-10 09:14:09 GMT 51.43131 0.38994 9,000 173 251 -64
2017-12-10 09:14:05 GMT 51.43355 0.38957 9,000 173 251 0
2017-12-10 09:14:03 GMT 51.43602 0.38912 9,000 173 250 0
2017-12-10 09:14:01 GMT 51.44014 0.38838 9,000 173 249 0
2017-12-10 09:13:59 GMT 51.44138 0.38816 9,000 172 249 0
2017-12-10 09:13:57 GMT 51.44358 0.38773 9,000 172 249 0
2017-12-10 09:13:55 GMT 51.44674 0.38712 9,000 171 249 128
2017-12-10 09:13:52 GMT 51.44920 0.38660 9,000 170 250 64
2017-12-10 09:13:50 GMT 51.45113 0.38608 9,000 170 250 64
2017-12-10 09:13:48 GMT 51.45405 0.38528 9,000 166 252 64
2017-12-10 09:13:44 GMT 51.45840 0.38378 9,000 162 255 64
2017-12-10 09:13:42 GMT 51.46202 0.38192 9,000 157 258 -64
2017-12-10 09:13:40 GMT 51.46345 0.38101 9,000 154 260 -64
2017-12-10 09:13:38 GMT 51.46509 0.37984 9,000 153 261 -64
2017-12-10 09:13:38 GMT 51.46509 0.37984 9,000 153 261 -64
2017-12-10 09:13:36 GMT 51.46806 0.37747 9,000 151 261 -128
2017-12-10 09:13:34 GMT 51.46964 0.37598 9,000 149 263 0
2017-12-10 09:13:32 GMT 51.47169 0.37415 9,000 149 263 0
2017-12-10 09:13:30 GMT 51.47369 0.37224 9,000 149 262 -64
2017-12-10 09:13:28 GMT 51.47571 0.37034 9,000 149 261 0
2017-12-10 09:13:26 GMT 51.47793 0.36820 9,000 149 261 -64
2017-12-10 09:13:24 GMT 51.48035 0.36591 9,000 149 261 -128
2017-12-10 09:13:22 GMT 51.48212 0.36415 9,000 148 261 0
2017-12-10 09:13:20 GMT 51.48477 0.36166 9,000 148 261 0
2017-12-10 09:13:18 GMT 51.48631 0.36018 9,000 148 262 64
2017-12-10 09:13:16 GMT 51.48766 0.35891 9,000 148 262 64
2017-12-10 09:13:14 GMT 51.49159 0.35505 9,000 148 262 128
2017-12-10 09:13:12 GMT 51.49301 0.35372 9,000 148 261 -192
2017-12-10 09:13:10 GMT 51.49539 0.35133 9,000 148 262 0
2017-12-10 09:13:08 GMT 51.49692 0.34981 9,000 148 263 -64
2017-12-10 09:13:05 GMT 51.49958 0.34721 9,000 148 264 192
2017-12-10 09:13:02 GMT 51.50294 0.34399 9,000 148 265 0
2017-12-10 09:13:00 GMT 51.50606 0.34095 9,000 148 265 64
2017-12-10 09:13:00 GMT 51.50540 0.34157 9,000 148 265 64
2017-12-10 09:12:58 GMT 51.50786 0.33920 9,000 148 265 64
2017-12-10 09:12:56 GMT 51.50853 0.33850 9,000 148 266 0
2017-12-10 09:12:54 GMT 51.51163 0.33546 9,000 148 266 0
2017-12-10 09:12:52 GMT 51.51343 0.33375 9,000 148 265 0
2017-12-10 09:12:49 GMT 51.51634 0.33096 9,000 148 265 0
2017-12-10 09:12:47 GMT 51.51906 0.32833 9,000 149 266 0
2017-12-10 09:12:45 GMT 51.52039 0.32707 9,000 149 266 -64
2017-12-10 09:12:43 GMT 51.52220 0.32532 9,000 149 266 0
2017-12-10 09:12:41 GMT 51.52532 0.32234 9,000 149 266 0
2017-12-10 09:12:39 GMT 51.52765 0.32013 9,000 149 267 0
2017-12-10 09:12:37 GMT 51.52968 0.31823 9,000 149 266 64
2017-12-10 09:12:35 GMT 51.53105 0.31692 9,000 149 266 0
2017-12-10 09:12:33 GMT 51.53513 0.31311 9,000 149 267 0
2017-12-10 09:12:31 GMT 51.53513 0.31311 9,000 149 267 0
2017-12-10 09:12:29 GMT 51.53831 0.31006 9,000 149 267 64
2017-12-10 09:12:27 GMT 51.53989 0.30858 9,000 149 267 0
2017-12-10 09:12:25 GMT 51.54190 0.30665 9,000 149 268 64
2017-12-10 09:12:22 GMT 51.54464 0.30411 9,000 149 268 64
2017-12-10 09:12:20 GMT 51.54715 0.30167 9,000 149 268 0
2017-12-10 09:12:18 GMT 51.54943 0.29953 9,000 149 269 0
2017-12-10 09:12:16 GMT 51.55195 0.29716 9,000 149 269 0
2017-12-10 09:12:14 GMT 51.55302 0.29611 9,000 149 269 0
2017-12-10 09:12:12 GMT 51.55508 0.29411 9,000 149 269 0
2017-12-10 09:12:10 GMT 51.55935 0.28999 9,000 149 269 0
2017-12-10 09:12:08 GMT 51.55963 0.28976 9,000 149 268 0
2017-12-10 09:12:06 GMT 51.56287 0.28668 9,000 149 268 0
2017-12-10 09:12:04 GMT 51.56442 0.28512 9,000 149 268 0
2017-12-10 09:12:02 GMT 51.56694 0.28275 9,000 149 268 0
2017-12-10 09:12:00 GMT 51.56908 0.28061 9,000 149 267 0
2017-12-10 09:11:58 GMT 51.57104 0.27878 9,000 149 267 64
2017-12-10 09:11:56 GMT 51.57303 0.27688 9,000 149 266 0
2017-12-10 09:11:55 GMT 51.57303 0.27688 9,000 149 266 0
2017-12-10 09:11:55 GMT 51.57373 0.27618 9,000 149 266 0
2017-12-10 09:11:53 GMT 51.57655 0.27347 9,000 149 266 0
2017-12-10 09:11:51 GMT 51.57867 0.27145 9,000 149 266 0
2017-12-10 09:11:49 GMT 51.58118 0.26909 9,000 149 265 0
2017-12-10 09:11:47 GMT 51.58186 0.26850 9,000 149 265 0
2017-12-10 09:11:45 GMT 51.58543 0.26516 9,000 149 264 0
2017-12-10 09:11:43 GMT 51.58770 0.26299 9,000 150 264 -64
2017-12-10 09:11:41 GMT 51.58886 0.26192 9,000 150 263 -64
2017-12-10 09:11:39 GMT 51.59138 0.25963 9,000 150 262 -64
2017-12-10 09:11:37 GMT 51.59294 0.25825 9,000 150 262 -64
2017-12-10 09:11:35 GMT 51.59541 0.25595 9,000 150 261 0
2017-12-10 09:11:33 GMT 51.59701 0.25452 9,000 150 261 0
2017-12-10 09:11:31 GMT 51.59990 0.25192 9,000 151 260 0
2017-12-10 09:11:29 GMT 51.60104 0.25090 9,000 151 260 0
2017-12-10 09:11:27 GMT 51.60397 0.24838 9,000 151 260 0
2017-12-10 09:11:23 GMT 51.60804 0.24483 9,000 151 260 0
2017-12-10 09:11:21 GMT 51.61009 0.24300 9,000 151 261 0
2017-12-10 09:11:19 GMT 51.61167 0.24162 9,000 151 261 64
2017-12-10 09:11:17 GMT 51.61396 0.23972 9,000 151 261 0
2017-12-10 09:11:15 GMT 51.61620 0.23769 9,000 151 262 64
2017-12-10 09:11:13 GMT 51.61977 0.23465 9,000 151 262 64
2017-12-10 09:11:11 GMT 51.62164 0.23300 9,000 151 262 64
2017-12-10 09:11:09 GMT 51.62302 0.23183 9,000 151 263 0
2017-12-10 09:11:07 GMT 51.62508 0.22997 9,000 151 263 0
2017-12-10 09:11:04 GMT 51.62823 0.22722 9,000 151 263 0
2017-12-10 09:11:02 GMT 51.63011 0.22560 9,000 151 263 0
2017-12-10 09:11:00 GMT 51.63216 0.22377 9,000 150 263 0
2017-12-10 09:10:58 GMT 51.63460 0.22158 9,000 150 264 64
2017-12-10 09:10:56 GMT 51.63705 0.21934 9,000 150 263 64
2017-12-10 09:10:54 GMT 51.63867 0.21782 9,000 149 263 0
2017-12-10 09:10:52 GMT 51.64137 0.21535 9,000 148 263 0
2017-12-10 09:10:50 GMT 51.64384 0.21290 9,000 144 265 0
2017-12-10 09:10:47 GMT 51.64581 0.21089 9,000 144 265 64
2017-12-10 09:10:45 GMT 51.64796 0.20859 9,000 144 265 0
2017-12-10 09:10:43 GMT 51.64989 0.20636 9,000 141 265 0
2017-12-10 09:10:41 GMT 51.65176 0.20409 9,000 140 266 0
2017-12-10 09:10:39 GMT 51.65357 0.20164 9,000 138 266 -64
2017-12-10 09:10:37 GMT 51.65539 0.19913 9,000 136 266 -64
2017-12-10 09:10:35 GMT 51.65753 0.19597 9,000 136 266 -64
2017-12-10 09:10:33 GMT 51.65978 0.19263 9,000 136 266 0
2017-12-10 09:10:31 GMT 51.66116 0.19051 9,000 136 265 -64
2017-12-10 09:10:29 GMT 51.66307 0.18761 9,000 136 264 -64
2017-12-10 09:10:26 GMT 51.66554 0.18387 9,000 136 263 0
2017-12-10 09:10:24 GMT 51.66760 0.18083 9,000 136 263 64
2017-12-10 09:10:22 GMT 51.66898 0.17875 9,000 136 263 64
2017-12-10 09:10:20 GMT 51.67067 0.17615 9,000 135 262 0
2017-12-10 09:10:18 GMT 51.67200 0.17407 9,000 135 261 64
2017-12-10 09:10:16 GMT 51.67474 0.16969 9,000 134 261 0
2017-12-10 09:10:14 GMT 51.67601 0.16769 9,000 132 261 64
2017-12-10 09:10:12 GMT 51.67759 0.16495 9,000 132 261 64
2017-12-10 09:10:10 GMT 51.67866 0.16312 9,000 131 262 64
2017-12-10 09:10:08 GMT 51.68138 0.15811 9,000 129 262 0
2017-12-10 09:10:06 GMT 51.68248 0.15587 9,000 128 263 0
2017-12-10 09:10:04 GMT 51.68430 0.15228 9,000 126 263 -64
2017-12-10 09:10:02 GMT 51.68523 0.15024 9,000 126 263 -64
2017-12-10 09:10:00 GMT 51.68646 0.14757 9,000 126 263 0
2017-12-10 09:09:58 GMT 51.68895 0.14221 9,000 126 263 -64
2017-12-10 09:09:56 GMT 51.68974 0.14053 9,000 126 262 0
2017-12-10 09:09:54 GMT 51.69067 0.13855 9,000 126 262 -64
2017-12-10 09:09:52 GMT 51.69250 0.13451 9,000 126 261 -64
2017-12-10 09:09:50 GMT 51.69356 0.13222 9,000 126 260 0
2017-12-10 09:09:48 GMT 51.69528 0.12856 9,000 127 259 0
2017-12-10 09:09:46 GMT 51.69713 0.12464 9,000 127 258 -64
2017-12-10 09:09:44 GMT 51.69877 0.12108 9,000 127 257 0
2017-12-10 09:09:42 GMT 51.70017 0.11810 9,000 127 256 0
2017-12-10 09:09:40 GMT 51.70129 0.11581 9,000 127 256 0
2017-12-10 09:09:38 GMT 51.70310 0.11192 9,000 127 256 0
2017-12-10 09:09:36 GMT 51.70441 0.10912 9,000 127 254 -64
2017-12-10 09:09:34 GMT 51.70523 0.10749 9,000 127 254 -64
2017-12-10 09:09:32 GMT 51.70720 0.10326 9,000 127 255 0
2017-12-10 09:09:30 GMT 51.70857 0.10036 9,000 127 255 0
2017-12-10 09:09:28 GMT 51.71054 0.09613 9,000 127 255 0
2017-12-10 09:09:26 GMT 51.71218 0.09254 9,000 126 256 0
2017-12-10 09:09:24 GMT 51.71310 0.09064 9,000 126 256 0
2017-12-10 09:09:22 GMT 51.71418 0.08835 9,000 126 257 -128
2017-12-10 09:09:20 GMT 51.71595 0.08453 9,000 126 257 -64
2017-12-10 09:09:18 GMT 51.71749 0.08118 9,000 126 258 64
2017-12-10 09:09:16 GMT 51.71887 0.07824 9,000 126 258 64
2017-12-10 09:09:14 GMT 51.71977 0.07622 9,000 126 258 64
2017-12-10 09:09:12 GMT 51.72135 0.07294 9,000 126 258 0
2017-12-10 09:09:10 GMT 51.72270 0.06996 9,000 126 258 0
2017-12-10 09:09:08 GMT 51.72395 0.06733 9,000 126 259 0
2017-12-10 09:09:06 GMT 51.72526 0.06439 9,000 126 259 0
2017-12-10 09:09:04 GMT 51.72759 0.05943 9,000 126 259 0
2017-12-10 09:09:01 GMT 51.72894 0.05646 9,000 126 259 0
2017-12-10 09:08:59 GMT 51.73048 0.05310 9,000 126 260 64
2017-12-10 09:08:57 GMT 51.73260 0.04855 9,000 126 260 64
2017-12-10 09:08:55 GMT 51.73387 0.04585 9,000 126 260 0
2017-12-10 09:08:53 GMT 51.73544 0.04254 9,000 126 260 0
2017-12-10 09:08:51 GMT 51.73604 0.04120 9,000 126 260 0
2017-12-10 09:08:49 GMT 51.73769 0.03761 9,000 126 260 0
2017-12-10 09:08:47 GMT 51.73988 0.03288 9,000 126 260 0
2017-12-10 09:08:45 GMT 51.74076 0.03090 9,000 127 259 0
2017-12-10 09:08:43 GMT 51.74185 0.02865 9,000 126 260 0
2017-12-10 09:08:41 GMT 51.74342 0.02525 9,000 126 260 0
2017-12-10 09:08:39 GMT 51.74537 0.02098 9,000 127 259 0
2017-12-10 09:08:37 GMT 51.74647 0.01871 9,000 127 259 0
2017-12-10 09:08:35 GMT 51.74803 0.01541 9,000 127 259 0
2017-12-10 09:08:33 GMT 51.74876 0.01381 9,000 127 259 0
2017-12-10 09:08:31 GMT 51.75046 0.01017 9,000 127 259 0
2017-12-10 09:08:29 GMT 51.75198 0.00687 9,000 127 258 0
2017-12-10 09:08:27 GMT 51.75352 0.00359 9,000 127 258 0
2017-12-10 09:08:25 GMT 51.75459 0.00130 9,000 127 257 0
2017-12-10 09:08:25 GMT 51.75520 0.00000 9,000 127 257 0
2017-12-10 09:08:23 GMT 51.75705 -0.00386 9,000 127 257 0
2017-12-10 09:08:21 GMT 51.75813 -0.00618 9,000 127 256 0
2017-12-10 09:08:19 GMT 51.75920 -0.00847 9,000 127 256 0
2017-12-10 09:08:17 GMT 51.76149 -0.01329 9,000 127 256 0
2017-12-10 09:08:15 GMT 51.76259 -0.01559 9,000 127 256 0
2017-12-10 09:08:13 GMT 51.76348 -0.01747 9,000 127 256 0
2017-12-10 09:08:13 GMT 51.76305 -0.01663 9,000 127 256 0
2017-12-10 09:08:11 GMT 51.76538 -0.02145 9,000 127 256 0
2017-12-10 09:08:09 GMT 51.76669 -0.02426 9,000 127 256 0
2017-12-10 09:08:07 GMT 51.76749 -0.02591 9,000 127 255 0
2017-12-10 09:08:05 GMT 51.76963 -0.03044 9,000 127 255 0
2017-12-10 09:08:03 GMT 51.77055 -0.03236 9,000 127 255 0
2017-12-10 09:08:01 GMT 51.77223 -0.03586 9,000 127 255 0
2017-12-10 09:07:59 GMT 51.77408 -0.03971 9,000 127 255 0
2017-12-10 09:07:57 GMT 51.77498 -0.04166 9,000 127 255 0
2017-12-10 09:07:55 GMT 51.77714 -0.04625 9,000 127 256 0
2017-12-10 09:07:53 GMT 51.77791 -0.04784 9,000 127 256 0
2017-12-10 09:07:51 GMT 51.77943 -0.05107 9,000 127 256 0
2017-12-10 09:07:49 GMT 51.78095 -0.05426 9,000 127 256 0
2017-12-10 09:07:47 GMT 51.78232 -0.05716 9,000 127 255 0
2017-12-10 09:07:45 GMT 51.78448 -0.06165 9,000 127 255 0
2017-12-10 09:07:43 GMT 51.78573 -0.06424 9,000 127 255 0
2017-12-10 09:07:40 GMT 51.78786 -0.06874 9,000 127 256 0
2017-12-10 09:07:38 GMT 51.78848 -0.07004 9,000 127 256 0
2017-12-10 09:07:38 GMT 51.78848 -0.07004 9,000 127 255 0
2017-12-10 09:07:36 GMT 51.79034 -0.07393 9,000 127 255 0
2017-12-10 09:07:34 GMT 51.79141 -0.07614 9,000 127 255 0
2017-12-10 09:07:32 GMT 51.79290 -0.07942 9,000 126 255 0
2017-12-10 09:07:30 GMT 51.79458 -0.08301 9,000 126 256 0
2017-12-10 09:07:28 GMT 51.79635 -0.08682 9,000 126 256 0
2017-12-10 09:07:26 GMT 51.79742 -0.08919 9,000 124 257 64
2017-12-10 09:07:24 GMT 51.79849 -0.09155 9,000 124 257 64
2017-12-10 09:07:22 GMT 51.80077 -0.09695 9,000 122 258 0
2017-12-10 09:07:20 GMT 51.80147 -0.09872 9,000 121 258 0
2017-12-10 09:07:17 GMT 51.80328 -0.10355 9,000 118 260 0
2017-12-10 09:07:14 GMT 51.80477 -0.10788 9,000 116 261 0
2017-12-10 09:07:12 GMT 51.80631 -0.11299 9,000 114 261 -64
2017-12-10 09:07:10 GMT 51.80777 -0.11803 9,000 113 261 0
2017-12-10 09:07:08 GMT 51.80808 -0.11917 9,000 113 261 0
2017-12-10 09:07:06 GMT 51.80933 -0.12374 9,000 113 261 0
2017-12-10 09:07:04 GMT 51.81003 -0.12650 9,000 113 261 0
2017-12-10 09:07:02 GMT 51.81111 -0.13028 9,000 113 261 0
2017-12-10 09:06:59 GMT 51.81255 -0.13557 9,000 113 261 0
2017-12-10 09:06:57 GMT 51.81381 -0.14015 9,000 113 261 0
2017-12-10 09:06:56 GMT 51.81399 -0.14084 9,000 113 261 0
2017-12-10 09:06:54 GMT 51.81496 -0.14438 9,000 113 261 0
2017-12-10 09:06:52 GMT 51.81601 -0.14817 9,000 113 261 0
2017-12-10 09:06:50 GMT 51.81683 -0.15114 9,000 113 261 0
2017-12-10 09:06:48 GMT 51.81790 -0.15503 9,000 114 260 0
2017-12-10 09:06:46 GMT 51.81865 -0.15762 9,000 114 260 0
2017-12-10 09:06:44 GMT 51.82000 -0.16258 9,000 114 260 0
2017-12-10 09:06:42 GMT 51.82114 -0.16672 9,000 114 260 0
2017-12-10 09:06:40 GMT 51.82210 -0.17014 9,000 114 260 0
2017-12-10 09:06:38 GMT 51.82283 -0.17281 9,000 114 260 0
2017-12-10 09:06:36 GMT 51.82343 -0.17504 9,000 114 260 0
2017-12-10 09:06:34 GMT 51.82503 -0.18068 9,000 114 260 0
2017-12-10 09:06:32 GMT 51.82577 -0.18341 9,000 114 260 0
2017-12-10 09:06:30 GMT 51.82704 -0.18796 9,000 114 260 0
2017-12-10 09:06:28 GMT 51.82763 -0.19020 9,000 114 260 0
2017-12-10 09:06:26 GMT 51.82870 -0.19402 9,000 114 260 64
2017-12-10 09:06:24 GMT 51.82974 -0.19775 9,000 114 260 0
2017-12-10 09:06:22 GMT 51.83070 -0.20124 9,000 114 260 64
2017-12-10 09:06:20 GMT 51.83163 -0.20462 9,000 114 260 0
2017-12-10 09:06:18 GMT 51.83290 -0.20911 9,000 114 260 64
2017-12-10 09:06:16 GMT 51.83364 -0.21187 9,000 114 260 64
2017-12-10 09:06:14 GMT 51.83457 -0.21530 9,000 114 260 0
2017-12-10 09:06:12 GMT 51.83554 -0.21866 9,000 114 260 0
2017-12-10 09:06:10 GMT 51.83680 -0.22316 9,000 114 260 0
2017-12-10 09:06:08 GMT 51.83803 -0.22774 9,000 114 259 0
2017-12-10 09:06:06 GMT 51.83834 -0.22888 9,000 114 259 -64
2017-12-10 09:06:04 GMT 51.83981 -0.23413 9,000 114 258 -64
2017-12-10 09:06:02 GMT 51.84104 -0.23865 9,000 113 258 -64
2017-12-10 09:06:02 GMT 51.84073 -0.23747 9,000 113 258 -64
2017-12-10 09:06:00 GMT 51.84169 -0.24096 9,000 113 258 -64
2017-12-10 09:05:58 GMT 51.84251 -0.24393 9,000 114 257 -64
2017-12-10 09:05:58 GMT 51.84274 -0.24467 9,000 113 253 -64
2017-12-10 09:05:56 GMT 51.84323 -0.24651 9,000 113 256 -64
2017-12-10 09:05:54 GMT 51.84416 -0.24986 9,000 114 255 -64
2017-12-10 09:05:52 GMT 51.84527 -0.25398 9,000 113 253 0
2017-12-10 09:05:50 GMT 51.84622 -0.25729 9,000 113 251 0
2017-12-10 09:05:48 GMT 51.84691 -0.25981 9,025 114 250 0
2017-12-10 09:05:48 GMT 51.84718 -0.26093 9,025 113 249 0
2017-12-10 09:05:46 GMT 51.84801 -0.26390 9,025 113 248 0
2017-12-10 09:05:44 GMT 51.84901 -0.26746 9,000 113 247 0
2017-12-10 09:05:42 GMT 51.85048 -0.27288 9,000 113 243 0
2017-12-10 09:05:40 GMT 51.85128 -0.27573 9,000 114 245 0
2017-12-10 09:05:38 GMT 51.85226 -0.27924 9,000 113 243 0
2017-12-10 09:05:36 GMT 51.85281 -0.28141 9,000 113 243 0
2017-12-10 09:05:34 GMT 51.85370 -0.28458 9,000 114 243 0
2017-12-10 09:05:32 GMT 51.85451 -0.28743 9,000 114 243 0
2017-12-10 09:05:30 GMT 51.85565 -0.29167 9,000 113 243 0
2017-12-10 09:05:28 GMT 51.85645 -0.29457 9,000 113 243 0
2017-12-10 09:05:26 GMT 51.85762 -0.29878 9,000 113 243 0
2017-12-10 09:05:23 GMT 51.85859 -0.30235 9,000 113 243 0
2017-12-10 09:05:21 GMT 51.85957 -0.30586 9,000 114 244 0
2017-12-10 09:05:19 GMT 51.86045 -0.30907 9,000 114 245 0
2017-12-10 09:05:17 GMT 51.86133 -0.31227 9,000 114 245 0
2017-12-10 09:05:15 GMT 51.86236 -0.31586 9,000 113 246 0
2017-12-10 09:05:15 GMT 51.86206 -0.31482 9,000 114 245 0
2017-12-10 09:05:15 GMT 51.86206 -0.31482 9,000 113 246 0
2017-12-10 09:05:13 GMT 51.86353 -0.32016 9,000 113 246 0
2017-12-10 09:05:11 GMT 51.86421 -0.32261 9,000 113 246 0
2017-12-10 09:05:09 GMT 51.86536 -0.32692 9,000 113 247 0
2017-12-10 09:05:07 GMT 51.86599 -0.32906 9,000 113 247 0
2017-12-10 09:05:05 GMT 51.86771 -0.33539 9,000 113 247 0
2017-12-10 09:05:03 GMT 51.86804 -0.33661 9,000 113 247 0
2017-12-10 09:05:01 GMT 51.86915 -0.34065 9,000 113 248 0
2017-12-10 09:04:59 GMT 51.86961 -0.34236 9,000 113 248 0
2017-12-10 09:04:57 GMT 51.87060 -0.34599 9,000 113 248 0
2017-12-10 09:04:55 GMT 51.87181 -0.35038 9,000 113 248 64
2017-12-10 09:04:53 GMT 51.87259 -0.35320 9,000 113 248 0
2017-12-10 09:04:51 GMT 51.87369 -0.35720 9,000 113 247 0
2017-12-10 09:04:49 GMT 51.87493 -0.36179 9,000 114 247 0
2017-12-10 09:04:47 GMT 51.87575 -0.36478 9,000 114 247 0
2017-12-10 09:04:44 GMT 51.87674 -0.36835 9,000 114 247 0
2017-12-10 09:04:42 GMT 51.87763 -0.37155 9,000 114 247 0
2017-12-10 09:04:40 GMT 51.87854 -0.37480 9,000 114 247 0
2017-12-10 09:04:38 GMT 51.87972 -0.37910 9,000 114 247 0
2017-12-10 09:04:36 GMT 51.88042 -0.38170 9,000 113 247 0
2017-12-10 09:04:34 GMT 51.88170 -0.38630 9,000 113 247 0
2017-12-10 09:04:32 GMT 51.88238 -0.38883 9,000 113 247 -64
2017-12-10 09:04:30 GMT 51.88348 -0.39284 9,000 113 247 0
2017-12-10 09:04:28 GMT 51.88408 -0.39499 9,000 113 247 0
2017-12-10 09:04:26 GMT 51.88475 -0.39749 9,000 113 247 0
2017-12-10 09:04:26 GMT 51.88475 -0.39749 9,000 113 247 0
2017-12-10 09:04:24 GMT 51.88614 -0.40249 9,000 113 247 0
2017-12-10 09:04:22 GMT 51.88694 -0.40543 9,000 113 247 0
2017-12-10 09:04:20 GMT 51.88773 -0.40825 9,000 113 247 0
2017-12-10 09:04:20 GMT 51.88782 -0.40863 9,000 113 247 0
2017-12-10 09:04:18 GMT 51.88978 -0.41573 9,000 113 246 0
2017-12-10 09:04:16 GMT 51.88980 -0.41577 9,000 113 246 0
2017-12-10 09:04:14 GMT 51.89066 -0.41901 9,000 113 246 0
2017-12-10 09:04:12 GMT 51.89145 -0.42193 9,000 114 245 0
2017-12-10 09:04:10 GMT 51.89266 -0.42618 9,000 114 245 0
2017-12-10 09:04:08 GMT 51.89355 -0.42938 9,000 114 245 0
2017-12-10 09:04:06 GMT 51.89424 -0.43190 9,000 113 243 0
2017-12-10 09:04:04 GMT 51.89560 -0.43686 9,000 113 243 0
2017-12-10 09:04:02 GMT 51.89612 -0.43869 9,000 114 243 64
2017-12-10 09:04:00 GMT 51.89746 -0.44361 9,000 114 243 64
2017-12-10 09:03:58 GMT 51.89806 -0.44573 9,000 114 242 64
2017-12-10 09:03:56 GMT 51.89914 -0.44966 9,000 114 242 64
2017-12-10 09:03:53 GMT 51.90028 -0.45387 9,000 114 242 64
2017-12-10 09:03:51 GMT 51.90109 -0.45672 9,000 114 241 64
2017-12-10 09:03:49 GMT 51.90216 -0.46051 9,000 114 241 128
2017-12-10 09:03:47 GMT 51.90303 -0.46364 8,975 114 241 128
2017-12-10 09:03:45 GMT 51.90388 -0.46684 8,975 114 241 128
2017-12-10 09:03:43 GMT 51.90449 -0.46890 8,975 114 240 128
2017-12-10 09:03:41 GMT 51.90588 -0.47382 8,975 114 241 192
2017-12-10 09:03:39 GMT 51.90678 -0.47699 8,975 114 241 256
2017-12-10 09:03:37 GMT 51.90788 -0.48080 8,950 115 241 384
2017-12-10 09:03:35 GMT 51.90845 -0.48293 8,950 115 240 576
2017-12-10 09:03:33 GMT 51.90998 -0.48811 8,925 116 241 704
2017-12-10 09:03:31 GMT 51.91082 -0.49085 8,900 117 240 896
2017-12-10 09:03:29 GMT 51.91200 -0.49454 8,900 118 239 1024
2017-12-10 09:03:27 GMT 51.91278 -0.49698 8,850 119 239 1088
2017-12-10 09:03:25 GMT 51.91347 -0.49894 8,825 121 237 1280
2017-12-10 09:03:23 GMT 51.91429 -0.50133 8,800 124 236 1408
2017-12-10 09:03:21 GMT 51.91608 -0.50569 8,725 127 234 1472
2017-12-10 09:03:19 GMT 51.91734 -0.50835 8,675 132 232 1536
2017-12-10 09:03:16 GMT 51.91914 -0.51186 8,625 138 229 1536
2017-12-10 09:03:14 GMT 51.92059 -0.51416 8,575 138 229 1536
2017-12-10 09:03:12 GMT 51.92262 -0.51704 8,500 145 226 1536
2017-12-10 09:03:10 GMT 51.92390 -0.51856 8,475 145 226 1536
2017-12-10 09:03:08 GMT 51.92615 -0.52094 8,400 151 223 1472
2017-12-10 09:03:06 GMT 51.92830 -0.52261 8,325 158 221 1536
2017-12-10 09:03:04 GMT 51.92972 -0.52358 8,300 160 221 1472
2017-12-10 09:03:02 GMT 51.93260 -0.52506 8,225 169 219 1472
2017-12-10 09:03:00 GMT 51.93391 -0.52554 8,200 178 218 1472
2017-12-10 09:02:58 GMT 51.93539 -0.52597 8,150 173 219 1472
2017-12-10 09:02:56 GMT 51.93754 -0.52632 8,100 191 218 1472
2017-12-10 09:02:54 GMT 51.93991 -0.52640 8,050 186 218 1472
2017-12-10 09:02:50 GMT 51.94313 -0.52593 7,950 193 217 1536
2017-12-10 09:02:48 GMT 51.94583 -0.52490 7,900 197 217 1472
2017-12-10 09:02:46 GMT 51.94647 -0.52460 7,875 200 217 1472
2017-12-10 09:02:44 GMT 51.94986 -0.52254 7,775 206 217 1408
2017-12-10 09:02:42 GMT 51.95137 -0.52124 7,750 211 217 1408
2017-12-10 09:02:40 GMT 51.95332 -0.51926 7,700 218 219 1408
2017-12-10 09:02:37 GMT 51.95514 -0.51714 7,625 223 219 1408
2017-12-10 09:02:35 GMT 51.95728 -0.51408 7,575 226 219 1408
2017-12-10 09:02:33 GMT 51.95828 -0.51231 7,550 229 220 1472
2017-12-10 09:02:31 GMT 51.95975 -0.50977 7,475 230 222 1536
2017-12-10 09:02:29 GMT 51.96142 -0.50647 7,425 231 222 1536
2017-12-10 09:02:27 GMT 51.96254 -0.50430 7,375 231 222 1472
2017-12-10 09:02:25 GMT 51.96352 -0.50239 7,325 231 222 1472
2017-12-10 09:02:23 GMT 51.96552 -0.49858 7,275 231 223 1472
2017-12-10 09:02:21 GMT 51.96648 -0.49667 7,225 231 223 1472
2017-12-10 09:02:19 GMT 51.96707 -0.49553 7,200 231 224 1472
2017-12-10 09:02:17 GMT 51.96873 -0.49219 7,150 231 224 1472
2017-12-10 09:02:15 GMT 51.97003 -0.48975 7,100 231 224 1472
2017-12-10 09:02:13 GMT 51.97156 -0.48676 7,025 231 225 1472
2017-12-10 09:02:11 GMT 51.97269 -0.48450 7,000 231 225 1472
2017-12-10 09:02:09 GMT 51.97366 -0.48256 6,950 231 225 1472
2017-12-10 09:02:07 GMT 51.97577 -0.47836 6,875 231 226 1472
2017-12-10 09:02:05 GMT 51.97720 -0.47555 6,825 232 227 1472
2017-12-10 09:02:03 GMT 51.97832 -0.47328 6,775 232 227 1472
2017-12-10 09:02:00 GMT 51.98003 -0.46989 6,725 232 228 1536
2017-12-10 09:01:58 GMT 51.98144 -0.46700 6,675 232 228 1536
2017-12-10 09:01:56 GMT 51.98259 -0.46471 6,625 232 228 1536
2017-12-10 09:01:54 GMT 51.98470 -0.46056 6,525 232 227 1600
2017-12-10 09:01:52 GMT 51.98524 -0.45937 6,500 232 226 1920
2017-12-10 09:01:50 GMT 51.98693 -0.45593 6,450 232 226 1856
2017-12-10 09:01:48 GMT 51.98861 -0.45256 6,375 232 226 1792
2017-12-10 09:01:46 GMT 51.98914 -0.45143 6,325 233 225 1472
2017-12-10 09:01:46 GMT 51.98914 -0.45143 6,325 233 225 1472
2017-12-10 09:01:44 GMT 51.99066 -0.44824 6,250 233 226 1088
2017-12-10 09:01:42 GMT 51.99215 -0.44518 6,200 233 226 1088
2017-12-10 09:01:40 GMT 51.99312 -0.44314 6,175 233 227 832
2017-12-10 09:01:38 GMT 51.99435 -0.44052 6,150 233 228 640
2017-12-10 09:01:36 GMT 51.99587 -0.43739 6,100 233 229 448
2017-12-10 09:01:34 GMT 51.99765 -0.43358 6,100 234 230 64
2017-12-10 09:01:32 GMT 51.99829 -0.43208 6,075 234 230 0
2017-12-10 09:01:29 GMT 51.99983 -0.42886 6,100 234 230 0
2017-12-10 09:01:26 GMT 52.00195 -0.42412 6,100 236 230 64
2017-12-10 09:01:24 GMT 52.00342 -0.42076 6,100 237 229 128
2017-12-10 09:01:21 GMT 52.00470 -0.41779 6,075 238 230 128
2017-12-10 09:01:19 GMT 52.00607 -0.41443 6,075 241 231 128
2017-12-10 09:01:17 GMT 52.00772 -0.40955 6,075 248 234 0
2017-12-10 09:01:15 GMT 52.00839 -0.40720 6,075 248 234 0
2017-12-10 09:01:13 GMT 52.00941 -0.40306 6,075 255 235 -64
2017-12-10 09:01:11 GMT 52.00970 -0.40155 6,075 256 237 -64
2017-12-10 09:01:08 GMT 52.01074 -0.39421 6,075 262 239 0
2017-12-10 09:01:05 GMT 52.01109 -0.39080 6,075 262 240 0
2017-12-10 09:01:03 GMT 52.01138 -0.38773 6,075 262 241 0
2017-12-10 09:01:01 GMT 52.01179 -0.38353 6,075 262 241 0
2017-12-10 09:00:59 GMT 52.01207 -0.38055 6,075 262 241 0
2017-12-10 09:00:57 GMT 52.01254 -0.37518 6,075 262 242 0
2017-12-10 09:00:55 GMT 52.01276 -0.37285 6,075 262 241 0
2017-12-10 09:00:53 GMT 52.01312 -0.36903 6,075 262 241 -64
2017-12-10 09:00:51 GMT 52.01331 -0.36713 6,075 262 241 0
2017-12-10 09:00:49 GMT 52.01379 -0.36216 6,075 262 241 0
2017-12-10 09:00:46 GMT 52.01436 -0.35637 6,075 262 240 0
2017-12-10 09:00:44 GMT 52.01468 -0.35305 6,075 262 240 0
2017-12-10 09:00:42 GMT 52.01495 -0.34996 6,075 261 241 0
2017-12-10 09:00:40 GMT 52.01556 -0.34395 6,075 261 240 0
2017-12-10 09:00:38 GMT 52.01570 -0.34230 6,075 261 240 0
2017-12-10 09:00:36 GMT 52.01596 -0.33974 6,075 261 240 0
2017-12-10 09:00:34 GMT 52.01637 -0.33554 6,075 261 240 0
2017-12-10 09:00:32 GMT 52.01688 -0.33058 6,075 262 239 0
2017-12-10 09:00:30 GMT 52.01710 -0.32802 6,075 262 240 0
2017-12-10 09:00:28 GMT 52.01738 -0.32527 6,075 262 240 0
2017-12-10 09:00:26 GMT 52.01779 -0.32074 6,075 262 240 0
2017-12-10 09:00:23 GMT 52.01840 -0.31390 6,100 263 240 0
2017-12-10 09:00:20 GMT 52.01868 -0.31044 6,100 264 241 64
2017-12-10 09:00:17 GMT 52.01898 -0.30624 6,100 266 240 0
2017-12-10 09:00:15 GMT 52.01924 -0.30087 6,075 269 242 0
2017-12-10 09:00:13 GMT 52.01929 -0.29663 6,075 274 242 64
2017-12-10 09:00:11 GMT 52.01924 -0.29428 6,075 275 242 64
2017-12-10 09:00:09 GMT 52.01905 -0.29004 6,075 280 243 0
2017-12-10 09:00:07 GMT 52.01868 -0.28580 6,075 283 243 64
2017-12-10 09:00:05 GMT 52.01816 -0.28191 6,075 287 244 0
2017-12-10 09:00:02 GMT 52.01742 -0.27788 6,075 291 244 0
2017-12-10 09:00:00 GMT 52.01678 -0.27489 6,075 295 244 0
2017-12-10 08:59:58 GMT 52.01570 -0.27105 6,075 299 244 0
2017-12-10 08:59:56 GMT 52.01427 -0.26695 6,075 305 243 64
2017-12-10 08:59:54 GMT 52.01335 -0.26459 6,075 311 243 0
2017-12-10 08:59:52 GMT 52.01230 -0.26242 6,075 311 243 0
2017-12-10 08:59:50 GMT 52.01074 -0.25948 6,075 315 243 0
2017-12-10 08:59:48 GMT 52.00923 -0.25700 6,075 319 242 0
2017-12-10 08:59:46 GMT 52.00745 -0.25444 6,075 325 240 0
2017-12-10 08:59:44 GMT 52.00520 -0.25177 6,075 328 240 0
2017-12-10 08:59:42 GMT 52.00374 -0.25024 6,075 331 239 64
2017-12-10 08:59:40 GMT 52.00191 -0.24857 6,075 338 238 0
2017-12-10 08:59:38 GMT 51.99953 -0.24674 6,075 342 237 64
2017-12-10 08:59:35 GMT 51.99643 -0.24507 6,075 346 236 0
2017-12-10 08:59:33 GMT 51.99486 -0.24437 6,075 354 235 0
2017-12-10 08:59:31 GMT 51.99280 -0.24376 6,075 354 235 0
2017-12-10 08:59:29 GMT 51.98912 -0.24319 6,075 0 234 64
2017-12-10 08:59:27 GMT 51.98749 -0.24315 6,075 1 233 64
2017-12-10 08:59:25 GMT 51.98474 -0.24343 6,075 9 230 0
2017-12-10 08:59:23 GMT 51.98405 -0.24353 6,075 18 227 0
2017-12-10 08:59:21 GMT 51.98181 -0.24413 6,075 14 228 0
2017-12-10 08:59:19 GMT 51.97855 -0.24562 6,075 20 225 0
2017-12-10 08:59:17 GMT 51.97772 -0.24609 6,075 22 225 0
2017-12-10 08:59:15 GMT 51.97539 -0.24751 6,075 28 222 64
2017-12-10 08:59:13 GMT 51.97293 -0.24963 6,075 30 222 64
2017-12-10 08:59:11 GMT 51.97160 -0.25093 6,075 34 220 64
2017-12-10 08:59:09 GMT 51.97064 -0.25185 6,075 37 218 0
2017-12-10 08:59:07 GMT 51.96863 -0.25444 6,075 41 216 0
2017-12-10 08:59:05 GMT 51.96680 -0.25696 6,075 47 215 0
2017-12-10 08:59:03 GMT 51.96606 -0.25818 6,075 48 214 0
2017-12-10 08:59:01 GMT 51.96442 -0.26123 6,075 54 213 0
2017-12-10 08:58:59 GMT 51.96323 -0.26367 6,075 56 212 0
2017-12-10 08:58:57 GMT 51.96162 -0.26764 6,075 59 211 0
2017-12-10 08:58:54 GMT 51.96021 -0.27184 6,075 67 210 0
2017-12-10 08:58:52 GMT 51.95993 -0.27278 6,075 65 210 -128
2017-12-10 08:58:50 GMT 51.95865 -0.27771 6,075 67 211 -64
2017-12-10 08:58:48 GMT 51.95778 -0.28099 6,075 68 211 0
2017-12-10 08:58:46 GMT 51.95756 -0.28211 6,075 68 211 0
2017-12-10 08:58:44 GMT 51.95691 -0.28455 6,075 68 211 0
2017-12-10 08:58:42 GMT 51.95635 -0.28674 6,075 67 211 0
2017-12-10 08:58:40 GMT 51.95514 -0.29161 6,075 67 210 0
2017-12-10 08:58:38 GMT 51.95435 -0.29483 6,075 67 210 64
2017-12-10 08:58:35 GMT 51.95351 -0.29796 6,075 67 211 0
2017-12-10 08:58:33 GMT 51.95242 -0.30228 6,075 67 211 0
2017-12-10 08:58:31 GMT 51.95211 -0.30362 6,075 67 212 0
2017-12-10 08:58:31 GMT 51.95211 -0.30362 6,075 67 211 0
2017-12-10 08:58:29 GMT 51.95123 -0.30701 6,075 67 211 0
2017-12-10 08:58:27 GMT 51.95050 -0.30975 6,075 67 212 0
2017-12-10 08:58:27 GMT 51.95011 -0.31138 6,075 67 212 0
2017-12-10 08:58:25 GMT 51.94940 -0.31410 6,075 67 212 0
2017-12-10 08:58:23 GMT 51.94881 -0.31632 6,075 66 217 0
2017-12-10 08:58:21 GMT 51.94815 -0.31884 6,075 66 215 0
2017-12-10 08:58:19 GMT 51.94746 -0.32135 6,075 66 215 0
2017-12-10 08:58:17 GMT 51.94606 -0.32677 6,075 66 216 0
2017-12-10 08:58:15 GMT 51.94588 -0.32738 6,075 66 216 0
2017-12-10 08:58:13 GMT 51.94494 -0.33084 6,075 66 216 0
2017-12-10 08:58:11 GMT 51.94406 -0.33430 6,075 66 217 0
2017-12-10 08:58:08 GMT 51.94303 -0.33806 6,075 66 217 0
2017-12-10 08:58:06 GMT 51.94226 -0.34103 6,075 66 217 0
2017-12-10 08:58:04 GMT 51.94168 -0.34324 6,075 66 217 0
2017-12-10 08:58:02 GMT 51.94089 -0.34615 6,075 66 217 0
2017-12-10 08:58:00 GMT 51.93936 -0.35211 6,075 67 216 0
2017-12-10 08:57:58 GMT 51.93880 -0.35407 6,075 67 217 0
2017-12-10 08:57:56 GMT 51.93855 -0.35507 6,075 67 217 0
2017-12-10 08:57:54 GMT 51.93740 -0.35957 6,075 68 217 64
2017-12-10 08:57:51 GMT 51.93677 -0.36209 6,075 68 217 64
2017-12-10 08:57:49 GMT 51.93554 -0.36734 6,075 71 217 64
2017-12-10 08:57:47 GMT 51.93516 -0.36896 6,075 73 218 64
2017-12-10 08:57:45 GMT 51.93448 -0.37262 6,075 76 217 0
2017-12-10 08:57:43 GMT 51.93388 -0.37636 6,075 86 215 0
2017-12-10 08:57:41 GMT 51.93368 -0.37871 6,075 86 215 0
2017-12-10 08:57:39 GMT 51.93340 -0.38248 6,075 89 215 0
2017-12-10 08:57:37 GMT 51.93338 -0.38750 6,075 93 214 0
2017-12-10 08:57:34 GMT 51.93344 -0.39033 6,075 96 213 0
2017-12-10 08:57:32 GMT 51.93361 -0.39307 6,075 100 212 0
2017-12-10 08:57:30 GMT 51.93397 -0.39681 6,075 107 210 0
2017-12-10 08:57:28 GMT 51.93457 -0.40039 6,075 109 210 0
2017-12-10 08:57:26 GMT 51.93503 -0.40257 6,075 110 209 0
2017-12-10 08:57:24 GMT 51.93590 -0.40634 6,075 117 209 0
2017-12-10 08:57:22 GMT 51.93684 -0.40963 6,075 117 209 0
2017-12-10 08:57:20 GMT 51.93704 -0.41031 6,075 121 208 0
2017-12-10 08:57:18 GMT 51.93843 -0.41395 6,075 124 208 0
2017-12-10 08:57:16 GMT 51.93979 -0.41725 6,075 130 207 0
2017-12-10 08:57:14 GMT 51.94085 -0.41936 6,075 133 207 0
2017-12-10 08:57:12 GMT 51.94180 -0.42107 6,075 135 207 0
2017-12-10 08:57:10 GMT 51.94294 -0.42297 6,075 138 207 0
2017-12-10 08:57:08 GMT 51.94510 -0.42610 6,075 142 208 0
2017-12-10 08:57:06 GMT 51.94688 -0.42839 6,075 147 208 0
2017-12-10 08:57:04 GMT 51.94806 -0.42964 6,075 150 208 0
2017-12-10 08:57:02 GMT 51.94913 -0.43066 6,075 152 208 0
2017-12-10 08:57:00 GMT 51.95146 -0.43270 6,075 157 208 0
2017-12-10 08:56:58 GMT 51.95244 -0.43333 6,075 159 208 0
2017-12-10 08:56:56 GMT 51.95565 -0.43529 6,075 164 208 0
2017-12-10 08:56:54 GMT 51.95649 -0.43576 6,075 165 209 0
2017-12-10 08:56:52 GMT 51.95830 -0.43647 6,075 169 209 0
2017-12-10 08:56:50 GMT 51.96030 -0.43710 6,075 172 210 0
2017-12-10 08:56:48 GMT 51.96217 -0.43749 6,075 178 211 0
2017-12-10 08:56:46 GMT 51.96401 -0.43778 6,100 180 211 0
2017-12-10 08:56:44 GMT 51.96588 -0.43778 6,100 184 212 0
2017-12-10 08:56:42 GMT 51.96799 -0.43757 6,100 192 213 0
2017-12-10 08:56:40 GMT 51.96966 -0.43733 6,075 193 214 0
2017-12-10 08:56:38 GMT 51.97232 -0.43647 6,075 197 216 64
2017-12-10 08:56:36 GMT 51.97380 -0.43592 6,075 199 216 64
2017-12-10 08:56:34 GMT 51.97581 -0.43482 6,075 205 217 64
2017-12-10 08:56:32 GMT 51.97778 -0.43343 6,075 209 220 64
2017-12-10 08:56:29 GMT 51.98009 -0.43153 6,075 213 221 64
2017-12-10 08:56:27 GMT 51.98251 -0.42902 6,075 217 223 64
2017-12-10 08:56:25 GMT 51.98321 -0.42815 6,075 224 226 64
2017-12-10 08:56:23 GMT 51.98502 -0.42556 6,075 226 227 0
2017-12-10 08:56:21 GMT 51.98676 -0.42267 6,075 233 230 0
2017-12-10 08:56:19 GMT 51.98804 -0.42015 6,075 235 231 -64
2017-12-10 08:56:17 GMT 51.98921 -0.41740 6,075 239 232 -128
2017-12-10 08:56:15 GMT 51.99028 -0.41458 6,075 244 233 -64
2017-12-10 08:56:13 GMT 51.99145 -0.41089 6,075 248 234 -64
2017-12-10 08:56:11 GMT 51.99233 -0.40751 6,075 248 235 0
2017-12-10 08:56:09 GMT 51.99307 -0.40466 6,075 249 235 0
2017-12-10 08:56:07 GMT 51.99399 -0.40085 6,075 249 235 0
2017-12-10 08:56:04 GMT 51.99495 -0.39696 6,075 249 235 0
2017-12-10 08:56:02 GMT 51.99577 -0.39345 6,075 249 235 0
2017-12-10 08:56:00 GMT 51.99699 -0.38860 6,075 249 235 0
2017-12-10 08:55:58 GMT 51.99742 -0.38689 6,075 249 235 0
2017-12-10 08:55:56 GMT 51.99820 -0.38368 6,075 249 235 0
2017-12-10 08:55:54 GMT 51.99930 -0.37918 6,075 249 235 0
2017-12-10 08:55:52 GMT 51.99973 -0.37746 6,075 248 235 0
2017-12-10 08:55:50 GMT 52.00063 -0.37399 6,075 248 235 0
2017-12-10 08:55:48 GMT 52.00141 -0.37087 6,075 248 234 0
2017-12-10 08:55:46 GMT 52.00220 -0.36773 6,075 248 234 0
2017-12-10 08:55:44 GMT 52.00281 -0.36522 6,075 248 234 0
2017-12-10 08:55:42 GMT 52.00406 -0.36043 6,075 248 234 0
2017-12-10 08:55:40 GMT 52.00474 -0.35767 6,075 248 234 0
2017-12-10 08:55:38 GMT 52.00557 -0.35454 6,075 248 234 0
2017-12-10 08:55:36 GMT 52.00644 -0.35110 6,075 247 233 -64
2017-12-10 08:55:34 GMT 52.00774 -0.34630 6,075 247 233 0
2017-12-10 08:55:32 GMT 52.00845 -0.34355 6,075 247 234 0
2017-12-10 08:55:30 GMT 52.00909 -0.34112 6,075 247 234 0
2017-12-10 08:55:28 GMT 52.00974 -0.33877 6,075 247 233 -64
2017-12-10 08:55:26 GMT 52.01102 -0.33394 6,075 247 234 -64
2017-12-10 08:55:24 GMT 52.01170 -0.33155 6,075 246 233 -64
2017-12-10 08:55:22 GMT 52.01254 -0.32849 6,100 247 232 0
2017-12-10 08:55:20 GMT 52.01367 -0.32433 6,100 247 232 0
2017-12-10 08:55:18 GMT 52.01418 -0.32234 6,100 248 233 64
2017-12-10 08:55:16 GMT 52.01514 -0.31892 6,100 248 233 64
2017-12-10 08:55:14 GMT 52.01596 -0.31586 6,100 249 233 128
2017-12-10 08:55:12 GMT 52.01706 -0.31136 6,075 253 234 0
2017-12-10 08:55:09 GMT 52.01803 -0.30628 6,075 260 236 0
2017-12-10 08:55:06 GMT 52.01866 -0.30121 6,075 264 238 0
2017-12-10 08:55:04 GMT 52.01898 -0.29633 6,075 266 239 0
2017-12-10 08:55:02 GMT 52.01903 -0.29388 6,075 274 241 0
2017-12-10 08:55:00 GMT 52.01905 -0.29200 6,075 278 243 0
2017-12-10 08:54:58 GMT 52.01882 -0.28698 6,075 280 243 64
2017-12-10 08:54:56 GMT 52.01873 -0.28580 6,075 282 244 0
2017-12-10 08:54:54 GMT 52.01793 -0.27969 6,075 288 244 64
2017-12-10 08:54:52 GMT 52.01742 -0.27709 6,075 290 244 0
2017-12-10 08:54:50 GMT 52.01678 -0.27412 6,075 296 244 0
2017-12-10 08:54:47 GMT 52.01546 -0.26947 6,075 300 244 0
2017-12-10 08:54:45 GMT 52.01393 -0.26508 6,075 307 244 0
2017-12-10 08:54:43 GMT 52.01295 -0.26289 6,075 311 244 0
2017-12-10 08:54:41 GMT 52.01133 -0.25943 6,075 313 244 0
2017-12-10 08:54:39 GMT 52.01047 -0.25810 6,075 315 244 0
2017-12-10 08:54:37 GMT 52.00844 -0.25480 6,075 321 244 0
2017-12-10 08:54:35 GMT 52.00695 -0.25276 6,075 325 243 0
2017-12-10 08:54:33 GMT 52.00439 -0.24994 6,075 329 243 64
2017-12-10 08:54:30 GMT 52.00191 -0.24757 6,075 335 242 0
2017-12-10 08:54:28 GMT 51.99989 -0.24605 6,075 339 240 0
2017-12-10 08:54:26 GMT 51.99683 -0.24422 6,075 344 239 0
2017-12-10 08:54:24 GMT 51.99545 -0.24358 6,075 350 238 -64
2017-12-10 08:54:22 GMT 51.99339 -0.24284 6,075 353 236 0
2017-12-10 08:54:20 GMT 51.99083 -0.24216 6,075 358 236 64
2017-12-10 08:54:16 GMT 51.98516 -0.24209 6,075 4 233 64
2017-12-10 08:54:13 GMT 51.98321 -0.24233 6,075 10 231 0
2017-12-10 08:54:11 GMT 51.98163 -0.24280 6,075 13 230 0
2017-12-10 08:54:09 GMT 51.98012 -0.24338 6,075 19 228 0
2017-12-10 08:54:07 GMT 51.97660 -0.24507 6,075 25 225 64
2017-12-10 08:54:05 GMT 51.97577 -0.24551 6,075 25 225 64
2017-12-10 08:54:03 GMT 51.97259 -0.24798 6,075 30 223 0
2017-12-10 08:54:01 GMT 51.97259 -0.24798 6,075 32 222 0
2017-12-10 08:53:59 GMT 51.96975 -0.25080 6,075 36 222 0
2017-12-10 08:53:57 GMT 51.96836 -0.25253 6,075 40 219 0
2017-12-10 08:53:55 GMT 51.96634 -0.25520 6,075 46 219 64
2017-12-10 08:53:53 GMT 51.96529 -0.25692 6,075 49 217 0
2017-12-10 08:53:51 GMT 51.96338 -0.26030 6,075 51 217 0
2017-12-10 08:53:49 GMT 51.96221 -0.26281 6,075 58 214 0
2017-12-10 08:53:46 GMT 51.96068 -0.26650 6,075 61 213 -64
2017-12-10 08:53:44 GMT 51.95951 -0.26979 6,075 63 212 -64
2017-12-10 08:53:42 GMT 51.95906 -0.27122 6,075 65 211 -64
2017-12-10 08:53:40 GMT 51.95830 -0.27403 6,075 67 212 -64
2017-12-10 08:53:38 GMT 51.95756 -0.27686 6,075 68 210 0
2017-12-10 08:53:36 GMT 51.95677 -0.28000 6,075 68 212 0
2017-12-10 08:53:34 GMT 51.95598 -0.28345 6,075 68 211 0
2017-12-10 08:53:32 GMT 51.95509 -0.28690 6,075 68 211 0
2017-12-10 08:53:30 GMT 51.95480 -0.28816 6,075 68 211 0
2017-12-10 08:53:28 GMT 51.95334 -0.29404 6,075 68 212 0
2017-12-10 08:53:25 GMT 51.95281 -0.29632 6,075 68 212 0
2017-12-10 08:53:23 GMT 51.95233 -0.29816 6,075 68 212 0
2017-12-10 08:53:21 GMT 51.95123 -0.30260 6,075 67 212 0
2017-12-10 08:53:18 GMT 51.95023 -0.30670 6,075 67 212 0
2017-12-10 08:53:16 GMT 51.94941 -0.30981 6,075 67 213 0
2017-12-10 08:53:13 GMT 51.94853 -0.31327 6,075 67 213 0
2017-12-10 08:53:11 GMT 51.94757 -0.31700 6,075 67 213 0
2017-12-10 08:53:09 GMT 51.94661 -0.32082 6,075 67 213 0
2017-12-10 08:53:07 GMT 51.94601 -0.32295 6,075 66 214 0
2017-12-10 08:53:05 GMT 51.94522 -0.32614 6,075 67 215 0
2017-12-10 08:53:03 GMT 51.94464 -0.32829 6,075 66 215 0
2017-12-10 08:53:01 GMT 51.94378 -0.33147 6,075 66 215 0
2017-12-10 08:52:59 GMT 51.94286 -0.33493 6,075 66 216 0
2017-12-10 08:52:57 GMT 51.94238 -0.33689 6,075 66 216 0
2017-12-10 08:52:55 GMT 51.94134 -0.34065 6,075 66 217 0
2017-12-10 08:52:52 GMT 51.94015 -0.34513 6,075 66 217 0
2017-12-10 08:52:50 GMT 51.93912 -0.34897 6,075 66 217 0
2017-12-10 08:52:48 GMT 51.93870 -0.35046 6,075 66 217 0
2017-12-10 08:52:46 GMT 51.93773 -0.35400 6,075 66 216 0
2017-12-10 08:52:44 GMT 51.93695 -0.35683 6,075 66 216 0
2017-12-10 08:52:42 GMT 51.93622 -0.35973 6,075 67 216 64
2017-12-10 08:52:40 GMT 51.93539 -0.36285 6,075 68 216 64
2017-12-10 08:52:38 GMT 51.93453 -0.36644 6,075 69 216 128
2017-12-10 08:52:36 GMT 51.93397 -0.36873 6,075 73 216 64
2017-12-10 08:52:34 GMT 51.93333 -0.37201 6,075 76 214 0
2017-12-10 08:52:32 GMT 51.93298 -0.37401 6,075 80 213 0
2017-12-10 08:52:30 GMT 51.93251 -0.37834 6,075 84 213 0
2017-12-10 08:52:28 GMT 51.93228 -0.38170 6,075 87 213 0
2017-12-10 08:52:26 GMT 51.93219 -0.38444 6,075 91 212 0
2017-12-10 08:52:24 GMT 51.93219 -0.38780 6,075 96 211 0
2017-12-10 08:52:22 GMT 51.93224 -0.39024 6,075 98 211 0
2017-12-10 08:52:20 GMT 51.93279 -0.39581 6,075 103 209 0
2017-12-10 08:52:18 GMT 51.93288 -0.39684 6,075 105 210 0
2017-12-10 08:52:16 GMT 51.93349 -0.40045 6,075 108 209 0
2017-12-10 08:52:14 GMT 51.93414 -0.40359 6,075 112 209 0
2017-12-10 08:52:12 GMT 51.93457 -0.40543 6,075 115 208 0
2017-12-10 08:52:10 GMT 51.93567 -0.40947 6,075 120 208 0
2017-12-10 08:52:08 GMT 51.93731 -0.41387 6,075 124 208 0
2017-12-10 08:52:06 GMT 51.93768 -0.41481 6,075 125 207 0
2017-12-10 08:52:04 GMT 51.93878 -0.41725 6,075 129 206 0
2017-12-10 08:52:02 GMT 51.93964 -0.41905 6,075 134 207 0
2017-12-10 08:52:00 GMT 51.94145 -0.42227 6,075 139 206 0
2017-12-10 08:51:57 GMT 51.94322 -0.42496 6,075 141 206 0
2017-12-10 08:51:55 GMT 51.94496 -0.42732 6,075 144 206 0
2017-12-10 08:51:53 GMT 51.94592 -0.42839 6,075 147 206 -64
2017-12-10 08:51:51 GMT 51.94812 -0.43060 6,075 149 206 -64
2017-12-10 08:51:49 GMT 51.94978 -0.43216 6,075 156 207 0
2017-12-10 08:51:47 GMT 51.95128 -0.43327 6,075 159 206 0
2017-12-10 08:51:45 GMT 51.95314 -0.43459 6,075 162 208 0
2017-12-10 08:51:43 GMT 51.95453 -0.43533 6,075 164 207 -64
2017-12-10 08:51:41 GMT 51.95627 -0.43617 6,075 168 208 0
2017-12-10 08:51:39 GMT 51.95892 -0.43716 6,075 171 208 0
2017-12-10 08:51:37 GMT 51.95988 -0.43741 6,075 174 208 0
2017-12-10 08:51:35 GMT 51.96318 -0.43785 6,075 182 211 0
2017-12-10 08:51:33 GMT 51.96483 -0.43793 6,075 184 211 0
2017-12-10 08:51:31 GMT 51.96566 -0.43788 6,075 184 211 0
2017-12-10 08:51:29 GMT 51.96858 -0.43755 6,075 191 213 0
2017-12-10 08:51:27 GMT 51.97028 -0.43709 6,075 208 220 64
2017-12-10 08:51:25 GMT 51.97190 -0.43655 6,075 197 214 0
2017-12-10 08:51:23 GMT 51.97394 -0.43561 6,075 201 216 0
2017-12-10 08:51:21 GMT 51.97576 -0.43451 6,075 205 219 64
2017-12-10 08:51:19 GMT 51.97815 -0.43282 6,075 210 221 64
2017-12-10 08:51:17 GMT 51.97961 -0.43152 6,075 214 223 64
2017-12-10 08:51:15 GMT 51.98153 -0.42964 6,075 218 224 64
2017-12-10 08:51:13 GMT 51.98296 -0.42793 6,075 223 226 64
2017-12-10 08:51:11 GMT 51.98460 -0.42557 6,075 225 227 64
2017-12-10 08:51:09 GMT 51.98591 -0.42352 6,075 229 228 0
2017-12-10 08:51:07 GMT 51.98768 -0.42023 6,075 237 232 -64
2017-12-10 08:51:05 GMT 51.98927 -0.41664 6,075 244 235 -64
2017-12-10 08:51:02 GMT 51.99033 -0.41374 6,075 244 235 -64
2017-12-10 08:51:00 GMT 51.99112 -0.41136 6,075 246 235 -64
2017-12-10 08:50:58 GMT 51.99266 -0.40588 6,075 248 236 0
2017-12-10 08:50:56 GMT 51.99284 -0.40516 6,075 249 236 64
2017-12-10 08:50:54 GMT 51.99422 -0.39955 6,075 249 236 0
2017-12-10 08:50:52 GMT 51.99485 -0.39716 6,075 249 236 0
2017-12-10 08:50:50 GMT 51.99559 -0.39402 6,075 249 236 0
2017-12-10 08:50:48 GMT 51.99696 -0.38849 6,075 249 235 0
2017-12-10 08:50:46 GMT 51.99715 -0.38773 6,075 249 235 0
2017-12-10 08:50:44 GMT 51.99811 -0.38383 6,075 249 235 0
2017-12-10 08:50:42 GMT 51.99857 -0.38209 6,075 249 235 0
2017-12-10 08:50:40 GMT 51.99950 -0.37824 6,075 248 235 -64
2017-12-10 08:50:38 GMT 52.00066 -0.37369 6,075 248 235 -64
2017-12-10 08:50:36 GMT 52.00127 -0.37132 6,075 248 235 0
2017-12-10 08:50:34 GMT 52.00223 -0.36743 6,075 248 235 0
2017-12-10 08:50:32 GMT 52.00327 -0.36326 6,075 248 235 0
2017-12-10 08:50:29 GMT 52.00442 -0.35873 6,075 248 235 0
2017-12-10 08:50:27 GMT 52.00507 -0.35637 6,075 248 235 0
2017-12-10 08:50:25 GMT 52.00588 -0.35321 6,075 248 235 0
2017-12-10 08:50:23 GMT 52.00694 -0.34905 6,075 247 236 0
2017-12-10 08:50:21 GMT 52.00751 -0.34701 6,075 247 235 0
2017-12-10 08:50:19 GMT 52.00863 -0.34285 6,075 247 235 0
2017-12-10 08:50:17 GMT 52.00900 -0.34142 6,075 247 235 -64
2017-12-10 08:50:15 GMT 52.01019 -0.33699 6,075 247 235 0
2017-12-10 08:50:13 GMT 52.01123 -0.33312 6,075 246 235 0
2017-12-10 08:50:11 GMT 52.01198 -0.33043 6,075 246 235 0
2017-12-10 08:50:09 GMT 52.01285 -0.32730 6,100 246 235 0
2017-12-10 08:50:07 GMT 52.01426 -0.32221 6,100 247 235 0
2017-12-10 08:50:05 GMT 52.01472 -0.32049 6,100 247 235 0
2017-12-10 08:50:03 GMT 52.01566 -0.31703 6,100 249 236 64
2017-12-10 08:50:01 GMT 52.01637 -0.31418 6,100 250 237 64
2017-12-10 08:49:59 GMT 52.01711 -0.31105 6,075 253 237 0
2017-12-10 08:49:57 GMT 52.01770 -0.30815 6,075 256 238 0
2017-12-10 08:49:55 GMT 52.01840 -0.30369 6,075 262 239 0
2017-12-10 08:49:53 GMT 52.01875 -0.30067 6,100 264 239 0
2017-12-10 08:49:51 GMT 52.01894 -0.29686 6,075 268 241 0
2017-12-10 08:49:49 GMT 52.01898 -0.29038 6,075 276 242 64
2017-12-10 08:49:47 GMT 52.01894 -0.28954 6,075 276 242 64
2017-12-10 08:49:45 GMT 52.01866 -0.28534 6,075 280 242 0
2017-12-10 08:49:43 GMT 52.01830 -0.28267 6,075 285 243 0
2017-12-10 08:49:41 GMT 52.01780 -0.27929 6,075 291 244 64
2017-12-10 08:49:39 GMT 52.01724 -0.27670 6,075 295 244 0
2017-12-10 08:49:37 GMT 52.01621 -0.27238 6,075 297 244 0
2017-12-10 08:49:34 GMT 52.01496 -0.26854 6,075 301 245 0
2017-12-10 08:49:32 GMT 52.01328 -0.26422 6,075 308 245 0
2017-12-10 08:49:30 GMT 52.01212 -0.26169 6,075 312 245 0
2017-12-10 08:49:28 GMT 52.00937 -0.25688 6,075 318 246 0
2017-12-10 08:49:25 GMT 52.00802 -0.25496 6,075 322 245 64
2017-12-10 08:49:23 GMT 52.00593 -0.25222 6,075 333 243 0
2017-12-10 08:49:21 GMT 52.00471 -0.25096 6,075 329 244 0
2017-12-10 08:49:19 GMT 52.00136 -0.24796 6,075 339 242 0
2017-12-10 08:49:17 GMT 51.99959 -0.24672 6,075 339 242 0
2017-12-10 08:49:17 GMT 51.99959 -0.24672 6,075 339 242 0
2017-12-10 08:49:14 GMT 51.99666 -0.24507 6,075 350 239 0
2017-12-10 08:49:11 GMT 51.99344 -0.24391 6,075 356 236 0
2017-12-10 08:49:09 GMT 51.99182 -0.24358 6,075 358 236 0
2017-12-10 08:49:07 GMT 51.98879 -0.24319 6,075 1 234 64
2017-12-10 08:49:05 GMT 51.98716 -0.24319 6,075 5 232 64
2017-12-10 08:49:03 GMT 51.98535 -0.24343 6,075 11 229 0
2017-12-10 08:49:01 GMT 51.98172 -0.24429 6,075 14 227 0
2017-12-10 08:48:59 GMT 51.98042 -0.24484 6,075 18 226 -64
2017-12-10 08:48:57 GMT 51.97893 -0.24559 6,075 21 224 0
2017-12-10 08:48:55 GMT 51.97641 -0.24704 6,075 23 224 0
2017-12-10 08:48:53 GMT 51.97418 -0.24868 6,075 29 221 64
2017-12-10 08:48:51 GMT 51.97343 -0.24939 6,075 33 220 0
2017-12-10 08:48:48 GMT 51.97101 -0.25174 6,075 37 219 64
2017-12-10 08:48:46 GMT 51.96873 -0.25441 6,075 42 215 0
2017-12-10 08:48:44 GMT 51.96747 -0.25622 6,075 44 215 64
2017-12-10 08:48:42 GMT 51.96608 -0.25841 6,075 49 213 -64
2017-12-10 08:48:40 GMT 51.96433 -0.26146 6,075 53 212 0
2017-12-10 08:48:38 GMT 51.96366 -0.26273 6,075 54 212 0
2017-12-10 08:48:36 GMT 51.96235 -0.26579 6,075 58 211 -64
2017-12-10 08:48:34 GMT 51.96124 -0.26862 6,075 61 210 0
2017-12-10 08:48:31 GMT 51.95984 -0.27283 6,075 65 208 0
2017-12-10 08:48:29 GMT 51.95919 -0.27521 6,075 67 209 0
2017-12-10 08:48:27 GMT 51.95821 -0.27890 6,075 68 209 0
2017-12-10 08:48:24 GMT 51.95677 -0.28473 6,075 68 210 0
2017-12-10 08:48:22 GMT 51.95613 -0.28725 6,075 68 210 0
2017-12-10 08:48:20 GMT 51.95584 -0.28855 6,075 68 210 0
2017-12-10 08:48:18 GMT 51.95512 -0.29137 6,075 67 212 0
2017-12-10 08:48:16 GMT 51.95407 -0.29569 6,075 67 212 0
2017-12-10 08:48:14 GMT 51.95374 -0.29702 6,075 67 212 0
2017-12-10 08:48:12 GMT 51.95286 -0.30040 6,075 67 213 0
2017-12-10 08:48:10 GMT 51.95197 -0.30393 6,075 67 213 0
2017-12-10 08:48:08 GMT 51.95091 -0.30823 6,075 67 213 0
2017-12-10 08:48:05 GMT 51.95002 -0.31178 6,075 67 214 64
2017-12-10 08:48:03 GMT 51.94954 -0.31364 6,075 67 214 0
2017-12-10 08:48:01 GMT 51.94881 -0.31648 6,075 67 215 0
2017-12-10 08:47:59 GMT 51.94806 -0.31939 6,075 67 214 0
2017-12-10 08:47:57 GMT 51.94732 -0.32221 6,075 67 214 0
2017-12-10 08:47:55 GMT 51.94648 -0.32535 6,075 67 215 0
2017-12-10 08:47:53 GMT 51.94559 -0.32880 6,075 66 215 0
2017-12-10 08:47:51 GMT 51.94485 -0.33163 6,075 66 215 0
2017-12-10 08:47:49 GMT 51.94415 -0.33422 6,075 66 215 0
2017-12-10 08:47:47 GMT 51.94341 -0.33704 6,075 66 216 0
2017-12-10 08:47:45 GMT 51.94257 -0.34018 6,075 66 216 0
2017-12-10 08:47:43 GMT 51.94190 -0.34271 6,075 66 216 0
2017-12-10 08:47:41 GMT 51.94085 -0.34654 6,075 66 216 0
2017-12-10 08:47:39 GMT 51.94011 -0.34943 6,075 66 216 0
2017-12-10 08:47:37 GMT 51.93933 -0.35225 6,075 66 217 0
2017-12-10 08:47:35 GMT 51.93866 -0.35486 6,075 66 217 0
2017-12-10 08:47:33 GMT 51.93796 -0.35737 6,075 67 218 0
2017-12-10 08:47:31 GMT 51.93703 -0.36090 6,075 68 218 64
2017-12-10 08:47:29 GMT 51.93624 -0.36412 6,075 69 218 128
2017-12-10 08:47:27 GMT 51.93498 -0.36949 6,075 72 216 64
2017-12-10 08:47:25 GMT 51.93489 -0.36993 6,075 74 217 0
2017-12-10 08:47:23 GMT 51.93439 -0.37231 6,075 77 215 0
2017-12-10 08:47:20 GMT 51.93366 -0.37796 6,075 85 213 0
2017-12-10 08:47:18 GMT 51.93340 -0.38075 6,075 87 213 0
2017-12-10 08:47:15 GMT 51.93324 -0.38551 6,075 95 212 0
2017-12-10 08:47:13 GMT 51.93330 -0.38923 6,075 94 212 0
2017-12-10 08:47:11 GMT 51.93366 -0.39414 6,075 101 210 0
2017-12-10 08:47:09 GMT 51.93377 -0.39519 6,075 103 210 0
2017-12-10 08:47:07 GMT 51.93409 -0.39786 6,075 104 210 0
2017-12-10 08:47:07 GMT 51.93430 -0.39886 6,075 110 208 0
2017-12-10 08:47:07 GMT 51.93409 -0.39786 6,075 108 208 0
2017-12-10 08:47:05 GMT 51.93489 -0.40237 6,075 110 208 0
2017-12-10 08:47:03 GMT 51.93535 -0.40430 6,075 113 207 0
2017-12-10 08:47:01 GMT 51.93614 -0.40728 6,075 119 207 0
2017-12-10 08:46:59 GMT 51.93704 -0.41023 6,075 120 207 0
2017-12-10 08:46:57 GMT 51.93796 -0.41290 6,075 125 206 -64
2017-12-10 08:46:55 GMT 51.93993 -0.41733 6,075 129 205 -64
2017-12-10 08:46:53 GMT 51.94010 -0.41772 6,075 131 205 -64
2017-12-10 08:46:51 GMT 51.94140 -0.42023 6,075 134 205 -64
2017-12-10 08:46:49 GMT 51.94309 -0.42305 6,075 139 204 -64
2017-12-10 08:46:47 GMT 51.94401 -0.42439 6,075 140 204 -64
2017-12-10 08:46:44 GMT 51.94587 -0.42690 6,075 145 204 0
2017-12-10 08:46:42 GMT 51.94764 -0.42894 6,075 155 204 0
2017-12-10 08:46:39 GMT 51.95025 -0.43145 6,075 154 204 0
2017-12-10 08:46:37 GMT 51.95188 -0.43270 6,075 157 204 0
2017-12-10 08:46:35 GMT 51.95337 -0.43380 6,075 160 204 0
2017-12-10 08:46:33 GMT 51.95563 -0.43510 6,075 163 205 0
2017-12-10 08:46:30 GMT 51.95815 -0.43633 6,075 168 205 0
2017-12-10 08:46:28 GMT 51.95998 -0.43694 6,075 172 206 0
2017-12-10 08:46:26 GMT 51.96199 -0.43739 6,075 175 207 0
2017-12-10 08:46:24 GMT 51.96382 -0.43770 6,075 179 208 0
2017-12-10 08:46:22 GMT 51.96566 -0.43780 6,075 183 210 0
2017-12-10 08:46:20 GMT 51.96895 -0.43747 6,075 189 212 0
2017-12-10 08:46:17 GMT 51.97101 -0.43694 6,075 195 214 0
2017-12-10 08:46:15 GMT 51.97229 -0.43663 6,075 197 215 0
2017-12-10 08:46:13 GMT 51.97529 -0.43514 6,075 202 218 64
2017-12-10 08:46:11 GMT 51.97674 -0.43427 6,075 206 220 64
2017-12-10 08:46:09 GMT 51.97810 -0.43327 6,075 211 221 64
2017-12-10 08:46:07 GMT 51.98145 -0.43014 6,075 215 223 64
2017-12-10 08:46:04 GMT 51.98300 -0.42847 6,075 222 226 64
2017-12-10 08:46:02 GMT 51.98419 -0.42687 6,075 227 227 0
2017-12-10 08:46:00 GMT 51.98680 -0.42252 6,075 231 229 -64
2017-12-10 08:45:58 GMT 51.98730 -0.42156 6,075 233 230 -64
2017-12-10 08:45:56 GMT 51.98827 -0.41962 6,075 237 231 -64
2017-12-10 08:45:54 GMT 51.99000 -0.41521 6,075 244 233 -128
2017-12-10 08:45:52 GMT 51.99083 -0.41260 6,075 245 234 -128
2017-12-10 08:45:50 GMT 51.99173 -0.40956 6,075 247 234 -64
2017-12-10 08:45:48 GMT 51.99219 -0.40783 6,075 248 234 0
2017-12-10 08:45:46 GMT 51.99344 -0.40291 6,075 249 234 64
2017-12-10 08:45:44 GMT 51.99435 -0.39909 6,075 249 234 0
2017-12-10 08:45:42 GMT 51.99504 -0.39635 6,075 249 235 0
2017-12-10 08:45:40 GMT 51.99568 -0.39391 6,075 249 235 0
2017-12-10 08:45:38 GMT 51.99694 -0.38876 6,075 249 235 0
2017-12-10 08:45:36 GMT 51.99728 -0.38727 6,075 249 235 0
2017-12-10 08:45:34 GMT 51.99843 -0.38277 6,075 249 235 0
2017-12-10 08:45:32 GMT 51.99885 -0.38107 6,075 249 235 0
2017-12-10 08:45:30 GMT 51.99983 -0.37722 6,075 248 235 0
2017-12-10 08:45:28 GMT 52.00044 -0.37476 6,075 248 235 0
2017-12-10 08:45:26 GMT 52.00122 -0.37163 6,075 248 236 0
2017-12-10 08:45:24 GMT 52.00225 -0.36741 6,075 248 237 0
2017-12-10 08:45:22 GMT 52.00313 -0.36396 6,075 248 237 0
2017-12-10 08:45:20 GMT 52.00378 -0.36153 6,075 248 237 0
2017-12-10 08:45:18 GMT 52.00467 -0.35800 6,075 248 236 0
2017-12-10 08:45:16 GMT 52.00551 -0.35486 6,075 247 236 -64
2017-12-10 08:45:14 GMT 52.00700 -0.34897 6,075 247 236 -64
2017-12-10 08:45:12 GMT 52.00758 -0.34683 6,075 247 236 -64
2017-12-10 08:45:09 GMT 52.00858 -0.34309 6,075 247 236 0
2017-12-10 08:45:07 GMT 52.00951 -0.33958 6,075 247 235 0
2017-12-10 08:45:05 GMT 52.01035 -0.33650 6,075 247 235 0
2017-12-10 08:45:03 GMT 52.01175 -0.33142 6,075 247 235 0
2017-12-10 08:45:01 GMT 52.01216 -0.32990 6,075 247 235 -64
2017-12-10 08:44:59 GMT 52.01308 -0.32654 6,075 247 235 0
2017-12-10 08:44:57 GMT 52.01384 -0.32370 6,100 247 234 0
2017-12-10 08:44:55 GMT 52.01514 -0.31899 6,100 249 234 128
2017-12-10 08:44:53 GMT 52.01564 -0.31692 6,100 249 234 128
2017-12-10 08:44:51 GMT 52.01659 -0.31342 6,075 252 236 64
2017-12-10 08:44:50 GMT 52.01724 -0.31059 6,075 255 236 0
2017-12-10 08:44:48 GMT 52.01733 -0.30991 6,075 255 236 0
2017-12-10 08:44:46 GMT 52.01820 -0.30510 6,075 269 241 0
2017-12-10 08:44:43 GMT 52.01882 -0.29914 6,075 267 240 -64
2017-12-10 08:44:41 GMT 52.01894 -0.29648 6,075 271 242 0
2017-12-10 08:44:39 GMT 52.01898 -0.29297 6,075 273 242 0
2017-12-10 08:44:36 GMT 52.01882 -0.28800 6,075 281 244 0
2017-12-10 08:44:34 GMT 52.01821 -0.28219 6,075 285 244 0
2017-12-10 08:44:32 GMT 52.01789 -0.28031 6,075 287 244 0
2017-12-10 08:44:30 GMT 52.01719 -0.27662 6,075 292 245 0
2017-12-10 08:44:28 GMT 52.01669 -0.27443 6,075 296 245 0
2017-12-10 08:44:26 GMT 52.01547 -0.27011 6,075 302 244 0
2017-12-10 08:44:22 GMT 52.01321 -0.26413 6,075 308 245 0
2017-12-10 08:44:20 GMT 52.01216 -0.26187 6,075 312 245 0
2017-12-10 08:44:20 GMT 52.01184 -0.26131 6,075 314 244 0
2017-12-10 08:44:18 GMT 52.01077 -0.25920 6,075 316 243 0
2017-12-10 08:44:16 GMT 52.00868 -0.25589 6,075 325 243 0
2017-12-10 08:44:14 GMT 52.00667 -0.25314 6,075 327 242 0
2017-12-10 08:44:12 GMT 52.00490 -0.25120 6,075 329 242 0
2017-12-10 08:44:12 GMT 52.00490 -0.25120 6,075 329 242 0
2017-12-10 08:44:10 GMT 52.00220 -0.24860 6,075 341 239 0
2017-12-10 08:44:08 GMT 52.00159 -0.24803 6,075 335 241 0
2017-12-10 08:44:06 GMT 51.99857 -0.24602 6,075 343 239 0
2017-12-10 08:44:04 GMT 51.99652 -0.24492 6,075 345 238 0
2017-12-10 08:44:02 GMT 51.99471 -0.24413 6,075 349 237 0
2017-12-10 08:43:59 GMT 51.99014 -0.24303 6,075 357 235 0
2017-12-10 08:43:57 GMT 51.98963 -0.24288 6,075 359 234 0
2017-12-10 08:43:55 GMT 51.98730 -0.24280 6,075 6 231 64
2017-12-10 08:43:52 GMT 51.98364 -0.24322 6,075 10 230 0
2017-12-10 08:43:50 GMT 51.98279 -0.24350 6,075 12 229 0
2017-12-10 08:43:48 GMT 51.98009 -0.24437 6,075 16 227 0
2017-12-10 08:43:46 GMT 51.97818 -0.24531 6,075 20 226 0
2017-12-10 08:43:44 GMT 51.97389 -0.24826 6,075 35 221 0
2017-12-10 08:43:42 GMT 51.97362 -0.24845 6,075 35 221 0
2017-12-10 08:43:40 GMT 51.97119 -0.25085 6,075 35 221 0
2017-12-10 08:43:38 GMT 51.96954 -0.25269 6,075 39 220 0
2017-12-10 08:43:37 GMT 51.96954 -0.25269 6,075 39 220 0
2017-12-10 08:43:36 GMT 51.96906 -0.25331 6,075 41 220 0
2017-12-10 08:43:34 GMT 51.96724 -0.25582 6,075 43 218 0
2017-12-10 08:43:32 GMT 51.96584 -0.25810 6,075 54 215 -64
2017-12-10 08:43:30 GMT 51.96401 -0.26146 6,075 59 213 -64
2017-12-10 08:43:28 GMT 51.96291 -0.26398 6,075 59 213 -64
2017-12-10 08:43:26 GMT 51.96231 -0.26540 6,075 59 213 -64
2017-12-10 08:43:24 GMT 51.96091 -0.26916 6,075 64 212 -64
2017-12-10 08:43:22 GMT 51.96007 -0.27191 6,075 66 211 0
2017-12-10 08:43:20 GMT 51.95956 -0.27380 6,075 67 211 0
2017-12-10 08:43:18 GMT 51.95874 -0.27687 6,075 67 211 0
2017-12-10 08:43:16 GMT 51.95802 -0.27968 6,075 67 211 0
2017-12-10 08:43:14 GMT 51.95691 -0.28404 6,075 67 211 0
2017-12-10 08:43:11 GMT 51.95567 -0.28900 6,075 67 211 0
2017-12-10 08:43:09 GMT 51.95522 -0.29091 6,075 67 212 0
2017-12-10 08:43:07 GMT 51.95457 -0.29343 6,075 67 212 0
2017-12-10 08:43:05 GMT 51.95393 -0.29592 6,075 67 212 0
2017-12-10 08:43:03 GMT 51.95318 -0.29875 6,075 67 212 0
2017-12-10 08:43:01 GMT 51.95258 -0.30118 6,075 67 212 0
2017-12-10 08:43:01 GMT 51.95258 -0.30118 6,075 67 213 0
2017-12-10 08:42:59 GMT 51.95183 -0.30401 6,075 67 212 64
2017-12-10 08:42:57 GMT 51.95081 -0.30817 6,075 67 212 -64
2017-12-10 08:42:54 GMT 51.94983 -0.31193 6,075 67 213 0
2017-12-10 08:42:52 GMT 51.94876 -0.31594 6,075 67 212 64
2017-12-10 08:42:50 GMT 51.94844 -0.31723 6,075 67 212 64
2017-12-10 08:42:48 GMT 51.94748 -0.32097 6,075 67 212 128
2017-12-10 08:42:46 GMT 51.94675 -0.32379 6,075 66 213 128
2017-12-10 08:42:44 GMT 51.94597 -0.32661 6,075 66 213 192
2017-12-10 08:42:42 GMT 51.94490 -0.33069 6,075 66 214 192
2017-12-10 08:42:40 GMT 51.94459 -0.33196 6,075 66 214 192
2017-12-10 08:42:38 GMT 51.94331 -0.33661 6,050 66 215 192
2017-12-10 08:42:38 GMT 51.94331 -0.33661 6,050 66 215 128
2017-12-10 08:42:36 GMT 51.94275 -0.33885 6,050 66 215 128
2017-12-10 08:42:34 GMT 51.94201 -0.34168 6,050 66 216 64
2017-12-10 08:42:31 GMT 51.94061 -0.34676 6,050 66 216 -64
2017-12-10 08:42:29 GMT 51.94005 -0.34897 6,050 66 216 0
2017-12-10 08:42:27 GMT 51.93931 -0.35180 6,050 66 216 0
2017-12-10 08:42:25 GMT 51.93847 -0.35502 6,050 67 216 0
2017-12-10 08:42:23 GMT 51.93721 -0.35972 6,050 68 216 64
2017-12-10 08:42:20 GMT 51.93647 -0.36263 6,050 69 216 128
2017-12-10 08:42:18 GMT 51.93594 -0.36461 6,025 69 216 128
2017-12-10 08:42:16 GMT 51.93498 -0.36875 6,025 74 214 64
2017-12-10 08:42:14 GMT 51.93448 -0.37132 6,025 75 214 0
2017-12-10 08:42:12 GMT 51.93397 -0.37437 6,025 79 213 0
2017-12-10 08:42:10 GMT 51.93352 -0.37834 6,025 85 211 0
2017-12-10 08:42:07 GMT 51.93324 -0.38208 6,025 88 211 0
2017-12-10 08:42:05 GMT 51.93316 -0.38680 6,025 96 209 0
2017-12-10 08:42:03 GMT 51.93324 -0.38849 6,025 96 209 0
2017-12-10 08:42:01 GMT 51.93354 -0.39315 6,025 101 208 0
2017-12-10 08:41:59 GMT 51.93368 -0.39480 6,025 103 207 0
2017-12-10 08:41:57 GMT 51.93414 -0.39802 6,025 108 206 0
2017-12-10 08:41:55 GMT 51.93457 -0.40062 6,025 110 206 0
2017-12-10 08:41:53 GMT 51.93521 -0.40367 6,025 115 205 0
2017-12-10 08:41:51 GMT 51.93654 -0.40840 6,025 118 204 0
2017-12-10 08:41:49 GMT 51.93703 -0.40995 6,025 120 203 0
2017-12-10 08:41:48 GMT 51.93732 -0.41077 6,025 120 203 0
2017-12-10 08:41:46 GMT 51.93823 -0.41328 6,025 126 203 0
2017-12-10 08:41:44 GMT 51.93968 -0.41677 6,025 129 202 0
2017-12-10 08:41:42 GMT 51.94033 -0.41803 6,025 131 202 0
2017-12-10 08:41:40 GMT 51.94194 -0.42091 6,025 136 202 0
2017-12-10 08:41:39 GMT 51.94289 -0.42258 6,025 138 202 0
2017-12-10 08:41:38 GMT 51.94331 -0.42320 6,025 139 201 0
2017-12-10 08:41:36 GMT 51.94508 -0.42580 6,025 143 202 -64
2017-12-10 08:41:34 GMT 51.94606 -0.42702 6,025 154 203 0
2017-12-10 08:41:31 GMT 51.94820 -0.42941 6,025 149 203 0
2017-12-10 08:41:29 GMT 51.94974 -0.43090 6,025 152 203 0
2017-12-10 08:41:27 GMT 51.95151 -0.43243 6,025 156 204 0
2017-12-10 08:41:25 GMT 51.95388 -0.43412 6,025 161 204 0
2017-12-10 08:41:22 GMT 51.95540 -0.43503 6,050 164 204 0
2017-12-10 08:41:20 GMT 51.95812 -0.43631 6,050 173 205 0
2017-12-10 08:41:18 GMT 51.95975 -0.43686 6,050 171 205 0
2017-12-10 08:41:16 GMT 51.96114 -0.43718 6,050 174 205 0
2017-12-10 08:41:14 GMT 51.96314 -0.43755 6,050 178 207 0
2017-12-10 08:41:12 GMT 51.96515 -0.43770 6,050 184 208 0
2017-12-10 08:41:10 GMT 51.96739 -0.43755 6,050 191 210 0
2017-12-10 08:41:08 GMT 51.96886 -0.43739 6,050 190 209 0
2017-12-10 08:41:06 GMT 51.97051 -0.43709 6,050 193 211 0
2017-12-10 08:41:06 GMT 51.97051 -0.43709 6,050 193 211 0
2017-12-10 08:41:04 GMT 51.97334 -0.43608 6,050 199 213 64
2017-12-10 08:41:01 GMT 51.97553 -0.43490 6,025 203 215 64
2017-12-10 08:40:59 GMT 51.97753 -0.43357 6,025 206 216 64
2017-12-10 08:40:57 GMT 51.97902 -0.43243 6,025 211 218 64
2017-12-10 08:40:55 GMT 51.98108 -0.43045 6,025 226 224 64
2017-12-10 08:40:53 GMT 51.98254 -0.42885 6,025 217 221 64
2017-12-10 08:40:51 GMT 51.98456 -0.42619 6,025 239 231 -64
2017-12-10 08:40:49 GMT 51.98616 -0.42366 6,025 231 227 0
2017-12-10 08:40:47 GMT 51.98689 -0.42235 6,025 235 229 -64
2017-12-10 08:40:45 GMT 51.98827 -0.41946 6,025 242 233 -64
2017-12-10 08:40:43 GMT 51.98987 -0.41544 6,025 242 233 -64
2017-12-10 08:40:41 GMT 51.99084 -0.41246 6,025 246 234 -64
2017-12-10 08:40:39 GMT 51.99145 -0.41050 6,025 247 234 -64
2017-12-10 08:40:37 GMT 51.99247 -0.40665 6,025 249 235 0
2017-12-10 08:40:35 GMT 51.99340 -0.40281 6,025 249 235 0
2017-12-10 08:40:33 GMT 51.99399 -0.40039 6,025 249 234 0
2017-12-10 08:40:29 GMT 51.99541 -0.39474 6,025 249 235 0
2017-12-10 08:40:27 GMT 51.99647 -0.39025 6,025 249 235 0
2017-12-10 08:40:25 GMT 51.99701 -0.38811 6,025 249 235 0
2017-12-10 08:40:23 GMT 51.99815 -0.38361 6,025 248 234 0
2017-12-10 08:40:23 GMT 51.99815 -0.38361 6,025 248 234 0
2017-12-10 08:40:20 GMT 51.99925 -0.37910 6,025 248 234 0
2017-12-10 08:40:20 GMT 51.99925 -0.37910 6,025 248 234 0
2017-12-10 08:40:18 GMT 52.00049 -0.37430 6,025 248 234 0
2017-12-10 08:40:16 GMT 52.00099 -0.37220 6,025 248 234 0
2017-12-10 08:40:13 GMT 52.00259 -0.36598 6,025 248 233 0
2017-12-10 08:40:10 GMT 52.00364 -0.36184 6,025 248 234 0
2017-12-10 08:40:08 GMT 52.00434 -0.35902 6,025 248 233 0
2017-12-10 08:40:06 GMT 52.00502 -0.35637 6,025 248 233 0
2017-12-10 08:40:04 GMT 52.00584 -0.35316 6,025 248 233 0
2017-12-10 08:40:02 GMT 52.00676 -0.34973 6,025 247 233 0
2017-12-10 08:40:02 GMT 52.00676 -0.34973 6,025 247 232 0
2017-12-10 08:40:00 GMT 52.00765 -0.34638 6,025 247 233 -64
2017-12-10 08:39:58 GMT 52.00863 -0.34254 6,025 247 233 -64
2017-12-10 08:39:56 GMT 52.00909 -0.34088 6,025 247 233 -64
2017-12-10 08:39:54 GMT 52.01047 -0.33577 6,050 246 233 0
2017-12-10 08:39:52 GMT 52.01114 -0.33336 6,050 246 233 0
2017-12-10 08:39:50 GMT 52.01189 -0.33066 6,050 246 233 0
2017-12-10 08:39:48 GMT 52.01272 -0.32763 6,050 247 233 0
2017-12-10 08:39:46 GMT 52.01412 -0.32245 6,050 247 233 0
2017-12-10 08:39:44 GMT 52.01440 -0.32143 6,050 247 233 0
2017-12-10 08:39:42 GMT 52.01547 -0.31735 6,050 249 233 64
2017-12-10 08:39:40 GMT 52.01619 -0.31456 6,050 250 234 64
2017-12-10 08:39:38 GMT 52.01728 -0.30966 6,025 254 235 0
2017-12-10 08:39:36 GMT 52.01765 -0.30785 6,025 304 245 0
2017-12-10 08:39:34 GMT 52.01816 -0.30456 6,050 270 240 0
2017-12-10 08:39:32 GMT 52.01859 -0.30079 6,050 266 238 0
2017-12-10 08:39:30 GMT 52.01896 -0.29506 6,050 270 240 0
2017-12-10 08:39:28 GMT 52.01894 -0.29244 6,050 274 241 0
2017-12-10 08:39:26 GMT 52.01884 -0.29015 6,050 282 243 0
2017-12-10 08:39:24 GMT 52.01863 -0.28627 6,025 280 243 0
2017-12-10 08:39:22 GMT 52.01830 -0.28320 6,050 288 244 0
2017-12-10 08:39:20 GMT 52.01761 -0.27862 6,050 290 244 0
2017-12-10 08:39:18 GMT 52.01682 -0.27497 6,050 296 245 64
2017-12-10 08:39:16 GMT 52.01617 -0.27238 6,050 296 245 64
2017-12-10 08:39:14 GMT 52.01550 -0.26993 6,050 300 245 -64
2017-12-10 08:39:11 GMT 52.01276 -0.26260 6,050 308 245 0
2017-12-10 08:39:09 GMT 52.01258 -0.26218 6,025 310 245 -64
2017-12-10 08:39:07 GMT 52.01072 -0.25857 6,025 314 244 0
2017-12-10 08:39:05 GMT 52.00923 -0.25598 6,050 324 244 0
2017-12-10 08:39:03 GMT 52.00765 -0.25363 6,025 328 243 0
2017-12-10 08:39:00 GMT 52.00493 -0.25024 6,025 328 243 0
2017-12-10 08:38:58 GMT 52.00291 -0.24818 6,025 334 243 0
2017-12-10 08:38:56 GMT 52.00104 -0.24658 6,025 336 243 0
2017-12-10 08:38:54 GMT 51.99862 -0.24484 6,025 340 242 64
2017-12-10 08:38:52 GMT 51.99661 -0.24366 6,025 346 241 0
2017-12-10 08:38:50 GMT 51.99452 -0.24272 6,025 348 240 0
2017-12-10 08:38:48 GMT 51.99173 -0.24178 6,025 355 239 0
2017-12-10 08:38:46 GMT 51.99033 -0.24155 6,025 356 238 0
2017-12-10 08:38:44 GMT 51.98817 -0.24124 6,025 0 237 0
2017-12-10 08:38:42 GMT 51.98584 -0.24124 6,025 3 236 64
2017-12-10 08:38:39 GMT 51.98265 -0.24170 6,025 7 235 0
2017-12-10 08:38:37 GMT 51.98014 -0.24248 6,025 15 231 0
2017-12-10 08:38:37 GMT 51.97948 -0.24269 6,025 15 231 0
2017-12-10 08:38:35 GMT 51.97746 -0.24361 6,025 43 219 0
2017-12-10 08:38:33 GMT 51.97700 -0.24376 6,025 22 228 0
2017-12-10 08:38:31 GMT 51.97450 -0.24539 6,025 26 228 64
2017-12-10 08:38:29 GMT 51.97204 -0.24735 6,025 29 226 0
2017-12-10 08:38:27 GMT 51.97073 -0.24860 6,025 34 224 0
2017-12-10 08:38:25 GMT 51.96836 -0.25120 6,025 40 221 0
2017-12-10 08:38:23 GMT 51.96748 -0.25230 6,025 42 220 64
2017-12-10 08:38:21 GMT 51.96519 -0.25559 6,025 47 218 0
2017-12-10 08:38:19 GMT 51.96419 -0.25742 6,025 49 217 0
2017-12-10 08:38:17 GMT 51.96300 -0.25951 6,025 52 215 0
2017-12-10 08:38:15 GMT 51.96184 -0.26194 6,025 56 214 -64
2017-12-10 08:38:14 GMT 51.96103 -0.26390 6,025 58 213 -64
2017-12-10 08:38:13 GMT 51.96057 -0.26504 6,025 61 211 -64
2017-12-10 08:38:11 GMT 51.95947 -0.26799 6,025 62 211 -64
2017-12-10 08:38:09 GMT 51.95869 -0.27039 6,050 66 210 0
2017-12-10 08:38:07 GMT 51.95798 -0.27317 6,050 67 209 0
2017-12-10 08:38:05 GMT 51.95700 -0.27679 6,050 68 209 0
2017-12-10 08:38:03 GMT 51.95607 -0.28054 6,050 68 209 0
2017-12-10 08:38:01 GMT 51.95593 -0.28117 6,025 68 209 0
2017-12-10 08:37:59 GMT 51.95462 -0.28643 6,025 68 209 0
2017-12-10 08:37:57 GMT 51.95430 -0.28768 6,025 67 209 0
2017-12-10 08:37:55 GMT 51.95346 -0.29106 6,025 67 209 0
2017-12-10 08:37:53 GMT 51.95293 -0.29320 6,025 67 209 0
2017-12-10 08:37:50 GMT 51.95165 -0.29820 6,025 67 210 0
2017-12-10 08:37:48 GMT 51.95087 -0.30128 6,025 67 210 0
2017-12-10 08:37:46 GMT 51.95032 -0.30350 6,025 67 210 0
2017-12-10 08:37:44 GMT 51.94932 -0.30746 6,025 67 210 0
2017-12-10 08:37:42 GMT 51.94876 -0.30974 6,025 67 211 0
2017-12-10 08:37:40 GMT 51.94801 -0.31248 6,025 67 212 0
2017-12-10 08:37:37 GMT 51.94694 -0.31680 6,025 67 212 0
2017-12-10 08:37:35 GMT 51.94579 -0.32120 6,025 67 212 0
2017-12-10 08:37:33 GMT 51.94492 -0.32471 6,025 67 212 0
2017-12-10 08:37:31 GMT 51.94452 -0.32621 6,025 67 212 0
2017-12-10 08:37:29 GMT 51.94378 -0.32904 6,025 67 212 0
2017-12-10 08:37:27 GMT 51.94313 -0.33157 6,025 67 213 0
2017-12-10 08:37:24 GMT 51.94201 -0.33595 6,025 67 213 0
2017-12-10 08:37:22 GMT 51.94125 -0.33875 6,025 66 214 0
2017-12-10 08:37:20 GMT 51.94020 -0.34286 6,025 66 214 0
2017-12-10 08:37:17 GMT 51.93928 -0.34630 6,025 66 214 0
2017-12-10 08:37:15 GMT 51.93837 -0.34981 6,050 67 214 0
2017-12-10 08:37:13 GMT 51.93777 -0.35196 6,050 66 214 0
2017-12-10 08:37:13 GMT 51.93777 -0.35196 6,050 66 214 0
2017-12-10 08:37:11 GMT 51.93670 -0.35604 6,050 67 214 0
2017-12-10 08:37:09 GMT 51.93599 -0.35889 6,050 67 213 0
2017-12-10 08:37:07 GMT 51.93539 -0.36102 6,050 68 213 64
2017-12-10 08:37:05 GMT 51.93470 -0.36388 6,050 69 213 64
2017-12-10 08:37:03 GMT 51.93407 -0.36644 6,050 71 213 0
2017-12-10 08:37:01 GMT 51.93312 -0.37102 6,025 74 212 0
2017-12-10 08:36:59 GMT 51.93279 -0.37331 6,025 92 207 0
2017-12-10 08:36:57 GMT 51.93228 -0.37722 6,025 85 209 0
2017-12-10 08:36:57 GMT 51.93237 -0.37628 6,025 81 210 0
2017-12-10 08:36:54 GMT 51.93201 -0.38124 6,025 88 208 0
2017-12-10 08:36:52 GMT 51.93191 -0.38358 6,025 90 208 0
2017-12-10 08:36:50 GMT 51.93191 -0.38852 6,025 95 206 0
2017-12-10 08:36:48 GMT 51.93196 -0.38986 6,025 97 206 0
2017-12-10 08:36:46 GMT 51.93223 -0.39347 6,025 100 205 0
2017-12-10 08:36:44 GMT 51.93265 -0.39700 6,025 105 204 0
2017-12-10 08:36:42 GMT 51.93321 -0.40053 6,025 108 203 0
2017-12-10 08:36:39 GMT 51.93368 -0.40296 6,025 112 203 0
2017-12-10 08:36:37 GMT 51.93479 -0.40744 6,025 117 203 0
2017-12-10 08:36:37 GMT 51.93457 -0.40657 6,025 117 203 0
2017-12-10 08:36:35 GMT 51.93526 -0.40893 6,025 120 203 -64
2017-12-10 08:36:33 GMT 51.93619 -0.41175 6,025 122 203 -64
2017-12-10 08:36:33 GMT 51.93619 -0.41175 6,025 122 203 -64
2017-12-10 08:36:31 GMT 51.93782 -0.41580 6,025 127 203 0
2017-12-10 08:36:29 GMT 51.93832 -0.41695 6,025 130 204 0
2017-12-10 08:36:27 GMT 51.93968 -0.41968 6,025 135 204 0
2017-12-10 08:36:25 GMT 51.94080 -0.42168 6,025 135 204 0
2017-12-10 08:36:23 GMT 51.94180 -0.42335 6,025 140 203 0
2017-12-10 08:36:23 GMT 51.94180 -0.42335 6,025 140 203 0
2017-12-10 08:36:21 GMT 51.94420 -0.42674 6,025 142 203 0
2017-12-10 08:36:19 GMT 51.94565 -0.42847 6,025 150 202 0
2017-12-10 08:36:16 GMT 51.94748 -0.43037 6,025 151 203 0
2017-12-10 08:36:14 GMT 51.94885 -0.43167 6,025 153 203 0
2017-12-10 08:36:12 GMT 51.95045 -0.43304 6,025 155 202 0
2017-12-10 08:36:10 GMT 51.95247 -0.43449 6,025 161 203 0
2017-12-10 08:36:08 GMT 51.95477 -0.43576 6,025 164 204 0
2017-12-10 08:36:06 GMT 51.95551 -0.43616 6,025 166 204 0
2017-12-10 08:36:04 GMT 51.95787 -0.43709 6,050 171 205 0
2017-12-10 08:36:02 GMT 51.95923 -0.43749 6,025 173 205 0
2017-12-10 08:36:00 GMT 51.96346 -0.43816 6,050 181 207 0
2017-12-10 08:35:56 GMT 51.96510 -0.43823 6,050 184 208 0
2017-12-10 08:35:54 GMT 51.96799 -0.43788 6,050 190 209 0
2017-12-10 08:35:52 GMT 51.96899 -0.43770 6,050 193 211 0
2017-12-10 08:35:52 GMT 51.96899 -0.43770 6,050 193 211 0
2017-12-10 08:35:49 GMT 51.97232 -0.43663 6,050 201 214 64
2017-12-10 08:35:47 GMT 51.97413 -0.43576 6,050 203 214 64
2017-12-10 08:35:44 GMT 51.97723 -0.43373 6,025 209 216 64
2017-12-10 08:35:42 GMT 51.97893 -0.43228 6,025 212 218 64
2017-12-10 08:35:39 GMT 51.98080 -0.43053 6,025 216 220 64
2017-12-10 08:35:37 GMT 51.98273 -0.42824 6,025 220 221 64
2017-12-10 08:35:35 GMT 51.98474 -0.42556 6,025 239 231 -64
2017-12-10 08:35:33 GMT 51.98628 -0.42297 6,025 231 227 0
2017-12-10 08:35:31 GMT 51.98689 -0.42183 6,025 233 228 0
2017-12-10 08:35:29 GMT 51.98856 -0.41842 6,025 239 231 -64
2017-12-10 08:35:29 GMT 51.98856 -0.41842 6,025 241 232 -64
2017-12-10 08:35:27 GMT 51.99037 -0.41351 6,025 243 233 -64
2017-12-10 08:35:25 GMT 51.99065 -0.41275 6,025 245 233 -64
2017-12-10 08:35:23 GMT 51.99179 -0.40901 6,025 248 235 -64
2017-12-10 08:35:21 GMT 51.99252 -0.40626 6,025 248 235 0
2017-12-10 08:35:19 GMT 51.99322 -0.40351 6,025 249 235 0
2017-12-10 08:35:17 GMT 51.99406 -0.39998 6,025 249 235 0
2017-12-10 08:35:15 GMT 51.99477 -0.39719 6,025 249 235 0
2017-12-10 08:35:12 GMT 51.99615 -0.39166 6,025 249 235 0
2017-12-10 08:35:10 GMT 51.99699 -0.38813 6,025 249 235 0
2017-12-10 08:35:07 GMT 51.99820 -0.38330 6,025 248 234 0
2017-12-10 08:35:05 GMT 51.99898 -0.38017 6,025 248 234 0
2017-12-10 08:35:03 GMT 51.99969 -0.37738 6,025 248 233 0
2017-12-10 08:35:01 GMT 52.00099 -0.37220 6,025 248 232 0
2017-12-10 08:34:59 GMT 52.00132 -0.37079 6,025 248 232 0
2017-12-10 08:34:57 GMT 52.00214 -0.36774 6,025 248 232 0
2017-12-10 08:34:54 GMT 52.00424 -0.35950 6,025 248 232 -64
2017-12-10 08:34:52 GMT 52.00471 -0.35776 6,025 248 232 -64
2017-12-10 08:34:50 GMT 52.00495 -0.35674 6,025 248 232 0
2017-12-10 08:34:48 GMT 52.00565 -0.35407 6,025 247 232 0
2017-12-10 08:34:45 GMT 52.00765 -0.34646 6,050 247 232 0
2017-12-10 08:34:43 GMT 52.00827 -0.34416 6,025 247 232 -64
2017-12-10 08:34:41 GMT 52.00891 -0.34172 6,050 247 232 -64
2017-12-10 08:34:39 GMT 52.00946 -0.33974 6,050 247 232 0
2017-12-10 08:34:37 GMT 52.01065 -0.33524 6,050 247 231 0
2017-12-10 08:34:35 GMT 52.01193 -0.33053 6,050 247 231 0
2017-12-10 08:34:33 GMT 52.01230 -0.32920 6,050 247 231 0
2017-12-10 08:34:31 GMT 52.01314 -0.32614 6,050 247 231 0
2017-12-10 08:34:29 GMT 52.01403 -0.32276 6,050 247 232 0
2017-12-10 08:34:26 GMT 52.01538 -0.31766 6,050 248 233 64
2017-12-10 08:34:23 GMT 52.01711 -0.31044 6,025 253 234 0
2017-12-10 08:34:21 GMT 52.01729 -0.30960 6,025 256 236 0
2017-12-10 08:34:19 GMT 52.01789 -0.30636 6,025 258 237 0
2017-12-10 08:34:17 GMT 52.01834 -0.30266 6,025 262 238 -64
2017-12-10 08:34:15 GMT 52.01866 -0.29930 6,025 268 240 -64
2017-12-10 08:34:13 GMT 52.01882 -0.29483 6,050 270 241 -64
2017-12-10 08:34:11 GMT 52.01884 -0.29121 6,050 276 242 0
2017-12-10 08:34:09 GMT 52.01871 -0.28847 6,050 280 243 0
2017-12-10 08:34:07 GMT 52.01811 -0.28282 6,050 284 243 0
2017-12-10 08:34:05 GMT 52.01770 -0.28007 6,050 288 243 0
2017-12-10 08:34:02 GMT 52.01691 -0.27607 6,050 288 243 0
2017-12-10 08:34:00 GMT 52.01603 -0.27238 6,050 297 243 0
2017-12-10 08:33:58 GMT 52.01445 -0.26767 6,025 303 244 0
2017-12-10 08:33:56 GMT 52.01418 -0.26688 6,025 305 245 0
2017-12-10 08:33:54 GMT 52.01193 -0.26179 6,025 314 246 -64
2017-12-10 08:33:51 GMT 52.00964 -0.25772 6,025 318 246 -64
2017-12-10 08:33:49 GMT 52.00841 -0.25589 6,050 322 246 64
2017-12-10 08:33:47 GMT 52.00746 -0.25457 6,025 324 247 0
2017-12-10 08:33:45 GMT 52.00574 -0.25237 6,025 326 246 0
2017-12-10 08:33:43 GMT 52.00346 -0.25010 6,025 332 246 0
2017-12-10 08:33:41 GMT 52.00040 -0.24757 6,025 351 242 0
2017-12-10 08:33:39 GMT 51.99774 -0.24590 6,025 343 244 0
2017-12-10 08:33:37 GMT 51.99701 -0.24536 6,025 345 244 0
2017-12-10 08:33:35 GMT 51.99362 -0.24406 6,025 351 242 0
2017-12-10 08:33:32 GMT 51.99074 -0.24338 6,025 357 240 64
2017-12-10 08:33:30 GMT 51.98931 -0.24327 6,025 359 240 64
2017-12-10 08:33:28 GMT 51.98717 -0.24322 6,025 5 238 0
2017-12-10 08:33:26 GMT 51.98506 -0.24338 6,025 7 236 0
2017-12-10 08:33:24 GMT 51.98270 -0.24390 6,025 15 233 0
2017-12-10 08:33:21 GMT 51.97865 -0.24551 6,025 19 232 64
2017-12-10 08:33:19 GMT 51.97655 -0.24674 6,025 23 230 64
2017-12-10 08:33:17 GMT 51.97609 -0.24704 6,025 26 230 0
2017-12-10 08:33:15 GMT 51.97404 -0.24860 6,025 29 228 64
2017-12-10 08:33:13 GMT 51.97211 -0.25040 6,025 34 226 0
2017-12-10 08:33:11 GMT 51.96968 -0.25299 6,025 40 223 0
2017-12-10 08:33:09 GMT 51.96850 -0.25457 6,025 42 222 0
2017-12-10 08:33:07 GMT 51.96716 -0.25650 6,025 46 220 0
2017-12-10 08:33:07 GMT 51.96716 -0.25650 6,025 46 220 0
2017-12-10 08:33:05 GMT 51.96552 -0.25928 6,025 52 218 0
2017-12-10 08:33:03 GMT 51.96437 -0.26138 6,025 55 216 0
2017-12-10 08:33:01 GMT 51.96295 -0.26451 6,025 59 214 0
2017-12-10 08:32:59 GMT 51.96193 -0.26712 6,025 60 213 -64
2017-12-10 08:32:56 GMT 51.96035 -0.27152 6,025 64 212 -64
2017-12-10 08:32:53 GMT 51.95928 -0.27552 6,025 67 210 0
2017-12-10 08:32:51 GMT 51.95826 -0.27952 6,025 67 210 -64
2017-12-10 08:32:49 GMT 51.95778 -0.28145 6,025 67 210 0
2017-12-10 08:32:47 GMT 51.95663 -0.28603 6,025 67 210 0
2017-12-10 08:32:47 GMT 51.95663 -0.28603 6,025 67 210 0
2017-12-10 08:32:46 GMT 51.95663 -0.28612 6,025 67 210 0
2017-12-10 08:32:45 GMT 51.95645 -0.28671 6,025 67 210 0
2017-12-10 08:32:43 GMT 51.95554 -0.29045 6,025 68 211 0
2017-12-10 08:32:39 GMT 51.95388 -0.29702 6,025 67 211 0
2017-12-10 08:32:37 GMT 51.95309 -0.30016 6,050 67 211 0
2017-12-10 08:32:35 GMT 51.95279 -0.30144 6,050 67 211 0
2017-12-10 08:32:33 GMT 51.95201 -0.30449 6,050 67 211 0
2017-12-10 08:32:31 GMT 51.95067 -0.30974 6,025 67 210 0
2017-12-10 08:32:29 GMT 51.95048 -0.31044 6,025 67 210 64
2017-12-10 08:32:27 GMT 51.94946 -0.31452 6,025 67 210 0
2017-12-10 08:32:24 GMT 51.94867 -0.31758 6,025 67 210 0
2017-12-10 08:32:22 GMT 51.94797 -0.32041 6,025 67 210 0
2017-12-10 08:32:19 GMT 51.94662 -0.32574 6,025 67 212 0
2017-12-10 08:32:17 GMT 51.94592 -0.32849 6,025 67 212 0
2017-12-10 08:32:15 GMT 51.94527 -0.33100 6,025 67 212 0
2017-12-10 08:32:12 GMT 51.94414 -0.33539 6,025 67 212 0
2017-12-10 08:32:10 GMT 51.94317 -0.33916 6,025 67 213 0
2017-12-10 08:32:08 GMT 51.94229 -0.34262 6,025 67 213 0
2017-12-10 08:32:05 GMT 51.94112 -0.34706 6,050 66 214 0
2017-12-10 08:32:03 GMT 51.94047 -0.34950 6,050 67 213 0
2017-12-10 08:32:00 GMT 51.93924 -0.35423 6,050 67 213 0
2017-12-10 08:31:58 GMT 51.93866 -0.35643 6,050 67 213 0
2017-12-10 08:31:56 GMT 51.93782 -0.35957 6,050 67 213 64
2017-12-10 08:31:54 GMT 51.93735 -0.36145 6,050 68 213 64
2017-12-10 08:31:52 GMT 51.93656 -0.36459 6,050 70 213 64
2017-12-10 08:31:50 GMT 51.93531 -0.37024 6,025 73 211 64
2017-12-10 08:31:48 GMT 51.93516 -0.37071 6,025 82 209 0
2017-12-10 08:31:46 GMT 51.93447 -0.37495 6,025 80 210 0
2017-12-10 08:31:44 GMT 51.93430 -0.37620 6,025 82 209 0
2017-12-10 08:31:42 GMT 51.93391 -0.38052 6,025 88 207 0
2017-12-10 08:31:40 GMT 51.93370 -0.38383 6,025 90 207 0
2017-12-10 08:31:38 GMT 51.93372 -0.38782 6,025 94 205 0
2017-12-10 08:31:36 GMT 51.93379 -0.39047 6,025 101 204 0
2017-12-10 08:31:34 GMT 51.93393 -0.39238 6,025 101 204 0
2017-12-10 08:31:32 GMT 51.93420 -0.39536 6,025 103 204 0
2017-12-10 08:31:30 GMT 51.93475 -0.39909 6,025 109 203 0
2017-12-10 08:31:28 GMT 51.93512 -0.40131 6,025 109 203 0
2017-12-10 08:31:26 GMT 51.93576 -0.40436 6,025 113 202 0
2017-12-10 08:31:24 GMT 51.93663 -0.40764 6,025 118 202 0
2017-12-10 08:31:22 GMT 51.93759 -0.41077 6,025 121 202 0
2017-12-10 08:31:20 GMT 51.93842 -0.41305 6,025 124 201 0
2017-12-10 08:31:18 GMT 51.93884 -0.41403 6,025 124 201 0
2017-12-10 08:31:16 GMT 51.94061 -0.41795 6,025 132 200 0
2017-12-10 08:31:14 GMT 51.94176 -0.42015 6,050 136 200 0
2017-12-10 08:31:11 GMT 51.94377 -0.42366 6,025 147 201 0
2017-12-10 08:31:09 GMT 51.94514 -0.42557 6,050 141 201 0
2017-12-10 08:31:06 GMT 51.94684 -0.42778 6,050 146 201 0
2017-12-10 08:31:04 GMT 51.94899 -0.43012 6,050 151 201 0
2017-12-10 08:31:01 GMT 51.95090 -0.43184 6,025 156 203 0
2017-12-10 08:31:01 GMT 51.95090 -0.43184 6,025 156 203 0
2017-12-10 08:30:59 GMT 51.95253 -0.43310 6,050 159 203 0
2017-12-10 08:30:57 GMT 51.95416 -0.43426 6,025 161 203 0
2017-12-10 08:30:55 GMT 51.95627 -0.43549 6,050 166 204 0
2017-12-10 08:30:53 GMT 51.95805 -0.43625 6,050 168 205 0
2017-12-10 08:30:51 GMT 51.95979 -0.43686 6,025 171 207 0
2017-12-10 08:30:49 GMT 51.96181 -0.43732 6,050 177 208 0
2017-12-10 08:30:47 GMT 51.96364 -0.43762 6,050 178 209 0
2017-12-10 08:30:45 GMT 51.96570 -0.43770 6,050 185 210 0
2017-12-10 08:30:43 GMT 51.96757 -0.43755 6,025 189 212 0
2017-12-10 08:30:41 GMT 51.96945 -0.43732 6,050 195 214 64
2017-12-10 08:30:39 GMT 51.97192 -0.43655 6,025 196 215 128
2017-12-10 08:30:37 GMT 51.97339 -0.43587 6,050 198 215 128
2017-12-10 08:30:35 GMT 51.97520 -0.43498 6,025 202 217 0
2017-12-10 08:30:33 GMT 51.97734 -0.43357 6,025 208 219 64
2017-12-10 08:30:30 GMT 51.97966 -0.43167 6,025 215 221 0
2017-12-10 08:30:28 GMT 51.98186 -0.42933 6,025 219 223 64
2017-12-10 08:30:26 GMT 51.98363 -0.42713 6,025 228 227 0
2017-12-10 08:30:24 GMT 51.98447 -0.42596 6,025 228 227 0
2017-12-10 08:30:22 GMT 51.98633 -0.42282 6,025 230 228 -64
2017-12-10 08:30:20 GMT 51.98758 -0.42031 6,025 237 229 -64
2017-12-10 08:30:18 GMT 51.98918 -0.41672 6,025 246 232 -128
2017-12-10 08:30:16 GMT 51.98949 -0.41575 6,025 242 231 -64
2017-12-10 08:30:16 GMT 51.98949 -0.41575 6,025 242 231 -64
2017-12-10 08:30:14 GMT 51.99065 -0.41252 6,025 246 232 -128
2017-12-10 08:30:12 GMT 51.99196 -0.40783 6,025 248 233 -64
2017-12-10 08:30:10 GMT 51.99257 -0.40535 6,025 249 233 0
2017-12-10 08:30:08 GMT 51.99326 -0.40257 6,025 249 233 0
2017-12-10 08:30:06 GMT 51.99417 -0.39879 6,025 249 233 0
2017-12-10 08:30:04 GMT 51.99517 -0.39457 6,025 249 233 0
2017-12-10 08:30:02 GMT 51.99596 -0.39151 6,025 249 233 0
2017-12-10 08:30:00 GMT 51.99647 -0.38939 6,025 249 233 0
2017-12-10 08:29:58 GMT 51.99778 -0.38397 6,025 249 232 0
2017-12-10 08:29:56 GMT 51.99806 -0.38287 6,025 249 232 0
2017-12-10 08:29:54 GMT 51.99880 -0.37973 6,025 249 231 0
2017-12-10 08:29:52 GMT 52.00003 -0.37491 6,025 248 231 0
2017-12-10 08:29:50 GMT 52.00029 -0.37393 6,025 248 231 0
2017-12-10 08:29:48 GMT 52.00163 -0.36842 6,025 248 231 0
2017-12-10 08:29:46 GMT 52.00216 -0.36639 6,025 248 231 0
2017-12-10 08:29:44 GMT 52.00285 -0.36365 6,025 248 231 0
2017-12-10 08:29:42 GMT 52.00425 -0.35823 6,025 248 230 0
2017-12-10 08:29:40 GMT 52.00502 -0.35515 6,025 247 230 -64
2017-12-10 08:29:38 GMT 52.00551 -0.35345 6,025 247 230 -64
2017-12-10 08:29:36 GMT 52.00621 -0.35065 6,025 247 230 -64
2017-12-10 08:29:36 GMT 52.00621 -0.35065 6,025 247 230 -64
2017-12-10 08:29:34 GMT 52.00718 -0.34701 6,025 247 229 -64
2017-12-10 08:29:32 GMT 52.00797 -0.34395 6,025 247 230 0
2017-12-10 08:29:30 GMT 52.00881 -0.34089 6,025 247 230 0
2017-12-10 08:29:28 GMT 52.00988 -0.33689 6,050 246 230 0
2017-12-10 08:29:26 GMT 52.01083 -0.33348 6,050 246 230 0
2017-12-10 08:29:23 GMT 52.01184 -0.32982 6,050 246 230 0
2017-12-10 08:29:21 GMT 52.01271 -0.32677 6,050 246 230 0
2017-12-10 08:29:19 GMT 52.01337 -0.32441 6,050 246 230 0
2017-12-10 08:29:17 GMT 52.01431 -0.32104 6,050 247 230 0
2017-12-10 08:29:17 GMT 52.01431 -0.32104 6,050 247 231 64
2017-12-10 08:29:15 GMT 52.01587 -0.31532 6,050 253 233 0
2017-12-10 08:29:13 GMT 52.01649 -0.31295 6,050 253 233 0
2017-12-10 08:29:11 GMT 52.01687 -0.31115 6,050 253 233 0
2017-12-10 08:29:09 GMT 52.01765 -0.30731 6,025 258 235 0
2017-12-10 08:29:07 GMT 52.01811 -0.30403 6,050 260 236 0
2017-12-10 08:29:05 GMT 52.01848 -0.30098 6,025 264 238 0
2017-12-10 08:29:03 GMT 52.01866 -0.29839 6,025 268 239 0
2017-12-10 08:29:01 GMT 52.01880 -0.29266 6,050 274 241 0
2017-12-10 08:28:59 GMT 52.01877 -0.28988 6,025 276 242 0
2017-12-10 08:28:57 GMT 52.01854 -0.28643 6,025 280 243 0
2017-12-10 08:28:54 GMT 52.01756 -0.27897 6,025 288 244 0
2017-12-10 08:28:52 GMT 52.01728 -0.27733 6,025 290 245 0
2017-12-10 08:28:50 GMT 52.01651 -0.27405 6,025 294 245 0
2017-12-10 08:28:48 GMT 52.01546 -0.27016 6,025 300 246 0
2017-12-10 08:28:46 GMT 52.01477 -0.26802 6,025 302 246 0
2017-12-10 08:28:44 GMT 52.01308 -0.26360 6,025 308 246 0
2017-12-10 08:28:42 GMT 52.01221 -0.26171 6,025 308 246 0
2017-12-10 08:28:40 GMT 52.01002 -0.25755 6,025 316 246 0
2017-12-10 08:28:38 GMT 52.00790 -0.25429 6,025 331 244 0
2017-12-10 08:28:36 GMT 52.00735 -0.25345 6,025 327 245 0
2017-12-10 08:28:34 GMT 52.00606 -0.25174 6,025 327 245 0
2017-12-10 08:28:32 GMT 52.00365 -0.24918 6,025 329 244 0
2017-12-10 08:28:30 GMT 52.00131 -0.24696 6,025 341 242 0
2017-12-10 08:28:28 GMT 51.99936 -0.24562 6,025 341 242 0
2017-12-10 08:28:26 GMT 51.99778 -0.24460 6,050 345 241 0
2017-12-10 08:28:24 GMT 51.99508 -0.24319 6,025 349 240 0
2017-12-10 08:28:22 GMT 51.99367 -0.24269 6,050 351 240 64
2017-12-10 08:28:20 GMT 51.98996 -0.24178 6,025 0 237 0
2017-12-10 08:28:18 GMT 51.98877 -0.24162 6,025 359 238 0
2017-12-10 08:28:16 GMT 51.98642 -0.24154 6,025 6 235 0
2017-12-10 08:28:14 GMT 51.98409 -0.24178 6,025 6 235 0
2017-12-10 08:28:11 GMT 51.98042 -0.24264 6,025 12 233 0
2017-12-10 08:28:09 GMT 51.97934 -0.24307 6,025 18 231 64
2017-12-10 08:28:07 GMT 51.97669 -0.24445 6,025 22 229 64
2017-12-10 08:28:05 GMT 51.97517 -0.24536 6,025 24 229 0
2017-12-10 08:28:03 GMT 51.97298 -0.24704 6,025 31 226 64
2017-12-10 08:28:01 GMT 51.97138 -0.24841 6,025 40 222 64
2017-12-10 08:27:59 GMT 51.96895 -0.25093 6,025 39 223 64
2017-12-10 08:27:59 GMT 51.96895 -0.25093 6,025 39 223 64
2017-12-10 08:27:57 GMT 51.96687 -0.25363 6,025 40 222 64
2017-12-10 08:27:55 GMT 51.96556 -0.25558 6,025 48 220 0
2017-12-10 08:27:53 GMT 51.96477 -0.25684 6,025 53 217 -64
2017-12-10 08:27:51 GMT 51.96304 -0.25993 6,025 53 217 -64
2017-12-10 08:27:49 GMT 51.96172 -0.26268 6,025 57 216 -64
2017-12-10 08:27:47 GMT 51.96100 -0.26446 6,025 58 214 -64
2017-12-10 08:27:45 GMT 51.95993 -0.26736 6,025 61 214 -64
2017-12-10 08:27:43 GMT 51.95888 -0.27039 6,025 64 212 -64
2017-12-10 08:27:41 GMT 51.95835 -0.27223 6,025 67 211 0
2017-12-10 08:27:38 GMT 51.95695 -0.27748 6,025 67 211 0
2017-12-10 08:27:36 GMT 51.95602 -0.28125 6,025 68 211 0
2017-12-10 08:27:36 GMT 51.95602 -0.28125 6,025 68 211 0
2017-12-10 08:27:33 GMT 51.95490 -0.28564 6,025 68 211 0
2017-12-10 08:27:31 GMT 51.95430 -0.28816 6,025 67 210 0
2017-12-10 08:27:29 GMT 51.95369 -0.29059 6,025 68 211 0
2017-12-10 08:27:27 GMT 51.95256 -0.29495 6,050 67 210 0
2017-12-10 08:27:25 GMT 51.95225 -0.29624 6,025 67 210 0
2017-12-10 08:27:23 GMT 51.95155 -0.29900 6,050 67 209 0
2017-12-10 08:27:21 GMT 51.95043 -0.30338 6,025 67 209 0
2017-12-10 08:27:19 GMT 51.95000 -0.30525 6,025 67 209 0
2017-12-10 08:27:17 GMT 51.94895 -0.30926 6,025 67 209 0
2017-12-10 08:27:15 GMT 51.94849 -0.31113 6,025 67 209 0
2017-12-10 08:27:13 GMT 51.94775 -0.31395 6,025 67 210 0
2017-12-10 08:27:11 GMT 51.94716 -0.31639 6,025 67 211 0
2017-12-10 08:27:09 GMT 51.94587 -0.32135 6,025 67 211 0
2017-12-10 08:27:07 GMT 51.94546 -0.32295 6,025 67 211 0
2017-12-10 08:27:05 GMT 51.94473 -0.32570 6,025 67 211 0
2017-12-10 08:27:03 GMT 51.94405 -0.32852 6,025 67 211 0
2017-12-10 08:27:01 GMT 51.94336 -0.33104 6,025 67 211 0
2017-12-10 08:26:59 GMT 51.94249 -0.33440 6,025 67 212 0
2017-12-10 08:26:57 GMT 51.94185 -0.33691 6,025 67 212 0
2017-12-10 08:26:55 GMT 51.94093 -0.34042 6,025 66 213 0
2017-12-10 08:26:52 GMT 51.94002 -0.34378 6,025 66 213 0
2017-12-10 08:26:49 GMT 51.93864 -0.34912 6,050 66 213 0
2017-12-10 08:26:47 GMT 51.93763 -0.35290 6,050 67 213 0
2017-12-10 08:26:45 GMT 51.93675 -0.35635 6,050 67 213 64
2017-12-10 08:26:42 GMT 51.93591 -0.35949 6,025 67 213 64
2017-12-10 08:26:40 GMT 51.93521 -0.36231 6,025 74 211 0
2017-12-10 08:26:38 GMT 51.93424 -0.36639 6,025 71 212 64
2017-12-10 08:26:36 GMT 51.93409 -0.36710 6,025 71 212 64
2017-12-10 08:26:34 GMT 51.93321 -0.37126 6,025 76 211 0
2017-12-10 08:26:32 GMT 51.93261 -0.37518 6,025 81 209 0
2017-12-10 08:26:29 GMT 51.93223 -0.37879 6,025 86 207 -64
2017-12-10 08:26:27 GMT 51.93205 -0.38178 6,025 88 207 0
2017-12-10 08:26:25 GMT 51.93200 -0.38507 6,025 93 205 0
2017-12-10 08:26:23 GMT 51.93214 -0.39002 6,025 96 205 0
2017-12-10 08:26:21 GMT 51.93209 -0.39041 6,025 98 204 0
2017-12-10 08:26:19 GMT 51.93251 -0.39488 6,025 101 203 0
2017-12-10 08:26:17 GMT 51.93265 -0.39619 6,025 103 203 0
2017-12-10 08:26:15 GMT 51.93349 -0.40116 6,025 111 201 0
2017-12-10 08:26:13 GMT 51.93400 -0.40367 6,025 111 201 0
2017-12-10 08:26:11 GMT 51.93443 -0.40543 6,025 120 201 64
2017-12-10 08:26:09 GMT 51.93549 -0.40924 6,025 120 201 64
2017-12-10 08:26:07 GMT 51.93680 -0.41285 6,025 123 200 64
2017-12-10 08:26:05 GMT 51.93754 -0.41473 6,025 125 200 0
2017-12-10 08:26:03 GMT 51.93837 -0.41657 6,025 128 200 0
2017-12-10 08:26:01 GMT 51.93959 -0.41905 6,025 136 200 -64
2017-12-10 08:25:59 GMT 51.94075 -0.42117 6,025 136 200 -64
2017-12-10 08:25:57 GMT 51.94196 -0.42321 6,025 138 200 -128
2017-12-10 08:25:55 GMT 51.94378 -0.42580 6,050 142 200 -128
2017-12-10 08:25:53 GMT 51.94469 -0.42709 6,025 145 200 -128
2017-12-10 08:25:51 GMT 51.94597 -0.42854 6,050 153 200 -64
2017-12-10 08:25:49 GMT 51.94748 -0.43007 6,050 165 202 0
2017-12-10 08:25:47 GMT 51.94899 -0.43161 6,050 153 200 -64
2017-12-10 08:25:45 GMT 51.95146 -0.43358 6,050 162 201 -64
2017-12-10 08:25:43 GMT 51.95274 -0.43442 6,050 163 202 -64
2017-12-10 08:25:41 GMT 51.95462 -0.43549 6,050 165 202 0
2017-12-10 08:25:39 GMT 51.95631 -0.43633 6,050 171 204 0
2017-12-10 08:25:37 GMT 51.95770 -0.43694 6,050 171 204 0
2017-12-10 08:25:35 GMT 51.96085 -0.43778 6,050 175 204 64
2017-12-10 08:25:33 GMT 51.96268 -0.43808 6,050 184 207 192
2017-12-10 08:25:31 GMT 51.96328 -0.43812 6,050 181 206 192
2017-12-10 08:25:29 GMT 51.96510 -0.43820 6,050 184 207 192
2017-12-10 08:25:27 GMT 51.96716 -0.43808 6,050 188 208 256
2017-12-10 08:25:25 GMT 51.97000 -0.43747 6,025 193 210 320
2017-12-10 08:25:23 GMT 51.97120 -0.43710 6,025 195 211 256
2017-12-10 08:25:21 GMT 51.97362 -0.43617 6,000 201 214 128
2017-12-10 08:25:19 GMT 51.97543 -0.43522 6,000 205 216 64
2017-12-10 08:25:16 GMT 51.97778 -0.43358 6,000 209 217 64
2017-12-10 08:25:14 GMT 51.97962 -0.43192 6,000 212 219 64
2017-12-10 08:25:12 GMT 51.98153 -0.43012 6,000 218 221 64
2017-12-10 08:25:10 GMT 51.98274 -0.42862 6,000 222 223 64
2017-12-10 08:25:07 GMT 51.98538 -0.42496 6,000 227 225 0
2017-12-10 08:25:04 GMT 51.98721 -0.42180 6,000 233 228 -64
2017-12-10 08:25:02 GMT 51.98856 -0.41881 6,000 237 229 -64
2017-12-10 08:25:00 GMT 51.99028 -0.41450 6,000 245 232 -128
2017-12-10 08:24:58 GMT 51.99089 -0.41254 6,000 246 233 -64
2017-12-10 08:24:56 GMT 51.99179 -0.40955 6,000 248 234 0
2017-12-10 08:24:54 GMT 51.99326 -0.40383 6,000 249 233 0
2017-12-10 08:24:54 GMT 51.99326 -0.40383 6,000 249 233 0
2017-12-10 08:24:52 GMT 51.99330 -0.40367 6,000 249 233 0
2017-12-10 08:24:50 GMT 51.99466 -0.39818 6,000 249 233 0
2017-12-10 08:24:47 GMT 51.99587 -0.39329 6,000 248 234 0
2017-12-10 08:24:44 GMT 51.99664 -0.39017 6,000 248 234 0
2017-12-10 08:24:42 GMT 51.99760 -0.38628 6,000 248 234 0
2017-12-10 08:24:40 GMT 51.99838 -0.38319 6,000 248 234 0
2017-12-10 08:24:38 GMT 51.99969 -0.37801 6,000 248 234 64
2017-12-10 08:24:35 GMT 52.00021 -0.37590 6,000 248 234 0
2017-12-10 08:24:33 GMT 52.00118 -0.37212 6,000 248 234 0
2017-12-10 08:24:33 GMT 52.00118 -0.37212 6,000 248 234 0
2017-12-10 08:24:31 GMT 52.00229 -0.36757 6,000 248 234 0
2017-12-10 08:24:29 GMT 52.00309 -0.36451 6,000 248 235 0
2017-12-10 08:24:27 GMT 52.00364 -0.36239 6,000 248 234 0
2017-12-10 08:24:25 GMT 52.00444 -0.35925 6,000 248 235 0
2017-12-10 08:24:22 GMT 52.00635 -0.35180 6,000 248 235 0
2017-12-10 08:24:19 GMT 52.00695 -0.34960 6,000 248 235 0
2017-12-10 08:24:17 GMT 52.00754 -0.34721 6,000 247 236 0
2017-12-10 08:24:15 GMT 52.00873 -0.34264 6,000 247 236 0
2017-12-10 08:24:13 GMT 52.00946 -0.33995 6,000 247 236 0
2017-12-10 08:24:11 GMT 52.01028 -0.33684 6,000 247 236 0
2017-12-10 08:24:09 GMT 52.01179 -0.33124 6,000 247 235 0
2017-12-10 08:24:07 GMT 52.01216 -0.32990 6,000 248 235 0
2017-12-10 08:24:05 GMT 52.01326 -0.32570 6,000 248 235 0
2017-12-10 08:24:03 GMT 52.01431 -0.32159 6,000 248 235 0
2017-12-10 08:24:01 GMT 52.01472 -0.32013 6,000 249 235 64
2017-12-10 08:23:59 GMT 52.01541 -0.31738 6,000 249 235 64
2017-12-10 08:23:57 GMT 52.01626 -0.31390 6,000 251 236 128
2017-12-10 08:23:55 GMT 52.01714 -0.30966 6,000 254 237 64
2017-12-10 08:23:52 GMT 52.01793 -0.30525 6,000 259 238 0
2017-12-10 08:23:50 GMT 52.01834 -0.30190 6,000 263 240 0
2017-12-10 08:23:48 GMT 52.01863 -0.29734 6,000 269 241 0
2017-12-10 08:23:46 GMT 52.01873 -0.29420 6,000 271 241 0
2017-12-10 08:23:44 GMT 52.01875 -0.29190 6,000 275 241 -64
2017-12-10 08:23:41 GMT 52.01831 -0.28502 6,000 285 243 0
2017-12-10 08:23:39 GMT 52.01780 -0.28078 6,000 285 243 0
2017-12-10 08:23:37 GMT 52.01720 -0.27740 6,000 291 244 0
2017-12-10 08:23:34 GMT 52.01566 -0.27136 6,000 295 245 0
2017-12-10 08:23:32 GMT 52.01524 -0.26979 6,000 301 246 0
2017-12-10 08:23:32 GMT 52.01524 -0.26979 6,000 299 246 0
2017-12-10 08:23:30 GMT 52.01403 -0.26642 6,000 303 246 0
2017-12-10 08:23:28 GMT 52.01258 -0.26273 6,000 321 245 0
2017-12-10 08:23:26 GMT 52.01152 -0.26062 6,000 311 246 0
2017-12-10 08:23:24 GMT 52.01026 -0.25818 6,000 315 246 0
2017-12-10 08:23:22 GMT 52.00781 -0.25436 6,000 321 245 0
2017-12-10 08:23:20 GMT 52.00653 -0.25253 6,000 325 246 0
2017-12-10 08:23:18 GMT 52.00497 -0.25070 6,000 327 245 64
2017-12-10 08:23:16 GMT 52.00355 -0.24915 6,000 336 244 64
2017-12-10 08:23:14 GMT 52.00080 -0.24672 6,000 338 243 0
2017-12-10 08:23:11 GMT 51.99745 -0.24437 6,000 344 243 0
2017-12-10 08:23:09 GMT 51.99429 -0.24296 6,000 356 240 0
2017-12-10 08:23:07 GMT 51.99381 -0.24269 6,000 354 241 0
2017-12-10 08:23:05 GMT 51.99000 -0.24170 6,000 359 240 0
2017-12-10 08:23:03 GMT 51.98813 -0.24155 6,000 359 240 0
2017-12-10 08:23:00 GMT 51.98593 -0.24162 6,000 4 237 0
2017-12-10 08:22:58 GMT 51.98391 -0.24186 6,000 10 235 0
2017-12-10 08:22:56 GMT 51.98181 -0.24225 6,000 12 235 0
2017-12-10 08:22:54 GMT 51.97902 -0.24322 6,000 16 233 0
2017-12-10 08:22:51 GMT 51.97622 -0.24476 6,000 22 231 0
2017-12-10 08:22:49 GMT 51.97412 -0.24612 6,000 27 228 0
2017-12-10 08:22:46 GMT 51.97171 -0.24813 6,000 32 226 0
2017-12-10 08:22:44 GMT 51.96961 -0.25025 6,000 36 224 0
2017-12-10 08:22:40 GMT 51.96631 -0.25441 6,000 43 222 0
2017-12-10 08:22:38 GMT 51.96515 -0.25604 6,000 49 219 0
2017-12-10 08:22:36 GMT 51.96318 -0.25963 6,000 53 217 0
2017-12-10 08:22:34 GMT 51.96176 -0.26245 6,000 67 211 0
2017-12-10 08:22:31 GMT 51.96058 -0.26532 6,000 59 214 -64
2017-12-10 08:22:29 GMT 51.95915 -0.26916 6,000 64 212 -64
2017-12-10 08:22:27 GMT 51.95858 -0.27097 6,000 64 212 -64
2017-12-10 08:22:25 GMT 51.95774 -0.27403 6,000 66 211 0
2017-12-10 08:22:23 GMT 51.95667 -0.27811 6,000 67 211 0
2017-12-10 08:22:21 GMT 51.95581 -0.28145 6,000 67 211 0
2017-12-10 08:22:19 GMT 51.95517 -0.28397 6,000 67 212 0
2017-12-10 08:22:17 GMT 51.95448 -0.28682 6,000 67 212 0
2017-12-10 08:22:14 GMT 51.95374 -0.28965 6,000 67 213 0
2017-12-10 08:22:12 GMT 51.95272 -0.29373 6,000 67 213 0
2017-12-10 08:22:10 GMT 51.95178 -0.29755 6,000 67 213 0
2017-12-10 08:22:08 GMT 51.95114 -0.30006 6,000 67 213 0
2017-12-10 08:22:05 GMT 51.95041 -0.30289 6,000 67 213 0
2017-12-10 08:22:03 GMT 51.94963 -0.30609 6,000 67 213 0
2017-12-10 08:22:01 GMT 51.94881 -0.30926 6,000 67 213 0
2017-12-10 08:21:59 GMT 51.94811 -0.31209 6,000 67 213 0
2017-12-10 08:21:57 GMT 51.94708 -0.31609 6,000 67 213 0
2017-12-10 08:21:55 GMT 51.94652 -0.31838 6,000 67 213 0
2017-12-10 08:21:53 GMT 51.94578 -0.32119 6,000 67 213 0
2017-12-10 08:21:51 GMT 51.94490 -0.32472 6,000 67 213 0
2017-12-10 08:21:48 GMT 51.94395 -0.32844 6,000 67 213 0
2017-12-10 08:21:46 GMT 51.94299 -0.33226 6,000 67 212 0
2017-12-10 08:21:44 GMT 51.94240 -0.33440 6,000 67 212 0
2017-12-10 08:21:42 GMT 51.94121 -0.33913 6,000 67 212 0
2017-12-10 08:21:40 GMT 51.94071 -0.34097 6,000 67 211 -64
2017-12-10 08:21:38 GMT 51.94002 -0.34378 6,000 67 211 0
2017-12-10 08:21:36 GMT 51.93903 -0.34748 6,000 67 210 0
2017-12-10 08:21:34 GMT 51.93847 -0.34968 6,000 67 210 0
2017-12-10 08:21:32 GMT 51.93741 -0.35370 6,000 67 209 0
2017-12-10 08:21:30 GMT 51.93726 -0.35439 6,000 67 209 0
2017-12-10 08:21:28 GMT 51.93619 -0.35862 6,000 68 208 64
2017-12-10 08:21:26 GMT 51.93512 -0.36286 6,000 69 207 64
2017-12-10 08:21:23 GMT 51.93465 -0.36490 6,000 70 208 64
2017-12-10 08:21:21 GMT 51.93363 -0.36953 6,000 74 206 0
2017-12-10 08:21:21 GMT 51.93377 -0.36891 6,000 79 205 0
2017-12-10 08:21:19 GMT 51.93329 -0.37117 6,000 82 204 0
2017-12-10 08:21:17 GMT 51.93293 -0.37369 6,000 79 205 0
2017-12-10 08:21:15 GMT 51.93251 -0.37691 6,000 82 204 0
2017-12-10 08:21:13 GMT 51.93228 -0.38017 6,000 86 203 0
2017-12-10 08:21:11 GMT 51.93214 -0.38307 6,000 91 202 0
2017-12-10 08:21:11 GMT 51.93214 -0.38307 6,000 91 202 0
2017-12-10 08:21:09 GMT 51.93210 -0.38650 6,000 92 201 -64
2017-12-10 08:21:07 GMT 51.93224 -0.39047 6,000 97 200 0
2017-12-10 08:21:05 GMT 51.93247 -0.39337 6,000 104 199 0
2017-12-10 08:21:03 GMT 51.93260 -0.39459 6,000 102 199 0
2017-12-10 08:21:01 GMT 51.93330 -0.39951 6,000 107 199 0
2017-12-10 08:20:59 GMT 51.93356 -0.40108 6,000 109 198 0
2017-12-10 08:20:57 GMT 51.93424 -0.40406 6,000 113 197 0
2017-12-10 08:20:55 GMT 51.93512 -0.40756 6,000 117 197 -64
2017-12-10 08:20:53 GMT 51.93554 -0.40901 6,000 118 197 -64
2017-12-10 08:20:51 GMT 51.93686 -0.41283 6,000 123 196 0
2017-12-10 08:20:49 GMT 51.93782 -0.41519 6,000 126 196 0
2017-12-10 08:20:46 GMT 51.93897 -0.41771 6,000 129 196 0
2017-12-10 08:20:44 GMT 51.93991 -0.41968 6,000 139 197 0
2017-12-10 08:20:42 GMT 51.94098 -0.42156 6,000 134 196 0
2017-12-10 08:20:39 GMT 51.94480 -0.42721 6,000 140 196 0
2017-12-10 08:20:36 GMT 51.94533 -0.42786 6,000 145 196 0
2017-12-10 08:20:34 GMT 51.94736 -0.43019 6,000 151 197 0
2017-12-10 08:20:32 GMT 51.94803 -0.43083 6,000 155 198 0
2017-12-10 08:20:30 GMT 51.95009 -0.43266 6,000 155 198 0
2017-12-10 08:20:28 GMT 51.95164 -0.43388 6,000 158 198 0
2017-12-10 08:20:25 GMT 51.95403 -0.43541 6,000 163 200 -64
2017-12-10 08:20:23 GMT 51.95576 -0.43633 6,000 168 202 0
2017-12-10 08:20:21 GMT 51.95835 -0.43726 6,000 170 203 0
2017-12-10 08:20:18 GMT 51.96124 -0.43804 6,000 176 205 0
2017-12-10 08:20:15 GMT 51.96426 -0.43828 6,000 182 207 64
2017-12-10 08:20:12 GMT 51.96663 -0.43820 6,000 186 208 0
2017-12-10 08:20:10 GMT 51.96895 -0.43785 6,000 191 210 0
2017-12-10 08:20:08 GMT 51.97041 -0.43749 6,000 195 211 64
2017-12-10 08:20:08 GMT 51.97041 -0.43749 6,000 195 211 64
2017-12-10 08:20:05 GMT 51.97284 -0.43655 6,000 199 212 64
2017-12-10 08:20:03 GMT 51.97525 -0.43537 6,000 205 215 64
2017-12-10 08:20:01 GMT 51.97618 -0.43465 6,000 205 215 64
2017-12-10 08:19:58 GMT 51.98122 -0.43030 6,000 216 219 0
2017-12-10 08:19:56 GMT 51.98181 -0.42969 6,000 218 220 0
2017-12-10 08:19:54 GMT 51.98284 -0.42847 6,000 222 222 0
2017-12-10 08:19:52 GMT 51.98456 -0.42619 6,000 226 223 0
2017-12-10 08:19:50 GMT 51.98579 -0.42419 6,000 231 225 0
2017-12-10 08:19:48 GMT 51.98712 -0.42180 6,000 233 225 0
2017-12-10 08:19:46 GMT 51.98837 -0.41921 6,000 238 227 0
2017-12-10 08:19:44 GMT 51.98949 -0.41654 6,000 241 228 -64
2017-12-10 08:19:42 GMT 51.99094 -0.41238 6,000 246 229 -64
2017-12-10 08:19:40 GMT 51.99191 -0.40908 6,000 248 230 0
2017-12-10 08:19:38 GMT 51.99271 -0.40602 6,000 249 231 -64
2017-12-10 08:19:35 GMT 51.99344 -0.40291 6,000 249 232 0
2017-12-10 08:19:33 GMT 51.99461 -0.39810 6,000 249 232 0
2017-12-10 08:19:31 GMT 51.99513 -0.39604 6,000 249 232 64
2017-12-10 08:19:29 GMT 51.99577 -0.39329 6,000 249 232 0
2017-12-10 08:19:27 GMT 51.99713 -0.38774 6,000 249 232 64
2017-12-10 08:19:24 GMT 51.99820 -0.38338 6,000 249 232 64
2017-12-10 08:19:22 GMT 51.99907 -0.37987 6,000 249 232 0
2017-12-10 08:19:20 GMT 51.99976 -0.37705 6,000 249 232 0
2017-12-10 08:19:17 GMT 52.00080 -0.37291 6,000 248 232 0
2017-12-10 08:19:15 GMT 52.00155 -0.36985 6,000 248 232 0
2017-12-10 08:19:13 GMT 52.00225 -0.36710 6,000 248 232 0
2017-12-10 08:19:13 GMT 52.00225 -0.36710 6,000 248 232 0
2017-12-10 08:19:11 GMT 52.00304 -0.36396 6,000 248 232 0
2017-12-10 08:19:09 GMT 52.00392 -0.36056 6,000 248 231 0
2017-12-10 08:19:07 GMT 52.00490 -0.35674 6,000 247 232 0
2017-12-10 08:19:05 GMT 52.00569 -0.35368 6,000 247 232 0
2017-12-10 08:19:03 GMT 52.00639 -0.35101 6,000 247 232 0
2017-12-10 08:19:01 GMT 52.00777 -0.34584 6,000 247 232 -64
2017-12-10 08:18:58 GMT 52.00853 -0.34277 6,000 247 232 0
2017-12-10 08:18:55 GMT 52.01019 -0.33668 6,000 247 232 0
2017-12-10 08:18:52 GMT 52.01151 -0.33187 6,000 246 233 0
2017-12-10 08:18:49 GMT 52.01244 -0.32852 6,025 246 233 0
2017-12-10 08:18:47 GMT 52.01349 -0.32471 6,000 249 234 128
2017-12-10 08:18:45 GMT 52.01440 -0.32135 6,025 248 233 64
2017-12-10 08:18:43 GMT 52.01514 -0.31860 6,025 248 234 64
2017-12-10 08:18:41 GMT 52.01584 -0.31586 6,000 249 234 128
2017-12-10 08:18:39 GMT 52.01701 -0.31097 6,000 254 236 0
2017-12-10 08:18:37 GMT 52.01784 -0.30636 6,000 257 237 0
2017-12-10 08:18:35 GMT 52.01839 -0.30289 6,000 263 240 0
2017-12-10 08:18:32 GMT 52.01859 -0.30024 6,000 267 241 0
2017-12-10 08:18:30 GMT 52.01891 -0.29373 6,000 273 242 0
2017-12-10 08:18:27 GMT 52.01887 -0.29255 6,000 273 242 0
2017-12-10 08:18:25 GMT 52.01863 -0.28674 6,000 283 243 0
2017-12-10 08:18:23 GMT 52.01831 -0.28368 6,000 285 244 0
2017-12-10 08:18:21 GMT 52.01784 -0.28031 6,000 289 244 0
2017-12-10 08:18:19 GMT 52.01710 -0.27646 6,000 291 245 0
2017-12-10 08:18:17 GMT 52.01654 -0.27395 6,025 299 245 0
2017-12-10 08:18:15 GMT 52.01569 -0.27069 6,025 297 245 0
2017-12-10 08:18:13 GMT 52.01403 -0.26587 6,025 305 245 0
2017-12-10 08:18:11 GMT 52.01282 -0.26289 6,000 309 245 0
2017-12-10 08:18:09 GMT 52.01179 -0.26077 6,000 311 246 0
2017-12-10 08:18:07 GMT 52.00919 -0.25597 6,000 317 246 0
2017-12-10 08:18:03 GMT 52.00667 -0.25246 6,000 325 246 0
2017-12-10 08:18:01 GMT 52.00493 -0.25032 6,000 327 245 0
2017-12-10 08:17:59 GMT 52.00305 -0.24841 6,000 332 245 0
2017-12-10 08:17:57 GMT 52.00136 -0.24689 6,000 337 245 64
2017-12-10 08:17:55 GMT 51.99918 -0.24523 6,000 339 245 64
2017-12-10 08:17:53 GMT 51.99578 -0.24327 6,000 350 244 0
2017-12-10 08:17:51 GMT 51.99367 -0.24239 6,000 352 243 0
2017-12-10 08:17:49 GMT 51.99092 -0.24170 6,000 354 242 64
2017-12-10 08:17:47 GMT 51.99033 -0.24154 6,000 358 242 0
2017-12-10 08:17:45 GMT 51.98866 -0.24131 6,000 0 242 0
2017-12-10 08:17:42 GMT 51.98438 -0.24139 6,000 7 239 64
2017-12-10 08:17:40 GMT 51.98251 -0.24186 6,000 10 238 64
2017-12-10 08:17:37 GMT 51.97925 -0.24284 6,000 18 234 0
2017-12-10 08:17:35 GMT 51.97700 -0.24391 6,000 22 233 0
2017-12-10 08:17:33 GMT 51.97412 -0.24590 6,000 26 232 64
2017-12-10 08:17:31 GMT 51.97259 -0.24704 6,000 34 227 64
2017-12-10 08:17:29 GMT 51.97051 -0.24910 6,000 34 227 64
2017-12-10 08:17:27 GMT 51.96971 -0.24994 6,000 39 225 64
2017-12-10 08:17:25 GMT 51.96808 -0.25185 6,000 43 224 0
2017-12-10 08:17:23 GMT 51.96603 -0.25457 6,000 46 222 0
2017-12-10 08:17:21 GMT 51.96419 -0.25772 6,000 50 220 0
2017-12-10 08:17:19 GMT 51.96352 -0.25896 6,000 52 219 0
2017-12-10 08:17:17 GMT 51.96231 -0.26148 6,000 59 216 -64
2017-12-10 08:17:15 GMT 51.96105 -0.26438 6,000 59 216 -64
2017-12-10 08:17:11 GMT 51.95900 -0.27034 6,000 67 210 0
2017-12-10 08:17:09 GMT 51.95830 -0.27285 6,000 67 210 0
2017-12-10 08:17:07 GMT 51.95714 -0.27718 6,000 68 210 0
2017-12-10 08:17:05 GMT 51.95663 -0.27939 6,000 68 210 0
2017-12-10 08:17:02 GMT 51.95560 -0.28337 6,000 68 210 0
2017-12-10 08:17:00 GMT 51.95499 -0.28587 6,000 68 209 0
2017-12-10 08:16:58 GMT 51.95430 -0.28870 6,000 68 209 0
2017-12-10 08:16:56 GMT 51.95379 -0.29082 6,000 67 209 0
2017-12-10 08:16:54 GMT 51.95276 -0.29490 6,000 67 209 0
2017-12-10 08:16:51 GMT 51.95179 -0.29891 6,000 67 208 0
2017-12-10 08:16:49 GMT 51.95099 -0.30197 6,000 67 208 0
2017-12-10 08:16:47 GMT 51.95018 -0.30510 6,000 66 208 0
2017-12-10 08:16:44 GMT 51.94917 -0.30907 6,000 67 208 0
2017-12-10 08:16:41 GMT 51.94817 -0.31303 6,000 67 208 0
2017-12-10 08:16:39 GMT 51.94704 -0.31735 6,000 66 208 0
2017-12-10 08:16:36 GMT 51.94629 -0.32041 6,000 67 208 0
2017-12-10 08:16:34 GMT 51.94546 -0.32349 6,000 67 208 0
2017-12-10 08:16:31 GMT 51.94434 -0.32778 6,000 66 208 0
2017-12-10 08:16:29 GMT 51.94364 -0.33053 6,000 66 208 0
2017-12-10 08:16:27 GMT 51.94257 -0.33453 6,000 66 208 0
2017-12-10 08:16:25 GMT 51.94217 -0.33608 6,000 66 208 0
2017-12-10 08:16:23 GMT 51.94125 -0.33943 6,000 66 208 0
2017-12-10 08:16:21 GMT 51.94029 -0.34309 6,000 66 209 0
2017-12-10 08:16:19 GMT 51.93956 -0.34592 6,000 66 209 0
2017-12-10 08:16:17 GMT 51.93875 -0.34897 6,000 67 209 0
2017-12-10 08:16:15 GMT 51.93832 -0.35049 6,000 66 209 0
2017-12-10 08:16:13 GMT 51.93704 -0.35538 6,000 67 209 0
2017-12-10 08:16:11 GMT 51.93663 -0.35698 6,000 67 209 64
2017-12-10 08:16:09 GMT 51.93600 -0.35949 6,000 67 209 64
2017-12-10 08:16:07 GMT 51.93498 -0.36349 6,000 69 209 128
2017-12-10 08:16:05 GMT 51.93424 -0.36655 6,000 72 208 64
2017-12-10 08:16:03 GMT 51.93405 -0.36749 6,000 71 208 64
2017-12-10 08:16:01 GMT 51.93326 -0.37126 6,000 76 207 0
2017-12-10 08:15:59 GMT 51.93279 -0.37416 6,000 81 205 0
2017-12-10 08:15:59 GMT 51.93279 -0.37416 6,000 81 205 0
2017-12-10 08:15:57 GMT 51.93251 -0.37613 6,000 83 205 0
2017-12-10 08:15:55 GMT 51.93214 -0.38130 6,000 93 203 -64
2017-12-10 08:15:53 GMT 51.93205 -0.38327 6,000 96 202 -64
2017-12-10 08:15:51 GMT 51.93205 -0.38650 6,000 94 202 -64
2017-12-10 08:15:49 GMT 51.93214 -0.39040 6,000 101 202 0
2017-12-10 08:15:47 GMT 51.93228 -0.39166 6,000 99 202 0
2017-12-10 08:15:45 GMT 51.93260 -0.39520 6,000 105 200 0
2017-12-10 08:15:43 GMT 51.93306 -0.39864 6,000 108 199 0
2017-12-10 08:15:41 GMT 51.93343 -0.40077 6,000 111 199 0
2017-12-10 08:15:39 GMT 51.93407 -0.40382 6,000 113 198 -64
2017-12-10 08:15:37 GMT 51.93507 -0.40764 6,000 119 198 0
2017-12-10 08:15:35 GMT 51.93549 -0.40909 6,000 120 198 0
2017-12-10 08:15:33 GMT 51.93670 -0.41269 6,000 124 197 0
2017-12-10 08:15:31 GMT 51.93787 -0.41552 6,000 127 198 0
2017-12-10 08:15:29 GMT 51.93922 -0.41834 6,000 130 197 -64
2017-12-10 08:15:27 GMT 51.93979 -0.41954 6,000 133 198 0
2017-12-10 08:15:25 GMT 51.94070 -0.42122 6,000 135 197 0
2017-12-10 08:15:23 GMT 51.94208 -0.42343 6,000 139 197 0
2017-12-10 08:15:21 GMT 51.94355 -0.42556 6,000 141 197 0
2017-12-10 08:15:19 GMT 51.94505 -0.42755 6,000 146 198 0
2017-12-10 08:15:17 GMT 51.94732 -0.43012 6,000 149 198 0
2017-12-10 08:15:15 GMT 51.94829 -0.43114 6,000 156 199 0
2017-12-10 08:15:13 GMT 51.94964 -0.43231 6,000 154 199 0
2017-12-10 08:15:11 GMT 51.95215 -0.43419 6,000 159 200 0
2017-12-10 08:15:09 GMT 51.95253 -0.43451 6,000 162 200 -64
2017-12-10 08:15:07 GMT 51.95453 -0.43564 6,000 164 200 -64
2017-12-10 08:15:05 GMT 51.95663 -0.43663 6,000 167 201 -64
2017-12-10 08:15:03 GMT 51.95798 -0.43718 6,000 173 204 0
2017-12-10 08:15:01 GMT 51.96017 -0.43780 6,000 173 204 0
2017-12-10 08:14:59 GMT 51.96198 -0.43820 6,000 178 205 64
2017-12-10 08:14:57 GMT 51.96401 -0.43846 6,000 181 206 0
2017-12-10 08:14:55 GMT 51.96639 -0.43831 6,000 186 207 0
2017-12-10 08:14:53 GMT 51.96881 -0.43793 6,000 190 207 0
2017-12-10 08:14:51 GMT 51.96945 -0.43785 6,000 192 207 0
2017-12-10 08:14:49 GMT 51.97128 -0.43732 6,000 195 210 64
2017-12-10 08:14:47 GMT 51.97408 -0.43616 6,000 199 210 64
2017-12-10 08:14:45 GMT 51.97545 -0.43533 6,000 205 213 64
2017-12-10 08:14:43 GMT 51.97719 -0.43419 6,000 207 214 64
2017-12-10 08:14:41 GMT 51.97855 -0.43318 6,000 211 215 64
2017-12-10 08:14:39 GMT 51.98076 -0.43121 6,000 216 217 64
2017-12-10 08:14:37 GMT 51.98214 -0.42964 6,000 220 220 64
2017-12-10 08:14:35 GMT 51.98424 -0.42702 6,000 227 222 64
2017-12-10 08:14:33 GMT 51.98547 -0.42503 6,000 229 224 64
2017-12-10 08:14:30 GMT 51.98740 -0.42160 6,000 233 226 0
2017-12-10 08:14:28 GMT 51.98861 -0.41905 6,000 238 227 -64
2017-12-10 08:14:26 GMT 51.98964 -0.41664 6,000 242 229 -64
2017-12-10 08:14:24 GMT 51.99101 -0.41244 6,000 245 231 -64
2017-12-10 08:14:21 GMT 51.99266 -0.40642 6,000 248 231 0
2017-12-10 08:14:19 GMT 51.99312 -0.40466 6,000 249 232 0
2017-12-10 08:14:17 GMT 51.99364 -0.40257 6,000 249 232 0
2017-12-10 08:14:15 GMT 51.99468 -0.39841 6,000 249 232 0
2017-12-10 08:14:13 GMT 51.99568 -0.39429 6,000 249 232 0
2017-12-10 08:14:11 GMT 51.99638 -0.39151 6,000 249 232 0
2017-12-10 08:14:09 GMT 51.99713 -0.38844 6,000 249 232 0
2017-12-10 08:14:07 GMT 51.99778 -0.38570 6,000 249 232 0
2017-12-10 08:14:05 GMT 51.99894 -0.38115 6,000 248 231 0
2017-12-10 08:14:02 GMT 52.00020 -0.37605 6,000 248 232 0
2017-12-10 08:13:58 GMT 52.00132 -0.37157 6,000 248 231 0
2017-12-10 08:13:56 GMT 52.00229 -0.36781 6,000 248 231 0
2017-12-10 08:13:54 GMT 52.00281 -0.36577 6,000 248 231 0
2017-12-10 08:13:52 GMT 52.00397 -0.36129 6,000 248 231 0
2017-12-10 08:13:50 GMT 52.00456 -0.35896 6,000 248 230 0
2017-12-10 08:13:50 GMT 52.00456 -0.35896 6,000 248 230 0
2017-12-10 08:13:48 GMT 52.00552 -0.35522 6,000 248 231 0
2017-12-10 08:13:46 GMT 52.00658 -0.35109 6,000 247 231 0
2017-12-10 08:13:43 GMT 52.00786 -0.34630 6,000 247 231 -64
2017-12-10 08:13:40 GMT 52.00937 -0.34058 6,000 247 231 0
2017-12-10 08:13:38 GMT 52.00984 -0.33885 6,000 247 231 0
2017-12-10 08:13:36 GMT 52.01038 -0.33684 6,000 247 231 0
2017-12-10 08:13:34 GMT 52.01157 -0.33241 6,000 247 231 0
2017-12-10 08:13:32 GMT 52.01225 -0.32974 6,000 247 231 0
2017-12-10 08:13:30 GMT 52.01291 -0.32739 6,025 247 232 0
2017-12-10 08:13:28 GMT 52.01426 -0.32229 6,025 248 232 0
2017-12-10 08:13:26 GMT 52.01505 -0.31923 6,025 248 231 64
2017-12-10 08:13:23 GMT 52.01635 -0.31405 6,025 251 233 64
2017-12-10 08:13:20 GMT 52.01715 -0.31052 6,000 263 237 0
2017-12-10 08:13:18 GMT 52.01784 -0.30693 6,000 257 235 0
2017-12-10 08:13:16 GMT 52.01830 -0.30365 6,000 261 236 0
2017-12-10 08:13:14 GMT 52.01875 -0.29953 6,000 267 238 0
2017-12-10 08:13:12 GMT 52.01896 -0.29608 6,000 271 240 0
2017-12-10 08:13:10 GMT 52.01896 -0.29349 6,000 271 240 0
2017-12-10 08:13:08 GMT 52.01887 -0.28965 6,000 279 242 0
2017-12-10 08:13:06 GMT 52.01852 -0.28503 6,000 283 243 0
2017-12-10 08:13:04 GMT 52.01817 -0.28196 6,000 285 244 0
2017-12-10 08:13:02 GMT 52.01752 -0.27819 6,000 291 245 0
2017-12-10 08:13:00 GMT 52.01645 -0.27332 6,000 295 245 0
2017-12-10 08:12:58 GMT 52.01605 -0.27191 6,000 297 246 0
2017-12-10 08:12:56 GMT 52.01472 -0.26771 6,000 304 247 0
2017-12-10 08:12:54 GMT 52.01370 -0.26501 6,000 308 246 0
2017-12-10 08:12:52 GMT 52.01235 -0.26218 6,000 310 246 0
2017-12-10 08:12:50 GMT 52.01081 -0.25920 6,000 314 246 0
2017-12-10 08:12:47 GMT 52.00863 -0.25559 6,000 322 245 0
2017-12-10 08:12:45 GMT 52.00749 -0.25398 6,000 325 245 0
2017-12-10 08:12:43 GMT 52.00434 -0.25033 6,000 331 244 0
2017-12-10 08:12:41 GMT 52.00246 -0.24857 6,000 335 243 0
2017-12-10 08:12:38 GMT 51.99945 -0.24625 6,000 341 241 0
2017-12-10 08:12:36 GMT 51.99806 -0.24544 6,000 343 241 0
2017-12-10 08:12:34 GMT 51.99606 -0.24437 6,000 351 239 0
2017-12-10 08:12:32 GMT 51.99396 -0.24358 6,000 351 239 0
2017-12-10 08:12:30 GMT 51.99069 -0.24277 6,000 357 237 0
2017-12-10 08:12:28 GMT 51.98790 -0.24262 6,000 2 235 0
2017-12-10 08:12:26 GMT 51.98763 -0.24254 6,000 2 235 0
2017-12-10 08:12:24 GMT 51.98419 -0.24288 6,000 8 232 0
2017-12-10 08:12:22 GMT 51.98282 -0.24315 6,000 12 231 0
2017-12-10 08:12:20 GMT 51.98121 -0.24366 6,000 14 230 0
2017-12-10 08:12:18 GMT 51.97774 -0.24521 6,000 21 227 0
2017-12-10 08:12:16 GMT 51.97646 -0.24594 6,000 23 227 0
2017-12-10 08:12:14 GMT 51.97499 -0.24689 6,000 27 225 64
2017-12-10 08:12:12 GMT 51.97201 -0.24933 6,000 32 224 64
2017-12-10 08:12:10 GMT 51.97105 -0.25032 6,000 36 222 64
2017-12-10 08:12:08 GMT 51.96906 -0.25245 6,000 40 221 0
2017-12-10 08:12:06 GMT 51.96747 -0.25449 6,000 44 219 0
2017-12-10 08:12:04 GMT 51.96620 -0.25642 6,000 46 219 0
2017-12-10 08:12:02 GMT 51.96487 -0.25857 6,000 49 217 0
2017-12-10 08:12:00 GMT 51.96300 -0.26202 6,000 54 216 0
2017-12-10 08:11:58 GMT 51.96165 -0.26508 6,000 64 213 -64
2017-12-10 08:11:56 GMT 51.96054 -0.26807 6,000 61 213 -64
2017-12-10 08:11:54 GMT 51.96003 -0.26956 6,000 61 213 -64
2017-12-10 08:11:52 GMT 51.95915 -0.27222 6,000 65 212 -64
2017-12-10 08:11:50 GMT 51.95826 -0.27536 6,000 67 212 0
2017-12-10 08:11:48 GMT 51.95765 -0.27780 6,000 68 211 0
2017-12-10 08:11:46 GMT 51.95654 -0.28221 6,000 68 212 0
2017-12-10 08:11:44 GMT 51.95613 -0.28381 6,000 68 212 64
2017-12-10 08:11:41 GMT 51.95458 -0.29004 6,000 67 211 0
2017-12-10 08:11:39 GMT 51.95435 -0.29098 6,000 67 211 0
2017-12-10 08:11:39 GMT 51.95435 -0.29098 6,000 67 211 0
2017-12-10 08:11:37 GMT 51.95355 -0.29420 6,000 67 211 0
2017-12-10 08:11:35 GMT 51.95272 -0.29757 6,000 67 211 0
2017-12-10 08:11:31 GMT 51.95137 -0.30291 6,000 67 211 0
2017-12-10 08:11:28 GMT 51.95020 -0.30762 6,000 67 211 0
2017-12-10 08:11:26 GMT 51.94941 -0.31068 6,000 67 211 0
2017-12-10 08:11:24 GMT 51.94876 -0.31326 6,000 67 212 0
2017-12-10 08:11:22 GMT 51.94803 -0.31601 6,000 67 212 0
2017-12-10 08:11:20 GMT 51.94725 -0.31914 6,000 67 211 0
2017-12-10 08:11:18 GMT 51.94606 -0.32379 6,000 67 211 0
2017-12-10 08:11:16 GMT 51.94573 -0.32512 6,000 67 210 0
2017-12-10 08:11:14 GMT 51.94469 -0.32913 6,000 67 210 0
2017-12-10 08:11:12 GMT 51.94441 -0.33005 6,000 66 208 0
2017-12-10 08:11:10 GMT 51.94345 -0.33371 6,000 66 209 0
2017-12-10 08:11:08 GMT 51.94280 -0.33626 6,000 66 208 0
2017-12-10 08:11:06 GMT 51.94192 -0.33956 6,000 66 208 0
2017-12-10 08:11:04 GMT 51.94093 -0.34332 6,000 66 208 0
2017-12-10 08:11:01 GMT 51.94005 -0.34662 6,000 66 208 0
2017-12-10 08:10:59 GMT 51.93936 -0.34936 6,000 67 208 0
2017-12-10 08:10:57 GMT 51.93843 -0.35274 6,000 67 208 0
2017-12-10 08:10:55 GMT 51.93805 -0.35431 6,000 67 208 0
2017-12-10 08:10:53 GMT 51.93666 -0.35980 6,000 68 207 0
2017-12-10 08:10:50 GMT 51.93596 -0.36255 6,000 69 207 64
2017-12-10 08:10:48 GMT 51.93530 -0.36537 6,000 70 207 64
2017-12-10 08:10:46 GMT 51.93466 -0.36812 6,000 72 206 64
2017-12-10 08:10:44 GMT 51.93384 -0.37224 6,000 75 206 0
2017-12-10 08:10:42 GMT 51.93338 -0.37544 6,000 79 204 0
2017-12-10 08:10:40 GMT 51.93315 -0.37766 6,000 85 203 0
2017-12-10 08:10:38 GMT 51.93292 -0.38025 6,000 85 203 0
2017-12-10 08:10:36 GMT 51.93274 -0.38322 6,000 89 203 0
2017-12-10 08:10:34 GMT 51.93270 -0.38711 6,000 94 201 0
2017-12-10 08:10:32 GMT 51.93274 -0.38872 6,000 97 200 0
2017-12-10 08:10:30 GMT 51.93293 -0.39260 6,000 100 200 0
2017-12-10 08:10:28 GMT 51.93344 -0.39684 6,000 104 200 0
2017-12-10 08:10:26 GMT 51.93366 -0.39825 6,000 105 199 0
2017-12-10 08:10:24 GMT 51.93411 -0.40100 6,000 109 198 0
2017-12-10 08:10:22 GMT 51.93484 -0.40461 6,000 112 199 0
2017-12-10 08:10:20 GMT 51.93572 -0.40779 6,000 117 198 -64
2017-12-10 08:10:18 GMT 51.93624 -0.40948 6,000 123 198 0
2017-12-10 08:10:16 GMT 51.93717 -0.41230 6,000 123 198 0
2017-12-10 08:10:14 GMT 51.93810 -0.41473 6,000 126 197 0
2017-12-10 08:10:10 GMT 51.94061 -0.41999 6,000 133 198 0
2017-12-10 08:10:10 GMT 51.94098 -0.42070 6,000 135 197 0
2017-12-10 08:10:08 GMT 51.94190 -0.42229 6,000 138 197 0
2017-12-10 08:10:05 GMT 51.94418 -0.42564 6,000 141 198 0
2017-12-10 08:10:03 GMT 51.94480 -0.42650 6,000 143 198 -64
2017-12-10 08:10:01 GMT 51.94625 -0.42823 6,000 146 198 -64
2017-12-10 08:09:59 GMT 51.94849 -0.43060 6,000 154 199 -64
2017-12-10 08:09:57 GMT 51.94937 -0.43145 6,000 154 199 -64
2017-12-10 08:09:55 GMT 51.95187 -0.43343 6,000 158 200 64
2017-12-10 08:09:53 GMT 51.95276 -0.43404 6,000 159 201 0
2017-12-10 08:09:51 GMT 51.95462 -0.43526 6,000 164 202 0
2017-12-10 08:09:49 GMT 51.95723 -0.43640 6,000 168 203 0
2017-12-10 08:09:47 GMT 51.95807 -0.43671 6,000 169 203 0
2017-12-10 08:09:45 GMT 51.96043 -0.43747 6,000 176 205 0
2017-12-10 08:09:43 GMT 51.96142 -0.43765 6,000 176 205 0
2017-12-10 08:09:41 GMT 51.96387 -0.43785 6,000 182 207 0
2017-12-10 08:09:39 GMT 51.96611 -0.43785 6,000 186 208 0
2017-12-10 08:09:37 GMT 51.96813 -0.43765 6,000 190 209 0
2017-12-10 08:09:35 GMT 51.96896 -0.43749 6,000 191 210 64
2017-12-10 08:09:33 GMT 51.97224 -0.43640 6,000 199 212 64
2017-12-10 08:09:31 GMT 51.97403 -0.43556 6,000 201 214 64
2017-12-10 08:09:28 GMT 51.97641 -0.43419 6,000 207 216 64
2017-12-10 08:09:26 GMT 51.97758 -0.43333 6,000 211 217 64
2017-12-10 08:09:26 GMT 51.97799 -0.43310 6,000 211 217 64
2017-12-10 08:09:24 GMT 51.98088 -0.43035 6,000 214 219 64
2017-12-10 08:09:22 GMT 51.98149 -0.42972 6,000 216 220 64
2017-12-10 08:09:19 GMT 51.98396 -0.42679 6,000 224 223 64
2017-12-10 08:09:17 GMT 51.98586 -0.42384 6,000 229 225 0
2017-12-10 08:09:15 GMT 51.98689 -0.42198 6,000 231 226 0
2017-12-10 08:09:13 GMT 51.98805 -0.41968 6,000 235 227 -64
2017-12-10 08:09:10 GMT 51.98945 -0.41646 6,000 243 231 -128
2017-12-10 08:09:08 GMT 51.99152 -0.41046 6,000 246 232 -64
2017-12-10 08:09:06 GMT 51.99215 -0.40830 6,000 249 232 0
2017-12-10 08:09:04 GMT 51.99271 -0.40626 6,000 249 233 0
2017-12-10 08:09:02 GMT 51.99353 -0.40283 6,000 249 233 0
2017-12-10 08:09:00 GMT 51.99457 -0.39865 6,000 249 233 0
2017-12-10 08:08:57 GMT 51.99559 -0.39452 6,000 249 233 0
2017-12-10 08:08:55 GMT 51.99629 -0.39174 6,000 249 232 0
2017-12-10 08:08:53 GMT 51.99737 -0.38727 6,000 249 232 0
2017-12-10 08:08:50 GMT 51.99834 -0.38345 6,000 249 232 0
2017-12-10 08:08:48 GMT 51.99936 -0.37926 6,000 248 231 0
2017-12-10 08:08:46 GMT 51.99980 -0.37758 6,000 248 232 0
2017-12-10 08:08:44 GMT 52.00080 -0.37346 6,000 248 232 0
2017-12-10 08:08:41 GMT 52.00178 -0.36969 6,000 248 232 0
2017-12-10 08:08:39 GMT 52.00282 -0.36560 6,000 248 232 0
2017-12-10 08:08:37 GMT 52.00364 -0.36247 6,000 248 232 0
2017-12-10 08:08:35 GMT 52.00462 -0.35870 6,000 247 232 0
2017-12-10 08:08:33 GMT 52.00532 -0.35604 6,000 247 232 0
2017-12-10 08:08:31 GMT 52.00611 -0.35298 6,000 247 232 0
2017-12-10 08:08:29 GMT 52.00745 -0.34790 6,000 247 232 0
2017-12-10 08:08:27 GMT 52.00811 -0.34536 6,000 247 232 0
2017-12-10 08:08:25 GMT 52.00900 -0.34199 6,000 247 232 0
2017-12-10 08:08:23 GMT 52.00937 -0.34058 6,000 247 232 -64
2017-12-10 08:08:21 GMT 52.01047 -0.33661 6,000 247 232 -64
2017-12-10 08:08:19 GMT 52.01119 -0.33383 6,000 247 232 0
2017-12-10 08:08:17 GMT 52.01254 -0.32873 6,025 247 232 0
2017-12-10 08:08:15 GMT 52.01317 -0.32638 6,025 247 232 0
2017-12-10 08:08:13 GMT 52.01349 -0.32524 6,025 248 232 0
2017-12-10 08:08:11 GMT 52.01436 -0.32188 6,025 248 232 0
2017-12-10 08:08:09 GMT 52.01579 -0.31641 6,025 251 234 128
2017-12-10 08:08:06 GMT 52.01660 -0.31296 6,025 252 234 64
2017-12-10 08:08:06 GMT 52.01660 -0.31296 6,025 252 234 64
2017-12-10 08:08:04 GMT 52.01766 -0.30770 6,000 256 236 0
2017-12-10 08:08:02 GMT 52.01816 -0.30472 6,000 262 238 0
2017-12-10 08:08:02 GMT 52.01798 -0.30581 6,000 262 238 0
2017-12-10 08:08:00 GMT 52.01835 -0.30322 6,000 262 238 0
2017-12-10 08:07:58 GMT 52.01887 -0.29600 6,000 270 241 0
2017-12-10 08:07:55 GMT 52.01891 -0.29365 6,000 272 242 0
2017-12-10 08:07:53 GMT 52.01882 -0.29020 6,000 276 243 0
2017-12-10 08:07:51 GMT 52.01866 -0.28709 6,000 280 244 0
2017-12-10 08:07:49 GMT 52.01820 -0.28252 6,000 286 245 0
2017-12-10 08:07:47 GMT 52.01765 -0.27908 6,000 288 246 0
2017-12-10 08:07:45 GMT 52.01700 -0.27576 6,000 292 246 0
2017-12-10 08:07:43 GMT 52.01635 -0.27309 6,000 298 247 0
2017-12-10 08:07:41 GMT 52.01532 -0.26955 6,000 300 247 0
2017-12-10 08:07:39 GMT 52.01385 -0.26543 6,000 309 247 0
2017-12-10 08:07:37 GMT 52.01184 -0.26093 6,000 311 248 0
2017-12-10 08:07:35 GMT 52.01137 -0.25998 6,000 313 247 0
2017-12-10 08:07:33 GMT 52.00974 -0.25708 6,000 321 247 0
2017-12-10 08:07:33 GMT 52.00974 -0.25708 6,000 317 247 0
2017-12-10 08:07:30 GMT 52.00606 -0.25182 6,000 327 246 0
2017-12-10 08:07:28 GMT 52.00507 -0.25078 6,000 331 245 0
2017-12-10 08:07:26 GMT 52.00262 -0.24829 6,000 333 245 0
2017-12-10 08:07:24 GMT 52.00154 -0.24734 6,000 337 244 0
2017-12-10 08:07:22 GMT 51.99824 -0.24498 6,000 339 243 0
2017-12-10 08:07:20 GMT 51.99708 -0.24421 6,000 345 242 0
2017-12-10 08:07:18 GMT 51.99550 -0.24350 6,000 347 242 0
2017-12-10 08:07:16 GMT 51.99220 -0.24231 6,000 353 239 0
2017-12-10 08:07:14 GMT 51.99108 -0.24201 6,000 355 240 0
2017-12-10 08:07:12 GMT 51.98847 -0.24170 6,000 359 238 0
2017-12-10 08:07:09 GMT 51.98515 -0.24170 6,000 7 235 0
2017-12-10 08:07:07 GMT 51.98286 -0.24208 6,000 9 234 64
2017-12-10 08:07:05 GMT 51.98035 -0.24284 6,000 14 231 0
2017-12-10 08:07:03 GMT 51.97813 -0.24374 6,000 20 230 0
2017-12-10 08:07:01 GMT 51.97641 -0.24468 6,000 22 229 0
2017-12-10 08:06:59 GMT 51.97450 -0.24594 6,000 26 227 64
2017-12-10 08:06:56 GMT 51.97148 -0.24837 6,000 33 224 0
2017-12-10 08:06:54 GMT 51.97018 -0.24971 6,000 35 224 0
2017-12-10 08:06:52 GMT 51.96817 -0.25200 6,000 39 223 0
2017-12-10 08:06:50 GMT 51.96730 -0.25314 6,000 43 221 0
2017-12-10 08:06:47 GMT 51.96510 -0.25650 6,000 48 219 0
2017-12-10 08:06:45 GMT 51.96323 -0.25986 6,000 52 217 0
2017-12-10 08:06:42 GMT 51.96135 -0.26405 6,000 59 214 -64
2017-12-10 08:06:40 GMT 51.96063 -0.26579 6,000 60 213 -64
2017-12-10 08:06:38 GMT 51.95975 -0.26815 6,000 63 212 -64
2017-12-10 08:06:36 GMT 51.95853 -0.27215 6,000 66 212 -64
2017-12-10 08:06:34 GMT 51.95760 -0.27552 6,000 68 211 0
2017-12-10 08:06:32 GMT 51.95723 -0.27710 6,000 68 211 0
2017-12-10 08:06:30 GMT 51.95636 -0.28053 6,000 68 211 0
2017-12-10 08:06:28 GMT 51.95576 -0.28305 6,000 68 211 0
2017-12-10 08:06:26 GMT 51.95476 -0.28709 6,000 68 211 0
2017-12-10 08:06:24 GMT 51.95403 -0.28992 6,000 68 211 0
2017-12-10 08:06:22 GMT 51.95357 -0.29175 6,000 68 211 0
2017-12-10 08:06:20 GMT 51.95256 -0.29587 6,000 68 211 0
2017-12-10 08:06:17 GMT 51.95160 -0.29961 6,000 67 211 0
2017-12-10 08:06:15 GMT 51.95082 -0.30273 6,000 67 211 0
2017-12-10 08:06:13 GMT 51.95018 -0.30525 6,000 67 210 0
2017-12-10 08:06:11 GMT 51.94895 -0.31021 6,000 67 210 0
2017-12-10 08:06:09 GMT 51.94872 -0.31113 6,000 67 210 0
2017-12-10 08:06:07 GMT 51.94798 -0.31395 6,000 67 211 0
2017-12-10 08:06:05 GMT 51.94690 -0.31829 6,000 67 211 0
2017-12-10 08:06:02 GMT 51.94592 -0.32204 6,000 67 210 0
2017-12-10 08:06:00 GMT 51.94542 -0.32387 6,000 67 210 0
2017-12-10 08:05:58 GMT 51.94434 -0.32818 6,000 67 210 0
2017-12-10 08:05:56 GMT 51.94391 -0.32974 6,000 67 210 0
2017-12-10 08:05:54 GMT 51.94299 -0.33318 6,000 66 211 0
2017-12-10 08:05:52 GMT 51.94238 -0.33563 6,000 66 211 0
2017-12-10 08:05:50 GMT 51.94162 -0.33844 6,000 66 211 0
2017-12-10 08:05:48 GMT 51.94066 -0.34215 6,000 66 211 0
2017-12-10 08:05:46 GMT 51.94005 -0.34434 6,000 66 211 0
2017-12-10 08:05:44 GMT 51.93908 -0.34811 6,000 66 211 0
2017-12-10 08:05:42 GMT 51.93847 -0.35023 6,000 66 211 0
2017-12-10 08:05:40 GMT 51.93709 -0.35538 6,000 66 211 0
2017-12-10 08:05:38 GMT 51.93663 -0.35698 6,000 66 211 0
2017-12-10 08:05:37 GMT 51.93614 -0.35886 6,000 69 210 64
2017-12-10 08:05:36 GMT 51.93636 -0.35797 6,000 67 210 0
2017-12-10 08:05:34 GMT 51.93526 -0.36224 6,000 67 210 64
2017-12-10 08:05:32 GMT 51.93420 -0.36629 6,000 70 210 64
2017-12-10 08:05:30 GMT 51.93377 -0.36820 6,000 71 209 0
2017-12-10 08:05:28 GMT 51.93326 -0.37071 6,000 76 207 0
2017-12-10 08:05:26 GMT 51.93269 -0.37392 6,000 80 205 0
2017-12-10 08:05:24 GMT 51.93210 -0.37903 6,000 83 205 0
2017-12-10 08:05:22 GMT 51.93200 -0.38044 6,000 85 204 0
2017-12-10 08:05:20 GMT 51.93177 -0.38405 6,000 90 203 -64
2017-12-10 08:05:18 GMT 51.93177 -0.38695 6,000 97 201 0
2017-12-10 08:05:16 GMT 51.93191 -0.39080 6,000 97 201 0
2017-12-10 08:05:14 GMT 51.93196 -0.39207 6,000 97 201 0
2017-12-10 08:05:12 GMT 51.93223 -0.39559 6,000 103 200 0
2017-12-10 08:05:10 GMT 51.93256 -0.39778 6,000 113 199 0
2017-12-10 08:05:08 GMT 51.93307 -0.40084 6,000 108 199 0
2017-12-10 08:05:06 GMT 51.93397 -0.40504 6,000 112 200 0
2017-12-10 08:05:03 GMT 51.93489 -0.40861 6,000 119 199 0
2017-12-10 08:05:01 GMT 51.93554 -0.41050 6,000 120 199 0
2017-12-10 08:04:59 GMT 51.93633 -0.41277 6,000 124 198 0
2017-12-10 08:04:57 GMT 51.93731 -0.41513 6,000 126 199 0
2017-12-10 08:04:55 GMT 51.93870 -0.41819 6,000 131 199 0
2017-12-10 08:04:53 GMT 51.93959 -0.41991 6,000 134 198 0
2017-12-10 08:04:51 GMT 51.94125 -0.42259 6,000 138 199 0
2017-12-10 08:04:49 GMT 51.94318 -0.42534 6,000 143 199 0
2017-12-10 08:04:47 GMT 51.94424 -0.42674 6,000 147 200 0
2017-12-10 08:04:44 GMT 51.94638 -0.42894 6,000 153 200 0
2017-12-10 08:04:42 GMT 51.94829 -0.43074 6,000 156 201 0
2017-12-10 08:04:40 GMT 51.94974 -0.43184 6,000 160 201 0
2017-12-10 08:04:37 GMT 51.95253 -0.43349 6,000 167 203 0
2017-12-10 08:04:34 GMT 51.95490 -0.43449 6,000 169 204 0
2017-12-10 08:04:32 GMT 51.95741 -0.43518 6,000 175 205 0
2017-12-10 08:04:29 GMT 51.95906 -0.43549 6,000 182 207 0
2017-12-10 08:04:26 GMT 51.96272 -0.43556 6,000 187 208 0
2017-12-10 08:04:24 GMT 51.96538 -0.43506 6,000 191 209 0
2017-12-10 08:04:22 GMT 51.96640 -0.43482 6,000 201 212 0
2017-12-10 08:04:20 GMT 51.96886 -0.43388 6,000 199 212 0
2017-12-10 08:04:17 GMT 51.97101 -0.43278 6,000 216 219 0
2017-12-10 08:04:15 GMT 51.97334 -0.43129 6,000 208 215 0
2017-12-10 08:04:13 GMT 51.97529 -0.42972 6,000 216 219 0
2017-12-10 08:04:11 GMT 51.97618 -0.42892 6,000 213 218 0
2017-12-10 08:04:09 GMT 51.97787 -0.42725 6,000 216 219 0
2017-12-10 08:04:07 GMT 51.97967 -0.42525 6,000 219 220 0
2017-12-10 08:04:05 GMT 51.98122 -0.42328 6,000 222 222 0
2017-12-10 08:04:03 GMT 51.98364 -0.41977 6,000 228 225 0
2017-12-10 08:04:01 GMT 51.98474 -0.41802 6,000 228 225 0
2017-12-10 08:03:59 GMT 51.98609 -0.41568 6,000 231 226 0
2017-12-10 08:03:57 GMT 51.98716 -0.41379 6,000 232 226 0
2017-12-10 08:03:55 GMT 51.98879 -0.41042 6,000 235 228 0
2017-12-10 08:03:53 GMT 51.98987 -0.40802 6,000 236 229 0
2017-12-10 08:03:51 GMT 51.99092 -0.40566 6,000 236 228 0
2017-12-10 08:03:49 GMT 51.99354 -0.39943 6,000 237 229 0
2017-12-10 08:03:46 GMT 51.99399 -0.39841 6,000 237 229 0
2017-12-10 08:03:44 GMT 51.99486 -0.39627 6,000 237 229 0
2017-12-10 08:03:42 GMT 51.99647 -0.39237 6,000 237 229 0
2017-12-10 08:03:40 GMT 51.99724 -0.39055 6,000 237 229 0
2017-12-10 08:03:38 GMT 51.99834 -0.38782 6,000 237 229 0
2017-12-10 08:03:36 GMT 52.00040 -0.38292 6,000 237 229 0
2017-12-10 08:03:34 GMT 52.00136 -0.38052 6,000 237 229 0
2017-12-10 08:03:32 GMT 52.00299 -0.37660 6,000 236 228 0
2017-12-10 08:03:30 GMT 52.00342 -0.37560 6,000 236 228 0
2017-12-10 08:03:28 GMT 52.00416 -0.37377 6,000 236 228 0
2017-12-10 08:03:25 GMT 52.00630 -0.36867 6,000 236 228 -64
2017-12-10 08:03:23 GMT 52.00732 -0.36624 6,000 236 227 -64
2017-12-10 08:03:21 GMT 52.00882 -0.36262 6,000 236 227 -64
2017-12-10 08:03:19 GMT 52.01011 -0.35964 6,000 236 227 -64
2017-12-10 08:03:16 GMT 52.01244 -0.35407 6,025 236 226 -64
2017-12-10 08:03:14 GMT 52.01300 -0.35274 6,025 236 226 -64
2017-12-10 08:03:12 GMT 52.01389 -0.35070 6,025 236 224 0
2017-12-10 08:03:10 GMT 52.01527 -0.34744 6,025 236 224 0
2017-12-10 08:03:08 GMT 52.01614 -0.34538 6,025 236 224 0
2017-12-10 08:03:06 GMT 52.01789 -0.34120 6,025 236 223 0
2017-12-10 08:03:04 GMT 52.01891 -0.33885 6,025 236 223 -64
2017-12-10 08:03:02 GMT 52.02054 -0.33500 6,025 236 224 -128
2017-12-10 08:03:02 GMT 52.02026 -0.33563 6,025 236 224 -128
2017-12-10 08:03:02 GMT 52.02054 -0.33500 6,025 236 224 -128
2017-12-10 08:03:00 GMT 52.02177 -0.33211 6,025 235 226 -256
2017-12-10 08:02:58 GMT 52.02217 -0.33116 6,025 235 226 -256
2017-12-10 08:02:56 GMT 52.02347 -0.32822 6,025 235 228 -384
2017-12-10 08:02:54 GMT 52.02464 -0.32551 6,050 235 229 -448
2017-12-10 08:02:54 GMT 52.02464 -0.32551 6,050 235 228 -448
2017-12-10 08:02:52 GMT 52.02608 -0.32229 6,050 235 230 -576
2017-12-10 08:02:50 GMT 52.02715 -0.31986 6,075 235 230 -576
2017-12-10 08:02:48 GMT 52.02846 -0.31692 6,100 235 232 -832
2017-12-10 08:02:46 GMT 52.03009 -0.31335 6,125 235 232 -832
2017-12-10 08:02:44 GMT 52.03181 -0.30950 6,150 236 234 -768
2017-12-10 08:02:42 GMT 52.03265 -0.30754 6,175 238 235 -832
2017-12-10 08:02:40 GMT 52.03307 -0.30660 6,200 238 235 -832
2017-12-10 08:02:38 GMT 52.03507 -0.30157 6,225 242 238 -896
2017-12-10 08:02:35 GMT 52.03614 -0.29859 6,275 245 240 -896
2017-12-10 08:02:33 GMT 52.03757 -0.29373 6,300 251 244 -896
2017-12-10 08:02:30 GMT 52.03856 -0.28933 6,350 255 247 -896
2017-12-10 08:02:28 GMT 52.03930 -0.28510 6,400 259 249 -960
2017-12-10 08:02:25 GMT 52.03995 -0.28007 6,425 268 254 -960
2017-12-10 08:02:23 GMT 52.04024 -0.27607 6,475 268 254 -960
2017-12-10 08:02:21 GMT 52.04031 -0.27328 6,500 270 255 -960
2017-12-10 08:02:19 GMT 52.04028 -0.26838 6,525 274 257 -1024
2017-12-10 08:02:17 GMT 52.04004 -0.26421 6,575 282 260 -1088
2017-12-10 08:02:15 GMT 52.03972 -0.26100 6,600 282 260 -1088
2017-12-10 08:02:13 GMT 52.03926 -0.25771 6,625 286 262 -1088
2017-12-10 08:02:11 GMT 52.03860 -0.25410 6,675 293 263 -1152
2017-12-10 08:02:09 GMT 52.03752 -0.24933 6,725 297 264 -1152
2017-12-10 08:02:07 GMT 52.03665 -0.24628 6,750 301 265 -1088
2017-12-10 08:02:05 GMT 52.03563 -0.24327 6,800 305 265 -1088
2017-12-10 08:02:02 GMT 52.03340 -0.23811 6,850 311 266 -1024
2017-12-10 08:02:00 GMT 52.03106 -0.23346 6,900 315 265 -960
2017-12-10 08:01:58 GMT 52.03088 -0.23315 6,900 323 264 -512
2017-12-10 08:01:56 GMT 52.02882 -0.22987 6,950 321 266 -768
2017-12-10 08:01:54 GMT 52.02580 -0.22575 7,000 325 264 -384
2017-12-10 08:01:52 GMT 52.02434 -0.22400 7,000 326 264 -64
2017-12-10 08:01:50 GMT 52.02282 -0.22232 7,000 327 264 0
2017-12-10 08:01:48 GMT 52.02050 -0.21973 7,000 327 264 -64
2017-12-10 08:01:46 GMT 52.01852 -0.21767 7,025 327 264 -64
2017-12-10 08:01:46 GMT 52.01894 -0.21805 7,025 327 264 -64
2017-12-10 08:01:44 GMT 52.01656 -0.21553 7,025 327 264 0
2017-12-10 08:01:42 GMT 52.01459 -0.21347 7,025 327 264 0
2017-12-10 08:01:40 GMT 52.01138 -0.21004 7,025 327 263 0
2017-12-10 08:01:38 GMT 52.01088 -0.20950 7,025 328 264 0
2017-12-10 08:01:36 GMT 52.00742 -0.20592 7,025 328 264 0
2017-12-10 08:01:34 GMT 52.00606 -0.20450 7,025 328 264 0
2017-12-10 08:01:32 GMT 52.00429 -0.20271 7,025 329 264 64
2017-12-10 08:01:30 GMT 52.00206 -0.20042 7,025 331 265 64
2017-12-10 08:01:28 GMT 51.99890 -0.19752 7,000 334 266 64
2017-12-10 08:01:25 GMT 51.99731 -0.19611 7,000 335 266 64
2017-12-10 08:01:23 GMT 51.99449 -0.19394 7,000 340 266 0
2017-12-10 08:01:21 GMT 51.99154 -0.19202 7,000 343 266 0
2017-12-10 08:01:19 GMT 51.98978 -0.19104 7,000 347 265 64
2017-12-10 08:01:17 GMT 51.98749 -0.19005 7,000 349 264 0
2017-12-10 08:01:15 GMT 51.98497 -0.18936 7,000 353 264 0
2017-12-10 08:01:13 GMT 51.98339 -0.18896 7,000 356 262 0
2017-12-10 08:01:11 GMT 51.97897 -0.18849 7,000 5 260 0
2017-12-10 08:01:09 GMT 51.97774 -0.18868 7,000 7 258 0
2017-12-10 08:01:07 GMT 51.97545 -0.18890 7,000 7 258 0
2017-12-10 08:01:05 GMT 51.97307 -0.18936 7,000 10 257 0
2017-12-10 08:01:03 GMT 51.97138 -0.18991 7,000 16 255 0
2017-12-10 08:01:01 GMT 51.96845 -0.19112 7,000 20 253 0
2017-12-10 08:00:59 GMT 51.96631 -0.19234 7,000 22 252 0
2017-12-10 08:00:57 GMT 51.96355 -0.19424 7,000 27 250 0
2017-12-10 08:00:57 GMT 51.96355 -0.19424 7,000 27 250 0
2017-12-10 08:00:54 GMT 51.96054 -0.19689 7,000 33 248 0
2017-12-10 08:00:52 GMT 51.95810 -0.19951 7,000 39 246 0
2017-12-10 08:00:50 GMT 51.95709 -0.20074 7,000 39 246 0
2017-12-10 08:00:48 GMT 51.95542 -0.20301 7,000 43 244 64
2017-12-10 08:00:46 GMT 51.95314 -0.20662 7,000 49 242 0
2017-12-10 08:00:44 GMT 51.95274 -0.20744 7,000 51 241 0
2017-12-10 08:00:42 GMT 51.95119 -0.21050 7,000 55 240 0
2017-12-10 08:00:40 GMT 51.94988 -0.21361 7,000 59 238 0
2017-12-10 08:00:40 GMT 51.94988 -0.21361 7,000 59 238 0
2017-12-10 08:00:38 GMT 51.94876 -0.21659 7,000 65 236 0
2017-12-10 08:00:36 GMT 51.94713 -0.22224 7,000 69 235 -64
2017-12-10 08:00:34 GMT 51.94676 -0.22381 7,000 71 234 -64
2017-12-10 08:00:32 GMT 51.94620 -0.22659 7,000 76 231 -64
2017-12-10 08:00:30 GMT 51.94551 -0.23094 7,000 80 230 -64
2017-12-10 08:00:28 GMT 51.94532 -0.23236 7,000 81 229 -64
2017-12-10 08:00:26 GMT 51.94487 -0.23743 7,000 82 228 0
2017-12-10 08:00:24 GMT 51.94459 -0.24109 7,000 82 228 0
2017-12-10 08:00:22 GMT 51.94443 -0.24327 7,000 82 228 0
2017-12-10 08:00:19 GMT 51.94400 -0.24834 7,000 82 228 0
2017-12-10 08:00:17 GMT 51.94378 -0.25159 7,000 82 228 0
2017-12-10 08:00:15 GMT 51.94350 -0.25520 7,000 82 228 0
2017-12-10 08:00:13 GMT 51.94317 -0.25888 7,000 82 228 0
2017-12-10 08:00:11 GMT 51.94295 -0.26207 7,000 82 228 0
2017-12-10 08:00:09 GMT 51.94267 -0.26527 7,000 82 228 0
2017-12-10 08:00:07 GMT 51.94243 -0.26854 7,000 82 228 0
2017-12-10 08:00:05 GMT 51.94203 -0.27367 7,000 82 228 0
2017-12-10 08:00:03 GMT 51.94171 -0.27763 7,000 82 228 0
2017-12-10 08:00:01 GMT 51.94164 -0.27874 7,000 82 228 0
2017-12-10 07:59:59 GMT 51.94125 -0.28305 7,000 82 228 0
2017-12-10 07:59:57 GMT 51.94103 -0.28596 7,000 82 228 0
2017-12-10 07:59:55 GMT 51.94075 -0.28957 7,000 82 228 0
2017-12-10 07:59:53 GMT 51.94057 -0.29175 7,000 82 228 0
2017-12-10 07:59:53 GMT 51.94057 -0.29175 7,000 82 228 0
2017-12-10 07:59:51 GMT 51.94015 -0.29678 7,000 82 227 0
2017-12-10 07:59:49 GMT 51.93984 -0.30075 7,000 82 228 0
2017-12-10 07:59:47 GMT 51.93951 -0.30479 7,000 82 227 0
2017-12-10 07:59:45 GMT 51.93940 -0.30652 7,000 82 227 0
2017-12-10 07:59:42 GMT 51.93884 -0.31374 7,000 82 227 0
2017-12-10 07:59:40 GMT 51.93870 -0.31515 7,000 82 227 0
2017-12-10 07:59:38 GMT 51.93843 -0.31852 7,000 82 227 0
2017-12-10 07:59:36 GMT 51.93800 -0.32387 7,000 82 227 0
2017-12-10 07:59:33 GMT 51.93777 -0.32676 7,000 82 227 0
2017-12-10 07:59:31 GMT 51.93750 -0.33035 7,000 82 227 0
2017-12-10 07:59:29 GMT 51.93721 -0.33359 7,000 82 227 0
2017-12-10 07:59:27 GMT 51.93693 -0.33681 7,000 82 227 0
2017-12-10 07:59:25 GMT 51.93670 -0.33971 7,000 82 226 0
2017-12-10 07:59:23 GMT 51.93636 -0.34401 7,000 82 226 0
2017-12-10 07:59:23 GMT 51.93636 -0.34401 7,000 82 226 0
2017-12-10 07:59:21 GMT 51.93600 -0.34834 7,000 82 226 0
2017-12-10 07:59:19 GMT 51.93572 -0.35194 7,000 82 226 0
2017-12-10 07:59:17 GMT 51.93567 -0.35263 7,000 82 226 0
2017-12-10 07:59:15 GMT 51.93526 -0.35768 7,000 82 226 0
2017-12-10 07:59:13 GMT 51.93503 -0.36018 7,000 82 226 0
2017-12-10 07:59:11 GMT 51.93475 -0.36339 7,000 82 226 0
2017-12-10 07:59:09 GMT 51.93442 -0.36765 7,000 82 226 0
2017-12-10 07:59:07 GMT 51.93409 -0.37126 7,000 82 226 0
2017-12-10 07:59:04 GMT 51.93375 -0.37552 7,000 82 226 0
2017-12-10 07:59:02 GMT 51.93338 -0.38025 7,000 82 226 0
2017-12-10 07:59:00 GMT 51.93312 -0.38311 7,000 82 226 0
2017-12-10 07:58:58 GMT 51.93292 -0.38559 7,000 82 226 0
2017-12-10 07:58:56 GMT 51.93270 -0.38844 7,000 82 226 0
2017-12-10 07:58:53 GMT 51.93228 -0.39347 7,000 82 226 0
2017-12-10 07:58:51 GMT 51.93200 -0.39747 7,000 82 226 0
2017-12-10 07:58:49 GMT 51.93173 -0.40031 7,000 82 226 -64
2017-12-10 07:58:47 GMT 51.93132 -0.40566 7,000 82 227 0
2017-12-10 07:58:45 GMT 51.93112 -0.40822 7,000 83 227 0
2017-12-10 07:58:43 GMT 51.93082 -0.41260 7,000 83 227 0
2017-12-10 07:58:41 GMT 51.93059 -0.41580 7,000 84 226 0
2017-12-10 07:58:39 GMT 51.93046 -0.41756 7,000 84 226 0
2017-12-10 07:58:37 GMT 51.93031 -0.42015 7,000 85 226 0
2017-12-10 07:58:35 GMT 51.93009 -0.42446 7,025 88 225 64
2017-12-10 07:58:33 GMT 51.92995 -0.42664 7,000 88 225 64
2017-12-10 07:58:31 GMT 51.92981 -0.43168 7,000 93 223 0
2017-12-10 07:58:29 GMT 51.92986 -0.43451 7,000 93 223 0
2017-12-10 07:58:27 GMT 51.93000 -0.43765 7,000 97 222 0
2017-12-10 07:58:25 GMT 51.93033 -0.44118 7,000 104 220 0
2017-12-10 07:58:23 GMT 51.93059 -0.44327 7,000 104 220 0
2017-12-10 07:58:21 GMT 51.93132 -0.44731 7,000 113 219 0
2017-12-10 07:58:19 GMT 51.93219 -0.45090 7,000 115 219 0
2017-12-10 07:58:17 GMT 51.93306 -0.45372 7,000 122 218 0
2017-12-10 07:58:16 GMT 51.93335 -0.45468 7,000 122 218 0
2017-12-10 07:58:14 GMT 51.93461 -0.45789 7,000 128 218 0
2017-12-10 07:58:12 GMT 51.93672 -0.46211 7,000 133 218 0
2017-12-10 07:58:10 GMT 51.93721 -0.46300 7,000 135 218 0
2017-12-10 07:58:10 GMT 51.93693 -0.46245 7,000 135 218 0
2017-12-10 07:58:08 GMT 51.93878 -0.46532 7,000 140 218 0
2017-12-10 07:58:06 GMT 51.94047 -0.46761 7,000 146 218 0
2017-12-10 07:58:04 GMT 51.94208 -0.46936 7,000 151 220 0
2017-12-10 07:58:02 GMT 51.94414 -0.47119 7,000 155 220 0
2017-12-10 07:58:00 GMT 51.94533 -0.47211 7,000 159 221 0
2017-12-10 07:57:58 GMT 51.94757 -0.47356 7,000 164 222 0
2017-12-10 07:57:55 GMT 51.95032 -0.47478 7,000 168 223 0
2017-12-10 07:57:53 GMT 51.95225 -0.47539 7,000 175 225 0
2017-12-10 07:57:51 GMT 51.95403 -0.47569 7,000 179 227 0
2017-12-10 07:57:49 GMT 51.95719 -0.47586 7,000 195 232 0
2017-12-10 07:57:47 GMT 51.95828 -0.47577 7,000 187 229 0
2017-12-10 07:57:45 GMT 51.96075 -0.47531 7,000 193 231 0
2017-12-10 07:57:45 GMT 51.96075 -0.47531 7,000 190 230 0
2017-12-10 07:57:43 GMT 51.96295 -0.47463 7,000 195 232 0
2017-12-10 07:57:41 GMT 51.96497 -0.47378 7,000 203 235 0
2017-12-10 07:57:39 GMT 51.96739 -0.47241 7,000 205 236 0
2017-12-10 07:57:37 GMT 51.96989 -0.47053 7,000 209 238 0
2017-12-10 07:57:35 GMT 51.97096 -0.46967 7,000 213 239 -64
2017-12-10 07:57:32 GMT 51.97316 -0.46745 7,000 218 242 -64
2017-12-10 07:57:30 GMT 51.97568 -0.46440 7,000 222 243 -64
2017-12-10 07:57:28 GMT 51.97710 -0.46242 7,000 223 244 -64
2017-12-10 07:57:26 GMT 51.97870 -0.46005 7,000 225 244 0
2017-12-10 07:57:24 GMT 51.98126 -0.45609 7,000 225 244 0
2017-12-10 07:57:22 GMT 51.98218 -0.45460 7,000 225 244 0
2017-12-10 07:57:20 GMT 51.98428 -0.45135 7,000 225 244 0
2017-12-10 07:57:20 GMT 51.98428 -0.45135 7,000 225 244 0
2017-12-10 07:57:18 GMT 51.98549 -0.44950 7,000 225 244 0
2017-12-10 07:57:16 GMT 51.98703 -0.44707 7,000 225 243 0
2017-12-10 07:57:14 GMT 51.98842 -0.44487 7,000 225 243 0
2017-12-10 07:57:11 GMT 51.99187 -0.43945 7,000 225 244 0
2017-12-10 07:57:08 GMT 51.99443 -0.43545 7,000 225 244 0
2017-12-10 07:57:06 GMT 51.99517 -0.43427 7,000 225 244 0
2017-12-10 07:57:04 GMT 51.99671 -0.43184 7,000 225 244 0
2017-12-10 07:57:02 GMT 51.99843 -0.42917 7,000 224 244 0
2017-12-10 07:57:00 GMT 52.00039 -0.42619 7,000 224 244 0
2017-12-10 07:56:58 GMT 52.00160 -0.42423 7,000 224 244 0
2017-12-10 07:56:56 GMT 52.00314 -0.42191 7,000 224 244 0
2017-12-10 07:56:54 GMT 52.00490 -0.41913 7,000 224 244 0
2017-12-10 07:56:52 GMT 52.00726 -0.41542 7,000 224 244 0
2017-12-10 07:56:50 GMT 52.00783 -0.41458 7,000 224 244 0
2017-12-10 07:56:48 GMT 52.00974 -0.41159 7,000 224 244 0
2017-12-10 07:56:46 GMT 52.01221 -0.40779 7,000 224 243 0
2017-12-10 07:56:44 GMT 52.01342 -0.40594 7,000 224 244 0
2017-12-10 07:56:42 GMT 52.01496 -0.40351 7,000 224 244 0
2017-12-10 07:56:39 GMT 52.01724 -0.40001 7,000 224 243 0
2017-12-10 07:56:37 GMT 52.01880 -0.39764 7,000 224 243 0
2017-12-10 07:56:35 GMT 52.02072 -0.39467 7,000 224 243 0
2017-12-10 07:56:33 GMT 52.02246 -0.39200 7,000 224 243 0
2017-12-10 07:56:31 GMT 52.02333 -0.39070 7,000 224 243 0
2017-12-10 07:56:29 GMT 52.02557 -0.38727 7,000 224 242 0
2017-12-10 07:56:27 GMT 52.02663 -0.38567 7,000 224 241 0
2017-12-10 07:56:25 GMT 52.02836 -0.38295 7,000 224 241 0
2017-12-10 07:56:23 GMT 52.03079 -0.37926 7,000 224 241 0
2017-12-10 07:56:20 GMT 52.03353 -0.37510 7,000 224 241 0
2017-12-10 07:56:18 GMT 52.03428 -0.37393 7,000 224 241 0
2017-12-10 07:56:16 GMT 52.03601 -0.37132 7,000 224 241 0
2017-12-10 07:56:14 GMT 52.03758 -0.36891 7,000 224 241 0
2017-12-10 07:56:12 GMT 52.03879 -0.36702 7,000 224 241 0
2017-12-10 07:56:10 GMT 52.04070 -0.36412 7,000 224 241 0
2017-12-10 07:56:08 GMT 52.04275 -0.36106 7,000 224 241 0
2017-12-10 07:56:06 GMT 52.04400 -0.35917 7,000 224 241 0
2017-12-10 07:56:04 GMT 52.04652 -0.35525 7,000 224 241 0
2017-12-10 07:56:02 GMT 52.04745 -0.35393 7,000 224 241 0
2017-12-10 07:56:00 GMT 52.04847 -0.35235 7,000 224 241 0
2017-12-10 07:55:58 GMT 52.05130 -0.34805 7,000 224 241 0
2017-12-10 07:55:56 GMT 52.05248 -0.34623 7,000 224 241 0
2017-12-10 07:55:54 GMT 52.05336 -0.34485 7,000 224 241 0
2017-12-10 07:55:52 GMT 52.05546 -0.34168 7,000 224 241 0
2017-12-10 07:55:50 GMT 52.05737 -0.33885 7,000 224 241 0
2017-12-10 07:55:48 GMT 52.05895 -0.33642 7,000 224 241 0
2017-12-10 07:55:46 GMT 52.06014 -0.33455 7,000 224 241 0
2017-12-10 07:55:44 GMT 52.06137 -0.33272 7,000 224 241 0
2017-12-10 07:55:42 GMT 52.06398 -0.32873 7,000 224 241 0
2017-12-10 07:55:41 GMT 52.06467 -0.32768 7,000 224 241 0
2017-12-10 07:55:39 GMT 52.06668 -0.32457 7,000 224 242 0
2017-12-10 07:55:37 GMT 52.06747 -0.32339 7,000 224 242 0
2017-12-10 07:55:35 GMT 52.06919 -0.32080 7,000 224 242 0
2017-12-10 07:55:33 GMT 52.07073 -0.31837 7,000 224 242 0
2017-12-10 07:55:30 GMT 52.07318 -0.31464 7,000 224 242 0
2017-12-10 07:55:28 GMT 52.07510 -0.31181 7,000 224 242 0
2017-12-10 07:55:28 GMT 52.07426 -0.31311 7,000 224 242 0
2017-12-10 07:55:26 GMT 52.07684 -0.30907 7,000 224 242 0
2017-12-10 07:55:24 GMT 52.07822 -0.30699 7,000 223 242 0
2017-12-10 07:55:21 GMT 52.08018 -0.30409 7,000 224 242 0
2017-12-10 07:55:19 GMT 52.08190 -0.30142 7,000 224 242 0
2017-12-10 07:55:17 GMT 52.08418 -0.29796 7,000 223 242 0
2017-12-10 07:55:15 GMT 52.08559 -0.29587 7,000 223 242 0
2017-12-10 07:55:12 GMT 52.08772 -0.29263 7,000 223 242 0
2017-12-10 07:55:10 GMT 52.09014 -0.28902 7,000 223 242 0
2017-12-10 07:55:07 GMT 52.09289 -0.28486 7,000 223 241 0
2017-12-10 07:55:05 GMT 52.09363 -0.28368 7,000 223 241 0
2017-12-10 07:55:03 GMT 52.09540 -0.28109 7,000 223 241 0
2017-12-10 07:55:00 GMT 52.09863 -0.27611 7,000 223 241 0
2017-12-10 07:54:58 GMT 52.09889 -0.27576 7,000 224 241 -64
2017-12-10 07:54:56 GMT 52.10165 -0.27161 7,000 224 241 -64
2017-12-10 07:54:54 GMT 52.10307 -0.26947 7,000 224 241 -64
2017-12-10 07:54:52 GMT 52.10476 -0.26681 7,000 224 241 0
2017-12-10 07:54:52 GMT 52.10373 -0.26838 7,000 224 241 0
2017-12-10 07:54:49 GMT 52.10719 -0.26306 7,025 224 242 0
2017-12-10 07:54:47 GMT 52.10806 -0.26179 7,025 224 241 0
2017-12-10 07:54:45 GMT 52.10992 -0.25881 7,025 225 241 0
2017-12-10 07:54:43 GMT 52.11131 -0.25658 7,025 225 241 0
2017-12-10 07:54:40 GMT 52.11365 -0.25284 7,025 227 242 64
2017-12-10 07:54:38 GMT 52.11537 -0.25002 7,000 228 243 128
2017-12-10 07:54:36 GMT 52.11731 -0.24658 7,000 232 245 64
2017-12-10 07:54:36 GMT 52.11681 -0.24743 7,000 232 245 64
2017-12-10 07:54:33 GMT 52.11923 -0.24254 7,000 240 249 0
2017-12-10 07:54:31 GMT 52.12038 -0.24002 7,000 240 249 0
2017-12-10 07:54:29 GMT 52.12203 -0.23560 7,000 244 250 0
2017-12-10 07:54:26 GMT 52.12322 -0.23155 7,000 248 251 0
2017-12-10 07:54:24 GMT 52.12404 -0.22820 7,000 256 255 -64
2017-12-10 07:54:22 GMT 52.12468 -0.22522 7,000 256 255 -64
2017-12-10 07:54:22 GMT 52.12515 -0.22279 7,000 258 255 -64
2017-12-10 07:54:20 GMT 52.12528 -0.22163 7,000 258 255 -64
2017-12-10 07:54:18 GMT 52.12578 -0.21759 7,000 264 257 -64
2017-12-10 07:54:16 GMT 52.12619 -0.21225 7,000 267 258 0
2017-12-10 07:54:14 GMT 52.12631 -0.20898 7,000 267 258 0
2017-12-10 07:54:12 GMT 52.12651 -0.20401 7,000 268 259 0
2017-12-10 07:54:09 GMT 52.12668 -0.19815 7,000 268 259 0
2017-12-10 07:54:07 GMT 52.12668 -0.19736 7,000 268 259 0
2017-12-10 07:54:05 GMT 52.12687 -0.19195 7,000 268 259 0
2017-12-10 07:54:03 GMT 52.12705 -0.18575 7,000 268 259 0
2017-12-10 07:54:00 GMT 52.12719 -0.18159 7,000 268 259 0
2017-12-10 07:53:58 GMT 52.12724 -0.17914 7,000 268 260 0
2017-12-10 07:53:56 GMT 52.12743 -0.17288 7,000 268 260 0
2017-12-10 07:53:54 GMT 52.12752 -0.16997 7,000 268 260 0
2017-12-10 07:53:52 GMT 52.12766 -0.16534 7,000 268 260 0
2017-12-10 07:53:50 GMT 52.12775 -0.16213 7,000 268 260 0
2017-12-10 07:53:48 GMT 52.12785 -0.15836 7,000 268 261 0
2017-12-10 07:53:45 GMT 52.12797 -0.15335 7,000 268 261 0
2017-12-10 07:53:43 GMT 52.12817 -0.14659 7,000 268 260 0
2017-12-10 07:53:40 GMT 52.12826 -0.14243 7,000 268 261 0
2017-12-10 07:53:38 GMT 52.12841 -0.13780 7,000 268 260 0
2017-12-10 07:53:36 GMT 52.12845 -0.13498 7,000 268 260 0
2017-12-10 07:53:34 GMT 52.12859 -0.12995 7,000 268 260 0
2017-12-10 07:53:34 GMT 52.12859 -0.12995 7,000 268 260 0
2017-12-10 07:53:32 GMT 52.12866 -0.12741 7,000 268 260 0
2017-12-10 07:53:30 GMT 52.12875 -0.12329 7,000 268 260 0
2017-12-10 07:53:28 GMT 52.12889 -0.11780 7,000 268 260 0
2017-12-10 07:53:26 GMT 52.12896 -0.11622 7,000 268 260 0
2017-12-10 07:53:24 GMT 52.12906 -0.11206 7,000 268 260 0
2017-12-10 07:53:24 GMT 52.12910 -0.11120 7,000 268 260 0
2017-12-10 07:53:22 GMT 52.12912 -0.10956 7,000 268 260 0
2017-12-10 07:53:20 GMT 52.12930 -0.10246 7,000 268 260 0
2017-12-10 07:53:18 GMT 52.12934 -0.10037 7,000 268 260 0
2017-12-10 07:53:16 GMT 52.12947 -0.09582 7,000 268 260 0
2017-12-10 07:53:14 GMT 52.12958 -0.09209 7,000 268 260 0
2017-12-10 07:53:12 GMT 52.12962 -0.08875 7,000 268 260 0
2017-12-10 07:53:09 GMT 52.12980 -0.08091 7,000 268 259 0
2017-12-10 07:53:07 GMT 52.12985 -0.07879 7,000 268 259 0
2017-12-10 07:53:05 GMT 52.12999 -0.07340 7,000 268 259 0
2017-12-10 07:53:03 GMT 52.13008 -0.06843 7,000 269 259 0
2017-12-10 07:53:01 GMT 52.13017 -0.06592 7,000 269 259 0
2017-12-10 07:52:58 GMT 52.13027 -0.06090 7,000 269 259 0
2017-12-10 07:52:56 GMT 52.13036 -0.05638 7,000 269 259 0
2017-12-10 07:52:54 GMT 52.13045 -0.05264 7,000 269 259 0
2017-12-10 07:52:51 GMT 52.13054 -0.04845 7,000 269 259 0
2017-12-10 07:52:49 GMT 52.13063 -0.04303 7,000 269 259 0
2017-12-10 07:52:47 GMT 52.13072 -0.04013 7,000 268 260 0
2017-12-10 07:52:45 GMT 52.13083 -0.03516 7,000 268 260 0
2017-12-10 07:52:43 GMT 52.13090 -0.03059 7,000 268 260 0
2017-12-10 07:52:41 GMT 52.13097 -0.02809 7,000 268 260 0
2017-12-10 07:52:39 GMT 52.13109 -0.02304 7,000 268 260 0
2017-12-10 07:52:37 GMT 52.13120 -0.01766 7,000 268 260 0
2017-12-10 07:52:34 GMT 52.13127 -0.01434 7,000 268 260 0
2017-12-10 07:52:31 GMT 52.13141 -0.00893 7,000 269 260 0
2017-12-10 07:52:29 GMT 52.13150 -0.00435 7,000 269 260 0
2017-12-10 07:52:27 GMT 52.13164 0.00176 7,000 269 260 0
2017-12-10 07:52:25 GMT 52.13166 0.00228 7,000 269 260 0
2017-12-10 07:52:23 GMT 52.13177 0.00687 7,000 269 260 0
2017-12-10 07:52:21 GMT 52.13185 0.01099 7,000 269 260 0
2017-12-10 07:52:19 GMT 52.13196 0.01686 7,000 269 260 0
2017-12-10 07:52:18 GMT 52.13196 0.01686 7,000 269 260 0
2017-12-10 07:52:16 GMT 52.13204 0.01978 7,000 269 260 0
2017-12-10 07:52:14 GMT 52.13217 0.02598 7,000 269 260 0
2017-12-10 07:52:12 GMT 52.13222 0.02888 7,000 269 260 0
2017-12-10 07:52:10 GMT 52.13232 0.03265 7,000 269 260 0
2017-12-10 07:52:07 GMT 52.13246 0.03971 7,000 269 260 0
2017-12-10 07:52:05 GMT 52.13251 0.04265 7,000 269 260 0
2017-12-10 07:52:03 GMT 52.13259 0.04599 7,000 269 260 0
2017-12-10 07:52:00 GMT 52.13273 0.05226 7,000 269 260 0
2017-12-10 07:51:58 GMT 52.13283 0.05760 7,000 269 260 0
2017-12-10 07:51:55 GMT 52.13296 0.06424 7,000 269 261 0
2017-12-10 07:51:53 GMT 52.13296 0.06516 7,000 269 261 0
2017-12-10 07:51:51 GMT 52.13306 0.06851 7,000 269 261 0
2017-12-10 07:51:49 GMT 52.13310 0.07225 7,000 269 261 0
2017-12-10 07:51:47 GMT 52.13319 0.07690 7,000 269 261 0
2017-12-10 07:51:45 GMT 52.13333 0.08316 7,000 269 261 0
2017-12-10 07:51:43 GMT 52.13342 0.08736 7,000 269 261 0
2017-12-10 07:51:41 GMT 52.13348 0.09150 7,000 269 261 0
2017-12-10 07:51:39 GMT 52.13352 0.09236 7,000 269 262 0
2017-12-10 07:51:36 GMT 52.13362 0.09950 7,000 269 262 0
2017-12-10 07:51:34 GMT 52.13371 0.10241 7,000 269 262 0
2017-12-10 07:51:32 GMT 52.13381 0.10743 7,000 269 262 0
2017-12-10 07:51:30 GMT 52.13385 0.11033 7,000 269 262 0
2017-12-10 07:51:28 GMT 52.13390 0.11496 7,000 269 262 0
2017-12-10 07:51:26 GMT 52.13402 0.12093 7,000 269 262 0
2017-12-10 07:51:24 GMT 52.13402 0.12253 7,000 269 262 0
2017-12-10 07:51:22 GMT 52.13411 0.12672 7,000 269 262 -64
2017-12-10 07:51:20 GMT 52.13415 0.13138 7,000 269 262 -64
2017-12-10 07:51:18 GMT 52.13422 0.13552 7,000 269 261 -64
2017-12-10 07:51:15 GMT 52.13429 0.13977 7,025 269 261 -64
2017-12-10 07:51:13 GMT 52.13436 0.14565 7,025 269 260 -64
2017-12-10 07:51:11 GMT 52.13443 0.14854 7,025 269 259 -128
2017-12-10 07:51:09 GMT 52.13448 0.15228 7,025 269 259 -128
2017-12-10 07:51:07 GMT 52.13457 0.15839 7,025 269 259 -128
2017-12-10 07:51:04 GMT 52.13461 0.16266 7,025 269 258 -192
2017-12-10 07:51:01 GMT 52.13470 0.16800 7,050 269 258 -256
2017-12-10 07:50:59 GMT 52.13475 0.17174 7,050 269 258 -448
2017-12-10 07:50:57 GMT 52.13478 0.17633 7,050 269 258 -640
2017-12-10 07:50:54 GMT 52.13488 0.18253 7,075 269 259 -832
2017-12-10 07:50:51 GMT 52.13498 0.18944 7,125 269 258 -960
2017-12-10 07:50:49 GMT 52.13502 0.19119 7,150 269 259 -960
2017-12-10 07:50:47 GMT 52.13507 0.19455 7,175 269 259 -960
2017-12-10 07:50:44 GMT 52.13515 0.20160 7,250 269 258 -960
2017-12-10 07:50:42 GMT 52.13520 0.20576 7,275 269 258 -960
2017-12-10 07:50:40 GMT 52.13525 0.20775 7,300 269 258 -896
2017-12-10 07:50:38 GMT 52.13534 0.21274 7,325 269 258 -896
2017-12-10 07:50:36 GMT 52.13535 0.21446 7,350 269 257 -896
2017-12-10 07:50:34 GMT 52.13544 0.21942 7,400 269 257 -896
2017-12-10 07:50:32 GMT 52.13553 0.22476 7,425 269 257 -960
2017-12-10 07:50:30 GMT 52.13557 0.22640 7,450 269 257 -960
2017-12-10 07:50:28 GMT 52.13567 0.23126 7,475 269 256 -960
2017-12-10 07:50:26 GMT 52.13576 0.23621 7,525 269 257 -960
2017-12-10 07:50:24 GMT 52.13580 0.23910 7,550 269 256 -960
2017-12-10 07:50:22 GMT 52.13585 0.24201 7,575 269 257 -960
2017-12-10 07:50:20 GMT 52.13595 0.24727 7,625 269 257 -960
2017-12-10 07:50:18 GMT 52.13604 0.25174 7,650 269 257 -960
2017-12-10 07:50:16 GMT 52.13609 0.25433 7,675 269 258 -960
2017-12-10 07:50:14 GMT 52.13612 0.25764 7,700 269 258 -960
2017-12-10 07:50:14 GMT 52.13613 0.25888 7,725 270 259 -960
2017-12-10 07:50:12 GMT 52.13623 0.26352 7,750 270 259 -960
2017-12-10 07:50:10 GMT 52.13626 0.26962 7,800 271 260 -896
2017-12-10 07:50:07 GMT 52.13627 0.27215 7,825 271 260 -896
2017-12-10 07:50:04 GMT 52.13627 0.27835 7,875 272 261 -832
2017-12-10 07:50:02 GMT 52.13618 0.28384 7,925 275 261 -704
2017-12-10 07:50:00 GMT 52.13599 0.28800 7,950 278 261 -576
2017-12-10 07:49:57 GMT 52.13571 0.29176 7,975 280 262 -384
2017-12-10 07:49:57 GMT 52.13571 0.29176 7,975 280 262 -384
2017-12-10 07:49:55 GMT 52.13507 0.29755 8,000 283 262 -64
2017-12-10 07:49:53 GMT 52.13483 0.29961 8,000 287 264 0
2017-12-10 07:49:51 GMT 52.13399 0.30495 8,000 287 264 0
2017-12-10 07:49:49 GMT 52.13315 0.30934 8,000 287 265 0
2017-12-10 07:49:46 GMT 52.13264 0.31227 8,000 287 265 64
2017-12-10 07:49:44 GMT 52.13182 0.31670 8,000 287 265 0
2017-12-10 07:49:42 GMT 52.13078 0.32237 8,000 287 265 0
2017-12-10 07:49:40 GMT 52.13040 0.32440 8,000 287 265 0
2017-12-10 07:49:38 GMT 52.12971 0.32806 8,000 287 264 0
2017-12-10 07:49:36 GMT 52.12920 0.33092 8,000 287 264 0
2017-12-10 07:49:36 GMT 52.12920 0.33092 8,000 287 264 0
2017-12-10 07:49:33 GMT 52.12779 0.33859 8,000 287 264 0
2017-12-10 07:49:30 GMT 52.12706 0.34271 8,000 287 264 0
2017-12-10 07:49:28 GMT 52.12624 0.34714 8,000 287 264 0
2017-12-10 07:49:26 GMT 52.12566 0.35038 8,000 287 264 0
2017-12-10 07:49:24 GMT 52.12482 0.35492 8,000 287 264 0
2017-12-10 07:49:22 GMT 52.12440 0.35737 8,000 287 264 0
2017-12-10 07:49:20 GMT 52.12322 0.36385 8,000 287 266 0
2017-12-10 07:49:18 GMT 52.12254 0.36749 8,000 287 266 0
2017-12-10 07:49:16 GMT 52.12203 0.37032 8,000 287 266 0
2017-12-10 07:49:14 GMT 52.12111 0.37521 8,000 287 266 0
2017-12-10 07:49:12 GMT 52.12058 0.37816 8,000 287 266 0
2017-12-10 07:49:09 GMT 52.11969 0.38307 8,000 287 266 0
2017-12-10 07:49:07 GMT 52.11887 0.38750 8,000 287 266 0
2017-12-10 07:49:05 GMT 52.11835 0.39041 8,000 287 266 0
2017-12-10 07:49:02 GMT 52.11705 0.39731 8,000 287 266 0
2017-12-10 07:49:00 GMT 52.11644 0.40054 8,000 287 266 0
2017-12-10 07:48:58 GMT 52.11571 0.40466 8,000 287 266 0
2017-12-10 07:48:56 GMT 52.11470 0.41000 8,000 287 266 0
2017-12-10 07:48:54 GMT 52.11415 0.41283 8,000 287 266 0
2017-12-10 07:48:52 GMT 52.11333 0.41733 8,000 288 266 0
2017-12-10 07:48:49 GMT 52.11241 0.42221 8,000 287 267 0
2017-12-10 07:48:47 GMT 52.11172 0.42595 8,000 287 267 0
2017-12-10 07:48:45 GMT 52.11104 0.42961 8,000 287 267 0
2017-12-10 07:48:43 GMT 52.10989 0.43564 8,000 287 267 0
2017-12-10 07:48:41 GMT 52.10957 0.43739 8,000 287 267 0
2017-12-10 07:48:39 GMT 52.10893 0.44067 8,000 287 267 0
2017-12-10 07:48:37 GMT 52.10820 0.44471 8,000 287 267 0
2017-12-10 07:48:34 GMT 52.10696 0.45128 8,000 288 268 0
2017-12-10 07:48:32 GMT 52.10634 0.45460 8,000 288 268 0
2017-12-10 07:48:30 GMT 52.10522 0.46036 8,000 288 268 0
2017-12-10 07:48:28 GMT 52.10485 0.46237 8,000 288 268 0
2017-12-10 07:48:26 GMT 52.10401 0.46692 8,000 288 268 0
2017-12-10 07:48:24 GMT 52.10322 0.47100 8,000 288 269 0
2017-12-10 07:48:21 GMT 52.10262 0.47440 8,000 288 269 0
2017-12-10 07:48:19 GMT 52.10168 0.47932 8,000 288 269 0
2017-12-10 07:48:17 GMT 52.10055 0.48508 8,000 288 269 0
2017-12-10 07:48:14 GMT 52.09987 0.48881 8,000 288 269 0
2017-12-10 07:48:12 GMT 52.09903 0.49336 8,000 288 269 0
2017-12-10 07:48:10 GMT 52.09815 0.49792 8,000 288 269 0
2017-12-10 07:48:08 GMT 52.09776 0.49995 8,000 288 269 0
2017-12-10 07:48:06 GMT 52.09680 0.50498 8,000 288 269 -64
2017-12-10 07:48:04 GMT 52.09633 0.50741 8,000 288 269 -64
2017-12-10 07:48:02 GMT 52.09543 0.51239 8,000 288 269 -64
2017-12-10 07:48:00 GMT 52.09465 0.51651 8,025 288 268 -64
2017-12-10 07:47:58 GMT 52.09410 0.51933 8,025 287 267 -128
2017-12-10 07:47:56 GMT 52.09251 0.52789 8,025 287 267 -192
2017-12-10 07:47:54 GMT 52.09247 0.52805 8,025 288 266 -256
2017-12-10 07:47:52 GMT 52.09195 0.53093 8,025 288 266 -320
2017-12-10 07:47:50 GMT 52.09088 0.53652 8,050 287 266 -576
2017-12-10 07:47:48 GMT 52.09042 0.53904 8,050 287 266 -640
2017-12-10 07:47:48 GMT 52.09042 0.53904 8,050 287 266 -640
2017-12-10 07:47:46 GMT 52.08958 0.54351 8,075 287 263 -960
2017-12-10 07:47:44 GMT 52.08897 0.54680 8,100 287 266 -960
2017-12-10 07:47:42 GMT 52.08806 0.55168 8,150 287 265 -1024
2017-12-10 07:47:39 GMT 52.08673 0.55885 8,200 287 264 -960
2017-12-10 07:47:37 GMT 52.08651 0.56022 8,225 287 263 -960
2017-12-10 07:47:37 GMT 52.08651 0.56022 8,225 287 263 -960
2017-12-10 07:47:34 GMT 52.08504 0.56831 8,300 287 263 -960
2017-12-10 07:47:32 GMT 52.08449 0.57121 8,325 287 262 -960
2017-12-10 07:47:30 GMT 52.08435 0.57190 8,325 287 262 -960
2017-12-10 07:47:28 GMT 52.08298 0.57968 8,375 287 261 -960
2017-12-10 07:47:26 GMT 52.08274 0.58086 8,400 287 261 -960
2017-12-10 07:47:26 GMT 52.08264 0.58157 8,400 287 261 -960
2017-12-10 07:47:24 GMT 52.08174 0.58640 8,450 287 260 -960
2017-12-10 07:47:21 GMT 52.08124 0.58929 8,475 287 260 -960
2017-12-10 07:47:18 GMT 52.08008 0.59562 8,525 287 261 -960
2017-12-10 07:47:16 GMT 52.07948 0.59883 8,550 287 261 -960
2017-12-10 07:47:14 GMT 52.07836 0.60488 8,600 287 260 -960
2017-12-10 07:47:12 GMT 52.07790 0.60722 8,625 288 261 -960
2017-12-10 07:47:10 GMT 52.07738 0.60998 8,650 288 261 -960
2017-12-10 07:47:08 GMT 52.07620 0.61638 8,700 288 261 -1024
2017-12-10 07:47:06 GMT 52.07571 0.61884 8,725 288 261 -1024
2017-12-10 07:47:04 GMT 52.07506 0.62233 8,775 288 262 -960
2017-12-10 07:47:02 GMT 52.07394 0.62795 8,825 288 262 -960
2017-12-10 07:47:00 GMT 52.07366 0.62952 8,825 288 262 -960
2017-12-10 07:46:57 GMT 52.07231 0.63634 8,900 288 262 -960
2017-12-10 07:46:55 GMT 52.07185 0.63881 8,900 288 262 -960
2017-12-10 07:46:53 GMT 52.07087 0.64356 8,950 288 263 -960
2017-12-10 07:46:53 GMT 52.07087 0.64356 8,950 288 263 -960
2017-12-10 07:46:51 GMT 52.06994 0.64843 9,000 289 263 -960
2017-12-10 07:46:47 GMT 52.06879 0.65407 9,050 289 263 -960
2017-12-10 07:46:45 GMT 52.06805 0.65765 9,075 289 263 -960
2017-12-10 07:46:43 GMT 52.06677 0.66404 9,125 289 263 -960
2017-12-10 07:46:40 GMT 52.06603 0.66766 9,175 289 263 -960
2017-12-10 07:46:37 GMT 52.06495 0.67291 9,200 289 263 -896
2017-12-10 07:46:35 GMT 52.06366 0.67909 9,250 289 264 -960
2017-12-10 07:46:32 GMT 52.06272 0.68358 9,300 289 264 -960
2017-12-10 07:46:30 GMT 52.06211 0.68649 9,325 289 264 -960
2017-12-10 07:46:27 GMT 52.06101 0.69206 9,375 289 264 -960
2017-12-10 07:46:25 GMT 52.05983 0.69763 9,425 289 264 -960
2017-12-10 07:46:22 GMT 52.05895 0.70213 9,450 289 264 -960
2017-12-10 07:46:19 GMT 52.05808 0.70648 9,500 289 264 -960
2017-12-10 07:46:16 GMT 52.05709 0.71129 9,525 288 263 -960
2017-12-10 07:46:14 GMT 52.05620 0.71568 9,575 288 263 -1024
2017-12-10 07:46:12 GMT 52.05541 0.71968 9,600 288 263 -960
2017-12-10 07:46:10 GMT 52.05453 0.72416 9,650 288 264 -1024
2017-12-10 07:46:07 GMT 52.05345 0.72983 9,700 288 264 -1024
2017-12-10 07:46:05 GMT 52.05280 0.73302 9,725 288 264 -1024
2017-12-10 07:46:02 GMT 52.05153 0.73944 9,800 288 264 -1024
2017-12-10 07:46:00 GMT 52.05061 0.74432 9,825 288 264 -960
2017-12-10 07:45:58 GMT 52.05029 0.74589 9,850 288 264 -960
2017-12-10 07:45:56 GMT 52.04955 0.74990 9,875 288 264 -960
2017-12-10 07:45:54 GMT 52.04838 0.75594 9,950 288 264 -960
2017-12-10 07:45:52 GMT 52.04791 0.75836 9,950 288 263 -960
2017-12-10 07:45:50 GMT 52.04727 0.76164 10,000 288 263 -960
2017-12-10 07:45:48 GMT 52.04576 0.76958 10,050 288 263 -960
2017-12-10 07:45:45 GMT 52.04544 0.77133 10,075 288 263 -960
2017-12-10 07:45:43 GMT 52.04480 0.77454 10,100 288 263 -896
2017-12-10 07:45:41 GMT 52.04411 0.77820 10,125 288 262 -896
2017-12-10 07:45:39 GMT 52.04343 0.78178 10,150 288 262 -896
2017-12-10 07:45:37 GMT 52.04196 0.78941 10,225 288 262 -896
2017-12-10 07:45:35 GMT 52.04178 0.79025 10,225 288 263 -896
2017-12-10 07:45:33 GMT 52.04109 0.79384 10,250 288 263 -896
2017-12-10 07:45:31 GMT 52.04005 0.79933 10,275 288 263 -960
2017-12-10 07:45:29 GMT 52.03954 0.80177 10,325 288 263 -960
2017-12-10 07:45:25 GMT 52.03851 0.80702 10,375 288 263 -960
2017-12-10 07:45:23 GMT 52.03721 0.81385 10,425 288 264 -1024
2017-12-10 07:45:21 GMT 52.03651 0.81749 10,450 288 264 -1024
2017-12-10 07:45:18 GMT 52.03565 0.82192 10,500 288 265 -1024
2017-12-10 07:45:16 GMT 52.03478 0.82634 10,525 288 265 -1024
2017-12-10 07:45:14 GMT 52.03400 0.83041 10,575 288 265 -1024
2017-12-10 07:45:12 GMT 52.03377 0.83160 10,575 288 265 -1024
2017-12-10 07:45:10 GMT 52.03283 0.83645 10,625 288 266 -1024
2017-12-10 07:45:08 GMT 52.03181 0.84179 10,675 288 266 -1024
2017-12-10 07:45:05 GMT 52.03043 0.84908 10,750 288 267 -1024
2017-12-10 07:45:03 GMT 52.03018 0.85026 10,750 288 267 -1024
2017-12-10 07:45:01 GMT 52.02924 0.85518 10,800 288 268 -1024
2017-12-10 07:44:59 GMT 52.02823 0.86037 10,825 288 268 -960
2017-12-10 07:44:57 GMT 52.02762 0.86337 10,875 288 268 -896
2017-12-10 07:44:55 GMT 52.02708 0.86616 10,900 288 267 -832
2017-12-10 07:44:53 GMT 52.02622 0.87074 10,925 288 267 -704
2017-12-10 07:44:50 GMT 52.02557 0.87396 10,950 288 267 -512
2017-12-10 07:44:47 GMT 52.02443 0.87967 10,975 288 267 -128
2017-12-10 07:44:45 GMT 52.02348 0.88464 11,000 288 267 0
2017-12-10 07:44:45 GMT 52.02348 0.88464 11,000 288 267 0
2017-12-10 07:44:43 GMT 52.02228 0.89066 11,000 288 267 0
2017-12-10 07:44:41 GMT 52.02205 0.89188 11,000 288 267 -64
2017-12-10 07:44:38 GMT 52.02045 0.90002 11,000 288 267 -64
2017-12-10 07:44:36 GMT 52.01998 0.90245 11,000 288 267 -64
2017-12-10 07:44:33 GMT 52.01868 0.90904 11,000 288 267 -64
2017-12-10 07:44:31 GMT 52.01830 0.91103 11,000 288 268 -64
2017-12-10 07:44:29 GMT 52.01747 0.91516 11,000 288 268 -64
2017-12-10 07:44:26 GMT 52.01607 0.92207 11,000 288 269 -64
2017-12-10 07:44:24 GMT 52.01555 0.92491 11,000 288 269 -64
2017-12-10 07:44:22 GMT 52.01445 0.93025 11,025 288 270 -64
2017-12-10 07:44:20 GMT 52.01407 0.93227 11,000 288 271 0
2017-12-10 07:44:18 GMT 52.01333 0.93596 11,000 288 272 0
2017-12-10 07:44:16 GMT 52.01253 0.94017 11,000 288 272 0
2017-12-10 07:44:14 GMT 52.01170 0.94429 11,000 288 274 0
2017-12-10 07:44:12 GMT 52.01097 0.94803 11,000 288 276 0
2017-12-10 07:44:10 GMT 52.01019 0.95222 11,000 287 277 0
2017-12-10 07:44:07 GMT 52.00914 0.95779 11,000 287 282 64
2017-12-10 07:44:05 GMT 52.00802 0.96374 11,000 286 282 64
2017-12-10 07:44:03 GMT 52.00765 0.96593 11,000 281 289 0
2017-12-10 07:44:01 GMT 52.00680 0.97099 11,000 285 284 64
2017-12-10 07:43:59 GMT 52.00648 0.97290 11,000 284 286 64
2017-12-10 07:43:56 GMT 52.00516 0.98228 11,000 281 289 0
2017-12-10 07:43:54 GMT 52.00481 0.98508 11,000 279 291 0
2017-12-10 07:43:51 GMT 52.00406 0.99236 11,000 277 292 -128
2017-12-10 07:43:49 GMT 52.00383 0.99560 11,000 276 294 -192
2017-12-10 07:43:47 GMT 52.00355 0.99976 11,000 275 294 -256
2017-12-10 07:43:44 GMT 52.00319 1.00822 11,025 274 297 -384
2017-12-10 07:43:44 GMT 52.00319 1.00822 11,025 274 297 -384
2017-12-10 07:43:41 GMT 52.00304 1.01302 11,050 274 297 -576
2017-12-10 07:43:39 GMT 52.00276 1.02016 11,075 274 298 -704
2017-12-10 07:43:37 GMT 52.00257 1.02487 11,100 274 298 -896
2017-12-10 07:43:35 GMT 52.00250 1.02776 11,125 274 298 -960
2017-12-10 07:43:32 GMT 52.00234 1.03201 11,150 274 299 -960
2017-12-10 07:43:30 GMT 52.00200 1.04088 11,200 274 299 -960
2017-12-10 07:43:28 GMT 52.00195 1.04202 11,225 274 298 -896
2017-12-10 07:43:26 GMT 52.00178 1.04723 11,250 274 298 -896
2017-12-10 07:43:23 GMT 52.00149 1.05492 11,300 274 298 -896
2017-12-10 07:43:21 GMT 52.00140 1.05820 11,325 274 298 -896
2017-12-10 07:43:19 GMT 52.00122 1.06293 11,375 274 298 -896
2017-12-10 07:43:17 GMT 52.00104 1.06866 11,400 274 297 -896
2017-12-10 07:43:14 GMT 52.00080 1.07611 11,450 274 297 -960
2017-12-10 07:43:12 GMT 52.00071 1.07815 11,475 274 296 -960
2017-12-10 07:43:10 GMT 52.00057 1.08286 11,500 274 296 -960
2017-12-10 07:43:08 GMT 52.00044 1.08665 11,525 274 296 -960
2017-12-10 07:43:06 GMT 52.00030 1.09139 11,575 274 296 -960
2017-12-10 07:43:04 GMT 52.00003 1.09848 11,625 274 296 -960
2017-12-10 07:43:02 GMT 51.99994 1.10184 11,650 274 296 -1024
2017-12-10 07:42:59 GMT 51.99980 1.10611 11,675 274 296 -1024
2017-12-10 07:42:57 GMT 51.99955 1.11221 11,725 274 296 -1024
2017-12-10 07:42:55 GMT 51.99943 1.11603 11,750 274 296 -1024
2017-12-10 07:42:53 GMT 51.99930 1.12022 11,775 274 296 -960
2017-12-10 07:42:51 GMT 51.99902 1.12717 11,825 274 296 -896
2017-12-10 07:42:49 GMT 51.99893 1.13022 11,850 274 297 -832
2017-12-10 07:42:47 GMT 51.99880 1.13348 11,875 274 297 -768
2017-12-10 07:42:45 GMT 51.99866 1.13771 11,900 274 297 -704
2017-12-10 07:42:42 GMT 51.99843 1.14391 11,950 274 297 -576
2017-12-10 07:42:40 GMT 51.99824 1.14960 11,975 274 297 -384
2017-12-10 07:42:38 GMT 51.99811 1.15380 11,975 274 297 -256
2017-12-10 07:42:35 GMT 51.99774 1.16287 12,000 274 297 0
2017-12-10 07:42:33 GMT 51.99765 1.16661 12,000 274 297 0
2017-12-10 07:42:31 GMT 51.99755 1.16902 12,000 274 298 0
2017-12-10 07:42:29 GMT 51.99736 1.17428 12,000 274 298 0
2017-12-10 07:42:27 GMT 51.99717 1.17860 12,000 274 298 0
2017-12-10 07:42:24 GMT 51.99689 1.18660 12,000 274 299 0
2017-12-10 07:42:20 GMT 51.99660 1.19522 12,000 274 299 0
2017-12-10 07:42:18 GMT 51.99647 1.19814 12,000 274 300 0
2017-12-10 07:42:16 GMT 51.99623 1.20438 12,000 274 300 0
2017-12-10 07:42:14 GMT 51.99620 1.20622 12,000 274 300 0
2017-12-10 07:42:12 GMT 51.99596 1.21300 12,000 274 300 0
2017-12-10 07:42:09 GMT 51.99573 1.21972 12,000 274 300 0
2017-12-10 07:42:07 GMT 51.99564 1.22208 12,000 274 301 0
2017-12-10 07:42:05 GMT 51.99545 1.22681 12,000 274 301 -64
2017-12-10 07:42:03 GMT 51.99532 1.23116 12,000 274 301 0
2017-12-10 07:42:01 GMT 51.99513 1.23642 12,000 274 301 0
2017-12-10 07:41:59 GMT 51.99495 1.24176 12,000 274 301 -64
2017-12-10 07:41:56 GMT 51.99485 1.24609 12,000 274 301 -64
2017-12-10 07:41:54 GMT 51.99454 1.25503 12,000 274 301 -64
2017-12-10 07:41:54 GMT 51.99457 1.25417 12,000 274 301 -64
2017-12-10 07:41:51 GMT 51.99440 1.25908 12,000 274 301 -128
2017-12-10 07:41:48 GMT 51.99403 1.27045 12,000 274 300 -192
2017-12-10 07:41:45 GMT 51.99399 1.27151 12,025 274 299 -192
2017-12-10 07:41:43 GMT 51.99385 1.27632 12,025 274 299 -192
2017-12-10 07:41:41 GMT 51.99362 1.28250 12,025 274 297 -256
2017-12-10 07:41:39 GMT 51.99348 1.28677 12,050 274 297 -320
2017-12-10 07:41:37 GMT 51.99335 1.29089 12,050 274 297 -320
2017-12-10 07:41:37 GMT 51.99340 1.29011 12,050 274 297 -320
2017-12-10 07:41:35 GMT 51.99316 1.29578 12,050 274 296 -640
2017-12-10 07:41:32 GMT 51.99298 1.30104 12,075 274 296 -832
2017-12-10 07:41:29 GMT 51.99271 1.30806 12,125 274 296 -960
2017-12-10 07:41:27 GMT 51.99257 1.31187 12,125 274 296 -1088
2017-12-10 07:41:25 GMT 51.99239 1.31706 12,175 274 297 -1216
2017-12-10 07:41:22 GMT 51.99206 1.32515 12,250 274 297 -1280
2017-12-10 07:41:20 GMT 51.99193 1.32843 12,300 274 297 -1280
2017-12-10 07:41:18 GMT 51.99177 1.33272 12,325 274 298 -1280
2017-12-10 07:41:16 GMT 51.99159 1.33696 12,375 274 298 -1280
2017-12-10 07:41:14 GMT 51.99140 1.34080 12,400 274 299 -1280
2017-12-10 07:41:12 GMT 51.99129 1.34468 12,450 274 299 -1280
2017-12-10 07:41:10 GMT 51.99112 1.34849 12,475 274 299 -1280
2017-12-10 07:41:08 GMT 51.99092 1.35368 12,525 274 299 -1280
2017-12-10 07:41:06 GMT 51.99066 1.36042 12,600 274 299 -1280
2017-12-10 07:41:04 GMT 51.99052 1.36474 12,650 274 299 -1280
2017-12-10 07:41:02 GMT 51.99037 1.36803 12,675 274 299 -1280
2017-12-10 07:41:00 GMT 51.99019 1.37274 12,725 274 299 -1280
2017-12-10 07:40:58 GMT 51.99005 1.37714 12,750 274 299 -1344
2017-12-10 07:40:56 GMT 51.98987 1.38192 12,800 274 299 -1344
2017-12-10 07:40:54 GMT 51.98964 1.38855 12,875 274 299 -1344
2017-12-10 07:40:52 GMT 51.98959 1.39001 12,875 274 299 -1344
2017-12-10 07:40:50 GMT 51.98932 1.39702 12,925 274 299 -1344
2017-12-10 07:40:48 GMT 51.98927 1.39908 12,975 274 298 -1344
2017-12-10 07:40:46 GMT 51.98907 1.40523 13,050 274 298 -1344
2017-12-10 07:40:46 GMT 51.98907 1.40523 13,050 274 298 -1344
2017-12-10 07:40:44 GMT 51.98889 1.41049 13,100 274 297 -1344
2017-12-10 07:40:42 GMT 51.98877 1.41335 13,125 274 297 -1344
2017-12-10 07:40:39 GMT 51.98856 1.41951 13,200 274 297 -1344
2017-12-10 07:40:37 GMT 51.98831 1.42708 13,275 274 296 -1280
2017-12-10 07:40:34 GMT 51.98808 1.43265 13,300 274 296 -1280
2017-12-10 07:40:32 GMT 51.98804 1.43471 13,350 274 296 -1280
2017-12-10 07:40:29 GMT 51.98782 1.44086 13,400 274 296 -1280
2017-12-10 07:40:27 GMT 51.98763 1.44646 13,450 274 296 -1216
2017-12-10 07:40:25 GMT 51.98740 1.45310 13,525 274 295 -1216
2017-12-10 07:40:23 GMT 51.98735 1.45404 13,525 274 295 -1216
2017-12-10 07:40:21 GMT 51.98717 1.45966 13,575 274 295 -1216
2017-12-10 07:40:19 GMT 51.98703 1.46346 13,625 274 295 -1216
2017-12-10 07:40:17 GMT 51.98679 1.46966 13,675 274 294 -1216
2017-12-10 07:40:15 GMT 51.98662 1.47476 13,725 274 294 -1216
2017-12-10 07:40:13 GMT 51.98657 1.47568 13,725 274 294 -1216
2017-12-10 07:40:11 GMT 51.98634 1.48178 13,800 274 294 -1216
2017-12-10 07:40:09 GMT 51.98621 1.48506 13,825 274 294 -1216
2017-12-10 07:40:07 GMT 51.98598 1.49117 13,875 274 294 -1216
2017-12-10 07:40:07 GMT 51.98586 1.49343 13,900 274 294 -1280
2017-12-10 07:40:04 GMT 51.98568 1.49869 13,950 274 294 -1280
2017-12-10 07:40:01 GMT 51.98544 1.50481 14,000 274 294 -1280
2017-12-10 07:39:59 GMT 51.98529 1.50810 14,050 274 294 -1280
2017-12-10 07:39:57 GMT 51.98506 1.51314 14,100 274 294 -1280
2017-12-10 07:39:55 GMT 51.98492 1.51695 14,125 274 295 -1344
2017-12-10 07:39:53 GMT 51.98474 1.52161 14,175 274 295 -1344
2017-12-10 07:39:50 GMT 51.98451 1.52725 14,225 274 295 -1344
2017-12-10 07:39:50 GMT 51.98451 1.52725 14,225 274 295 -1344
2017-12-10 07:39:48 GMT 51.98423 1.53393 14,300 274 296 -1344
2017-12-10 07:39:46 GMT 51.98419 1.53573 14,325 274 296 -1344
2017-12-10 07:39:44 GMT 51.98387 1.54335 14,400 274 296 -1344
2017-12-10 07:39:42 GMT 51.98377 1.54570 14,425 274 296 -1344
2017-12-10 07:39:40 GMT 51.98360 1.55045 14,475 274 297 -1280
2017-12-10 07:39:38 GMT 51.98346 1.55418 14,500 274 297 -1280
2017-12-10 07:39:36 GMT 51.98332 1.55846 14,550 274 297 -1216
2017-12-10 07:39:34 GMT 51.98321 1.56139 14,575 274 297 -1216
2017-12-10 07:39:32 GMT 51.98298 1.56853 14,650 273 297 -1152
2017-12-10 07:39:28 GMT 51.98273 1.57608 14,700 273 297 -1152
2017-12-10 07:39:25 GMT 51.98245 1.58409 14,775 273 296 -1152
2017-12-10 07:39:23 GMT 51.98236 1.58791 14,800 273 296 -1152
2017-12-10 07:39:21 GMT 51.98222 1.59210 14,850 273 296 -1088
2017-12-10 07:39:19 GMT 51.98209 1.59737 14,900 273 295 -1088
2017-12-10 07:39:17 GMT 51.98195 1.60202 14,925 274 295 -1152
2017-12-10 07:39:15 GMT 51.98181 1.60629 14,975 274 295 -1152
2017-12-10 07:39:13 GMT 51.98167 1.61107 15,000 275 295 -1216
2017-12-10 07:39:11 GMT 51.98149 1.61522 15,050 276 296 -1280
2017-12-10 07:39:09 GMT 51.98139 1.61813 15,075 277 297 -1344
2017-12-10 07:39:07 GMT 51.98076 1.62506 15,150 281 298 -1408
2017-12-10 07:39:05 GMT 51.98069 1.62606 15,150 283 298 -1408
2017-12-10 07:39:03 GMT 51.97975 1.63261 15,225 287 301 -1408
2017-12-10 07:39:00 GMT 51.97869 1.63861 15,275 292 304 -1472
2017-12-10 07:38:58 GMT 51.97716 1.64473 15,325 295 305 -1472
2017-12-10 07:38:56 GMT 51.97691 1.64574 15,375 296 306 -1408
2017-12-10 07:38:54 GMT 51.97549 1.65062 15,425 298 307 -1344
2017-12-10 07:38:54 GMT 51.97549 1.65062 15,425 297 307 -1408
2017-12-10 07:38:51 GMT 51.97297 1.65847 15,525 298 308 -1344
2017-12-10 07:38:49 GMT 51.97156 1.66283 15,575 298 308 -1408
2017-12-10 07:38:46 GMT 51.96973 1.66855 15,625 298 308 -1408
2017-12-10 07:38:44 GMT 51.96863 1.67198 15,675 298 308 -1408
2017-12-10 07:38:41 GMT 51.96692 1.67722 15,725 298 307 -1408
2017-12-10 07:38:39 GMT 51.96538 1.68201 15,800 298 307 -1344
2017-12-10 07:38:37 GMT 51.96435 1.68507 15,825 298 307 -1344
2017-12-10 07:38:35 GMT 51.96314 1.68892 15,875 298 306 -1344
2017-12-10 07:38:33 GMT 51.96162 1.69373 15,925 298 306 -1344
2017-12-10 07:38:33 GMT 51.96162 1.69373 15,925 298 306 -1344
2017-12-10 07:38:31 GMT 51.96035 1.69762 15,975 298 305 -1280
2017-12-10 07:38:29 GMT 51.95897 1.70196 16,000 298 305 -1280
2017-12-10 07:38:27 GMT 51.95812 1.70461 16,050 298 305 -1216
2017-12-10 07:38:25 GMT 51.95609 1.71104 16,100 298 304 -1216
2017-12-10 07:38:23 GMT 51.95480 1.71494 16,150 298 303 -1216
2017-12-10 07:38:20 GMT 51.95341 1.71928 16,200 298 301 -1216
2017-12-10 07:38:18 GMT 51.95160 1.72478 16,250 298 301 -1216
2017-12-10 07:38:16 GMT 51.95025 1.72901 16,275 298 301 -1216
2017-12-10 07:38:13 GMT 51.94815 1.73537 16,350 299 300 -1216
2017-12-10 07:38:11 GMT 51.94634 1.74094 16,400 299 300 -1216
2017-12-10 07:38:09 GMT 51.94565 1.74301 16,425 299 299 -1216
2017-12-10 07:38:07 GMT 51.94464 1.74599 16,450 299 299 -1280
2017-12-10 07:38:05 GMT 51.94299 1.75106 16,500 299 299 -1280
2017-12-10 07:38:02 GMT 51.94103 1.75690 16,575 299 299 -1344
2017-12-10 07:38:00 GMT 51.94020 1.75942 16,600 299 299 -1280
2017-12-10 07:37:57 GMT 51.93768 1.76699 16,675 299 301 -1344
2017-12-10 07:37:57 GMT 51.93768 1.76699 16,675 299 301 -1344
2017-12-10 07:37:53 GMT 51.93572 1.77292 16,750 299 301 -1344
2017-12-10 07:37:51 GMT 51.93471 1.77589 16,775 299 301 -1344
2017-12-10 07:37:49 GMT 51.93303 1.78104 16,850 299 302 -1344
2017-12-10 07:37:47 GMT 51.93158 1.78528 16,875 299 303 -1344
2017-12-10 07:37:45 GMT 51.93077 1.78780 16,925 299 303 -1344
2017-12-10 07:37:43 GMT 51.92903 1.79291 16,975 299 306 -1152
2017-12-10 07:37:41 GMT 51.92775 1.79672 17,000 299 304 -1280
2017-12-10 07:37:39 GMT 51.92624 1.80138 17,075 299 304 -1280
2017-12-10 07:37:37 GMT 51.92450 1.80649 17,125 299 304 -1216
2017-12-10 07:37:36 GMT 51.92390 1.80827 17,150 299 305 -1216
2017-12-10 07:37:35 GMT 51.92390 1.80827 17,150 299 305 -1216
2017-12-10 07:37:35 GMT 51.92294 1.81122 17,175 299 305 -1216
2017-12-10 07:37:33 GMT 51.92194 1.81419 17,200 299 305 -1216
2017-12-10 07:37:31 GMT 51.92079 1.81763 17,225 299 305 -1216
2017-12-10 07:37:29 GMT 51.91919 1.82236 17,275 299 305 -1216
2017-12-10 07:37:27 GMT 51.91720 1.82836 17,325 299 305 -1216
2017-12-10 07:37:25 GMT 51.91692 1.82922 17,350 299 306 -1152
2017-12-10 07:37:23 GMT 51.91533 1.83401 17,400 299 306 -1152
2017-12-10 07:37:20 GMT 51.91360 1.83914 17,450 299 306 -1152
2017-12-10 07:37:18 GMT 51.91246 1.84250 17,475 299 306 -1152
2017-12-10 07:37:16 GMT 51.91058 1.84814 17,525 299 306 -1152
2017-12-10 07:37:14 GMT 51.90948 1.85158 17,550 299 307 -1152
2017-12-10 07:37:12 GMT 51.90843 1.85463 17,600 299 307 -1152
2017-12-10 07:37:10 GMT 51.90728 1.85810 17,625 298 307 -1216
2017-12-10 07:37:08 GMT 51.90528 1.86407 17,675 298 308 -1216
2017-12-10 07:37:06 GMT 51.90337 1.87003 17,725 297 308 -1216
2017-12-10 07:37:06 GMT 51.90337 1.87003 17,725 297 308 -1216
2017-12-10 07:37:04 GMT 51.90249 1.87286 17,775 295 307 -1280
2017-12-10 07:37:02 GMT 51.90169 1.87552 17,800 293 307 -1280
2017-12-10 07:37:00 GMT 51.90019 1.88088 17,850 292 306 -1344
2017-12-10 07:36:58 GMT 51.89941 1.88400 17,875 289 305 -1344
2017-12-10 07:36:55 GMT 51.89767 1.89186 17,975 285 305 -1344
2017-12-10 07:36:52 GMT 51.89667 1.89743 18,025 284 304 -1344
2017-12-10 07:36:50 GMT 51.89569 1.90401 18,100 282 304 -1344
2017-12-10 07:36:48 GMT 51.89536 1.90636 18,125 282 303 -1344
2017-12-10 07:36:46 GMT 51.89467 1.91209 18,150 281 305 -1344
2017-12-10 07:36:44 GMT 51.89433 1.91498 18,200 281 305 -1344
2017-12-10 07:36:42 GMT 51.89369 1.92065 18,250 281 305 -1344
2017-12-10 07:36:40 GMT 51.89346 1.92253 18,275 281 305 -1344
2017-12-10 07:36:38 GMT 51.89291 1.92743 18,325 281 306 -1344
2017-12-10 07:36:36 GMT 51.89211 1.93413 18,375 281 306 -1344
2017-12-10 07:36:34 GMT 51.89155 1.93893 18,425 281 306 -1344
2017-12-10 07:36:31 GMT 51.89104 1.94369 18,500 281 307 -1344
2017-12-10 07:36:29 GMT 51.89024 1.95046 18,550 281 307 -1280
2017-12-10 07:36:26 GMT 51.88978 1.95419 18,575 281 307 -1280
2017-12-10 07:36:24 GMT 51.88917 1.95953 18,650 281 307 -1280
2017-12-10 07:36:21 GMT 51.88838 1.96633 18,700 281 307 -1216
2017-12-10 07:36:19 GMT 51.88764 1.97296 18,750 281 308 -1216
2017-12-10 07:36:17 GMT 51.88733 1.97539 18,775 281 308 -1216
2017-12-10 07:36:17 GMT 51.88717 1.97685 18,800 281 308 -1216
2017-12-10 07:36:15 GMT 51.88666 1.98120 18,825 281 308 -1216
2017-12-10 07:36:13 GMT 51.88605 1.98654 18,875 281 308 -1216
2017-12-10 07:36:11 GMT 51.88545 1.99188 18,925 281 308 -1216
2017-12-10 07:36:08 GMT 51.88489 1.99661 18,975 281 307 -1216
2017-12-10 07:36:08 GMT 51.88489 1.99661 18,975 281 307 -1216
2017-12-10 07:36:06 GMT 51.88442 2.00096 19,025 281 307 -1216
2017-12-10 07:36:04 GMT 51.88387 2.00577 19,050 281 307 -1280
2017-12-10 07:36:02 GMT 51.88359 2.00821 19,075 281 307 -1216
2017-12-10 07:36:00 GMT 51.88289 2.01399 19,125 281 307 -1280
2017-12-10 07:35:57 GMT 51.88197 2.02208 19,225 281 307 -1280
2017-12-10 07:35:54 GMT 51.88130 2.02797 19,275 281 307 -1280
2017-12-10 07:35:52 GMT 51.88060 2.03418 19,325 281 307 -1344
2017-12-10 07:35:50 GMT 51.88000 2.03945 19,375 281 308 -1344
2017-12-10 07:35:47 GMT 51.87959 2.04286 19,400 281 308 -1344
2017-12-10 07:35:44 GMT 51.87877 2.05006 19,475 281 308 -1344
2017-12-10 07:35:42 GMT 51.87814 2.05536 19,525 281 308 -1344
2017-12-10 07:35:39 GMT 51.87712 2.06454 19,625 281 308 -1344
2017-12-10 07:35:36 GMT 51.87643 2.07033 19,675 281 308 -1344
2017-12-10 07:35:34 GMT 51.87593 2.07471 19,700 281 308 -1344
2017-12-10 07:35:32 GMT 51.87483 2.08421 19,800 281 308 -1280
2017-12-10 07:35:30 GMT 51.87483 2.08421 19,800 281 308 -1280
2017-12-10 07:35:27 GMT 51.87400 2.09152 19,900 281 308 -1280
2017-12-10 07:35:24 GMT 51.87339 2.09686 19,925 281 308 -1280
2017-12-10 07:35:20 GMT 51.87218 2.10744 20,050 281 306 -1216
2017-12-10 07:35:18 GMT 51.87162 2.11235 20,100 281 305 -1216
2017-12-10 07:35:16 GMT 51.87125 2.11563 20,125 281 305 -1216
2017-12-10 07:35:13 GMT 51.87060 2.12143 20,175 281 305 -1216
2017-12-10 07:35:09 GMT 51.86962 2.13005 20,250 281 304 -1152
2017-12-10 07:35:06 GMT 51.86874 2.13814 20,325 281 304 -1216
2017-12-10 07:35:03 GMT 51.86813 2.14340 20,375 281 304 -1216
2017-12-10 07:34:59 GMT 51.86720 2.15141 20,450 281 303 -1216
2017-12-10 07:34:56 GMT 51.86655 2.15713 20,475 281 303 -1280
2017-12-10 07:34:54 GMT 51.86580 2.16331 20,550 281 304 -1344
2017-12-10 07:34:52 GMT 51.86549 2.16616 20,575 281 304 -1344
2017-12-10 07:34:49 GMT 51.86441 2.17567 20,675 281 304 -1344
2017-12-10 07:34:49 GMT 51.86441 2.17567 20,675 281 304 -1344
2017-12-10 07:34:46 GMT 51.86371 2.18185 20,725 281 305 -1344
2017-12-10 07:34:46 GMT 51.86357 2.18285 20,725 281 305 -1344
2017-12-10 07:34:44 GMT 51.86348 2.18376 20,750 281 305 -1344
2017-12-10 07:34:42 GMT 51.86302 2.18754 20,775 281 306 -1344
2017-12-10 07:34:40 GMT 51.86236 2.19338 20,850 281 306 -1344
2017-12-10 07:34:38 GMT 51.86171 2.19902 20,900 281 307 -1344
2017-12-10 07:34:35 GMT 51.86073 2.20726 20,975 281 308 -1344
2017-12-10 07:34:33 GMT 51.86022 2.21161 21,000 281 308 -1344
2017-12-10 07:34:31 GMT 51.85995 2.21404 21,050 281 309 -1344
2017-12-10 07:34:28 GMT 51.85895 2.22221 21,125 281 311 -1280
2017-12-10 07:34:23 GMT 51.85752 2.23442 21,250 281 312 -1280
2017-12-10 07:34:21 GMT 51.85742 2.23534 21,250 281 313 -1280
2017-12-10 07:34:18 GMT 51.85654 2.24266 21,325 281 314 -1280
2017-12-10 07:34:16 GMT 51.85593 2.24760 21,350 281 314 -1280
2017-12-10 07:34:14 GMT 51.85500 2.25548 21,425 281 315 -1344
2017-12-10 07:34:11 GMT 51.85449 2.25990 21,475 281 317 -1280
2017-12-10 07:34:08 GMT 51.85341 2.26883 21,550 281 318 -1280
2017-12-10 07:34:04 GMT 51.85258 2.27585 21,625 281 320 -1280
2017-12-10 07:34:01 GMT 51.85176 2.28278 21,700 281 321 -1280
2017-12-10 07:34:00 GMT 51.85146 2.28531 21,700 281 320 -1280
2017-12-10 07:33:58 GMT 51.85091 2.28981 21,750 281 323 -1344
2017-12-10 07:33:58 GMT 51.85091 2.28981 21,750 281 322 -1344
2017-12-10 07:33:56 GMT 51.85030 2.29485 21,800 281 323 -1344
2017-12-10 07:33:56 GMT 51.85021 2.29584 21,800 281 323 -1344
2017-12-10 07:33:54 GMT 51.84998 2.29785 21,825 281 323 -1344
2017-12-10 07:33:52 GMT 51.84906 2.30542 21,900 281 324 -1344
2017-12-10 07:33:50 GMT 51.84877 2.30797 21,925 281 325 -1408
2017-12-10 07:33:48 GMT 51.84801 2.31411 21,975 281 326 -1472
2017-12-10 07:33:46 GMT 51.84741 2.31915 22,025 281 326 -1472
2017-12-10 07:33:43 GMT 51.84631 2.32836 22,125 281 328 -1472
2017-12-10 07:33:41 GMT 51.84611 2.32994 22,150 281 328 -1472
2017-12-10 07:33:39 GMT 51.84526 2.33712 22,225 281 329 -1472
2017-12-10 07:33:37 GMT 51.84495 2.33978 22,250 281 330 -1472
2017-12-10 07:33:35 GMT 51.84444 2.34436 22,300 281 329 -1472
2017-12-10 07:33:32 GMT 51.84343 2.35263 22,375 281 330 -1472
2017-12-10 07:33:30 GMT 51.84281 2.35786 22,450 281 330 -1472
2017-12-10 07:33:27 GMT 51.84206 2.36451 22,500 281 329 -1472
2017-12-10 07:33:25 GMT 51.84160 2.36807 22,550 281 329 -1472
2017-12-10 07:33:23 GMT 51.84076 2.37534 22,625 281 327 -1536
2017-12-10 07:33:21 GMT 51.84004 2.38151 22,675 281 329 -1472
2017-12-10 07:33:19 GMT 51.83968 2.38463 22,725 281 329 -1472
2017-12-10 07:33:17 GMT 51.83917 2.38871 22,750 281 328 -1472
2017-12-10 07:33:15 GMT 51.83838 2.39555 22,825 281 328 -1472
2017-12-10 07:33:13 GMT 51.83785 2.40007 22,875 281 328 -1472
2017-12-10 07:33:11 GMT 51.83727 2.40517 22,925 281 326 -1536
2017-12-10 07:33:08 GMT 51.83647 2.41180 23,000 281 327 -1472
2017-12-10 07:33:06 GMT 51.83587 2.41699 23,050 281 327 -1536
2017-12-10 07:33:04 GMT 51.83545 2.42050 23,075 281 327 -1536
2017-12-10 07:33:01 GMT 51.83460 2.42776 23,150 281 326 -1536
2017-12-10 07:32:59 GMT 51.83419 2.43126 23,200 281 326 -1536
2017-12-10 07:32:57 GMT 51.83350 2.43741 23,250 281 326 -1536
2017-12-10 07:32:57 GMT 51.83336 2.43845 23,275 281 326 -1536
2017-12-10 07:32:54 GMT 51.83238 2.44659 23,350 281 327 -1536
2017-12-10 07:32:52 GMT 51.83187 2.45125 23,400 281 327 -1472
2017-12-10 07:32:50 GMT 51.83122 2.45667 23,450 281 327 -1472
2017-12-10 07:32:48 GMT 51.83094 2.45888 23,500 281 327 -1536
2017-12-10 07:32:46 GMT 51.83038 2.46399 23,550 281 327 -1472
2017-12-10 07:32:44 GMT 51.82988 2.46806 23,575 281 327 -1472
2017-12-10 07:32:42 GMT 51.82945 2.47162 23,625 281 327 -1536
2017-12-10 07:32:40 GMT 51.82842 2.48039 23,700 281 327 -1536
2017-12-10 07:32:40 GMT 51.82842 2.48039 23,700 281 327 -1536
2017-12-10 07:32:38 GMT 51.82796 2.48454 23,750 281 327 -1536
2017-12-10 07:32:36 GMT 51.82768 2.48703 23,775 281 328 -1536
2017-12-10 07:32:34 GMT 51.82668 2.49560 23,850 281 328 -1536
2017-12-10 07:32:31 GMT 51.82633 2.49832 23,900 281 328 -1536
2017-12-10 07:32:29 GMT 51.82567 2.50392 23,950 281 329 -1472
2017-12-10 07:32:27 GMT 51.82503 2.50963 24,025 281 328 -1472
2017-12-10 07:32:25 GMT 51.82442 2.51472 24,075 281 329 -1472
2017-12-10 07:32:22 GMT 51.82370 2.52092 24,150 281 329 -1472
2017-12-10 07:32:20 GMT 51.82284 2.52815 24,225 281 329 -1472
2017-12-10 07:32:18 GMT 51.82223 2.53316 24,250 281 329 -1472
2017-12-10 07:32:16 GMT 51.82196 2.53539 24,275 281 330 -1408
2017-12-10 07:32:14 GMT 51.82121 2.54204 24,350 281 330 -1408
2017-12-10 07:32:11 GMT 51.82028 2.54982 24,425 281 331 -1408
2017-12-10 07:32:09 GMT 51.81976 2.55402 24,475 281 331 -1472
2017-12-10 07:32:07 GMT 51.81921 2.55870 24,525 281 333 -1472
2017-12-10 07:32:07 GMT 51.81921 2.55870 24,525 281 333 -1472
2017-12-10 07:32:05 GMT 51.81893 2.56119 24,550 281 333 -1472
2017-12-10 07:32:03 GMT 51.81823 2.56691 24,600 281 333 -1408
2017-12-10 07:32:01 GMT 51.81776 2.57111 24,650 281 333 -1408
2017-12-10 07:31:59 GMT 51.81688 2.57837 24,700 281 333 -1408
2017-12-10 07:31:57 GMT 51.81619 2.58409 24,775 281 333 -1472
2017-12-10 07:31:55 GMT 51.81569 2.58832 24,800 281 334 -1472
2017-12-10 07:31:52 GMT 51.81520 2.59239 24,850 282 335 -1472
2017-12-10 07:31:50 GMT 51.81436 2.59926 24,925 281 336 -1472
2017-12-10 07:31:48 GMT 51.81363 2.60554 24,975 281 336 -1472
2017-12-10 07:31:46 GMT 51.81334 2.60811 25,000 281 336 -1472
2017-12-10 07:31:44 GMT 51.81276 2.61289 25,050 281 337 -1472
2017-12-10 07:31:42 GMT 51.81213 2.61818 25,100 282 337 -1536
2017-12-10 07:31:40 GMT 51.81134 2.62447 25,175 282 338 -1472
2017-12-10 07:31:38 GMT 51.81079 2.62922 25,225 282 339 -1472
2017-12-10 07:31:36 GMT 51.81024 2.63338 25,275 282 338 -1472
2017-12-10 07:31:34 GMT 51.80962 2.63870 25,325 282 339 -1472
2017-12-10 07:31:31 GMT 51.80868 2.64607 25,400 282 339 -1472
2017-12-10 07:31:29 GMT 51.80799 2.65190 25,450 282 340 -1472
2017-12-10 07:31:27 GMT 51.80745 2.65624 25,500 282 340 -1408
2017-12-10 07:31:24 GMT 51.80664 2.66258 25,550 282 340 -1408
2017-12-10 07:31:22 GMT 51.80589 2.66834 25,625 282 341 -1408
2017-12-10 07:31:20 GMT 51.80516 2.67421 25,675 282 341 -1408
2017-12-10 07:31:18 GMT 51.80484 2.67688 25,700 282 341 -1344
2017-12-10 07:31:16 GMT 51.80388 2.68430 25,775 282 341 -1344
2017-12-10 07:31:14 GMT 51.80347 2.68745 25,800 282 341 -1344
2017-12-10 07:31:11 GMT 51.80250 2.69492 25,875 283 341 -1344
2017-12-10 07:31:09 GMT 51.80138 2.70340 25,925 283 341 -1280
2017-12-10 07:31:07 GMT 51.80104 2.70605 25,975 283 341 -1280
2017-12-10 07:31:05 GMT 51.80058 2.70927 26,000 283 341 -1280
2017-12-10 07:31:03 GMT 51.79994 2.71399 26,050 283 341 -1280
2017-12-10 07:31:01 GMT 51.79875 2.72305 26,125 282 341 -1344
2017-12-10 07:30:59 GMT 51.79784 2.73033 26,150 281 341 -1344
2017-12-10 07:30:57 GMT 51.79761 2.73203 26,200 280 340 -1408
2017-12-10 07:30:55 GMT 51.79737 2.73422 26,225 279 340 -1472
2017-12-10 07:30:53 GMT 51.79674 2.74064 26,275 275 339 -1472
2017-12-10 07:30:51 GMT 51.79637 2.74814 26,350 273 338 -1472
2017-12-10 07:30:49 GMT 51.79625 2.75284 26,375 268 336 -1536
2017-12-10 07:30:48 GMT 51.79619 2.75408 26,425 269 337 -1536
2017-12-10 07:30:47 GMT 51.79621 2.75841 26,475 269 337 -1536
2017-12-10 07:30:45 GMT 51.79644 2.76428 26,525 264 336 -1536
2017-12-10 07:30:45 GMT 51.79633 2.76098 26,500 266 336 -1536
2017-12-10 07:30:43 GMT 51.79655 2.76581 26,550 264 336 -1536
2017-12-10 07:30:41 GMT 51.79709 2.77321 26,625 256 335 -1472
2017-12-10 07:30:39 GMT 51.79747 2.77687 26,675 255 334 -1472
2017-12-10 07:30:37 GMT 51.79793 2.78058 26,700 256 335 -1472
2017-12-10 07:30:35 GMT 51.79863 2.78526 26,750 253 334 -1472
2017-12-10 07:30:33 GMT 51.80003 2.79268 26,800 251 334 -1472
2017-12-10 07:30:30 GMT 51.80136 2.79892 26,900 249 334 -1408
2017-12-10 07:30:28 GMT 51.80254 2.80388 26,925 249 334 -1408
2017-12-10 07:30:26 GMT 51.80425 2.81079 27,025 249 334 -1408
2017-12-10 07:30:23 GMT 51.80544 2.81569 27,075 249 334 -1408
2017-12-10 07:30:21 GMT 51.80649 2.82015 27,100 249 333 -1408
2017-12-10 07:30:19 GMT 51.80699 2.82208 27,125 249 333 -1408
2017-12-10 07:30:17 GMT 51.80868 2.82906 27,200 249 333 -1408
2017-12-10 07:30:15 GMT 51.80965 2.83299 27,250 249 333 -1408
2017-12-10 07:30:13 GMT 51.81092 2.83836 27,300 249 334 -1408
2017-12-10 07:30:11 GMT 51.81134 2.83997 27,325 249 334 -1472
2017-12-10 07:30:09 GMT 51.81301 2.84676 27,375 249 334 -1472
2017-12-10 07:30:09 GMT 51.81301 2.84676 27,375 249 334 -1472
2017-12-10 07:30:07 GMT 51.81408 2.85126 27,425 249 334 -1408
2017-12-10 07:30:05 GMT 51.81505 2.85518 27,475 249 334 -1408
2017-12-10 07:30:03 GMT 51.81647 2.86112 27,550 249 335 -1408
2017-12-10 07:30:01 GMT 51.81697 2.86308 27,575 249 335 -128
2017-12-10 07:29:59 GMT 51.81862 2.87010 27,625 249 335 -1344
2017-12-10 07:29:59 GMT 51.81862 2.87010 27,625 249 335 -1408
2017-12-10 07:29:57 GMT 51.81981 2.87500 27,700 249 335 -1344
2017-12-10 07:29:56 GMT 51.81981 2.87500 27,700 249 335 -1344
2017-12-10 07:29:54 GMT 51.82153 2.88200 27,750 249 335 -1216
2017-12-10 07:29:51 GMT 51.82246 2.88591 27,800 249 335 -1088
2017-12-10 07:29:48 GMT 51.82498 2.89631 27,875 249 334 -704
2017-12-10 07:29:46 GMT 51.82567 2.89928 27,900 249 334 -704
2017-12-10 07:29:44 GMT 51.82689 2.90428 27,925 249 335 -576
2017-12-10 07:29:42 GMT 51.82809 2.90922 27,950 249 335 -192
2017-12-10 07:29:40 GMT 51.82942 2.91472 27,975 249 335 -192
2017-12-10 07:29:38 GMT 51.83000 2.91717 28,000 249 335 0
2017-12-10 07:29:36 GMT 51.83189 2.92518 28,000 249 335 0
2017-12-10 07:29:34 GMT 51.83263 2.92815 28,000 249 335 0
2017-12-10 07:29:31 GMT 51.83418 2.93461 28,000 249 335 0
2017-12-10 07:29:29 GMT 51.83501 2.93803 28,000 249 335 -64
2017-12-10 07:29:27 GMT 51.83647 2.94396 28,000 249 335 0
2017-12-10 07:29:25 GMT 51.83741 2.94800 28,000 249 335 0
2017-12-10 07:29:23 GMT 51.83848 2.95250 28,000 249 335 0
2017-12-10 07:29:21 GMT 51.84004 2.95896 28,000 249 335 0
2017-12-10 07:29:19 GMT 51.84091 2.96245 28,000 249 335 0
2017-12-10 07:29:17 GMT 51.84160 2.96549 28,000 249 336 0
2017-12-10 07:29:15 GMT 51.84316 2.97188 28,000 249 336 0
2017-12-10 07:29:13 GMT 51.84485 2.97871 28,000 249 337 0
2017-12-10 07:29:11 GMT 51.84574 2.98241 28,000 249 337 0
2017-12-10 07:29:09 GMT 51.84682 2.98687 28,000 249 337 0
2017-12-10 07:29:07 GMT 51.84886 2.99522 28,000 249 337 0
2017-12-10 07:29:05 GMT 51.84914 2.99637 28,000 249 337 0
2017-12-10 07:29:03 GMT 51.84998 2.99986 28,000 249 337 0
2017-12-10 07:29:01 GMT 51.85146 3.00583 28,000 249 337 64
2017-12-10 07:28:58 GMT 51.85277 3.01129 28,000 249 337 64
2017-12-10 07:28:56 GMT 51.85437 3.01783 28,000 249 337 64
2017-12-10 07:28:54 GMT 51.85463 3.01887 28,000 249 337 64
2017-12-10 07:28:52 GMT 51.85620 3.02532 28,000 249 338 64
2017-12-10 07:28:50 GMT 51.85703 3.02881 28,000 249 339 128
2017-12-10 07:28:48 GMT 51.85835 3.03438 28,000 249 339 0
2017-12-10 07:28:45 GMT 51.86046 3.04284 27,975 249 340 -64
2017-12-10 07:28:43 GMT 51.86180 3.04840 28,000 249 340 -64
2017-12-10 07:28:41 GMT 51.86315 3.05397 28,000 249 340 -64
2017-12-10 07:28:39 GMT 51.86353 3.05553 28,000 249 340 0
2017-12-10 07:28:37 GMT 51.86525 3.06251 28,000 249 340 0
2017-12-10 07:28:35 GMT 51.86600 3.06556 28,000 249 339 64
2017-12-10 07:28:33 GMT 51.86760 3.07216 28,000 249 339 64
2017-12-10 07:28:31 GMT 51.86822 3.07457 28,000 249 339 64
2017-12-10 07:28:29 GMT 51.86939 3.07915 28,000 249 339 128
2017-12-10 07:28:27 GMT 51.87060 3.08418 28,000 249 339 0
2017-12-10 07:28:25 GMT 51.87236 3.09109 28,000 249 340 0
2017-12-10 07:28:22 GMT 51.87409 3.09815 27,975 248 340 64
2017-12-10 07:28:20 GMT 51.87474 3.10074 28,000 248 340 64
2017-12-10 07:28:18 GMT 51.87648 3.10765 28,000 248 342 64
2017-12-10 07:28:16 GMT 51.87703 3.10980 27,975 249 341 0
2017-12-10 07:28:14 GMT 51.87786 3.11325 28,000 249 341 0
2017-12-10 07:28:12 GMT 51.87977 3.12088 28,000 248 342 0
2017-12-10 07:28:10 GMT 51.88070 3.12447 28,000 248 342 0
2017-12-10 07:28:07 GMT 51.88206 3.12992 28,000 248 341 0
2017-12-10 07:28:05 GMT 51.88399 3.13749 28,000 248 340 0
2017-12-10 07:28:03 GMT 51.88447 3.13957 28,000 248 340 0
2017-12-10 07:28:01 GMT 51.88577 3.14453 28,000 248 340 -128
2017-12-10 07:27:59 GMT 51.88779 3.15248 28,000 248 340 -320
2017-12-10 07:27:57 GMT 51.88857 3.15552 28,000 248 339 -448
2017-12-10 07:27:55 GMT 51.89010 3.16154 28,025 248 339 -576
2017-12-10 07:27:53 GMT 51.89035 3.16258 28,025 248 340 -640
2017-12-10 07:27:51 GMT 51.89266 3.17154 28,075 248 340 -768
2017-12-10 07:27:48 GMT 51.89397 3.17654 28,100 248 339 -896
2017-12-10 07:27:46 GMT 51.89569 3.18337 28,125 248 339 -896
2017-12-10 07:27:44 GMT 51.89616 3.18504 28,150 248 337 -896
2017-12-10 07:27:41 GMT 51.89848 3.19396 28,225 248 337 -896
2017-12-10 07:27:39 GMT 51.89909 3.19641 28,225 248 336 -832
2017-12-10 07:27:37 GMT 51.90024 3.20084 28,275 248 335 -832
2017-12-10 07:27:35 GMT 51.90193 3.20732 28,300 248 334 -896
2017-12-10 07:27:33 GMT 51.90243 3.20923 28,325 248 333 -896
2017-12-10 07:27:31 GMT 51.90425 3.21617 28,350 248 333 -896
2017-12-10 07:27:29 GMT 51.90541 3.22052 28,375 248 333 -1024
2017-12-10 07:27:28 GMT 51.90565 3.22158 28,400 248 333 -1024
2017-12-10 07:27:26 GMT 51.90756 3.22876 28,425 248 333 -1216
2017-12-10 07:27:24 GMT 51.90807 3.23076 28,450 247 334 -1344
2017-12-10 07:27:22 GMT 51.90952 3.23618 28,500 248 335 -1472
2017-12-10 07:27:20 GMT 51.91118 3.24257 28,550 248 335 -1472
2017-12-10 07:27:19 GMT 51.91143 3.24356 28,575 248 336 -1536
2017-12-10 07:27:18 GMT 51.91143 3.24356 28,575 248 336 -1600
2017-12-10 07:27:16 GMT 51.91296 3.24936 28,625 248 336 -1728
2017-12-10 07:27:14 GMT 51.91452 3.25531 28,700 248 337 -2048
2017-12-10 07:27:12 GMT 51.91585 3.26035 28,775 248 338 -2176
2017-12-10 07:27:10 GMT 51.91672 3.26378 28,825 248 338 -2368
2017-12-10 07:27:08 GMT 51.91827 3.26977 28,925 248 338 -2304
2017-12-10 07:27:06 GMT 51.92032 3.27754 29,000 248 338 -1984
2017-12-10 07:27:04 GMT 51.92061 3.27866 29,075 248 339 -1664
2017-12-10 07:27:02 GMT 51.92203 3.28415 29,125 248 339 -1472
2017-12-10 07:27:00 GMT 51.92264 3.28664 29,150 248 341 -1280
2017-12-10 07:26:58 GMT 51.92395 3.29163 29,225 248 341 -1408
2017-12-10 07:26:56 GMT 51.92496 3.29559 29,275 248 341 -1600
2017-12-10 07:26:56 GMT 51.92525 3.29668 29,275 248 341 -1600
2017-12-10 07:26:54 GMT 51.92693 3.30320 29,350 248 342 -1728
2017-12-10 07:26:52 GMT 51.92800 3.30720 29,400 248 343 -2048
2017-12-10 07:26:50 GMT 51.92889 3.31070 29,425 248 343 -2176
2017-12-10 07:26:47 GMT 51.93088 3.31834 29,550 248 343 -2304
2017-12-10 07:26:45 GMT 51.93237 3.32431 29,650 248 344 -2240
2017-12-10 07:26:43 GMT 51.93393 3.33046 29,675 248 344 -2304
2017-12-10 07:26:41 GMT 51.93416 3.33145 29,775 249 343 -2496
2017-12-10 07:26:39 GMT 51.93608 3.33916 29,900 249 343 -2752
2017-12-10 07:26:37 GMT 51.93661 3.34118 29,950 250 343 -2816
2017-12-10 07:26:35 GMT 51.93801 3.34722 30,075 252 342 -2752
2017-12-10 07:26:33 GMT 51.93959 3.35428 30,150 252 342 -2752
2017-12-10 07:26:31 GMT 51.93996 3.35601 30,250 252 342 -2752
2017-12-10 07:26:29 GMT 51.94080 3.36021 30,325 255 341 -2368
2017-12-10 07:26:27 GMT 51.94171 3.36487 30,425 254 341 -2432
2017-12-10 07:26:24 GMT 51.94322 3.37319 30,550 256 342 -2176
2017-12-10 07:26:22 GMT 51.94392 3.37751 30,625 257 342 -2240
2017-12-10 07:26:20 GMT 51.94494 3.38434 30,725 258 343 -2112
2017-12-10 07:26:18 GMT 51.94546 3.38806 30,775 259 343 -1792
2017-12-10 07:26:16 GMT 51.94606 3.39287 30,850 260 344 -1600
2017-12-10 07:26:14 GMT 51.94679 3.39882 30,900 261 345 -1536
2017-12-10 07:26:12 GMT 51.94711 3.40210 30,950 261 346 -1728
2017-12-10 07:26:10 GMT 51.94755 3.40647 30,975 262 346 -1728
2017-12-10 07:26:08 GMT 51.94821 3.41301 31,050 261 347 -1920
2017-12-10 07:26:06 GMT 51.94890 3.42004 31,150 261 348 -2176
2017-12-10 07:26:04 GMT 51.94908 3.42169 31,175 261 348 -2176
2017-12-10 07:26:02 GMT 51.95027 3.43414 31,325 261 349 -2112
2017-12-10 07:26:00 GMT 51.95030 3.43433 31,350 261 349 -2048
2017-12-10 07:25:58 GMT 51.95096 3.44093 31,450 261 349 -2048
2017-12-10 07:25:56 GMT 51.95137 3.44528 31,500 261 350 -2048
2017-12-10 07:25:54 GMT 51.95174 3.44861 31,550 261 350 -2112
2017-12-10 07:25:52 GMT 51.95219 3.45360 31,600 261 351 -2240
2017-12-10 07:25:50 GMT 51.95276 3.45912 31,700 261 351 -2432
2017-12-10 07:25:48 GMT 51.95329 3.46466 31,775 261 351 -2560
2017-12-10 07:25:46 GMT 51.95430 3.47505 31,925 261 351 -2496
2017-12-10 07:25:44 GMT 51.95444 3.47626 31,975 261 351 -2496
2017-12-10 07:25:42 GMT 51.95480 3.48007 32,050 261 351 -2496
2017-12-10 07:25:40 GMT 51.95554 3.48740 32,175 262 352 -2368
2017-12-10 07:25:38 GMT 51.95579 3.49004 32,200 262 352 -2176
2017-12-10 07:25:36 GMT 51.95663 3.49836 32,325 262 352 -2176
2017-12-10 07:25:34 GMT 51.95705 3.50283 32,400 262 353 -2112
2017-12-10 07:25:32 GMT 51.95760 3.50838 32,475 262 354 -2048
2017-12-10 07:25:30 GMT 51.95792 3.51173 32,500 261 354 -1984
2017-12-10 07:25:28 GMT 51.95842 3.51677 32,575 261 354 -1984
2017-12-10 07:25:26 GMT 51.95915 3.52409 32,675 261 355 -2112
2017-12-10 07:25:23 GMT 51.95979 3.53077 32,775 261 355 -2176
2017-12-10 07:25:21 GMT 51.96043 3.53752 32,875 261 356 -2240
2017-12-10 07:25:19 GMT 51.96089 3.54195 32,925 261 356 -2240
2017-12-10 07:25:17 GMT 51.96133 3.54646 33,000 261 356 -2112
2017-12-10 07:25:15 GMT 51.96175 3.55094 33,075 261 356 -2112
2017-12-10 07:25:13 GMT 51.96249 3.55863 33,125 261 357 -1920
2017-12-10 07:25:10 GMT 51.96314 3.56499 33,250 261 357 -1792
2017-12-10 07:25:08 GMT 51.96373 3.57124 33,325 262 358 -1792
2017-12-10 07:25:05 GMT 51.96445 3.57848 33,400 262 358 -1920
2017-12-10 07:25:03 GMT 51.96487 3.58241 33,450 262 358 -1920
2017-12-10 07:25:01 GMT 51.96533 3.58758 33,525 262 358 -1920
2017-12-10 07:24:59 GMT 51.96598 3.59426 33,625 262 358 -1856
2017-12-10 07:24:57 GMT 51.96626 3.59716 33,650 262 358 -1728
2017-12-10 07:24:55 GMT 51.96703 3.60504 33,750 262 358 -1280
2017-12-10 07:24:53 GMT 51.96757 3.61069 33,800 262 358 -1152
2017-12-10 07:24:51 GMT 51.96803 3.61521 33,825 262 358 -1024
2017-12-10 07:24:49 GMT 51.96836 3.61858 33,875 262 358 -832
2017-12-10 07:24:47 GMT 51.96896 3.62470 33,900 262 359 -256
2017-12-10 07:24:47 GMT 51.96896 3.62470 33,900 262 359 -384
2017-12-10 07:24:45 GMT 51.96950 3.63045 33,925 262 359 -384
2017-12-10 07:24:45 GMT 51.96950 3.63045 33,925 262 359 -384
2017-12-10 07:24:43 GMT 51.97022 3.63773 33,950 262 359 -256
2017-12-10 07:24:41 GMT 51.97082 3.64380 33,950 262 359 -128
2017-12-10 07:24:39 GMT 51.97092 3.64511 33,975 262 359 -64
2017-12-10 07:24:39 GMT 51.97092 3.64511 33,975 262 359 -64
2017-12-10 07:24:37 GMT 51.97160 3.65189 33,975 262 359 -64
2017-12-10 07:24:37 GMT 51.97160 3.65189 33,975 262 359 -64
2017-12-10 07:24:35 GMT 51.97211 3.65700 33,975 262 359 0
2017-12-10 07:24:33 GMT 51.97269 3.66323 33,975 261 358 64
2017-12-10 07:24:31 GMT 51.97302 3.66661 33,975 262 358 0
2017-12-10 07:24:29 GMT 51.97362 3.67234 33,975 262 358 0
2017-12-10 07:24:29 GMT 51.97362 3.67234 33,975 262 358 0
2017-12-10 07:24:27 GMT 51.97413 3.67791 33,975 262 358 0
2017-12-10 07:24:25 GMT 51.97490 3.68576 33,975 262 358 0
2017-12-10 07:24:23 GMT 51.97513 3.68813 33,975 262 358 0
2017-12-10 07:24:21 GMT 51.97581 3.69545 33,975 262 358 0
2017-12-10 07:24:19 GMT 51.97623 3.69934 33,975 262 358 0
2017-12-10 07:24:19 GMT 51.97623 3.69934 33,975 262 358 0
2017-12-10 07:24:17 GMT 51.97678 3.70561 33,975 262 358 -128
2017-12-10 07:24:16 GMT 51.97678 3.70561 33,975 262 358 -64
2017-12-10 07:24:14 GMT 51.97748 3.71291 34,000 262 358 0
2017-12-10 07:24:12 GMT 51.97823 3.72028 33,975 262 358 0
2017-12-10 07:24:10 GMT 51.97841 3.72248 34,000 262 358 0
2017-12-10 07:24:08 GMT 51.97902 3.72876 34,000 262 357 128
2017-12-10 07:24:06 GMT 51.97948 3.73386 34,000 262 358 0
2017-12-10 07:24:04 GMT 51.98004 3.73943 34,000 262 357 0
2017-12-10 07:24:02 GMT 51.98042 3.74336 33,975 262 357 64
2017-12-10 07:24:00 GMT 51.98102 3.74956 34,000 262 357 256
2017-12-10 07:23:58 GMT 51.98172 3.75687 33,975 262 357 128
2017-12-10 07:23:56 GMT 51.98218 3.76198 33,975 262 358 192
2017-12-10 07:23:54 GMT 51.98268 3.76701 33,975 262 358 128
2017-12-10 07:23:52 GMT 51.98323 3.77274 33,950 262 358 64
2017-12-10 07:23:50 GMT 51.98363 3.77718 33,975 262 358 64
2017-12-10 07:23:50 GMT 51.98363 3.77718 33,975 262 358 64
2017-12-10 07:23:48 GMT 51.98428 3.78395 33,950 262 359 -64
2017-12-10 07:23:46 GMT 51.98456 3.78683 33,975 262 359 -64
2017-12-10 07:23:44 GMT 51.98493 3.79083 33,975 262 359 0
2017-12-10 07:23:42 GMT 51.98558 3.79750 33,975 262 359 0
2017-12-10 07:23:40 GMT 51.98625 3.80432 33,975 262 359 0
2017-12-10 07:23:38 GMT 51.98656 3.80778 33,975 262 358 0
2017-12-10 07:23:36 GMT 51.98703 3.81279 33,975 262 358 64
2017-12-10 07:23:34 GMT 51.98753 3.81790 33,975 262 358 64
2017-12-10 07:23:32 GMT 51.98828 3.82583 33,975 262 358 0
2017-12-10 07:23:30 GMT 51.98861 3.82921 33,975 262 358 0
2017-12-10 07:23:28 GMT 51.98959 3.83942 33,975 262 358 0
2017-12-10 07:23:26 GMT 51.98959 3.83942 33,975 262 358 0
2017-12-10 07:23:24 GMT 51.99019 3.84567 33,975 262 358 0
2017-12-10 07:23:22 GMT 51.99060 3.85010 33,975 262 358 0
2017-12-10 07:23:20 GMT 51.99129 3.85750 33,950 262 358 64
2017-12-10 07:23:18 GMT 51.99147 3.85918 33,975 262 358 0
2017-12-10 07:23:16 GMT 51.99211 3.86597 33,975 262 358 0
2017-12-10 07:23:14 GMT 51.99266 3.87158 33,975 262 358 0
2017-12-10 07:23:11 GMT 51.99345 3.88006 33,950 262 358 0
2017-12-10 07:23:09 GMT 51.99390 3.88466 33,975 262 358 -64
2017-12-10 07:23:07 GMT 51.99447 3.89081 33,975 262 358 -64
2017-12-10 07:23:04 GMT 51.99522 3.89870 33,975 262 358 -64
2017-12-10 07:23:02 GMT 51.99578 3.90438 33,975 262 358 -64
2017-12-10 07:23:00 GMT 51.99605 3.90724 33,975 262 358 -64
2017-12-10 07:22:58 GMT 51.99674 3.91457 33,975 262 358 -128
2017-12-10 07:22:55 GMT 51.99742 3.92197 33,975 262 358 -128
2017-12-10 07:22:53 GMT 51.99787 3.92651 33,975 262 358 -64
2017-12-10 07:22:51 GMT 51.99838 3.93208 34,000 262 358 -64
2017-12-10 07:22:49 GMT 51.99912 3.93997 34,000 262 358 -64
2017-12-10 07:22:47 GMT 51.99943 3.94333 34,000 262 358 0
2017-12-10 07:22:45 GMT 51.99987 3.94794 34,000 262 358 0
2017-12-10 07:22:45 GMT 51.99978 3.94676 34,000 262 358 0
2017-12-10 07:22:43 GMT 52.00034 3.95296 34,000 262 358 0
2017-12-10 07:22:41 GMT 52.00095 3.95920 34,000 262 358 0
2017-12-10 07:22:39 GMT 52.00160 3.96599 34,000 262 358 0
2017-12-10 07:22:37 GMT 52.00191 3.96942 34,000 262 358 0
2017-12-10 07:22:35 GMT 52.00269 3.97789 34,000 262 358 0
2017-12-10 07:22:33 GMT 52.00269 3.97789 34,000 262 359 64
2017-12-10 07:22:31 GMT 52.00360 3.98743 34,000 262 358 64
2017-12-10 07:22:29 GMT 52.00406 3.99251 34,000 262 358 64
2017-12-10 07:22:27 GMT 52.00429 3.99483 34,000 262 359 64
2017-12-10 07:22:25 GMT 52.00502 4.00269 34,000 262 359 64
2017-12-10 07:22:23 GMT 52.00532 4.00609 34,000 262 359 64
2017-12-10 07:22:21 GMT 52.00593 4.01229 34,000 262 360 64
2017-12-10 07:22:19 GMT 52.00658 4.01962 34,000 262 360 0
2017-12-10 07:22:17 GMT 52.00708 4.02519 34,000 262 359 0
2017-12-10 07:22:14 GMT 52.00751 4.02931 34,000 262 360 0
2017-12-10 07:22:11 GMT 52.00839 4.03904 34,000 262 361 0
2017-12-10 07:22:09 GMT 52.00881 4.04352 34,000 262 361 0
2017-12-10 07:22:06 GMT 52.00946 4.05105 34,000 262 361 0
2017-12-10 07:22:04 GMT 52.00998 4.05615 34,000 262 361 0
2017-12-10 07:22:02 GMT 52.01042 4.06128 34,000 262 361 0
2017-12-10 07:22:00 GMT 52.01134 4.07089 34,000 262 360 0
2017-12-10 07:21:58 GMT 52.01174 4.07546 34,000 262 360 -64
2017-12-10 07:21:56 GMT 52.01188 4.07663 34,000 262 360 0
2017-12-10 07:21:54 GMT 52.01244 4.08283 34,000 262 359 0
2017-12-10 07:21:52 GMT 52.01291 4.08801 34,000 262 359 0
2017-12-10 07:21:50 GMT 52.01347 4.09366 34,000 262 359 0
2017-12-10 07:21:48 GMT 52.01418 4.10156 34,000 262 360 64
2017-12-10 07:21:46 GMT 52.01450 4.10500 34,000 262 360 0
2017-12-10 07:21:44 GMT 52.01518 4.11240 34,000 262 360 0
2017-12-10 07:21:42 GMT 52.01564 4.11751 34,000 262 359 0
2017-12-10 07:21:40 GMT 52.01589 4.12026 34,000 262 359 0
2017-12-10 07:21:38 GMT 52.01669 4.12903 34,000 262 359 64
2017-12-10 07:21:36 GMT 52.01705 4.13282 34,000 262 359 64
2017-12-10 07:21:34 GMT 52.01761 4.13847 34,000 262 359 64
2017-12-10 07:21:31 GMT 52.01826 4.14585 34,000 262 359 64
2017-12-10 07:21:29 GMT 52.01889 4.15268 34,000 262 360 0
2017-12-10 07:21:27 GMT 52.01921 4.15611 34,000 262 360 0
2017-12-10 07:21:25 GMT 52.01975 4.16186 33,975 262 360 0
2017-12-10 07:21:22 GMT 52.02036 4.16870 34,000 262 360 0
2017-12-10 07:21:20 GMT 52.02086 4.17381 34,000 262 360 0
2017-12-10 07:21:18 GMT 52.02136 4.17946 34,000 262 360 0
2017-12-10 07:21:16 GMT 52.02182 4.18457 34,000 262 361 0
2017-12-10 07:21:16 GMT 52.02196 4.18579 34,000 262 361 0
2017-12-10 07:21:14 GMT 52.02237 4.19029 34,000 262 361 0
2017-12-10 07:21:14 GMT 52.02237 4.19029 34,000 262 362 0
2017-12-10 07:21:12 GMT 52.02292 4.19663 34,000 262 362 0
2017-12-10 07:21:10 GMT 52.02342 4.20174 34,000 262 362 0
2017-12-10 07:21:08 GMT 52.02397 4.20807 34,000 262 361 0
2017-12-10 07:21:06 GMT 52.02445 4.21318 34,000 262 360 0
2017-12-10 07:21:04 GMT 52.02489 4.21768 34,000 262 360 0
2017-12-10 07:21:02 GMT 52.02539 4.22348 34,000 262 360 0
2017-12-10 07:21:00 GMT 52.02580 4.22793 34,000 262 360 64
2017-12-10 07:20:58 GMT 52.02626 4.23309 34,000 262 360 0
2017-12-10 07:20:56 GMT 52.02676 4.23820 34,000 262 360 0
2017-12-10 07:20:54 GMT 52.02722 4.24332 34,000 262 360 0
2017-12-10 07:20:52 GMT 52.02785 4.25030 34,000 262 360 0
2017-12-10 07:20:50 GMT 52.02832 4.25530 34,000 262 360 0
2017-12-10 07:20:48 GMT 52.02892 4.26215 34,000 262 360 -64
2017-12-10 07:20:46 GMT 52.02919 4.26498 34,000 262 360 -64
2017-12-10 07:20:44 GMT 52.02967 4.27070 34,000 262 360 -64
2017-12-10 07:20:44 GMT 52.02967 4.27070 34,000 262 359 -128
2017-12-10 07:20:42 GMT 52.03015 4.27582 34,000 262 359 -128
2017-12-10 07:20:40 GMT 52.03079 4.28329 34,000 262 358 -128
2017-12-10 07:20:38 GMT 52.03102 4.28553 34,000 262 358 -128
2017-12-10 07:20:38 GMT 52.03102 4.28553 34,000 262 358 -128
2017-12-10 07:20:36 GMT 52.03162 4.29228 34,025 262 357 -64
2017-12-10 07:20:34 GMT 52.03221 4.29909 34,025 262 356 -128
2017-12-10 07:20:32 GMT 52.03281 4.30534 34,025 262 354 -128
2017-12-10 07:20:30 GMT 52.03316 4.30923 34,025 262 354 -128
2017-12-10 07:20:27 GMT 52.03395 4.31824 34,050 262 353 -192
2017-12-10 07:20:25 GMT 52.03442 4.32312 34,050 262 353 -256
2017-12-10 07:20:23 GMT 52.03465 4.32610 34,050 262 353 -320
2017-12-10 07:20:21 GMT 52.03528 4.33281 34,050 262 353 -512
2017-12-10 07:20:19 GMT 52.03574 4.33777 34,075 262 353 -640
2017-12-10 07:20:17 GMT 52.03623 4.34344 34,100 262 353 -832
2017-12-10 07:20:15 GMT 52.03674 4.34902 34,125 262 353 -1024
2017-12-10 07:20:13 GMT 52.03697 4.35173 34,125 262 353 -1088
2017-12-10 07:20:11 GMT 52.03781 4.36126 34,200 262 353 -1408
2017-12-10 07:20:08 GMT 52.03833 4.36683 34,250 262 352 -1472
2017-12-10 07:20:08 GMT 52.03833 4.36683 34,250 262 352 -1472
2017-12-10 07:20:06 GMT 52.03889 4.37295 34,325 262 351 -1472
2017-12-10 07:20:04 GMT 52.03912 4.37584 34,350 262 351 -1472
2017-12-10 07:20:02 GMT 52.03972 4.38245 34,425 262 351 -1408
2017-12-10 07:20:00 GMT 52.04031 4.38919 34,475 262 351 -1472
2017-12-10 07:19:58 GMT 52.04063 4.39247 34,525 262 349 -1408
2017-12-10 07:19:56 GMT 52.04103 4.39681 34,575 262 349 -1408
2017-12-10 07:19:54 GMT 52.04149 4.40191 34,600 262 347 -1408
2017-12-10 07:19:52 GMT 52.04186 4.40622 34,650 262 347 -1408
2017-12-10 07:19:50 GMT 52.04237 4.41170 34,700 262 346 -1408
2017-12-10 07:19:48 GMT 52.04293 4.41776 34,750 262 342 -1408
2017-12-10 07:19:46 GMT 52.04333 4.42215 34,800 262 344 -1408
2017-12-10 07:19:44 GMT 52.04388 4.42810 34,875 262 344 -1408
2017-12-10 07:19:41 GMT 52.04447 4.43471 34,925 262 342 -1408
2017-12-10 07:19:39 GMT 52.04489 4.43903 34,975 262 342 -1408
2017-12-10 07:19:37 GMT 52.04563 4.44711 35,050 262 342 -1408
2017-12-10 07:19:37 GMT 52.04563 4.44711 35,050 262 342 -1408
2017-12-10 07:19:35 GMT 52.04604 4.45145 35,075 262 341 -1408
2017-12-10 07:19:33 GMT 52.04636 4.45473 35,125 262 341 -1408
2017-12-10 07:19:31 GMT 52.04691 4.46060 35,175 262 342 -1408
2017-12-10 07:19:29 GMT 52.04732 4.46495 35,200 262 342 -1408
2017-12-10 07:19:26 GMT 52.04834 4.47528 35,300 262 342 -1344
2017-12-10 07:19:24 GMT 52.04875 4.47952 35,350 262 343 -1344
2017-12-10 07:19:21 GMT 52.04961 4.48853 35,400 262 343 -1344
2017-12-10 07:19:19 GMT 52.04996 4.49254 35,475 262 343 -1344
2017-12-10 07:19:16 GMT 52.05071 4.50012 35,525 262 344 -1344
2017-12-10 07:19:14 GMT 52.05127 4.50604 35,575 262 345 -1408
2017-12-10 07:19:13 GMT 52.05112 4.50439 35,575 262 344 -1408
2017-12-10 07:19:11 GMT 52.05199 4.51370 35,650 262 346 -1344
2017-12-10 07:19:09 GMT 52.05231 4.51752 35,675 262 349 -1344
2017-12-10 07:19:06 GMT 52.05309 4.52576 35,750 262 348 -1344
2017-12-10 07:19:06 GMT 52.05309 4.52576 35,750 262 348 -1344
2017-12-10 07:19:04 GMT 52.05354 4.53133 35,800 262 348 -1344
2017-12-10 07:19:02 GMT 52.05383 4.53461 35,825 262 349 -1344
2017-12-10 07:19:00 GMT 52.05428 4.53957 35,875 262 350 -1344
2017-12-10 07:18:58 GMT 52.05483 4.54559 35,925 262 351 -1280
2017-12-10 07:18:56 GMT 52.05524 4.55063 35,975 263 352 -1280
2017-12-10 07:18:56 GMT 52.05524 4.55063 35,975 263 352 -1280
2017-12-10 07:18:54 GMT 52.05565 4.55513 36,000 263 353 -1280
2017-12-10 07:18:52 GMT 52.05638 4.56352 36,075 263 355 -1344
2017-12-10 07:18:50 GMT 52.05661 4.56635 36,125 263 355 -1344
2017-12-10 07:18:48 GMT 52.05704 4.57141 36,150 263 357 -1280
2017-12-10 07:18:46 GMT 52.05737 4.57526 36,175 263 357 -1280
2017-12-10 07:18:44 GMT 52.05798 4.58260 36,250 263 358 -1280
2017-12-10 07:18:42 GMT 52.05835 4.58664 36,275 263 359 -1280
2017-12-10 07:18:40 GMT 52.05881 4.59229 36,350 263 360 -1344
2017-12-10 07:18:38 GMT 52.05936 4.59854 36,400 263 361 -1280
2017-12-10 07:18:35 GMT 52.06016 4.60767 36,475 263 362 -1216
2017-12-10 07:18:33 GMT 52.06072 4.61434 36,500 263 363 -1280
2017-12-10 07:18:31 GMT 52.06104 4.61803 36,550 263 364 -1280
2017-12-10 07:18:29 GMT 52.06137 4.62204 36,600 263 365 -1216
2017-12-10 07:18:27 GMT 52.06183 4.62723 36,625 263 365 -1216
2017-12-10 07:18:25 GMT 52.06225 4.63239 36,675 263 366 -1152
2017-12-10 07:18:23 GMT 52.06288 4.63936 36,725 263 367 -1152
2017-12-10 07:18:21 GMT 52.06318 4.64298 36,750 263 368 -1152
2017-12-10 07:18:19 GMT 52.06384 4.65050 36,800 263 369 -1152
2017-12-10 07:18:17 GMT 52.06435 4.65671 36,825 263 370 -1152
2017-12-10 07:18:15 GMT 52.06480 4.66209 36,900 263 371 -1216
2017-12-10 07:18:13 GMT 52.06537 4.66864 36,950 263 372 -1216
2017-12-10 07:18:11 GMT 52.06558 4.67094 36,950 263 373 -1216
2017-12-10 07:18:11 GMT 52.06558 4.67094 36,950 263 373 -1216
2017-12-10 07:18:09 GMT 52.06603 4.67625 37,000 263 374 -1216
2017-12-10 07:18:06 GMT 52.06686 4.68638 37,075 263 377 -1216
2017-12-10 07:18:04 GMT 52.06733 4.69171 37,125 263 376 -1280
2017-12-10 07:18:02 GMT 52.06769 4.69582 37,150 263 377 -1216
2017-12-10 07:18:00 GMT 52.06826 4.70301 37,200 263 379 -1280
2017-12-10 07:17:58 GMT 52.06856 4.70657 37,225 263 379 -1280
2017-12-10 07:17:56 GMT 52.06947 4.71680 37,325 262 380 -1280
2017-12-10 07:17:54 GMT 52.06970 4.71988 37,325 263 381 -1344
2017-12-10 07:17:52 GMT 52.07031 4.72647 37,400 263 382 -1344
2017-12-10 07:17:50 GMT 52.07066 4.73076 37,425 263 382 -1344
2017-12-10 07:17:48 GMT 52.07112 4.73618 37,475 262 383 -1408
2017-12-10 07:17:45 GMT 52.07212 4.74751 37,550 262 384 -1408
2017-12-10 07:17:43 GMT 52.07245 4.75135 37,625 262 385 -1344
2017-12-10 07:17:41 GMT 52.07287 4.75629 37,650 262 385 -1344
2017-12-10 07:17:38 GMT 52.07371 4.76540 37,725 262 386 -1216
2017-12-10 07:17:36 GMT 52.07400 4.76914 37,775 262 386 -1152
2017-12-10 07:17:34 GMT 52.07465 4.77646 37,825 262 386 -960
2017-12-10 07:17:32 GMT 52.07496 4.78015 37,850 262 386 -832
2017-12-10 07:17:32 GMT 52.07496 4.78015 37,850 262 386 -832
2017-12-10 07:17:30 GMT 52.07566 4.78808 37,900 262 386 -448
2017-12-10 07:17:28 GMT 52.07616 4.79355 37,925 262 385 -320
2017-12-10 07:17:26 GMT 52.07652 4.79782 37,950 262 384 -64
2017-12-10 07:17:24 GMT 52.07710 4.80456 37,950 262 384 -64
2017-12-10 07:17:22 GMT 52.07762 4.81064 37,975 262 384 0
2017-12-10 07:17:20 GMT 52.07835 4.81895 37,950 262 384 0
2017-12-10 07:17:18 GMT 52.07863 4.82224 37,975 263 384 0
2017-12-10 07:17:16 GMT 52.07913 4.82773 37,950 263 384 0
2017-12-10 07:17:14 GMT 52.07954 4.83254 37,950 263 384 64
2017-12-10 07:17:12 GMT 52.08032 4.84161 37,950 263 383 64
2017-12-10 07:17:09 GMT 52.08078 4.84711 37,975 263 383 0
2017-12-10 07:17:07 GMT 52.08129 4.85329 37,950 263 383 0
2017-12-10 07:17:05 GMT 52.08171 4.85808 37,975 263 383 -64
2017-12-10 07:17:05 GMT 52.08171 4.85808 37,975 263 383 0
2017-12-10 07:17:03 GMT 52.08227 4.86475 37,950 263 383 -64
2017-12-10 07:17:01 GMT 52.08264 4.86914 37,975 263 383 -64
2017-12-10 07:16:59 GMT 52.08325 4.87628 37,975 263 383 0
2017-12-10 07:16:57 GMT 52.08375 4.88243 37,975 263 383 0
2017-12-10 07:16:55 GMT 52.08413 4.88664 37,975 263 383 0
2017-12-10 07:16:53 GMT 52.08485 4.89517 37,975 263 383 0
2017-12-10 07:16:51 GMT 52.08502 4.89755 37,975 263 382 0
2017-12-10 07:16:51 GMT 52.08502 4.89755 37,975 263 383 0
2017-12-10 07:16:51 GMT 52.08502 4.89755 37,975 263 383 0
2017-12-10 07:16:49 GMT 52.08540 4.90181 37,975 263 382 0
2017-12-10 07:16:47 GMT 52.08609 4.91005 37,975 263 382 0
2017-12-10 07:16:45 GMT 52.08665 4.91701 37,975 263 382 64
2017-12-10 07:16:43 GMT 52.08707 4.92180 37,975 263 382 0
2017-12-10 07:16:41 GMT 52.08774 4.92950 37,975 263 382 0
2017-12-10 07:16:39 GMT 52.08814 4.93451 37,975 263 382 0
2017-12-10 07:16:39 GMT 52.08814 4.93451 37,975 263 382 0
2017-12-10 07:16:37 GMT 52.08847 4.93813 37,975 263 382 0
2017-12-10 07:16:35 GMT 52.08907 4.94542 37,975 263 382 -64
2017-12-10 07:16:33 GMT 52.08939 4.94903 37,975 263 382 0
2017-12-10 07:16:33 GMT 52.08939 4.94903 37,975 263 382 0
2017-12-10 07:16:31 GMT 52.08998 4.95636 37,975 263 382 0
2017-12-10 07:16:28 GMT 52.09067 4.96429 37,975 263 382 -64
2017-12-10 07:16:26 GMT 52.09117 4.96971 37,975 263 382 0
2017-12-10 07:16:23 GMT 52.09181 4.97759 37,975 263 382 0
2017-12-10 07:16:21 GMT 52.09251 4.98544 37,975 263 382 -64
2017-12-10 07:16:19 GMT 52.09282 4.98917 37,975 263 382 -64
2017-12-10 07:16:17 GMT 52.09316 4.99336 37,975 263 382 -64
2017-12-10 07:16:17 GMT 52.09316 4.99336 37,975 263 382 -64
2017-12-10 07:16:15 GMT 52.09378 5.00061 37,975 263 382 -64
2017-12-10 07:16:15 GMT 52.09378 5.00061 37,975 263 382 -64
2017-12-10 07:16:13 GMT 52.09433 5.00664 37,975 263 382 -64
2017-12-10 07:16:11 GMT 52.09498 5.01463 38,000 263 382 -64
2017-12-10 07:16:09 GMT 52.09547 5.02045 37,975 263 382 0
2017-12-10 07:16:07 GMT 52.09563 5.02177 38,000 263 382 0
2017-12-10 07:16:05 GMT 52.09644 5.03159 38,000 263 382 0
2017-12-10 07:16:03 GMT 52.09694 5.03700 38,000 263 382 0
2017-12-10 07:16:01 GMT 52.09763 5.04539 38,000 263 382 0
2017-12-10 07:16:01 GMT 52.09726 5.04123 38,000 263 382 0
2017-12-10 07:15:59 GMT 52.09773 5.04665 38,000 263 382 0
2017-12-10 07:15:57 GMT 52.09822 5.05211 38,000 263 382 0
2017-12-10 07:15:55 GMT 52.09877 5.05882 38,000 263 382 -64
2017-12-10 07:15:53 GMT 52.09941 5.06584 38,000 263 382 -64
2017-12-10 07:15:51 GMT 52.09992 5.07210 38,000 263 382 0
2017-12-10 07:15:49 GMT 52.10038 5.07757 38,000 263 382 0
2017-12-10 07:15:47 GMT 52.10060 5.08003 38,000 263 382 0
2017-12-10 07:15:45 GMT 52.10115 5.08606 38,000 263 382 0
2017-12-10 07:15:43 GMT 52.10164 5.09208 38,000 263 382 0
2017-12-10 07:15:40 GMT 52.10243 5.10119 38,000 263 383 -64
2017-12-10 07:15:38 GMT 52.10280 5.10550 38,000 263 383 -64
2017-12-10 07:15:38 GMT 52.10280 5.10550 38,000 263 383 0
2017-12-10 07:15:36 GMT 52.10331 5.11155 38,000 263 383 0
2017-12-10 07:15:34 GMT 52.10397 5.11939 38,000 263 383 0
2017-12-10 07:15:33 GMT 52.10397 5.11939 38,000 263 383 0
2017-12-10 07:15:31 GMT 52.10457 5.12614 38,000 263 383 64
2017-12-10 07:15:29 GMT 52.10508 5.13218 38,000 263 383 64
2017-12-10 07:15:27 GMT 52.10541 5.13642 38,000 263 383 64
2017-12-10 07:15:25 GMT 52.10597 5.14254 38,000 263 383 0
2017-12-10 07:15:23 GMT 52.10639 5.14804 38,000 263 384 0
2017-12-10 07:15:21 GMT 52.10708 5.15588 38,000 263 384 -64
2017-12-10 07:15:19 GMT 52.10736 5.15957 38,000 263 384 -64
2017-12-10 07:15:17 GMT 52.10792 5.16624 38,000 263 384 -64
2017-12-10 07:15:15 GMT 52.10820 5.16922 38,000 263 384 -64
2017-12-10 07:15:13 GMT 52.10890 5.17786 38,025 263 384 0
2017-12-10 07:15:11 GMT 52.10921 5.18150 38,025 263 384 -64
2017-12-10 07:15:09 GMT 52.10980 5.18883 38,025 263 384 0
2017-12-10 07:15:07 GMT 52.11026 5.19424 38,025 263 384 0
2017-12-10 07:15:05 GMT 52.11090 5.20203 38,025 263 384 0
2017-12-10 07:15:03 GMT 52.11118 5.20524 38,025 263 384 0
2017-12-10 07:15:01 GMT 52.11191 5.21385 38,025 263 384 0
2017-12-10 07:14:59 GMT 52.11216 5.21678 38,025 263 384 0
2017-12-10 07:14:57 GMT 52.11255 5.22171 38,025 263 384 0
2017-12-10 07:14:55 GMT 52.11309 5.22777 38,025 263 384 0
2017-12-10 07:14:53 GMT 52.11360 5.23397 38,025 263 385 0
2017-12-10 07:14:51 GMT 52.11416 5.24056 38,025 263 385 0
2017-12-10 07:14:49 GMT 52.11472 5.24731 38,025 263 385 0
2017-12-10 07:14:46 GMT 52.11523 5.25343 38,025 263 385 64
2017-12-10 07:14:44 GMT 52.11598 5.26268 38,025 263 385 64
2017-12-10 07:14:42 GMT 52.11625 5.26567 38,025 263 385 64
2017-12-10 07:14:40 GMT 52.11695 5.27454 38,025 263 385 64
2017-12-10 07:14:38 GMT 52.11704 5.27534 38,025 263 385 64
2017-12-10 07:14:38 GMT 52.11704 5.27534 38,025 263 385 64
2017-12-10 07:14:36 GMT 52.11749 5.28099 38,025 263 385 64
2017-12-10 07:14:34 GMT 52.11807 5.28764 38,025 263 385 64
2017-12-10 07:14:32 GMT 52.11877 5.29625 38,025 263 386 0
2017-12-10 07:14:30 GMT 52.11914 5.30045 38,025 263 386 0
2017-12-10 07:14:28 GMT 52.11955 5.30541 38,025 263 386 0
2017-12-10 07:14:26 GMT 52.12026 5.31393 38,025 263 386 0
2017-12-10 07:14:24 GMT 52.12074 5.31990 38,025 263 386 0
2017-12-10 07:14:22 GMT 52.12116 5.32494 38,025 263 386 0
2017-12-10 07:14:20 GMT 52.12175 5.33229 38,025 263 387 -64
2017-12-10 07:14:18 GMT 52.12184 5.33355 38,025 263 387 0
2017-12-10 07:14:16 GMT 52.12259 5.34281 38,025 263 387 0
2017-12-10 07:14:14 GMT 52.12280 5.34531 38,025 263 387 64
2017-12-10 07:14:12 GMT 52.12340 5.35255 38,025 263 387 128
2017-12-10 07:14:10 GMT 52.12404 5.36064 38,025 263 387 64
2017-12-10 07:14:08 GMT 52.12449 5.36651 38,025 263 387 64
2017-12-10 07:14:06 GMT 52.12473 5.36918 38,025 263 387 64
2017-12-10 07:14:04 GMT 52.12532 5.37651 38,025 263 387 128
2017-12-10 07:14:02 GMT 52.12573 5.38200 38,025 263 387 128
2017-12-10 07:14:00 GMT 52.12612 5.38644 38,025 263 387 128
2017-12-10 07:13:58 GMT 52.12682 5.39562 38,000 263 387 64
2017-12-10 07:13:58 GMT 52.12654 5.39193 38,000 263 387 64
2017-12-10 07:13:56 GMT 52.12706 5.39864 38,000 263 387 64
2017-12-10 07:13:54 GMT 52.12761 5.40543 38,000 263 388 64
2017-12-10 07:13:52 GMT 52.12816 5.41222 38,000 263 388 64
2017-12-10 07:13:50 GMT 52.12850 5.41650 38,000 263 388 0
2017-12-10 07:13:48 GMT 52.12907 5.42389 38,000 263 388 0
2017-12-10 07:13:46 GMT 52.12944 5.42816 38,000 263 388 0
2017-12-10 07:13:44 GMT 52.12966 5.43125 38,000 263 388 64
2017-12-10 07:13:42 GMT 52.13022 5.43808 38,000 263 388 64
2017-12-10 07:13:40 GMT 52.13092 5.44663 38,000 263 388 64
2017-12-10 07:13:38 GMT 52.13129 5.45102 38,000 263 388 0
2017-12-10 07:13:36 GMT 52.13187 5.45814 38,000 263 388 0
2017-12-10 07:13:34 GMT 52.13228 5.46326 38,000 263 388 64
2017-12-10 07:13:32 GMT 52.13246 5.46578 38,000 263 388 0
2017-12-10 07:13:30 GMT 52.13292 5.47134 38,000 263 388 0
2017-12-10 07:13:28 GMT 52.13347 5.47806 38,000 263 388 0
2017-12-10 07:13:26 GMT 52.13402 5.48485 38,000 263 388 0
2017-12-10 07:13:24 GMT 52.13436 5.48916 38,000 263 388 0
2017-12-10 07:13:22 GMT 52.13480 5.49408 38,000 263 388 0
2017-12-10 07:13:19 GMT 52.13557 5.50392 38,000 263 388 0
2017-12-10 07:13:17 GMT 52.13609 5.51011 38,000 263 388 0
2017-12-10 07:13:15 GMT 52.13676 5.51872 38,000 263 387 64
2017-12-10 07:13:13 GMT 52.13722 5.52422 38,000 263 387 64
2017-12-10 07:13:11 GMT 52.13763 5.52918 38,000 263 387 64
2017-12-10 07:13:09 GMT 52.13777 5.53101 38,000 263 387 64
2017-12-10 07:13:07 GMT 52.13841 5.53899 38,000 263 387 64
2017-12-10 07:13:05 GMT 52.13933 5.55054 38,000 263 387 64
2017-12-10 07:13:02 GMT 52.13956 5.55313 38,000 263 387 64
2017-12-10 07:13:00 GMT 52.13997 5.55870 38,000 263 387 64
2017-12-10 07:12:58 GMT 52.14065 5.56732 38,000 263 387 0
2017-12-10 07:12:56 GMT 52.14093 5.57030 38,000 263 387 0
2017-12-10 07:12:56 GMT 52.14084 5.56915 38,000 263 387 0
2017-12-10 07:12:56 GMT 52.14093 5.57030 38,000 263 387 0
2017-12-10 07:12:56 GMT 52.14084 5.56915 38,000 263 387 0
2017-12-10 07:12:54 GMT 52.14166 5.57953 38,000 263 387 0
2017-12-10 07:12:52 GMT 52.14191 5.58262 38,000 263 387 0
2017-12-10 07:12:50 GMT 52.14251 5.59063 38,000 263 387 -64
2017-12-10 07:12:48 GMT 52.14297 5.59612 38,000 263 387 -64
2017-12-10 07:12:46 GMT 52.14344 5.60240 38,000 263 387 0
2017-12-10 07:12:44 GMT 52.14363 5.60478 38,000 263 387 0
2017-12-10 07:12:42 GMT 52.14433 5.61339 38,000 263 387 -64
2017-12-10 07:12:40 GMT 52.14459 5.61646 38,000 263 387 -64
2017-12-10 07:12:38 GMT 52.14516 5.62382 38,000 263 387 -64
2017-12-10 07:12:36 GMT 52.14569 5.63057 38,000 263 387 64
2017-12-10 07:12:34 GMT 52.14615 5.63614 38,000 263 387 0
2017-12-10 07:12:32 GMT 52.14633 5.63850 38,000 263 387 0
2017-12-10 07:12:30 GMT 52.14706 5.64774 38,000 263 387 0
2017-12-10 07:12:28 GMT 52.14720 5.64972 38,000 263 387 -128
2017-12-10 07:12:26 GMT 52.14786 5.65819 38,000 263 387 -128
2017-12-10 07:12:24 GMT 52.14838 5.66432 38,000 263 387 0
2017-12-10 07:12:22 GMT 52.14870 5.66871 38,025 263 387 0
2017-12-10 07:12:20 GMT 52.14931 5.67609 38,025 263 387 0
2017-12-10 07:12:18 GMT 52.14977 5.68214 38,025 263 387 0
2017-12-10 07:12:16 GMT 52.15024 5.68817 38,025 263 386 0
2017-12-10 07:12:14 GMT 52.15059 5.69267 38,025 263 386 64
2017-12-10 07:12:11 GMT 52.15126 5.70112 38,025 263 386 64
2017-12-10 07:12:08 GMT 52.15183 5.70854 38,000 263 387 0
2017-12-10 07:12:06 GMT 52.15243 5.71587 38,025 263 387 -64
2017-12-10 07:12:06 GMT 52.15280 5.72082 38,025 263 387 0
2017-12-10 07:12:04 GMT 52.15280 5.72082 38,025 263 387 0
2017-12-10 07:12:02 GMT 52.15338 5.72823 38,025 263 387 0
2017-12-10 07:12:00 GMT 52.15396 5.73533 38,025 263 387 -64
2017-12-10 07:11:58 GMT 52.15415 5.73800 38,025 263 387 -64
2017-12-10 07:11:56 GMT 52.15461 5.74350 38,025 263 387 0
2017-12-10 07:11:54 GMT 52.15499 5.74844 38,025 263 387 0
2017-12-10 07:11:52 GMT 52.15549 5.75455 38,025 263 387 0
2017-12-10 07:11:50 GMT 52.15590 5.76019 38,025 263 386 0
2017-12-10 07:11:48 GMT 52.15645 5.76744 38,025 263 386 64
2017-12-10 07:11:46 GMT 52.15703 5.77489 38,025 263 386 64
2017-12-10 07:11:44 GMT 52.15745 5.78022 38,025 263 386 64
2017-12-10 07:11:42 GMT 52.15783 5.78532 38,025 263 385 64
2017-12-10 07:11:40 GMT 52.15815 5.78956 38,025 263 385 0
2017-12-10 07:11:38 GMT 52.15865 5.79582 38,025 263 385 0
2017-12-10 07:11:36 GMT 52.15913 5.80243 38,025 263 385 0
2017-12-10 07:11:34 GMT 52.15941 5.80612 38,025 263 386 0
2017-12-10 07:11:32 GMT 52.15993 5.81238 38,025 263 386 -64
2017-12-10 07:11:30 GMT 52.16052 5.82031 38,025 263 385 0
2017-12-10 07:11:30 GMT 52.16043 5.81902 38,025 263 386 0
2017-12-10 07:11:28 GMT 52.16067 5.82213 38,025 263 385 0
2017-12-10 07:11:27 GMT 52.16103 5.82710 38,025 263 385 0
2017-12-10 07:11:26 GMT 52.16103 5.82710 38,025 263 385 0
2017-12-10 07:11:24 GMT 52.16180 5.83748 38,025 263 385 64
2017-12-10 07:11:22 GMT 52.16213 5.84114 38,025 263 385 64
2017-12-10 07:11:20 GMT 52.16254 5.84663 38,025 263 385 64
2017-12-10 07:11:18 GMT 52.16295 5.85228 38,025 263 385 64
2017-12-10 07:11:16 GMT 52.16341 5.85838 38,025 263 385 128
2017-12-10 07:11:14 GMT 52.16405 5.86632 38,025 263 385 128
2017-12-10 07:11:12 GMT 52.16455 5.87311 38,025 263 385 64
2017-12-10 07:11:10 GMT 52.16476 5.87612 38,025 263 385 64
2017-12-10 07:11:08 GMT 52.16532 5.88286 38,025 263 385 64
2017-12-10 07:11:06 GMT 52.16574 5.88844 38,025 263 385 64
2017-12-10 07:11:04 GMT 52.16620 5.89448 38,025 263 386 64
2017-12-10 07:11:04 GMT 52.16620 5.89448 38,025 263 385 64
2017-12-10 07:11:02 GMT 52.16662 5.90005 38,025 263 386 64
2017-12-10 07:11:00 GMT 52.16718 5.90743 38,025 263 386 64
2017-12-10 07:10:58 GMT 52.16756 5.91174 38,025 263 386 64
2017-12-10 07:10:56 GMT 52.16807 5.91841 38,025 263 386 64
2017-12-10 07:10:54 GMT 52.16844 5.92344 38,025 263 386 64
2017-12-10 07:10:52 GMT 52.16877 5.92767 38,025 263 386 64
2017-12-10 07:10:50 GMT 52.16927 5.93384 38,000 263 385 128
2017-12-10 07:10:48 GMT 52.16951 5.93686 38,000 263 386 128
2017-12-10 07:10:46 GMT 52.17012 5.94494 38,000 263 385 0
2017-12-10 07:10:44 GMT 52.17067 5.95224 38,000 263 385 0
2017-12-10 07:10:44 GMT 52.17067 5.95224 38,000 263 385 0
2017-12-10 07:10:42 GMT 52.17114 5.95833 38,000 263 385 0
2017-12-10 07:10:40 GMT 52.17160 5.96432 38,000 263 385 0
2017-12-10 07:10:38 GMT 52.17206 5.97000 38,000 263 385 64
2017-12-10 07:10:36 GMT 52.17235 5.97366 38,000 263 385 64
2017-12-10 07:10:36 GMT 52.17235 5.97366 38,000 263 385 64
2017-12-10 07:10:34 GMT 52.17274 5.97916 38,000 264 385 64
2017-12-10 07:10:32 GMT 52.17343 5.98839 38,000 264 385 64
2017-12-10 07:10:30 GMT 52.17357 5.98961 38,000 264 385 64
2017-12-10 07:10:28 GMT 52.17416 5.99754 38,000 263 384 64
2017-12-10 07:10:26 GMT 52.17458 6.00311 38,000 263 384 64
2017-12-10 07:10:24 GMT 52.17510 6.01039 38,000 263 384 64
2017-12-10 07:10:22 GMT 52.17535 6.01349 38,000 263 384 64
2017-12-10 07:10:20 GMT 52.17577 6.01906 38,000 263 384 64
2017-12-10 07:10:17 GMT 52.17645 6.02821 38,000 263 384 0
2017-12-10 07:10:15 GMT 52.17700 6.03554 38,000 263 384 0
2017-12-10 07:10:13 GMT 52.17738 6.04044 38,000 263 383 0
2017-12-10 07:10:11 GMT 52.17783 6.04652 38,000 263 383 0
2017-12-10 07:10:09 GMT 52.17828 6.05263 38,000 264 383 0
2017-12-10 07:10:07 GMT 52.17863 6.05755 38,000 264 383 0
2017-12-10 07:10:05 GMT 52.17897 6.06178 38,000 264 383 0
2017-12-10 07:10:03 GMT 52.17943 6.06791 38,000 264 383 0
2017-12-10 07:10:01 GMT 52.17985 6.07340 38,000 264 383 0
2017-12-10 07:10:01 GMT 52.17970 6.07163 38,000 264 383 0
2017-12-10 07:09:59 GMT 52.18045 6.08187 38,000 264 383 0
2017-12-10 07:09:57 GMT 52.18068 6.08493 38,000 264 382 0
2017-12-10 07:09:55 GMT 52.18129 6.09286 38,000 264 382 0
2017-12-10 07:09:53 GMT 52.18158 6.09718 38,000 264 382 64
2017-12-10 07:09:51 GMT 52.18190 6.10138 38,000 264 382 64
2017-12-10 07:09:51 GMT 52.18190 6.10138 38,000 264 382 64
2017-12-10 07:09:49 GMT 52.18236 6.10748 38,000 264 382 64
2017-12-10 07:09:47 GMT 52.18272 6.11290 38,000 264 382 64
2017-12-10 07:09:45 GMT 52.18320 6.11907 38,000 264 381 128
2017-12-10 07:09:43 GMT 52.18378 6.12694 38,000 264 381 128
2017-12-10 07:09:41 GMT 52.18405 6.13113 37,975 264 381 64
2017-12-10 07:09:41 GMT 52.18405 6.13113 37,975 264 381 64
2017-12-10 07:09:39 GMT 52.18456 6.13792 37,975 264 381 64
2017-12-10 07:09:37 GMT 52.18534 6.14858 37,975 264 381 64
2017-12-10 07:09:35 GMT 52.18552 6.15117 37,975 264 381 0
2017-12-10 07:09:33 GMT 52.18579 6.15494 37,975 264 381 0
2017-12-10 07:09:31 GMT 52.18599 6.15792 37,975 264 381 0
2017-12-10 07:09:29 GMT 52.18671 6.16760 37,975 264 381 0
2017-12-10 07:09:27 GMT 52.18707 6.17248 37,975 264 381 0
2017-12-10 07:09:25 GMT 52.18725 6.17487 37,975 264 380 0
2017-12-10 07:09:23 GMT 52.18776 6.18216 37,975 264 380 0
2017-12-10 07:09:21 GMT 52.18818 6.18758 37,975 264 380 0
2017-12-10 07:09:19 GMT 52.18863 6.19369 37,975 264 380 0
2017-12-10 07:09:17 GMT 52.18895 6.19850 37,975 264 380 0
2017-12-10 07:09:15 GMT 52.18945 6.20521 37,975 264 380 64
2017-12-10 07:09:13 GMT 52.18986 6.21063 37,975 264 379 64
2017-12-10 07:09:11 GMT 52.19041 6.21842 37,975 264 379 64
2017-12-10 07:09:09 GMT 52.19074 6.22274 37,975 264 379 64
2017-12-10 07:09:07 GMT 52.19105 6.22696 37,975 264 379 64
2017-12-10 07:09:05 GMT 52.19185 6.23827 37,975 264 379 64
2017-12-10 07:09:02 GMT 52.19211 6.24146 37,975 264 379 64
2017-12-10 07:09:00 GMT 52.19246 6.24628 37,975 264 379 0
2017-12-10 07:08:58 GMT 52.19293 6.25232 37,975 264 379 0
2017-12-10 07:08:56 GMT 52.19330 6.25773 37,975 264 379 0
2017-12-10 07:08:54 GMT 52.19390 6.26558 37,975 264 379 0
2017-12-10 07:08:52 GMT 52.19414 6.26919 37,975 264 379 0
2017-12-10 07:08:50 GMT 52.19474 6.27712 37,975 264 378 0
2017-12-10 07:08:50 GMT 52.19474 6.27712 37,975 264 378 0
2017-12-10 07:08:48 GMT 52.19530 6.28465 37,975 264 378 0
2017-12-10 07:08:46 GMT 52.19545 6.28670 37,975 264 378 0
2017-12-10 07:08:44 GMT 52.19604 6.29448 37,975 264 378 0
2017-12-10 07:08:42 GMT 52.19632 6.29878 38,000 264 378 0
2017-12-10 07:08:40 GMT 52.19705 6.30844 37,975 264 378 0
2017-12-10 07:08:38 GMT 52.19716 6.30968 37,975 264 378 0
2017-12-10 07:08:35 GMT 52.19767 6.31690 37,975 264 378 0
2017-12-10 07:08:35 GMT 52.19767 6.31690 37,975 264 378 0
2017-12-10 07:08:35 GMT 52.19767 6.31690 37,975 264 378 0
2017-12-10 07:08:33 GMT 52.19856 6.32875 37,975 264 378 0
2017-12-10 07:08:31 GMT 52.19879 6.33186 37,975 264 378 0
2017-12-10 07:08:29 GMT 52.19907 6.33545 37,975 264 378 0
2017-12-10 07:08:27 GMT 52.19943 6.34087 37,975 264 377 0
2017-12-10 07:08:25 GMT 52.19994 6.34758 37,975 264 377 0
2017-12-10 07:08:23 GMT 52.20023 6.35175 37,975 264 377 0
2017-12-10 07:08:21 GMT 52.20067 6.35773 38,000 264 377 0
2017-12-10 07:08:19 GMT 52.20107 6.36312 38,000 264 377 0
2017-12-10 07:08:17 GMT 52.20135 6.36744 38,000 264 377 0
2017-12-10 07:08:15 GMT 52.20177 6.37286 38,000 264 377 0
2017-12-10 07:08:13 GMT 52.20222 6.37939 38,000 264 377 0
2017-12-10 07:08:11 GMT 52.20273 6.38603 38,000 264 377 0
2017-12-10 07:08:09 GMT 52.20319 6.39267 38,000 264 377 0
2017-12-10 07:08:09 GMT 52.20319 6.39267 38,000 264 377 0
2017-12-10 07:08:07 GMT 52.20349 6.39679 38,000 264 377 0
2017-12-10 07:08:05 GMT 52.20391 6.40220 38,000 264 377 0
2017-12-10 07:08:03 GMT 52.20428 6.40762 38,000 264 377 0
2017-12-10 07:08:01 GMT 52.20512 6.41892 38,000 264 377 0
2017-12-10 07:07:58 GMT 52.20552 6.42441 38,000 264 377 0
2017-12-10 07:07:56 GMT 52.20568 6.42692 38,000 264 377 0
2017-12-10 07:07:54 GMT 52.20624 6.43414 38,000 264 377 0
2017-12-10 07:07:54 GMT 52.20624 6.43414 38,000 264 377 0
2017-12-10 07:07:52 GMT 52.20670 6.44066 38,000 264 377 0
2017-12-10 07:07:50 GMT 52.20703 6.44547 38,000 264 377 0
2017-12-10 07:07:48 GMT 52.20745 6.45086 38,000 264 377 0
2017-12-10 07:07:46 GMT 52.20786 6.45683 38,000 264 377 0
2017-12-10 07:07:44 GMT 52.20836 6.46347 38,000 264 377 0
2017-12-10 07:07:42 GMT 52.20866 6.46765 38,000 264 377 0
2017-12-10 07:07:42 GMT 52.20866 6.46765 38,000 264 377 0
2017-12-10 07:07:40 GMT 52.20908 6.47307 38,000 264 377 0
2017-12-10 07:07:38 GMT 52.20969 6.48155 38,000 264 377 0
2017-12-10 07:07:36 GMT 52.20982 6.48335 38,000 264 377 0
2017-12-10 07:07:34 GMT 52.21028 6.48941 38,000 264 377 0
2017-12-10 07:07:32 GMT 52.21104 6.50014 38,000 264 377 0
2017-12-10 07:07:30 GMT 52.21104 6.50014 38,000 264 377 0
2017-12-10 07:07:28 GMT 52.21166 6.50856 38,000 264 377 -64
2017-12-10 07:07:26 GMT 52.21187 6.51160 38,000 264 377 -64
2017-12-10 07:07:23 GMT 52.21239 6.51886 38,000 264 377 -64
2017-12-10 07:07:21 GMT 52.21294 6.52604 38,025 264 378 -64
2017-12-10 07:07:19 GMT 52.21327 6.53082 38,025 264 378 -64
2017-12-10 07:07:17 GMT 52.21383 6.53867 38,025 264 378 0
2017-12-10 07:07:15 GMT 52.21411 6.54228 38,025 264 377 0
2017-12-10 07:07:13 GMT 52.21445 6.54701 38,025 264 378 0
2017-12-10 07:07:11 GMT 52.21500 6.55495 38,025 264 377 0
2017-12-10 07:07:09 GMT 52.21555 6.56273 38,025 264 377 0
2017-12-10 07:07:07 GMT 52.21564 6.56395 38,025 264 377 64
2017-12-10 07:07:05 GMT 52.21605 6.56998 38,025 264 377 64
2017-12-10 07:07:03 GMT 52.21671 6.57956 38,025 264 377 0
2017-12-10 07:07:03 GMT 52.21671 6.57956 38,025 264 377 0
2017-12-10 07:07:00 GMT 52.21724 6.58676 38,025 264 377 0
2017-12-10 07:06:58 GMT 52.21756 6.59103 38,025 264 377 0
2017-12-10 07:06:56 GMT 52.21820 6.60043 38,025 264 377 64
2017-12-10 07:06:54 GMT 52.21861 6.60606 38,025 264 378 64
2017-12-10 07:06:52 GMT 52.21876 6.60843 38,025 264 378 64
2017-12-10 07:06:50 GMT 52.21927 6.61565 38,025 264 378 0
2017-12-10 07:06:48 GMT 52.21960 6.61997 38,025 264 378 0
2017-12-10 07:06:45 GMT 52.22003 6.62590 38,025 264 378 0
2017-12-10 07:06:43 GMT 52.22081 6.63676 38,025 264 378 64
2017-12-10 07:06:41 GMT 52.22109 6.64093 38,025 264 378 64
2017-12-10 07:06:39 GMT 52.22145 6.64635 38,025 264 378 64
2017-12-10 07:06:36 GMT 52.22209 6.65543 38,025 264 378 64
2017-12-10 07:06:34 GMT 52.22237 6.65901 38,025 264 378 64
2017-12-10 07:06:32 GMT 52.22273 6.66443 38,025 264 378 64
2017-12-10 07:06:30 GMT 52.22319 6.67114 38,025 264 378 64
2017-12-10 07:06:28 GMT 52.22365 6.67780 38,025 264 378 64
2017-12-10 07:06:26 GMT 52.22412 6.68432 38,000 264 378 0
2017-12-10 07:06:24 GMT 52.22438 6.68808 38,000 264 378 0
2017-12-10 07:06:22 GMT 52.22491 6.69585 38,000 264 378 64
2017-12-10 07:06:20 GMT 52.22514 6.69883 38,000 264 378 64
2017-12-10 07:06:18 GMT 52.22547 6.70370 38,000 264 378 64
2017-12-10 07:06:16 GMT 52.22602 6.71147 38,000 264 378 64
2017-12-10 07:06:14 GMT 52.22640 6.71688 38,000 264 378 64
2017-12-10 07:06:12 GMT 52.22672 6.72175 38,000 264 378 64
2017-12-10 07:06:10 GMT 52.22722 6.72897 38,000 264 378 64
2017-12-10 07:06:08 GMT 52.22756 6.73383 38,000 264 378 64
2017-12-10 07:06:06 GMT 52.22777 6.73675 38,000 264 378 64
2017-12-10 07:06:04 GMT 52.22827 6.74469 38,000 264 378 64
2017-12-10 07:06:02 GMT 52.22868 6.75072 38,000 264 378 64
2017-12-10 07:06:00 GMT 52.22910 6.75667 38,000 264 378 64
2017-12-10 07:05:58 GMT 52.22946 6.76155 38,000 264 378 64
2017-12-10 07:05:56 GMT 52.22964 6.76392 38,000 264 378 64
2017-12-10 07:05:56 GMT 52.23001 6.76941 38,000 264 378 64
2017-12-10 07:05:54 GMT 52.23010 6.77055 38,000 264 378 64
2017-12-10 07:05:52 GMT 52.23068 6.77904 38,000 264 378 0
2017-12-10 07:05:50 GMT 52.23101 6.78382 38,000 264 378 0
2017-12-10 07:05:48 GMT 52.23129 6.78757 38,000 264 378 0
2017-12-10 07:05:46 GMT 52.23184 6.79536 38,000 264 376 -64
2017-12-10 07:05:44 GMT 52.23216 6.80008 38,000 264 378 64
2017-12-10 07:05:42 GMT 52.23259 6.80619 38,000 264 378 0
2017-12-10 07:05:40 GMT 52.23312 6.81396 38,000 264 378 0
2017-12-10 07:05:38 GMT 52.23329 6.81639 38,000 264 378 64
2017-12-10 07:05:36 GMT 52.23399 6.82610 38,000 264 378 64
2017-12-10 07:05:34 GMT 52.23417 6.82902 38,000 264 378 64
2017-12-10 07:05:32 GMT 52.23482 6.83805 38,000 264 378 64
2017-12-10 07:05:30 GMT 52.23505 6.84181 38,000 264 378 64
2017-12-10 07:05:28 GMT 52.23533 6.84597 38,000 264 378 64
2017-12-10 07:05:26 GMT 52.23589 6.85374 38,000 264 378 0
2017-12-10 07:05:24 GMT 52.23610 6.85684 38,000 264 378 64
2017-12-10 07:05:22 GMT 52.23647 6.86226 38,000 264 378 64
2017-12-10 07:05:20 GMT 52.23697 6.87004 38,000 264 378 0
2017-12-10 07:05:18 GMT 52.23724 6.87422 38,000 264 378 0
2017-12-10 07:05:16 GMT 52.23762 6.87964 38,000 264 378 0
2017-12-10 07:05:14 GMT 52.23821 6.88812 38,000 264 377 0
2017-12-10 07:05:14 GMT 52.23811 6.88698 38,000 264 377 0
2017-12-10 07:05:12 GMT 52.23831 6.88992 38,000 264 377 0
2017-12-10 07:05:10 GMT 52.23889 6.89842 38,000 264 377 0
2017-12-10 07:05:08 GMT 52.23907 6.90079 38,000 264 377 0
2017-12-10 07:05:06 GMT 52.23962 6.90922 38,000 264 377 0
2017-12-10 07:05:04 GMT 52.23994 6.91406 38,000 264 377 0
2017-12-10 07:05:04 GMT 52.24008 6.91574 38,000 264 377 0
2017-12-10 07:05:02 GMT 52.24036 6.92001 38,000 264 377 0
2017-12-10 07:05:00 GMT 52.24072 6.92543 38,000 264 377 64
2017-12-10 07:04:58 GMT 52.24101 6.92963 38,000 264 377 64
2017-12-10 07:04:56 GMT 52.24153 6.93740 38,000 264 376 64
2017-12-10 07:04:54 GMT 52.24178 6.94046 38,000 264 376 64
2017-12-10 07:04:52 GMT 52.24222 6.94768 38,000 264 376 0
2017-12-10 07:04:50 GMT 52.24269 6.95427 38,000 264 376 0
2017-12-10 07:04:48 GMT 52.24306 6.95968 38,000 264 376 64
2017-12-10 07:04:46 GMT 52.24339 6.96439 38,000 264 376 64
2017-12-10 07:04:44 GMT 52.24379 6.97052 38,000 264 376 0
2017-12-10 07:04:41 GMT 52.24420 6.97647 38,000 264 377 0
2017-12-10 07:04:39 GMT 52.24483 6.98605 38,000 264 377 0
2017-12-10 07:04:39 GMT 52.24483 6.98605 38,000 264 377 0
2017-12-10 07:04:37 GMT 52.24503 6.98853 38,000 264 377 0
2017-12-10 07:04:35 GMT 52.24548 6.99570 38,000 264 377 0
2017-12-10 07:04:33 GMT 52.24585 7.00111 38,000 264 377 0
2017-12-10 07:04:31 GMT 52.24608 7.00417 38,000 264 377 0
2017-12-10 07:04:29 GMT 52.24679 7.01485 38,000 264 376 0
2017-12-10 07:04:27 GMT 52.24697 7.01736 38,000 264 376 0
2017-12-10 07:04:23 GMT 52.24777 7.02927 38,000 264 376 64
2017-12-10 07:04:21 GMT 52.24814 7.03468 38,000 264 376 64
2017-12-10 07:04:19 GMT 52.24855 7.04018 38,000 264 376 0
2017-12-10 07:04:17 GMT 52.24896 7.04620 38,000 264 376 0
2017-12-10 07:04:14 GMT 52.24970 7.05757 38,000 264 376 64
2017-12-10 07:04:12 GMT 52.24997 7.06169 38,000 264 377 -64
2017-12-10 07:04:09 GMT 52.25065 7.07143 38,000 264 376 64
2017-12-10 07:04:07 GMT 52.25084 7.07436 38,000 264 376 0
2017-12-10 07:04:04 GMT 52.25153 7.08516 38,025 264 376 0
2017-12-10 07:04:02 GMT 52.25182 7.08940 38,025 264 376 0
2017-12-10 07:04:00 GMT 52.25226 7.09640 38,025 264 376 64
2017-12-10 07:03:58 GMT 52.25267 7.10259 38,025 264 376 64
2017-12-10 07:03:56 GMT 52.25272 7.10327 38,000 264 376 0
2017-12-10 07:03:54 GMT 52.25317 7.11037 38,000 264 376 0
2017-12-10 07:03:52 GMT 52.25368 7.11757 38,025 264 376 0
2017-12-10 07:03:50 GMT 52.25400 7.12242 38,025 264 376 -64
2017-12-10 07:03:48 GMT 52.25432 7.12723 38,025 264 376 -64
2017-12-10 07:03:48 GMT 52.25432 7.12723 38,025 264 376 -64
2017-12-10 07:03:46 GMT 52.25470 7.13319 38,025 264 376 -64
2017-12-10 07:03:43 GMT 52.25531 7.14221 38,025 264 376 0
2017-12-10 07:03:41 GMT 52.25560 7.14638 38,025 264 376 64
2017-12-10 07:03:39 GMT 52.25619 7.15477 38,025 264 376 64
2017-12-10 07:03:37 GMT 52.25656 7.16018 38,025 264 376 64
2017-12-10 07:03:35 GMT 52.25670 7.16254 38,025 264 376 64
2017-12-10 07:03:33 GMT 52.25740 7.17282 38,025 264 376 64
2017-12-10 07:03:31 GMT 52.25777 7.17823 38,025 264 376 64
2017-12-10 07:03:28 GMT 52.25807 7.18239 38,025 264 376 64
2017-12-10 07:03:26 GMT 52.25867 7.19139 38,000 264 376 64
2017-12-10 07:03:24 GMT 52.25884 7.19385 38,025 264 376 64
2017-12-10 07:03:22 GMT 52.25940 7.20217 38,000 264 376 64
2017-12-10 07:03:20 GMT 52.25964 7.20523 38,000 264 376 64
2017-12-10 07:03:18 GMT 52.26004 7.21130 38,000 264 377 0
2017-12-10 07:03:16 GMT 52.26050 7.21840 38,000 264 377 0
2017-12-10 07:03:14 GMT 52.26066 7.22084 38,000 264 377 0
2017-12-10 07:03:12 GMT 52.26131 7.23104 38,000 264 377 0
2017-12-10 07:03:12 GMT 52.26123 7.22931 38,000 264 377 0
2017-12-10 07:03:09 GMT 52.26187 7.23889 38,000 264 376 0
2017-12-10 07:03:07 GMT 52.26215 7.24304 38,025 264 376 0
2017-12-10 07:03:06 GMT 52.26234 7.24611 38,025 264 376 0
2017-12-10 07:03:05 GMT 52.26251 7.24846 38,025 264 376 0
2017-12-10 07:03:02 GMT 52.26297 7.25571 38,025 264 376 64
2017-12-10 07:03:00 GMT 52.26336 7.26165 38,025 265 376 64
2017-12-10 07:02:58 GMT 52.26375 7.26776 38,000 265 376 64
2017-12-10 07:02:56 GMT 52.26416 7.27440 38,000 265 376 64
2017-12-10 07:02:54 GMT 52.26457 7.28088 38,000 265 376 64
2017-12-10 07:02:54 GMT 52.26457 7.28088 38,000 265 376 64
2017-12-10 07:02:52 GMT 52.26490 7.28629 38,000 265 376 64
2017-12-10 07:02:50 GMT 52.26532 7.29225 38,000 265 375 64
2017-12-10 07:02:48 GMT 52.26558 7.29706 38,000 265 375 64
2017-12-10 07:02:46 GMT 52.26599 7.30370 38,000 265 375 64
2017-12-10 07:02:44 GMT 52.26620 7.30661 38,000 265 375 64
2017-12-10 07:02:42 GMT 52.26682 7.31628 38,000 265 375 64
2017-12-10 07:02:40 GMT 52.26708 7.32090 38,000 265 376 64
2017-12-10 07:02:38 GMT 52.26732 7.32466 38,000 265 376 64
2017-12-10 07:02:36 GMT 52.26769 7.33008 38,000 265 376 0
2017-12-10 07:02:34 GMT 52.26801 7.33543 38,000 265 376 0
2017-12-10 07:02:32 GMT 52.26842 7.34207 38,000 265 376 0
2017-12-10 07:02:30 GMT 52.26890 7.34930 38,000 265 376 0
2017-12-10 07:02:28 GMT 52.26927 7.35527 38,000 265 376 0
2017-12-10 07:02:27 GMT 52.26927 7.35527 38,000 265 376 0
2017-12-10 07:02:25 GMT 52.26997 7.36594 38,000 265 376 0
2017-12-10 07:02:23 GMT 52.27002 7.36671 38,000 265 376 0
2017-12-10 07:02:21 GMT 52.27043 7.37335 38,000 265 376 0
2017-12-10 07:02:19 GMT 52.27072 7.37756 38,000 265 376 0
2017-12-10 07:02:17 GMT 52.27113 7.38407 38,000 265 376 0
2017-12-10 07:02:15 GMT 52.27162 7.39227 38,000 265 374 0
2017-12-10 07:02:13 GMT 52.27169 7.39309 38,000 265 374 0
2017-12-10 07:02:11 GMT 52.27222 7.40151 38,000 265 374 0
2017-12-10 07:02:09 GMT 52.27258 7.40745 38,000 265 374 0
2017-12-10 07:02:07 GMT 52.27281 7.41106 38,000 265 374 0
2017-12-10 07:02:05 GMT 52.27322 7.41836 38,000 265 374 64
2017-12-10 07:02:05 GMT 52.27322 7.41836 38,000 265 374 64
2017-12-10 07:02:03 GMT 52.27368 7.42539 38,000 265 374 64
2017-12-10 07:02:01 GMT 52.27397 7.43021 38,000 265 374 64
2017-12-10 07:01:59 GMT 52.27432 7.43607 38,000 265 374 64
2017-12-10 07:01:57 GMT 52.27467 7.44159 38,000 265 374 0
2017-12-10 07:01:54 GMT 52.27523 7.45061 38,000 265 375 0
2017-12-10 07:01:52 GMT 52.27560 7.45644 38,000 265 375 0
2017-12-10 07:01:50 GMT 52.27602 7.46317 38,000 265 375 0
2017-12-10 07:01:48 GMT 52.27625 7.46623 38,000 265 375 0
2017-12-10 07:01:46 GMT 52.27643 7.46925 38,000 265 375 0
2017-12-10 07:01:44 GMT 52.27684 7.47574 38,000 265 375 0
2017-12-10 07:01:44 GMT 52.27684 7.47574 38,000 265 375 0
2017-12-10 07:01:42 GMT 52.27719 7.48114 38,000 265 375 0
2017-12-10 07:01:40 GMT 52.27776 7.49023 38,000 265 375 0
2017-12-10 07:01:38 GMT 52.27798 7.49315 38,000 265 374 0
2017-12-10 07:01:36 GMT 52.27849 7.50137 38,000 265 374 0
2017-12-10 07:01:34 GMT 52.27867 7.50453 38,000 265 374 0
2017-12-10 07:01:31 GMT 52.27923 7.51347 38,000 265 374 0
2017-12-10 07:01:29 GMT 52.27956 7.51889 38,000 265 374 0
2017-12-10 07:01:27 GMT 52.28003 7.52650 38,000 265 374 0
2017-12-10 07:01:25 GMT 52.28032 7.53090 38,000 265 374 0
2017-12-10 07:01:23 GMT 52.28063 7.53568 38,000 265 374 0
2017-12-10 07:01:20 GMT 52.28096 7.54164 38,000 265 374 0
2017-12-10 07:01:18 GMT 52.28155 7.55119 38,025 265 374 -64
2017-12-10 07:01:16 GMT 52.28184 7.55600 38,025 265 374 0
2017-12-10 07:01:14 GMT 52.28210 7.56020 38,025 265 374 -64
2017-12-10 07:01:12 GMT 52.28277 7.57146 38,025 265 374 -64
2017-12-10 07:01:10 GMT 52.28284 7.57225 38,025 265 374 -64
2017-12-10 07:01:08 GMT 52.28311 7.57706 38,025 265 374 0
2017-12-10 07:01:06 GMT 52.28366 7.58535 38,025 265 374 0
2017-12-10 07:01:04 GMT 52.28398 7.59077 38,025 265 374 0
2017-12-10 07:01:02 GMT 52.28416 7.59377 38,025 265 374 0
2017-12-10 07:01:00 GMT 52.28440 7.59791 38,025 265 374 0
2017-12-10 07:00:58 GMT 52.28485 7.60513 38,025 265 374 0
2017-12-10 07:00:56 GMT 52.28519 7.61117 38,025 265 374 0
2017-12-10 07:00:54 GMT 52.28572 7.61948 38,025 265 374 0
2017-12-10 07:00:52 GMT 52.28599 7.62428 38,025 265 374 0
2017-12-10 07:00:49 GMT 52.28645 7.63150 38,025 265 374 0
2017-12-10 07:00:47 GMT 52.28677 7.63691 38,025 265 374 0
2017-12-10 07:00:45 GMT 52.28715 7.64288 38,025 265 374 64
2017-12-10 07:00:43 GMT 52.28766 7.65072 38,025 265 374 64
2017-12-10 07:00:41 GMT 52.28787 7.65434 38,025 265 374 64
2017-12-10 07:00:38 GMT 52.28831 7.66155 38,025 265 374 64
2017-12-10 07:00:36 GMT 52.28868 7.66744 38,025 265 375 64
2017-12-10 07:00:34 GMT 52.28897 7.67227 38,025 265 375 128
2017-12-10 07:00:32 GMT 52.28943 7.67952 38,025 265 375 64
2017-12-10 07:00:30 GMT 52.28971 7.68423 38,025 265 375 64
2017-12-10 07:00:28 GMT 52.29016 7.69142 38,025 265 375 64
2017-12-10 07:00:26 GMT 52.29044 7.69623 38,025 265 375 0
2017-12-10 07:00:24 GMT 52.29106 7.70628 38,025 265 375 0
2017-12-10 07:00:22 GMT 52.29126 7.70943 38,025 265 375 0
2017-12-10 07:00:20 GMT 52.29148 7.71248 38,025 265 375 0
2017-12-10 07:00:18 GMT 52.29194 7.72025 38,025 265 375 0
2017-12-10 07:00:16 GMT 52.29227 7.72507 38,025 265 375 0
2017-12-10 07:00:16 GMT 52.29227 7.72507 38,025 265 375 0
2017-12-10 07:00:14 GMT 52.29250 7.72927 38,025 265 375 0
2017-12-10 07:00:12 GMT 52.29283 7.73469 38,025 265 375 64
2017-12-10 07:00:10 GMT 52.29315 7.73955 38,025 265 375 64
2017-12-10 07:00:10 GMT 52.29315 7.73955 38,025 265 375 64
2017-12-10 07:00:08 GMT 52.29359 7.74674 38,025 265 375 64
2017-12-10 07:00:06 GMT 52.29382 7.75032 38,000 265 375 64
2017-12-10 07:00:04 GMT 52.29428 7.75810 38,000 265 374 64
2017-12-10 07:00:02 GMT 52.29478 7.76596 38,000 265 374 64
2017-12-10 07:00:00 GMT 52.29516 7.77173 38,000 265 374 64
2017-12-10 06:59:58 GMT 52.29539 7.77550 38,000 265 374 64
2017-12-10 06:59:56 GMT 52.29571 7.78091 38,000 265 374 64
2017-12-10 06:59:54 GMT 52.29599 7.78578 38,000 265 374 64
2017-12-10 06:59:52 GMT 52.29630 7.79045 38,000 265 374 64
2017-12-10 06:59:50 GMT 52.29674 7.79762 38,000 265 374 64
2017-12-10 06:59:48 GMT 52.29735 7.80731 38,000 265 374 64
2017-12-10 06:59:46 GMT 52.29749 7.80968 38,000 265 374 64
2017-12-10 06:59:44 GMT 52.29785 7.81552 38,000 265 374 0
2017-12-10 06:59:42 GMT 52.29808 7.81990 38,000 265 374 0
2017-12-10 06:59:42 GMT 52.29817 7.82104 38,000 265 374 0
2017-12-10 06:59:40 GMT 52.29855 7.82713 38,000 265 374 0
2017-12-10 06:59:40 GMT 52.29846 7.82587 38,000 265 374 0
2017-12-10 06:59:38 GMT 52.29881 7.83195 38,000 265 374 0
2017-12-10 06:59:36 GMT 52.29936 7.84073 38,000 265 374 0
2017-12-10 06:59:36 GMT 52.29909 7.83669 38,000 265 374 0
2017-12-10 06:59:34 GMT 52.29934 7.84086 38,000 265 374 0
2017-12-10 06:59:31 GMT 52.29987 7.84927 38,000 265 374 64
2017-12-10 06:59:31 GMT 52.29987 7.84927 38,000 265 374 64
2017-12-10 06:59:29 GMT 52.30019 7.85461 38,000 265 374 64
2017-12-10 06:59:27 GMT 52.30064 7.86240 38,000 265 374 64
2017-12-10 06:59:24 GMT 52.30107 7.86958 38,000 265 374 64
2017-12-10 06:59:22 GMT 52.30144 7.87673 38,000 265 373 64
2017-12-10 06:59:20 GMT 52.30200 7.88622 38,000 265 373 0
2017-12-10 06:59:18 GMT 52.30214 7.88873 38,000 265 373 0
2017-12-10 06:59:16 GMT 52.30256 7.89540 38,000 265 373 64
2017-12-10 06:59:14 GMT 52.30270 7.89776 38,000 265 373 64
2017-12-10 06:59:12 GMT 52.30311 7.90545 38,000 265 373 64
2017-12-10 06:59:10 GMT 52.30330 7.90848 38,000 265 373 64
2017-12-10 06:59:08 GMT 52.30353 7.91267 38,000 265 373 64
2017-12-10 06:59:06 GMT 52.30408 7.92168 38,000 265 373 64
2017-12-10 06:59:04 GMT 52.30437 7.92695 38,000 265 372 64
2017-12-10 06:59:02 GMT 52.30472 7.93297 38,000 265 372 64
2017-12-10 06:59:00 GMT 52.30504 7.93892 38,000 265 372 64
2017-12-10 06:58:58 GMT 52.30531 7.94304 38,000 265 371 0
2017-12-10 06:58:55 GMT 52.30568 7.94968 37,975 265 372 0
2017-12-10 06:58:55 GMT 52.30568 7.94968 37,975 265 372 0
2017-12-10 06:58:53 GMT 52.30600 7.95504 38,000 265 372 0
2017-12-10 06:58:51 GMT 52.30628 7.96038 38,000 265 372 0
2017-12-10 06:58:49 GMT 52.30687 7.96989 38,000 265 372 0
2017-12-10 06:58:46 GMT 52.30737 7.97882 38,000 265 372 0
2017-12-10 06:58:44 GMT 52.30754 7.98188 38,000 265 372 64
2017-12-10 06:58:42 GMT 52.30782 7.98596 38,000 265 372 64
2017-12-10 06:58:40 GMT 52.30828 7.99381 38,000 265 372 64
2017-12-10 06:58:37 GMT 52.30879 8.00276 38,000 265 372 64
2017-12-10 06:58:35 GMT 52.30916 8.00919 38,000 265 372 0
2017-12-10 06:58:33 GMT 52.30931 8.01170 38,000 265 372 0
2017-12-10 06:58:31 GMT 52.30982 8.01994 38,000 265 372 0
2017-12-10 06:58:29 GMT 52.30994 8.02238 38,000 265 371 0
2017-12-10 06:58:27 GMT 52.31033 8.02889 38,000 265 371 0
2017-12-10 06:58:25 GMT 52.31066 8.03422 38,000 265 371 0
2017-12-10 06:58:23 GMT 52.31108 8.04138 38,000 265 371 0
2017-12-10 06:58:21 GMT 52.31140 8.04680 38,000 265 371 0
2017-12-10 06:58:19 GMT 52.31177 8.05329 38,000 265 371 0
2017-12-10 06:58:17 GMT 52.31200 8.05687 38,000 265 371 0
2017-12-10 06:58:15 GMT 52.31241 8.06404 38,000 265 371 0
2017-12-10 06:58:13 GMT 52.31261 8.06757 38,000 265 371 -64
2017-12-10 06:58:11 GMT 52.31303 8.07417 38,000 265 371 -64
2017-12-10 06:58:09 GMT 52.31319 8.07709 38,000 265 371 -64
2017-12-10 06:58:07 GMT 52.31364 8.08487 38,000 265 371 0
2017-12-10 06:58:05 GMT 52.31401 8.09074 38,000 265 371 0
2017-12-10 06:58:03 GMT 52.31442 8.09845 38,000 265 371 0
2017-12-10 06:58:01 GMT 52.31457 8.10093 38,000 265 370 64
2017-12-10 06:57:59 GMT 52.31502 8.10860 38,000 265 370 64
2017-12-10 06:57:57 GMT 52.31529 8.11272 38,000 265 370 64
2017-12-10 06:57:55 GMT 52.31557 8.11813 38,000 265 370 64
2017-12-10 06:57:53 GMT 52.31610 8.12698 38,000 265 370 64
2017-12-10 06:57:53 GMT 52.31598 8.12515 38,000 265 370 64
2017-12-10 06:57:51 GMT 52.31616 8.12813 38,000 265 370 64
2017-12-10 06:57:49 GMT 52.31671 8.13757 38,000 265 370 64
2017-12-10 06:57:47 GMT 52.31685 8.14064 38,000 265 370 64
2017-12-10 06:57:44 GMT 52.31741 8.15005 38,000 265 370 0
2017-12-10 06:57:42 GMT 52.31778 8.15664 38,000 265 370 0
2017-12-10 06:57:40 GMT 52.31809 8.16193 38,000 265 371 0
2017-12-10 06:57:37 GMT 52.31850 8.16963 38,000 265 371 0
2017-12-10 06:57:35 GMT 52.31876 8.17446 38,000 265 371 0
2017-12-10 06:57:32 GMT 52.31913 8.18097 38,000 265 371 0
2017-12-10 06:57:30 GMT 52.31959 8.18921 38,000 265 371 0
2017-12-10 06:57:27 GMT 52.32010 8.19801 38,000 265 371 0
2017-12-10 06:57:25 GMT 52.32046 8.20419 38,000 265 371 0
2017-12-10 06:57:23 GMT 52.32071 8.20883 38,025 265 371 0
2017-12-10 06:57:21 GMT 52.32101 8.21419 38,000 265 370 64
2017-12-10 06:57:19 GMT 52.32124 8.21846 38,000 265 370 64
2017-12-10 06:57:17 GMT 52.32161 8.22433 38,000 265 370 64
2017-12-10 06:57:14 GMT 52.32206 8.23268 38,025 265 370 64
2017-12-10 06:57:12 GMT 52.32229 8.23676 38,025 265 370 64
2017-12-10 06:57:10 GMT 52.32262 8.24265 38,000 265 370 64
2017-12-10 06:57:08 GMT 52.32303 8.24982 38,000 265 370 64
2017-12-10 06:57:06 GMT 52.32337 8.25583 38,000 265 370 64
2017-12-10 06:57:03 GMT 52.32381 8.26294 38,000 265 371 64
2017-12-10 06:57:01 GMT 52.32413 8.26881 38,000 265 370 64
2017-12-10 06:56:59 GMT 52.32448 8.27474 38,000 265 370 64
2017-12-10 06:56:56 GMT 52.32490 8.28251 38,000 265 370 64
2017-12-10 06:56:54 GMT 52.32523 8.28785 38,000 265 371 64
2017-12-10 06:56:52 GMT 52.32565 8.29499 38,000 265 371 0
2017-12-10 06:56:52 GMT 52.32565 8.29499 38,000 265 371 0
2017-12-10 06:56:50 GMT 52.32582 8.29857 38,000 265 371 0
2017-12-10 06:56:49 GMT 52.32621 8.30496 38,000 265 371 0
2017-12-10 06:56:48 GMT 52.32610 8.30322 38,000 265 371 0
2017-12-10 06:56:45 GMT 52.32662 8.31281 38,000 265 371 0
2017-12-10 06:56:43 GMT 52.32704 8.32050 38,000 265 371 -64
2017-12-10 06:56:41 GMT 52.32728 8.32458 38,000 265 371 0
2017-12-10 06:56:38 GMT 52.32769 8.33172 38,000 265 371 0
2017-12-10 06:56:36 GMT 52.32807 8.33831 38,000 265 371 0
2017-12-10 06:56:34 GMT 52.32844 8.34490 38,000 265 371 64
2017-12-10 06:56:32 GMT 52.32866 8.34900 38,000 265 370 64
2017-12-10 06:56:30 GMT 52.32914 8.35738 38,000 265 370 64
2017-12-10 06:56:28 GMT 52.32939 8.36205 38,000 265 370 64
2017-12-10 06:56:25 GMT 52.32993 8.37158 38,000 265 370 64
2017-12-10 06:56:23 GMT 52.33026 8.37730 38,000 265 370 64
2017-12-10 06:56:21 GMT 52.33044 8.38104 38,000 265 370 0
2017-12-10 06:56:19 GMT 52.33076 8.38638 38,000 265 370 0
2017-12-10 06:56:17 GMT 52.33091 8.38940 38,000 265 370 0
2017-12-10 06:56:15 GMT 52.33119 8.39473 38,000 265 370 0
2017-12-10 06:56:13 GMT 52.33170 8.40368 38,000 265 371 0
2017-12-10 06:56:10 GMT 52.33205 8.41011 38,000 265 371 0
2017-12-10 06:56:08 GMT 52.33264 8.42071 38,000 265 371 0
2017-12-10 06:56:06 GMT 52.33278 8.42323 38,000 265 371 0
2017-12-10 06:56:05 GMT 52.33291 8.42612 38,000 266 371 0
2017-12-10 06:56:03 GMT 52.33310 8.42979 38,000 266 371 0
2017-12-10 06:56:01 GMT 52.33342 8.43507 38,000 266 371 0
2017-12-10 06:55:59 GMT 52.33383 8.44337 38,000 266 371 0
2017-12-10 06:55:57 GMT 52.33403 8.44645 38,000 266 371 0
2017-12-10 06:55:55 GMT 52.33434 8.45230 38,000 266 371 0
2017-12-10 06:55:53 GMT 52.33458 8.45712 38,000 266 370 0
2017-12-10 06:55:51 GMT 52.33496 8.46426 38,000 266 370 0
2017-12-10 06:55:48 GMT 52.33528 8.47069 38,000 266 370 0
2017-12-10 06:55:46 GMT 52.33552 8.47493 38,000 266 370 0
2017-12-10 06:55:43 GMT 52.33603 8.48490 38,000 266 370 0
2017-12-10 06:55:41 GMT 52.33640 8.49204 38,000 266 370 0
2017-12-10 06:55:39 GMT 52.33673 8.49863 38,000 266 370 0
2017-12-10 06:55:37 GMT 52.33690 8.50220 38,000 266 370 0
2017-12-10 06:55:35 GMT 52.33733 8.51048 38,000 266 370 0
2017-12-10 06:55:35 GMT 52.33727 8.50929 38,000 266 370 0
2017-12-10 06:55:35 GMT 52.33733 8.51048 38,000 266 370 0
2017-12-10 06:55:33 GMT 52.33763 8.51585 38,000 266 370 0
2017-12-10 06:55:33 GMT 52.33754 8.51463 38,000 266 370 0
2017-12-10 06:55:33 GMT 52.33763 8.51585 38,000 266 370 0
2017-12-10 06:55:31 GMT 52.33794 8.52170 38,000 266 370 0
2017-12-10 06:55:29 GMT 52.33814 8.52585 38,000 266 370 0
2017-12-10 06:55:27 GMT 52.33836 8.53004 38,000 266 370 0
2017-12-10 06:55:25 GMT 52.33877 8.53724 38,000 266 370 0
2017-12-10 06:55:23 GMT 52.33905 8.54313 38,000 266 370 64
2017-12-10 06:55:21 GMT 52.33933 8.54846 38,000 266 370 64
2017-12-10 06:55:19 GMT 52.33974 8.55537 38,000 266 371 64
2017-12-10 06:55:19 GMT 52.33974 8.55537 38,000 266 370 64
2017-12-10 06:55:17 GMT 52.33992 8.55911 38,000 266 371 64
2017-12-10 06:55:15 GMT 52.34022 8.56502 38,000 266 370 64
2017-12-10 06:55:13 GMT 52.34047 8.56926 38,000 266 370 64
2017-12-10 06:55:13 GMT 52.34047 8.56926 38,000 266 370 64
2017-12-10 06:55:11 GMT 52.34074 8.57460 38,000 266 371 64
2017-12-10 06:55:09 GMT 52.34111 8.58116 38,000 266 371 64
2017-12-10 06:55:07 GMT 52.34138 8.58644 38,000 266 371 64
2017-12-10 06:55:05 GMT 52.34161 8.59060 38,000 266 371 64
2017-12-10 06:55:03 GMT 52.34203 8.59892 38,000 266 371 64
2017-12-10 06:55:00 GMT 52.34245 8.60669 38,000 266 371 64
2017-12-10 06:54:58 GMT 52.34278 8.61312 38,000 266 371 64
2017-12-10 06:54:56 GMT 52.34303 8.61793 38,000 266 371 64
2017-12-10 06:54:54 GMT 52.34324 8.62207 38,000 266 371 64
2017-12-10 06:54:52 GMT 52.34366 8.62992 38,000 266 371 0
2017-12-10 06:54:50 GMT 52.34381 8.63281 38,000 266 371 0
2017-12-10 06:54:48 GMT 52.34417 8.63996 38,000 266 371 0
2017-12-10 06:54:46 GMT 52.34436 8.64349 38,000 266 371 0
2017-12-10 06:54:44 GMT 52.34478 8.65134 38,000 266 371 0
2017-12-10 06:54:42 GMT 52.34506 8.65668 38,000 266 371 0
2017-12-10 06:54:40 GMT 52.34532 8.66150 38,000 266 371 0
2017-12-10 06:54:38 GMT 52.34557 8.66672 38,000 266 371 0
2017-12-10 06:54:36 GMT 52.34585 8.67214 38,000 266 371 0
2017-12-10 06:54:34 GMT 52.34615 8.67744 38,000 266 371 64
2017-12-10 06:54:32 GMT 52.34655 8.68461 38,000 266 371 64
2017-12-10 06:54:30 GMT 52.34674 8.68885 38,000 266 371 64
2017-12-10 06:54:28 GMT 52.34706 8.69474 38,000 266 371 64
2017-12-10 06:54:26 GMT 52.34729 8.69890 38,000 266 371 64
2017-12-10 06:54:24 GMT 52.34771 8.70674 38,000 266 371 64
2017-12-10 06:54:22 GMT 52.34799 8.71263 38,000 266 371 128
2017-12-10 06:54:20 GMT 52.34822 8.71679 38,000 266 372 128
2017-12-10 06:54:20 GMT 52.34832 8.71796 38,000 266 372 128
2017-12-10 06:54:18 GMT 52.34862 8.72398 37,975 266 372 128
2017-12-10 06:54:16 GMT 52.34875 8.72635 37,975 266 372 128
2017-12-10 06:54:14 GMT 52.34917 8.73405 37,975 266 372 64
2017-12-10 06:54:12 GMT 52.34957 8.74174 37,975 266 372 64
2017-12-10 06:54:10 GMT 52.34976 8.74535 37,975 265 372 64
2017-12-10 06:54:08 GMT 52.35013 8.75249 37,975 265 372 64
2017-12-10 06:54:06 GMT 52.35031 8.75557 37,975 265 372 64
2017-12-10 06:54:04 GMT 52.35055 8.76034 37,975 265 372 0
2017-12-10 06:54:02 GMT 52.35100 8.76877 37,975 265 372 64
2017-12-10 06:54:00 GMT 52.35127 8.77342 37,975 265 372 64
2017-12-10 06:53:58 GMT 52.35150 8.77769 37,975 265 372 64
2017-12-10 06:53:56 GMT 52.35200 8.78655 37,975 265 372 64
2017-12-10 06:53:53 GMT 52.35232 8.79314 37,975 265 372 64
2017-12-10 06:53:51 GMT 52.35260 8.79791 37,975 265 372 64
2017-12-10 06:53:49 GMT 52.35297 8.80455 37,975 265 372 64
2017-12-10 06:53:47 GMT 52.35333 8.81157 37,975 265 372 64
2017-12-10 06:53:45 GMT 52.35358 8.81637 37,975 265 372 64
2017-12-10 06:53:43 GMT 52.35395 8.82296 37,975 265 372 0
2017-12-10 06:53:41 GMT 52.35423 8.82767 37,975 265 372 0
2017-12-10 06:53:39 GMT 52.35446 8.83191 37,975 265 372 0
2017-12-10 06:53:37 GMT 52.35484 8.83905 37,975 265 372 0
2017-12-10 06:53:35 GMT 52.35503 8.84262 37,975 265 372 0
2017-12-10 06:53:33 GMT 52.35530 8.84735 37,975 266 372 0
2017-12-10 06:53:31 GMT 52.35562 8.85399 37,975 266 372 0
2017-12-10 06:53:29 GMT 52.35595 8.85992 37,975 266 372 0
2017-12-10 06:53:27 GMT 52.35637 8.86746 37,975 266 372 0
2017-12-10 06:53:25 GMT 52.35640 8.86826 37,975 266 372 0
2017-12-10 06:53:23 GMT 52.35679 8.87601 37,975 266 372 0
2017-12-10 06:53:21 GMT 52.35716 8.88260 37,975 266 372 0
2017-12-10 06:53:19 GMT 52.35735 8.88676 37,975 266 372 0
2017-12-10 06:53:17 GMT 52.35759 8.89099 37,975 266 372 0
2017-12-10 06:53:15 GMT 52.35786 8.89633 37,975 266 372 0
2017-12-10 06:53:13 GMT 52.35823 8.90297 37,975 266 372 0
2017-12-10 06:53:11 GMT 52.35869 8.91190 37,975 266 372 0
2017-12-10 06:53:09 GMT 52.35884 8.91486 37,975 266 372 0
2017-12-10 06:53:07 GMT 52.35915 8.92082 37,975 266 372 0
2017-12-10 06:53:05 GMT 52.35951 8.92792 37,975 266 371 0
2017-12-10 06:53:03 GMT 52.35988 8.93448 37,975 266 371 0
2017-12-10 06:53:01 GMT 52.36006 8.93806 37,975 266 371 0
2017-12-10 06:52:59 GMT 52.36033 8.94397 37,975 266 371 0
2017-12-10 06:52:57 GMT 52.36075 8.95182 37,975 266 372 0
2017-12-10 06:52:55 GMT 52.36098 8.95637 37,975 266 372 0
2017-12-10 06:52:53 GMT 52.36126 8.96186 37,975 266 372 0
2017-12-10 06:52:51 GMT 52.36153 8.96668 37,975 266 372 0
2017-12-10 06:52:49 GMT 52.36186 8.97324 37,975 266 372 0
2017-12-10 06:52:47 GMT 52.36198 8.97560 37,975 266 372 0
2017-12-10 06:52:44 GMT 52.36253 8.98689 37,975 266 372 -64
2017-12-10 06:52:42 GMT 52.36285 8.99353 37,975 266 372 0
2017-12-10 06:52:40 GMT 52.36327 9.00108 37,975 266 372 0
2017-12-10 06:52:38 GMT 52.36331 9.00246 38,000 266 372 0
2017-12-10 06:52:36 GMT 52.36363 9.00902 38,000 266 372 0
2017-12-10 06:52:34 GMT 52.36396 9.01554 38,000 266 372 0
2017-12-10 06:52:32 GMT 52.36418 9.01924 38,000 266 372 0
2017-12-10 06:52:30 GMT 52.36441 9.02389 38,000 266 372 64
2017-12-10 06:52:28 GMT 52.36480 9.03233 37,975 266 372 64
2017-12-10 06:52:26 GMT 52.36491 9.03412 38,000 266 372 0
2017-12-10 06:52:24 GMT 52.36514 9.03946 38,000 266 372 0
2017-12-10 06:52:22 GMT 52.36560 9.04846 38,000 266 372 0
2017-12-10 06:52:20 GMT 52.36573 9.05132 37,975 266 373 0
2017-12-10 06:52:18 GMT 52.36620 9.06097 38,000 266 373 -64
2017-12-10 06:52:18 GMT 52.36605 9.05791 38,000 266 373 -64
2017-12-10 06:52:16 GMT 52.36629 9.06278 38,000 266 373 -64
2017-12-10 06:52:14 GMT 52.36647 9.06694 38,000 266 373 -64
2017-12-10 06:52:12 GMT 52.36688 9.07532 38,000 266 373 -128
2017-12-10 06:52:10 GMT 52.36722 9.08248 38,000 266 373 -128
2017-12-10 06:52:10 GMT 52.36711 9.08005 38,000 266 373 -128
2017-12-10 06:52:08 GMT 52.36743 9.08668 38,000 266 373 -128
2017-12-10 06:52:06 GMT 52.36775 9.09332 38,025 266 373 -64
2017-12-10 06:52:04 GMT 52.36787 9.09621 38,025 266 373 -64
2017-12-10 06:52:02 GMT 52.36815 9.10162 38,025 266 373 0
2017-12-10 06:52:00 GMT 52.36847 9.10876 38,025 266 373 64
2017-12-10 06:51:58 GMT 52.36867 9.11240 38,025 266 373 64
2017-12-10 06:51:58 GMT 52.36867 9.11240 38,025 266 373 64
2017-12-10 06:51:56 GMT 52.36899 9.11952 38,025 266 373 64
2017-12-10 06:51:56 GMT 52.36912 9.12254 38,025 266 373 64
2017-12-10 06:51:54 GMT 52.36927 9.12556 38,025 266 373 64
2017-12-10 06:51:52 GMT 52.36959 9.13207 38,000 266 373 64
2017-12-10 06:51:50 GMT 52.36977 9.13582 38,000 266 373 64
2017-12-10 06:51:48 GMT 52.37015 9.14353 38,000 266 373 64
2017-12-10 06:51:46 GMT 52.37038 9.14894 38,000 266 374 64
2017-12-10 06:51:44 GMT 52.37064 9.15489 38,000 266 373 0
2017-12-10 06:51:42 GMT 52.37071 9.15671 38,000 266 373 0
2017-12-10 06:51:40 GMT 52.37108 9.16440 38,000 266 373 0
2017-12-10 06:51:38 GMT 52.37136 9.17052 38,000 266 374 0
2017-12-10 06:51:36 GMT 52.37155 9.17526 38,000 266 375 -64
2017-12-10 06:51:34 GMT 52.37183 9.18135 38,000 266 375 0
2017-12-10 06:51:32 GMT 52.37210 9.18732 38,000 266 375 0
2017-12-10 06:51:30 GMT 52.37239 9.19399 38,025 266 375 -64
2017-12-10 06:51:30 GMT 52.37243 9.19509 38,025 266 375 0
2017-12-10 06:51:28 GMT 52.37260 9.19884 38,000 266 375 0
2017-12-10 06:51:26 GMT 52.37283 9.20357 38,025 266 375 0
2017-12-10 06:51:24 GMT 52.37320 9.21135 38,025 266 376 0
2017-12-10 06:51:22 GMT 52.37347 9.21684 38,025 266 376 0
2017-12-10 06:51:20 GMT 52.37361 9.22035 38,025 266 376 0
2017-12-10 06:51:18 GMT 52.37389 9.22592 38,025 266 376 0
2017-12-10 06:51:16 GMT 52.37421 9.23302 38,025 266 376 0
2017-12-10 06:51:14 GMT 52.37430 9.23492 38,025 266 376 0
2017-12-10 06:51:12 GMT 52.37466 9.24210 38,025 266 376 0
2017-12-10 06:51:10 GMT 52.37499 9.24873 38,025 266 376 0
2017-12-10 06:51:08 GMT 52.37527 9.25473 38,025 266 376 0
2017-12-10 06:51:06 GMT 52.37560 9.26195 38,025 266 376 0
2017-12-10 06:51:06 GMT 52.37560 9.26195 38,025 266 376 0
2017-12-10 06:51:04 GMT 52.37583 9.26626 38,025 266 376 0
2017-12-10 06:51:02 GMT 52.37602 9.27105 38,025 266 376 0
2017-12-10 06:51:00 GMT 52.37648 9.28007 38,025 266 376 0
2017-12-10 06:50:58 GMT 52.37672 9.28497 38,025 266 377 64
2017-12-10 06:50:56 GMT 52.37695 9.28980 38,025 266 377 0
2017-12-10 06:50:56 GMT 52.37699 9.29098 38,025 266 377 64
2017-12-10 06:50:54 GMT 52.37723 9.29585 38,025 266 377 64
2017-12-10 06:50:52 GMT 52.37741 9.30001 38,025 266 377 64
2017-12-10 06:50:49 GMT 52.37797 9.31154 38,025 266 377 64
2017-12-10 06:50:47 GMT 52.37823 9.31740 38,025 266 377 64
2017-12-10 06:50:45 GMT 52.37837 9.31999 38,025 266 377 64
2017-12-10 06:50:43 GMT 52.37865 9.32556 38,025 266 377 64
2017-12-10 06:50:40 GMT 52.37901 9.33395 38,025 266 378 64
2017-12-10 06:50:38 GMT 52.37932 9.33995 38,025 266 378 64
2017-12-10 06:50:36 GMT 52.37955 9.34544 38,025 266 379 64
2017-12-10 06:50:34 GMT 52.37984 9.35089 38,025 266 378 0
2017-12-10 06:50:32 GMT 52.38002 9.35524 38,025 266 378 0
2017-12-10 06:50:30 GMT 52.38034 9.36195 38,025 266 379 0
2017-12-10 06:50:28 GMT 52.38061 9.36798 38,025 266 379 64
2017-12-10 06:50:26 GMT 52.38100 9.37636 38,025 266 379 0
2017-12-10 06:50:23 GMT 52.38117 9.38011 38,025 266 379 64
2017-12-10 06:50:21 GMT 52.38167 9.39041 38,025 266 379 64
2017-12-10 06:50:19 GMT 52.38190 9.39529 38,025 266 379 64
2017-12-10 06:50:17 GMT 52.38208 9.39949 38,025 266 379 64
2017-12-10 06:50:15 GMT 52.38230 9.40375 38,000 266 379 64
2017-12-10 06:50:13 GMT 52.38267 9.41231 38,000 266 379 64
2017-12-10 06:50:11 GMT 52.38281 9.41536 38,025 266 379 64
2017-12-10 06:50:09 GMT 52.38318 9.42329 38,025 266 380 64
2017-12-10 06:50:07 GMT 52.38342 9.42752 38,000 266 380 0
2017-12-10 06:50:05 GMT 52.38374 9.43482 38,000 266 380 0
2017-12-10 06:50:02 GMT 52.38409 9.44214 38,000 266 380 0
2017-12-10 06:50:00 GMT 52.38437 9.44763 38,000 266 380 0
2017-12-10 06:49:58 GMT 52.38473 9.45564 38,000 266 380 0
2017-12-10 06:49:56 GMT 52.38496 9.46045 38,025 266 381 64
2017-12-10 06:49:54 GMT 52.38519 9.46594 38,025 266 381 64
2017-12-10 06:49:52 GMT 52.38551 9.47210 38,025 266 381 64
2017-12-10 06:49:50 GMT 52.38579 9.47814 38,000 266 381 0
2017-12-10 06:49:48 GMT 52.38602 9.48363 38,025 266 381 0
2017-12-10 06:49:46 GMT 52.38625 9.48791 38,000 266 381 0
2017-12-10 06:49:44 GMT 52.38647 9.49341 38,000 266 381 0
2017-12-10 06:49:42 GMT 52.38668 9.49776 38,025 266 381 0
2017-12-10 06:49:40 GMT 52.38712 9.50752 38,000 266 381 0
2017-12-10 06:49:37 GMT 52.38747 9.51487 38,025 266 381 0
2017-12-10 06:49:35 GMT 52.38798 9.52562 38,025 266 381 64
2017-12-10 06:49:33 GMT 52.38799 9.52652 38,025 266 381 0
2017-12-10 06:49:31 GMT 52.38821 9.53133 38,025 266 381 0
2017-12-10 06:49:29 GMT 52.38849 9.53682 38,000 266 381 64
2017-12-10 06:49:27 GMT 52.38881 9.54422 38,025 266 381 0
2017-12-10 06:49:25 GMT 52.38899 9.54842 38,025 266 381 0
2017-12-10 06:49:23 GMT 52.38931 9.55521 38,025 266 381 64
2017-12-10 06:49:21 GMT 52.38961 9.56195 38,025 266 381 64
2017-12-10 06:49:19 GMT 52.38979 9.56619 38,025 266 381 64
2017-12-10 06:49:17 GMT 52.39009 9.57237 38,025 266 381 64
2017-12-10 06:49:15 GMT 52.39023 9.57596 38,000 266 381 0
2017-12-10 06:49:13 GMT 52.39064 9.58397 38,000 266 381 0
2017-12-10 06:49:11 GMT 52.39091 9.59007 38,025 266 381 0
2017-12-10 06:49:08 GMT 52.39114 9.59557 38,025 266 381 0
2017-12-10 06:49:06 GMT 52.39165 9.60602 38,025 266 381 64
2017-12-10 06:49:04 GMT 52.39184 9.61084 38,025 266 381 0
2017-12-10 06:49:02 GMT 52.39215 9.61678 38,025 266 381 0
2017-12-10 06:49:00 GMT 52.39222 9.61884 38,025 266 381 0
2017-12-10 06:48:58 GMT 52.39268 9.62920 38,025 266 381 64
2017-12-10 06:48:56 GMT 52.39279 9.63104 38,025 266 381 64
2017-12-10 06:48:54 GMT 52.39305 9.63650 38,025 266 381 128
2017-12-10 06:48:52 GMT 52.39343 9.64516 38,000 266 381 128
2017-12-10 06:48:50 GMT 52.39366 9.65008 38,025 266 381 128
2017-12-10 06:48:48 GMT 52.39389 9.65557 38,000 266 381 128
2017-12-10 06:48:46 GMT 52.39422 9.66326 38,000 266 381 64
2017-12-10 06:48:44 GMT 52.39445 9.66844 38,000 266 381 64
2017-12-10 06:48:42 GMT 52.39468 9.67393 38,000 266 381 0
2017-12-10 06:48:40 GMT 52.39485 9.67697 38,000 266 381 0
2017-12-10 06:48:38 GMT 52.39510 9.68311 38,000 266 381 0
2017-12-10 06:48:36 GMT 52.39538 9.68924 38,000 266 381 0
2017-12-10 06:48:34 GMT 52.39563 9.69528 38,000 266 381 0
2017-12-10 06:48:31 GMT 52.39599 9.70391 38,000 267 381 0
2017-12-10 06:48:29 GMT 52.39618 9.70818 38,000 267 381 0
2017-12-10 06:48:27 GMT 52.39645 9.71497 38,000 267 380 0
2017-12-10 06:48:25 GMT 52.39678 9.72227 38,000 267 380 0
2017-12-10 06:48:25 GMT 52.39678 9.72227 38,000 267 380 0
2017-12-10 06:48:23 GMT 52.39706 9.72910 38,000 267 380 0
2017-12-10 06:48:21 GMT 52.39719 9.73206 38,000 267 380 0
2017-12-10 06:48:19 GMT 52.39737 9.73701 38,000 267 380 0
2017-12-10 06:48:17 GMT 52.39774 9.74495 38,000 267 380 64
2017-12-10 06:48:15 GMT 52.39789 9.74856 38,000 267 380 64
2017-12-10 06:48:13 GMT 52.39815 9.75532 38,000 267 380 64
2017-12-10 06:48:11 GMT 52.39850 9.76394 38,000 267 380 64
2017-12-10 06:48:09 GMT 52.39869 9.76818 38,000 266 380 64
2017-12-10 06:48:06 GMT 52.39902 9.77554 38,000 266 380 64
2017-12-10 06:48:04 GMT 52.39925 9.78157 38,000 266 380 -64
2017-12-10 06:48:02 GMT 52.39948 9.78654 38,000 266 380 0
2017-12-10 06:48:00 GMT 52.39970 9.79202 38,000 266 380 -64
2017-12-10 06:47:58 GMT 52.40007 9.80041 38,000 266 380 -64
2017-12-10 06:47:56 GMT 52.40030 9.80545 38,025 266 380 -64
2017-12-10 06:47:54 GMT 52.40050 9.80977 38,025 266 380 -64
2017-12-10 06:47:52 GMT 52.40066 9.81346 38,025 266 380 -64
2017-12-10 06:47:50 GMT 52.40097 9.82076 38,025 266 380 -64
2017-12-10 06:47:48 GMT 52.40125 9.82688 38,025 266 380 0
2017-12-10 06:47:46 GMT 52.40148 9.83237 38,025 266 380 0
2017-12-10 06:47:44 GMT 52.40176 9.83912 38,025 266 379 0
2017-12-10 06:47:41 GMT 52.40213 9.84760 38,025 266 379 0
2017-12-10 06:47:39 GMT 52.40241 9.85434 38,025 266 379 64
2017-12-10 06:47:39 GMT 52.40227 9.85016 38,025 266 379 64
2017-12-10 06:47:39 GMT 52.40227 9.85016 38,025 266 379 64
2017-12-10 06:47:37 GMT 52.40264 9.85984 38,025 266 379 64
2017-12-10 06:47:35 GMT 52.40292 9.86596 38,025 266 379 64
2017-12-10 06:47:33 GMT 52.40305 9.86847 38,025 266 379 64
2017-12-10 06:47:31 GMT 52.40339 9.87687 38,025 267 379 64
2017-12-10 06:47:29 GMT 52.40362 9.88181 38,025 267 379 64
2017-12-10 06:47:27 GMT 52.40378 9.88548 38,025 267 379 0
2017-12-10 06:47:25 GMT 52.40409 9.89334 38,025 267 379 0
2017-12-10 06:47:23 GMT 52.40437 9.90009 38,025 266 379 0
2017-12-10 06:47:23 GMT 52.40424 9.89708 38,025 266 379 0
2017-12-10 06:47:23 GMT 52.40433 9.89830 38,025 266 379 0
2017-12-10 06:47:21 GMT 52.40451 9.90265 38,025 266 379 0
2017-12-10 06:47:19 GMT 52.40492 9.91272 38,025 266 380 0
2017-12-10 06:47:17 GMT 52.40511 9.91720 38,025 266 380 64
2017-12-10 06:47:15 GMT 52.40534 9.92269 38,025 266 380 64
2017-12-10 06:47:15 GMT 52.40534 9.92269 38,025 266 380 64
2017-12-10 06:47:13 GMT 52.40552 9.92706 38,025 266 380 64
2017-12-10 06:47:11 GMT 52.40600 9.93721 38,025 266 380 64
2017-12-10 06:47:11 GMT 52.40600 9.93721 38,025 266 380 64
2017-12-10 06:47:11 GMT 52.40570 9.93126 38,025 266 380 64
2017-12-10 06:47:09 GMT 52.40597 9.93736 38,025 266 380 64
2017-12-10 06:47:07 GMT 52.40628 9.94467 38,025 266 380 0
2017-12-10 06:47:05 GMT 52.40660 9.95142 38,000 266 380 0
2017-12-10 06:47:03 GMT 52.40669 9.95385 38,025 266 380 0
2017-12-10 06:47:01 GMT 52.40712 9.96368 38,000 266 380 0
2017-12-10 06:46:59 GMT 52.40730 9.96796 38,025 266 380 0
2017-12-10 06:46:56 GMT 52.40762 9.97528 38,025 266 380 64
2017-12-10 06:46:54 GMT 52.40799 9.98367 38,000 266 379 64
2017-12-10 06:46:52 GMT 52.40817 9.98871 38,000 266 379 64
2017-12-10 06:46:50 GMT 52.40849 9.99542 38,000 266 379 64
2017-12-10 06:46:48 GMT 52.40854 9.99672 38,000 266 379 64
2017-12-10 06:46:46 GMT 52.40881 10.00343 38,000 266 379 0
2017-12-10 06:46:44 GMT 52.40921 10.01255 38,000 266 379 0
2017-12-10 06:46:42 GMT 52.40944 10.01804 38,000 267 379 0
2017-12-10 06:46:40 GMT 52.40967 10.02353 38,000 267 379 64
2017-12-10 06:46:38 GMT 52.40987 10.02785 38,000 267 379 64
2017-12-10 06:46:35 GMT 52.41023 10.03700 38,000 267 379 64
2017-12-10 06:46:33 GMT 52.41046 10.04250 38,000 267 379 64
2017-12-10 06:46:31 GMT 52.41079 10.04959 38,000 267 379 64
2017-12-10 06:46:29 GMT 52.41101 10.05531 38,000 267 379 0
2017-12-10 06:46:26 GMT 52.41126 10.06136 38,000 267 379 64
2017-12-10 06:46:24 GMT 52.41154 10.06811 38,000 267 379 64
2017-12-10 06:46:22 GMT 52.41184 10.07523 38,000 267 379 64
2017-12-10 06:46:20 GMT 52.41195 10.07839 38,000 267 379 64
2017-12-10 06:46:18 GMT 52.41229 10.08583 38,000 267 379 0
2017-12-10 06:46:15 GMT 52.41270 10.09613 38,000 267 379 0
2017-12-10 06:46:12 GMT 52.41289 10.10101 38,000 267 379 0
2017-12-10 06:46:10 GMT 52.41312 10.10651 38,000 267 379 0
2017-12-10 06:46:08 GMT 52.41339 10.11253 38,000 267 378 0
2017-12-10 06:46:06 GMT 52.41371 10.12093 38,000 267 378 0
2017-12-10 06:46:04 GMT 52.41386 10.12414 38,000 267 378 0
2017-12-10 06:46:02 GMT 52.41412 10.13084 38,000 267 378 0
2017-12-10 06:46:00 GMT 52.41444 10.13870 38,000 267 378 0
2017-12-10 06:45:58 GMT 52.41461 10.14234 38,000 267 378 0
2017-12-10 06:45:58 GMT 52.41465 10.14360 38,000 267 378 0
2017-12-10 06:45:56 GMT 52.41481 10.14671 38,000 267 378 64
2017-12-10 06:45:54 GMT 52.41507 10.15404 38,000 267 377 64
2017-12-10 06:45:51 GMT 52.41559 10.16596 38,000 267 377 128
2017-12-10 06:45:48 GMT 52.41573 10.16973 38,000 267 377 128
2017-12-10 06:45:45 GMT 52.41600 10.17703 38,000 267 377 64
2017-12-10 06:45:45 GMT 52.41605 10.17822 38,000 267 377 64
2017-12-10 06:45:43 GMT 52.41623 10.18318 38,000 267 377 0
2017-12-10 06:45:41 GMT 52.41646 10.18860 38,000 267 377 0
2017-12-10 06:45:39 GMT 52.41673 10.19531 38,000 267 377 0
2017-12-10 06:45:37 GMT 52.41701 10.20248 38,000 267 377 0
2017-12-10 06:45:35 GMT 52.41712 10.20614 38,000 267 377 0
2017-12-10 06:45:32 GMT 52.41746 10.21469 38,000 267 377 0
2017-12-10 06:45:30 GMT 52.41769 10.22072 38,000 267 377 0
2017-12-10 06:45:28 GMT 52.41788 10.22621 38,000 267 377 0
2017-12-10 06:45:26 GMT 52.41810 10.23165 38,000 267 377 0
2017-12-10 06:45:24 GMT 52.41838 10.23957 38,000 267 377 0
2017-12-10 06:45:21 GMT 52.41866 10.24803 38,000 267 377 0
2017-12-10 06:45:21 GMT 52.41866 10.24803 38,000 267 377 0
2017-12-10 06:45:18 GMT 52.41898 10.25597 38,000 267 376 0
2017-12-10 06:45:16 GMT 52.41908 10.25958 38,000 267 376 64
2017-12-10 06:45:14 GMT 52.41930 10.26505 38,000 267 376 0
2017-12-10 06:45:12 GMT 52.41948 10.27054 38,000 267 376 64
2017-12-10 06:45:10 GMT 52.41978 10.27779 38,000 267 376 64
2017-12-10 06:45:08 GMT 52.42007 10.28565 38,000 267 376 64
2017-12-10 06:45:06 GMT 52.42026 10.29106 38,000 267 376 64
2017-12-10 06:45:06 GMT 52.42019 10.28925 38,000 267 376 64
2017-12-10 06:45:04 GMT 52.42044 10.29533 38,000 267 376 0
2017-12-10 06:45:02 GMT 52.42071 10.30243 38,000 267 376 0
2017-12-10 06:45:00 GMT 52.42094 10.30792 38,000 267 375 0
2017-12-10 06:44:57 GMT 52.42113 10.31349 38,000 267 375 0
2017-12-10 06:44:55 GMT 52.42140 10.31952 38,000 267 375 0
2017-12-10 06:44:53 GMT 52.42168 10.32738 38,000 267 375 0
2017-12-10 06:44:50 GMT 52.42195 10.33402 38,000 267 375 0
2017-12-10 06:44:50 GMT 52.42195 10.33402 38,000 267 375 0
2017-12-10 06:44:48 GMT 52.42215 10.33947 38,000 267 375 0
2017-12-10 06:44:46 GMT 52.42247 10.34771 38,000 267 375 0
2017-12-10 06:44:44 GMT 52.42271 10.35273 38,000 267 375 64
2017-12-10 06:44:42 GMT 52.42287 10.35690 38,000 267 375 64
2017-12-10 06:44:40 GMT 52.42308 10.36301 38,000 267 375 64
2017-12-10 06:44:40 GMT 52.42308 10.36301 38,000 267 375 64
2017-12-10 06:44:37 GMT 52.42351 10.37392 38,000 267 375 64
2017-12-10 06:44:35 GMT 52.42373 10.37863 38,000 267 375 64
2017-12-10 06:44:33 GMT 52.42397 10.38475 38,000 267 374 64
2017-12-10 06:44:30 GMT 52.42429 10.39314 38,000 267 374 64
2017-12-10 06:44:28 GMT 52.42448 10.39793 38,000 267 374 64
2017-12-10 06:44:26 GMT 52.42465 10.40215 38,000 267 374 64
2017-12-10 06:44:24 GMT 52.42485 10.40704 38,000 267 374 64
2017-12-10 06:44:22 GMT 52.42516 10.41550 38,000 267 374 64
2017-12-10 06:44:20 GMT 52.42531 10.41967 38,000 267 374 64
2017-12-10 06:44:18 GMT 52.42555 10.42508 37,975 267 374 64
2017-12-10 06:44:16 GMT 52.42573 10.42995 37,975 267 374 64
2017-12-10 06:44:14 GMT 52.42607 10.43953 37,975 267 373 64
2017-12-10 06:44:12 GMT 52.42629 10.44439 37,975 267 374 64
2017-12-10 06:44:10 GMT 52.42648 10.44980 37,975 267 373 64
2017-12-10 06:44:10 GMT 52.42643 10.44910 37,975 267 373 64
2017-12-10 06:44:08 GMT 52.42671 10.45631 37,975 267 373 64
2017-12-10 06:44:06 GMT 52.42680 10.45883 37,975 267 373 64
2017-12-10 06:44:04 GMT 52.42704 10.46479 37,975 267 373 64
2017-12-10 06:44:02 GMT 52.42722 10.47021 37,975 267 373 64
2017-12-10 06:44:00 GMT 52.42746 10.47617 37,975 267 373 64
2017-12-10 06:43:58 GMT 52.42755 10.47923 37,975 267 373 64
2017-12-10 06:43:56 GMT 52.42783 10.48700 37,975 267 373 64
2017-12-10 06:43:54 GMT 52.42809 10.49362 37,975 267 373 0
2017-12-10 06:43:52 GMT 52.42815 10.49602 37,950 267 373 0
2017-12-10 06:43:50 GMT 52.42845 10.50446 37,975 267 373 0
2017-12-10 06:43:48 GMT 52.42862 10.50858 37,975 267 373 0
2017-12-10 06:43:46 GMT 52.42885 10.51525 37,975 267 373 0
2017-12-10 06:43:44 GMT 52.42909 10.52246 37,975 267 373 0
2017-12-10 06:43:42 GMT 52.42936 10.52906 37,975 267 373 0
2017-12-10 06:43:40 GMT 52.42950 10.53268 37,975 267 372 0
2017-12-10 06:43:38 GMT 52.42974 10.53918 37,975 267 372 0
2017-12-10 06:43:36 GMT 52.42996 10.54542 37,975 267 372 0
2017-12-10 06:43:34 GMT 52.43010 10.54947 37,975 267 372 0
2017-12-10 06:43:32 GMT 52.43028 10.55428 37,975 267 372 0
2017-12-10 06:43:29 GMT 52.43065 10.56442 37,975 267 372 0
2017-12-10 06:43:29 GMT 52.43065 10.56442 37,975 267 372 0
2017-12-10 06:43:27 GMT 52.43074 10.56740 37,975 267 372 0
2017-12-10 06:43:25 GMT 52.43097 10.57335 37,975 267 372 0
2017-12-10 06:43:25 GMT 52.43097 10.57335 37,975 267 372 0
2017-12-10 06:43:23 GMT 52.43132 10.58305 37,975 267 372 0
2017-12-10 06:43:22 GMT 52.43137 10.58415 37,975 267 372 0
2017-12-10 06:43:20 GMT 52.43147 10.58777 37,975 267 372 0
2017-12-10 06:43:18 GMT 52.43174 10.59490 37,975 267 372 0
2017-12-10 06:43:16 GMT 52.43202 10.60212 37,975 267 372 0
2017-12-10 06:43:14 GMT 52.43207 10.60333 37,975 267 372 0
2017-12-10 06:43:12 GMT 52.43230 10.60928 37,975 267 372 0
2017-12-10 06:43:10 GMT 52.43266 10.61951 37,975 267 372 0
2017-12-10 06:43:08 GMT 52.43280 10.62363 37,975 267 372 0
2017-12-10 06:43:06 GMT 52.43295 10.62794 37,975 267 372 0
2017-12-10 06:43:04 GMT 52.43323 10.63445 37,975 267 371 0
2017-12-10 06:43:01 GMT 52.43349 10.64163 37,975 267 371 0
2017-12-10 06:42:59 GMT 52.43379 10.64999 37,975 267 371 0
2017-12-10 06:42:57 GMT 52.43385 10.65185 37,975 267 371 0
2017-12-10 06:42:55 GMT 52.43425 10.66302 37,975 267 372 0
2017-12-10 06:42:53 GMT 52.43431 10.66437 37,975 267 372 0
2017-12-10 06:42:51 GMT 52.43459 10.67215 37,975 267 372 0
2017-12-10 06:42:48 GMT 52.43490 10.68052 37,975 267 372 0
2017-12-10 06:42:46 GMT 52.43509 10.68593 37,975 267 372 0
2017-12-10 06:42:44 GMT 52.43518 10.68829 38,000 267 372 0
2017-12-10 06:42:42 GMT 52.43546 10.69613 38,000 267 372 0
2017-12-10 06:42:40 GMT 52.43559 10.70030 38,000 267 372 0
2017-12-10 06:42:38 GMT 52.43588 10.70751 38,000 267 372 0
2017-12-10 06:42:36 GMT 52.43596 10.70999 38,000 267 372 0
2017-12-10 06:42:34 GMT 52.43621 10.71771 38,000 267 372 0
2017-12-10 06:42:32 GMT 52.43651 10.72494 38,000 267 372 0
2017-12-10 06:42:30 GMT 52.43674 10.73143 38,000 267 372 0
2017-12-10 06:42:28 GMT 52.43687 10.73631 38,000 267 372 0
2017-12-10 06:42:26 GMT 52.43705 10.73984 38,000 267 372 0
2017-12-10 06:42:24 GMT 52.43728 10.74651 38,000 267 372 0
2017-12-10 06:42:24 GMT 52.43728 10.74651 38,000 267 372 0
2017-12-10 06:42:21 GMT 52.43756 10.75424 38,000 267 372 0
2017-12-10 06:42:19 GMT 52.43774 10.75966 38,000 267 372 0
2017-12-10 06:42:17 GMT 52.43793 10.76558 38,000 267 373 -64
2017-12-10 06:42:15 GMT 52.43807 10.76866 38,000 267 373 -64
2017-12-10 06:42:13 GMT 52.43825 10.77408 38,000 267 373 -64
2017-12-10 06:42:11 GMT 52.43857 10.78308 38,025 267 373 -64
2017-12-10 06:42:08 GMT 52.43880 10.79025 38,025 267 373 0
2017-12-10 06:42:06 GMT 52.43905 10.79752 38,025 267 373 0
2017-12-10 06:42:04 GMT 52.43928 10.80411 38,025 267 373 0
2017-12-10 06:42:02 GMT 52.43939 10.80704 38,025 267 373 64
2017-12-10 06:42:00 GMT 52.43951 10.81070 38,025 267 373 0
2017-12-10 06:41:58 GMT 52.43980 10.81917 38,025 267 373 64
2017-12-10 06:41:56 GMT 52.43994 10.82275 38,025 267 373 64
2017-12-10 06:41:54 GMT 52.44013 10.82817 38,025 267 374 64
2017-12-10 06:41:52 GMT 52.44035 10.83534 38,025 267 374 64
2017-12-10 06:41:50 GMT 52.44063 10.84304 38,000 267 374 64
2017-12-10 06:41:48 GMT 52.44082 10.84806 38,000 267 374 64
2017-12-10 06:41:46 GMT 52.44099 10.85411 38,000 267 374 64
2017-12-10 06:41:44 GMT 52.44114 10.85708 38,000 267 374 64
2017-12-10 06:41:42 GMT 52.44145 10.86670 38,000 267 375 0
2017-12-10 06:41:40 GMT 52.44156 10.86972 38,000 267 375 0
2017-12-10 06:41:38 GMT 52.44177 10.87570 38,000 267 375 0
2017-12-10 06:41:36 GMT 52.44196 10.88127 38,000 267 375 0
2017-12-10 06:41:34 GMT 52.44223 10.88882 38,000 267 375 0
2017-12-10 06:41:32 GMT 52.44232 10.89142 38,000 267 375 0
2017-12-10 06:41:30 GMT 52.44260 10.89867 38,000 267 375 64
2017-12-10 06:41:27 GMT 52.44291 10.90832 38,000 267 375 64
2017-12-10 06:41:25 GMT 52.44314 10.91499 38,000 267 375 64
2017-12-10 06:41:23 GMT 52.44333 10.92049 38,000 267 375 64
2017-12-10 06:41:21 GMT 52.44338 10.92167 38,000 267 375 64
2017-12-10 06:41:19 GMT 52.44361 10.92826 38,000 267 375 64
2017-12-10 06:41:17 GMT 52.44384 10.93618 38,000 267 375 64
2017-12-10 06:41:15 GMT 52.44397 10.93918 38,000 267 375 64
2017-12-10 06:41:15 GMT 52.44397 10.93918 38,000 267 375 64
2017-12-10 06:41:13 GMT 52.44426 10.94764 38,000 267 375 64
2017-12-10 06:41:11 GMT 52.44443 10.95314 38,000 267 376 64
2017-12-10 06:41:09 GMT 52.44459 10.95674 38,000 267 376 64
2017-12-10 06:41:07 GMT 52.44484 10.96527 38,000 267 376 64
2017-12-10 06:41:05 GMT 52.44493 10.96764 38,000 267 376 64
2017-12-10 06:41:03 GMT 52.44511 10.97305 38,000 267 376 64
2017-12-10 06:41:01 GMT 52.44530 10.97908 38,000 267 376 0
2017-12-10 06:40:59 GMT 52.44557 10.98633 38,000 267 376 0
2017-12-10 06:40:56 GMT 52.44584 10.99543 38,000 267 376 0
2017-12-10 06:40:54 GMT 52.44598 10.99975 38,000 267 376 0
2017-12-10 06:40:52 GMT 52.44617 11.00517 38,000 267 376 0
2017-12-10 06:40:50 GMT 52.44630 11.00944 38,000 267 376 64
2017-12-10 06:40:48 GMT 52.44658 11.01738 38,000 267 376 0
2017-12-10 06:40:46 GMT 52.44678 11.02392 38,000 267 376 0
2017-12-10 06:40:44 GMT 52.44696 11.02941 38,000 268 376 64
2017-12-10 06:40:42 GMT 52.44710 11.03428 38,000 268 376 64
2017-12-10 06:40:40 GMT 52.44731 11.04157 38,000 267 376 64
2017-12-10 06:40:38 GMT 52.44743 11.04448 38,000 267 376 64
2017-12-10 06:40:36 GMT 52.44766 11.05123 38,000 267 376 0
2017-12-10 06:40:34 GMT 52.44786 11.05850 37,975 267 376 0
2017-12-10 06:40:32 GMT 52.44799 11.06268 38,000 267 376 0
2017-12-10 06:40:29 GMT 52.44827 11.07193 38,000 267 377 -64
2017-12-10 06:40:29 GMT 52.44841 11.07485 38,000 267 377 0
2017-12-10 06:40:27 GMT 52.44846 11.07666 38,000 267 377 0
2017-12-10 06:40:25 GMT 52.44855 11.08032 38,000 267 377 0
2017-12-10 06:40:23 GMT 52.44878 11.08756 38,000 267 377 -64
2017-12-10 06:40:21 GMT 52.44891 11.09123 38,000 267 377 -64
2017-12-10 06:40:19 GMT 52.44914 11.09856 38,000 267 377 -64
2017-12-10 06:40:17 GMT 52.44934 11.10459 38,000 267 377 -64
2017-12-10 06:40:15 GMT 52.44966 11.11542 38,000 268 377 -64
2017-12-10 06:40:15 GMT 52.44957 11.11126 38,000 267 377 -64
2017-12-10 06:40:15 GMT 52.44966 11.11542 38,000 268 377 -64
2017-12-10 06:40:13 GMT 52.44974 11.11740 38,000 268 377 -64
2017-12-10 06:40:11 GMT 52.44985 11.12036 38,000 268 377 -64
2017-12-10 06:40:09 GMT 52.45001 11.12656 38,000 268 377 -64
2017-12-10 06:40:07 GMT 52.45024 11.13373 38,000 268 377 -64
2017-12-10 06:40:05 GMT 52.45036 11.13739 38,000 268 377 0
2017-12-10 06:40:03 GMT 52.45064 11.14649 38,025 268 377 0
2017-12-10 06:40:01 GMT 52.45073 11.14900 38,025 268 377 0
2017-12-10 06:39:59 GMT 52.45115 11.16211 38,025 268 377 -64
2017-12-10 06:39:57 GMT 52.45116 11.16226 38,025 268 377 -64
2017-12-10 06:39:55 GMT 52.45124 11.16596 38,025 268 377 -64
2017-12-10 06:39:53 GMT 52.45148 11.17263 38,025 268 377 -64
2017-12-10 06:39:51 GMT 52.45171 11.18110 38,025 268 377 -64
2017-12-10 06:39:49 GMT 52.45180 11.18416 38,025 268 377 0
2017-12-10 06:39:47 GMT 52.45204 11.19091 38,025 268 378 0
2017-12-10 06:39:45 GMT 52.45216 11.19515 38,025 268 378 0
2017-12-10 06:39:43 GMT 52.45235 11.20056 38,025 268 378 0
2017-12-10 06:39:41 GMT 52.45258 11.20789 38,025 268 378 0
2017-12-10 06:39:38 GMT 52.45273 11.21398 38,025 268 378 0
2017-12-10 06:39:36 GMT 52.45294 11.22009 38,025 268 378 0
2017-12-10 06:39:34 GMT 52.45312 11.22688 38,025 268 378 64
2017-12-10 06:39:32 GMT 52.45343 11.23588 38,025 268 378 64
2017-12-10 06:39:29 GMT 52.45357 11.24019 38,025 268 378 64
2017-12-10 06:39:27 GMT 52.45377 11.24756 38,025 267 379 0
2017-12-10 06:39:25 GMT 52.45399 11.25359 38,025 267 379 0
2017-12-10 06:39:23 GMT 52.45422 11.26091 38,025 267 379 0
2017-12-10 06:39:21 GMT 52.45436 11.26640 38,025 267 379 0
2017-12-10 06:39:19 GMT 52.45460 11.27315 38,025 267 380 64
2017-12-10 06:39:16 GMT 52.45477 11.27869 38,025 267 379 0
2017-12-10 06:39:14 GMT 52.45496 11.28532 38,025 267 380 0
2017-12-10 06:39:12 GMT 52.45514 11.29028 38,025 267 380 0
2017-12-10 06:39:10 GMT 52.45539 11.29803 38,025 267 380 0
2017-12-10 06:39:08 GMT 52.45548 11.30187 38,025 267 380 64
2017-12-10 06:39:06 GMT 52.45571 11.30917 38,025 267 380 64
2017-12-10 06:39:04 GMT 52.45581 11.31231 38,025 267 380 64
2017-12-10 06:39:02 GMT 52.45610 11.32088 38,025 267 381 0
2017-12-10 06:39:00 GMT 52.45619 11.32454 38,025 267 381 0
2017-12-10 06:39:00 GMT 52.45619 11.32454 38,025 267 381 0
2017-12-10 06:38:58 GMT 52.45646 11.33310 38,025 267 381 0
2017-12-10 06:38:55 GMT 52.45670 11.34041 38,025 267 381 0
2017-12-10 06:38:53 GMT 52.45678 11.34354 38,025 267 381 0
2017-12-10 06:38:51 GMT 52.45702 11.35094 38,025 268 381 0
2017-12-10 06:38:49 GMT 52.45720 11.35586 38,025 268 381 0
2017-12-10 06:38:47 GMT 52.45739 11.36198 38,025 268 381 0
2017-12-10 06:38:45 GMT 52.45761 11.36932 38,050 268 381 0
2017-12-10 06:38:43 GMT 52.45772 11.37360 38,050 268 381 0
2017-12-10 06:38:41 GMT 52.45795 11.38035 38,025 268 381 0
2017-12-10 06:38:39 GMT 52.45809 11.38466 38,050 268 381 0
2017-12-10 06:38:37 GMT 52.45827 11.39204 38,050 268 381 0
2017-12-10 06:38:35 GMT 52.45841 11.39635 38,050 268 381 64
2017-12-10 06:38:33 GMT 52.45860 11.40310 38,050 268 381 64
2017-12-10 06:38:31 GMT 52.45879 11.40930 38,025 268 381 64
2017-12-10 06:38:29 GMT 52.45889 11.41296 38,025 268 381 64
2017-12-10 06:38:27 GMT 52.45912 11.41975 38,025 268 381 64
2017-12-10 06:38:25 GMT 52.45935 11.42830 38,025 268 381 64
2017-12-10 06:38:23 GMT 52.45948 11.43198 38,025 268 382 64
2017-12-10 06:38:21 GMT 52.45958 11.43623 38,025 268 382 0
2017-12-10 06:38:19 GMT 52.45986 11.44493 38,025 268 382 0
2017-12-10 06:38:17 GMT 52.46004 11.45103 38,025 268 382 0
2017-12-10 06:38:15 GMT 52.46018 11.45654 38,025 268 382 0
2017-12-10 06:38:13 GMT 52.46032 11.46212 38,025 268 382 0
2017-12-10 06:38:13 GMT 52.46027 11.46027 38,050 268 382 0
2017-12-10 06:38:11 GMT 52.46045 11.46706 38,025 268 382 0
2017-12-10 06:38:09 GMT 52.46060 11.47130 38,025 268 382 0
2017-12-10 06:38:07 GMT 52.46069 11.47569 38,050 268 382 0
2017-12-10 06:38:05 GMT 52.46086 11.48125 38,025 268 382 0
2017-12-10 06:38:03 GMT 52.46107 11.48974 38,050 268 382 0
2017-12-10 06:38:00 GMT 52.46135 11.49900 38,050 268 382 0
2017-12-10 06:37:58 GMT 52.46144 11.50339 38,050 268 382 0
2017-12-10 06:37:56 GMT 52.46169 11.51138 38,050 268 382 64
2017-12-10 06:37:56 GMT 52.46164 11.51009 38,050 268 382 64
2017-12-10 06:37:54 GMT 52.46182 11.51688 38,050 268 382 64
2017-12-10 06:37:52 GMT 52.46191 11.52003 38,050 268 382 64
2017-12-10 06:37:50 GMT 52.46214 11.52960 38,050 268 382 128
2017-12-10 06:37:48 GMT 52.46219 11.53053 38,050 268 382 128
2017-12-10 06:37:46 GMT 52.46242 11.53965 38,025 268 382 192
2017-12-10 06:37:44 GMT 52.46256 11.54587 38,025 268 382 192
2017-12-10 06:37:42 GMT 52.46269 11.55014 38,025 268 382 192
2017-12-10 06:37:40 GMT 52.46283 11.55624 38,025 268 382 192
2017-12-10 06:37:38 GMT 52.46298 11.56123 38,025 268 382 192
2017-12-10 06:37:36 GMT 52.46306 11.56547 38,025 268 382 192
2017-12-10 06:37:34 GMT 52.46324 11.57104 38,000 268 382 128
2017-12-10 06:37:32 GMT 52.46344 11.57967 38,000 268 382 128
2017-12-10 06:37:30 GMT 52.46363 11.58650 38,000 268 382 128
2017-12-10 06:37:30 GMT 52.46361 11.58524 38,000 268 382 128
2017-12-10 06:37:28 GMT 52.46372 11.58893 38,000 268 382 128
2017-12-10 06:37:25 GMT 52.46405 11.60188 38,000 268 382 64
2017-12-10 06:37:23 GMT 52.46416 11.60553 38,000 268 382 128
2017-12-10 06:37:21 GMT 52.46433 11.61106 37,975 268 382 128
2017-12-10 06:37:19 GMT 52.46442 11.61537 37,975 268 382 128
2017-12-10 06:37:17 GMT 52.46466 11.62399 37,975 268 382 128
2017-12-10 06:37:14 GMT 52.46484 11.63017 37,975 268 382 128
2017-12-10 06:37:12 GMT 52.46498 11.63515 37,975 268 382 128
2017-12-10 06:37:09 GMT 52.46521 11.64375 37,975 268 382 128
2017-12-10 06:37:07 GMT 52.46535 11.64993 37,975 268 382 128
2017-12-10 06:37:04 GMT 52.46558 11.65861 37,950 268 382 64
2017-12-10 06:37:02 GMT 52.46586 11.66779 37,950 268 382 64
2017-12-10 06:37:00 GMT 52.46600 11.67337 37,950 268 382 64
2017-12-10 06:36:58 GMT 52.46614 11.67823 37,950 268 382 0
2017-12-10 06:36:56 GMT 52.46633 11.68506 37,950 268 382 0
2017-12-10 06:36:53 GMT 52.46640 11.68877 37,950 268 382 0
2017-12-10 06:36:51 GMT 52.46663 11.69685 37,950 268 382 0
2017-12-10 06:36:49 GMT 52.46681 11.70410 37,950 268 381 -64
2017-12-10 06:36:47 GMT 52.46709 11.71379 37,950 268 381 -64
2017-12-10 06:36:44 GMT 52.46721 11.71951 37,975 268 381 -64
2017-12-10 06:36:42 GMT 52.46740 11.72508 37,975 268 381 -64
2017-12-10 06:36:39 GMT 52.46758 11.73246 37,975 268 380 0
2017-12-10 06:36:37 GMT 52.46768 11.73607 37,975 268 380 0
2017-12-10 06:36:35 GMT 52.46791 11.74462 37,975 268 380 -64
2017-12-10 06:36:33 GMT 52.46800 11.74896 37,975 268 380 -64
2017-12-10 06:36:31 GMT 52.46818 11.75560 37,975 268 379 -64
2017-12-10 06:36:28 GMT 52.46838 11.76298 37,975 268 379 0
2017-12-10 06:36:26 GMT 52.46856 11.77028 37,975 268 379 0
2017-12-10 06:36:22 GMT 52.46884 11.77946 37,975 268 379 0
2017-12-10 06:36:20 GMT 52.46898 11.78621 37,975 268 378 0
2017-12-10 06:36:18 GMT 52.46912 11.79170 37,975 268 378 64
2017-12-10 06:36:16 GMT 52.46931 11.79845 37,975 268 378 64
2017-12-10 06:36:14 GMT 52.46947 11.80397 37,975 268 378 64
2017-12-10 06:36:12 GMT 52.46956 11.80817 37,975 268 378 64
2017-12-10 06:36:10 GMT 52.46973 11.81493 37,975 268 378 64
2017-12-10 06:36:08 GMT 52.46993 11.82221 37,975 268 378 64
2017-12-10 06:36:06 GMT 52.46996 11.82404 37,975 268 378 64
2017-12-10 06:36:03 GMT 52.47024 11.83441 37,975 268 378 0
2017-12-10 06:36:01 GMT 52.47042 11.84106 37,975 268 378 0
2017-12-10 06:35:59 GMT 52.47056 11.84656 37,975 268 378 0
2017-12-10 06:35:57 GMT 52.47066 11.85082 37,975 268 378 0
2017-12-10 06:35:57 GMT 52.47066 11.85082 37,975 268 378 0
2017-12-10 06:35:55 GMT 52.47089 11.85935 37,975 268 378 0
2017-12-10 06:35:52 GMT 52.47107 11.86539 37,975 268 378 0
2017-12-10 06:35:50 GMT 52.47117 11.87088 38,000 268 378 0
2017-12-10 06:35:50 GMT 52.47117 11.87088 38,000 268 378 0
2017-12-10 06:35:48 GMT 52.47136 11.87763 37,975 268 378 0
2017-12-10 06:35:46 GMT 52.47149 11.88313 37,975 268 378 0
2017-12-10 06:35:43 GMT 52.47173 11.89223 37,975 268 378 0
2017-12-10 06:35:41 GMT 52.47185 11.89652 38,000 268 378 0
2017-12-10 06:35:39 GMT 52.47208 11.90453 38,000 268 378 -64
2017-12-10 06:35:37 GMT 52.47217 11.90872 38,000 268 378 -64
2017-12-10 06:35:35 GMT 52.47229 11.91295 38,000 268 378 -64
2017-12-10 06:35:33 GMT 52.47257 11.92252 38,000 268 378 0
2017-12-10 06:35:31 GMT 52.47266 11.92754 38,000 268 378 0
2017-12-10 06:35:29 GMT 52.47286 11.93428 38,000 268 378 0
2017-12-10 06:35:27 GMT 52.47294 11.93798 38,000 268 378 0
2017-12-10 06:35:25 GMT 52.47304 11.94221 38,000 268 378 0
2017-12-10 06:35:25 GMT 52.47304 11.94221 38,000 268 378 0
2017-12-10 06:35:23 GMT 52.47322 11.94893 38,000 268 378 0
2017-12-10 06:35:21 GMT 52.47336 11.95328 38,000 268 378 0
2017-12-10 06:35:19 GMT 52.47350 11.95987 38,000 268 378 0
2017-12-10 06:35:19 GMT 52.47345 11.95808 38,000 268 378 0
2017-12-10 06:35:17 GMT 52.47368 11.96662 38,000 268 378 0
2017-12-10 06:35:15 GMT 52.47377 11.97082 38,000 268 378 0
2017-12-10 06:35:11 GMT 52.47410 11.98365 38,000 268 378 0
2017-12-10 06:35:09 GMT 52.47423 11.98914 38,000 268 378 0
2017-12-10 06:35:09 GMT 52.47423 11.98914 38,000 268 378 0
2017-12-10 06:35:07 GMT 52.47436 11.99463 38,000 268 378 0
2017-12-10 06:35:05 GMT 52.47446 11.99898 38,000 268 378 0
2017-12-10 06:35:02 GMT 52.47466 12.00868 38,000 268 378 0
2017-12-10 06:34:59 GMT 52.47489 12.01708 38,000 268 378 0
2017-12-10 06:34:57 GMT 52.47505 12.02446 38,000 268 378 0
2017-12-10 06:34:55 GMT 52.47513 12.02807 38,000 268 378 0
2017-12-10 06:34:51 GMT 52.47542 12.04033 38,000 268 379 0
2017-12-10 06:34:49 GMT 52.47554 12.04635 38,000 268 379 0
2017-12-10 06:34:49 GMT 52.47560 12.04819 38,000 268 379 0
2017-12-10 06:34:47 GMT 52.47568 12.05255 38,000 268 379 0
2017-12-10 06:34:45 GMT 52.47588 12.06024 38,000 268 379 0
2017-12-10 06:34:42 GMT 52.47610 12.06840 38,000 268 379 0
2017-12-10 06:34:39 GMT 52.47620 12.07272 38,000 268 379 0
2017-12-10 06:34:38 GMT 52.47638 12.07985 38,000 268 379 0
2017-12-10 06:34:37 GMT 52.47633 12.07825 38,000 268 379 0
2017-12-10 06:34:37 GMT 52.47633 12.07825 38,000 268 379 0
2017-12-10 06:34:35 GMT 52.47647 12.08488 38,000 268 379 0
2017-12-10 06:34:33 GMT 52.47661 12.08977 38,000 268 379 0
2017-12-10 06:34:33 GMT 52.47661 12.08977 38,000 268 379 0
2017-12-10 06:34:31 GMT 52.47675 12.09712 38,000 268 379 0
2017-12-10 06:34:29 GMT 52.47694 12.10387 38,000 268 379 0
2017-12-10 06:34:27 GMT 52.47702 12.10686 38,000 268 379 0
2017-12-10 06:34:27 GMT 52.47702 12.10686 38,000 268 379 0
2017-12-10 06:34:25 GMT 52.47720 12.11365 38,000 268 379 0
2017-12-10 06:34:23 GMT 52.47731 12.11973 38,000 268 379 0
2017-12-10 06:34:21 GMT 52.47748 12.12524 38,000 268 379 0
2017-12-10 06:34:19 GMT 52.47762 12.13196 38,000 268 379 0
2017-12-10 06:34:18 GMT 52.47773 12.13620 38,000 268 379 0
2017-12-10 06:34:18 GMT 52.47773 12.13620 38,000 268 379 0
2017-12-10 06:34:17 GMT 52.47784 12.13989 38,000 268 379 0
2017-12-10 06:34:15 GMT 52.47794 12.14485 38,000 268 379 64
2017-12-10 06:34:14 GMT 52.47794 12.14485 38,000 268 379 64
2017-12-10 06:34:13 GMT 52.47801 12.14727 38,000 268 379 64
2017-12-10 06:34:10 GMT 52.47826 12.15706 38,000 268 379 64
2017-12-10 06:34:08 GMT 52.47839 12.16194 38,000 268 379 64
2017-12-10 06:34:06 GMT 52.47862 12.17110 38,000 268 379 64
2017-12-10 06:34:04 GMT 52.47871 12.17356 38,000 268 379 64
2017-12-10 06:34:03 GMT 52.47871 12.17545 38,000 268 379 64
2017-12-10 06:34:01 GMT 52.47899 12.18575 38,000 268 379 64
2017-12-10 06:33:59 GMT 52.47913 12.19121 38,000 268 379 64
2017-12-10 06:33:57 GMT 52.47931 12.19780 38,000 268 379 64
2017-12-10 06:33:56 GMT 52.47927 12.19671 38,000 268 379 64
2017-12-10 06:33:56 GMT 52.47931 12.19780 38,000 268 379 64
2017-12-10 06:33:56 GMT 52.47927 12.19671 38,000 268 379 64
2017-12-10 06:33:54 GMT 52.47941 12.20228 38,000 268 379 64
2017-12-10 06:33:52 GMT 52.47954 12.20772 38,000 268 380 0
2017-12-10 06:33:49 GMT 52.47973 12.21633 38,000 268 380 0
2017-12-10 06:33:47 GMT 52.47995 12.22496 38,000 268 380 0
2017-12-10 06:33:45 GMT 52.48006 12.22982 38,000 268 380 0
2017-12-10 06:33:43 GMT 52.48013 12.23289 38,000 268 380 0
2017-12-10 06:33:40 GMT 52.48041 12.24640 38,000 268 380 64
2017-12-10 06:33:38 GMT 52.48059 12.25365 38,000 268 380 64
2017-12-10 06:33:35 GMT 52.48073 12.25914 38,000 268 380 64
2017-12-10 06:33:33 GMT 52.48082 12.26410 38,000 268 380 64
2017-12-10 06:33:30 GMT 52.48096 12.27089 38,000 269 380 64
2017-12-10 06:33:28 GMT 52.48109 12.27753 38,000 268 381 -64
2017-12-10 06:33:26 GMT 52.48123 12.28317 38,000 269 380 64
2017-12-10 06:33:24 GMT 52.48137 12.28928 38,000 269 380 64
2017-12-10 06:33:22 GMT 52.48146 12.29292 38,000 269 380 64
2017-12-10 06:33:20 GMT 52.48160 12.30087 37,975 269 380 64
2017-12-10 06:33:17 GMT 52.48183 12.31186 37,975 268 380 64
2017-12-10 06:33:15 GMT 52.48192 12.31615 37,975 268 380 64
2017-12-10 06:33:12 GMT 52.48206 12.32164 37,975 268 381 0
2017-12-10 06:33:10 GMT 52.48225 12.32972 37,975 268 381 0
2017-12-10 06:33:07 GMT 52.48239 12.33710 37,975 268 381 0
2017-12-10 06:33:05 GMT 52.48256 12.34444 37,975 268 381 -64
2017-12-10 06:33:03 GMT 52.48281 12.35468 37,975 268 381 -64
2017-12-10 06:33:00 GMT 52.48293 12.35916 38,000 268 381 -64
2017-12-10 06:32:58 GMT 52.48309 12.36652 38,000 268 381 -64
2017-12-10 06:32:55 GMT 52.48327 12.37508 38,000 268 381 -64
2017-12-10 06:32:52 GMT 52.48338 12.38007 38,000 268 381 -64
2017-12-10 06:32:50 GMT 52.48360 12.38865 38,000 268 381 -64
2017-12-10 06:32:48 GMT 52.48370 12.39479 38,000 268 381 -64
2017-12-10 06:32:46 GMT 52.48388 12.40192 38,000 268 381 -64
2017-12-10 06:32:44 GMT 52.48397 12.40584 38,025 268 381 -64
2017-12-10 06:32:42 GMT 52.48407 12.41013 38,025 268 381 0
2017-12-10 06:32:42 GMT 52.48407 12.41013 38,025 268 381 0
2017-12-10 06:32:39 GMT 52.48425 12.41871 38,025 269 381 0
2017-12-10 06:32:36 GMT 52.48444 12.42737 38,025 269 381 0
2017-12-10 06:32:34 GMT 52.48458 12.43346 38,025 269 381 0
2017-12-10 06:32:32 GMT 52.48471 12.44087 38,025 269 381 0
2017-12-10 06:32:28 GMT 52.48494 12.45132 38,000 269 382 0
2017-12-10 06:32:26 GMT 52.48503 12.45613 38,025 269 381 0
2017-12-10 06:32:24 GMT 52.48517 12.46300 38,025 269 381 0
2017-12-10 06:32:21 GMT 52.48540 12.47383 38,025 269 382 0
2017-12-10 06:32:18 GMT 52.48551 12.47953 38,025 269 382 0
2017-12-10 06:32:16 GMT 52.48560 12.48565 38,025 269 382 0
2017-12-10 06:32:13 GMT 52.48579 12.49373 38,025 269 382 0
2017-12-10 06:32:11 GMT 52.48590 12.49992 38,025 269 382 0
2017-12-10 06:32:08 GMT 52.48607 12.50856 38,025 269 382 0
2017-12-10 06:32:06 GMT 52.48622 12.51885 38,025 269 382 0
2017-12-10 06:32:06 GMT 52.48618 12.51465 38,025 269 382 0
2017-12-10 06:32:03 GMT 52.48639 12.52575 38,025 269 382 0
2017-12-10 06:32:01 GMT 52.48640 12.52762 38,025 269 382 64
2017-12-10 06:31:59 GMT 52.48648 12.53187 38,025 269 382 64
2017-12-10 06:31:57 GMT 52.48662 12.53995 38,025 269 383 64
2017-12-10 06:31:55 GMT 52.48677 12.54738 38,025 269 383 64
2017-12-10 06:31:53 GMT 52.48682 12.55165 38,025 269 383 64
2017-12-10 06:31:51 GMT 52.48695 12.55783 38,025 269 383 64
2017-12-10 06:31:48 GMT 52.48714 12.56905 38,025 269 383 64
2017-12-10 06:31:45 GMT 52.48728 12.57699 38,025 269 383 64
2017-12-10 06:31:43 GMT 52.48737 12.58131 38,025 269 383 64
2017-12-10 06:31:41 GMT 52.48746 12.58931 38,000 269 384 64
2017-12-10 06:31:39 GMT 52.48755 12.59247 38,000 269 384 0
2017-12-10 06:31:37 GMT 52.48764 12.59804 38,025 269 384 0
2017-12-10 06:31:34 GMT 52.48779 12.60673 38,000 269 384 0
2017-12-10 06:31:32 GMT 52.48788 12.61285 38,000 269 384 0
2017-12-10 06:31:30 GMT 52.48802 12.61976 38,000 269 385 0
2017-12-10 06:31:26 GMT 52.48816 12.62776 38,025 269 385 0
2017-12-10 06:31:26 GMT 52.48824 12.62962 38,000 269 385 -64
2017-12-10 06:31:24 GMT 52.48833 12.63519 38,025 269 385 -64
2017-12-10 06:31:22 GMT 52.48849 12.64393 38,025 269 385 0
2017-12-10 06:31:20 GMT 52.48856 12.64694 38,025 269 385 64
2017-12-10 06:31:17 GMT 52.48874 12.65884 38,025 269 385 64
2017-12-10 06:31:14 GMT 52.48888 12.66441 38,000 269 385 128
2017-12-10 06:31:12 GMT 52.48900 12.67187 38,000 269 385 128
2017-12-10 06:31:10 GMT 52.48906 12.67487 38,000 269 386 64
2017-12-10 06:31:08 GMT 52.48920 12.68173 38,000 269 385 64
2017-12-10 06:31:06 GMT 52.48928 12.68733 38,000 269 385 64
2017-12-10 06:31:02 GMT 52.48952 12.69920 38,000 269 386 0
2017-12-10 06:31:00 GMT 52.48960 12.70357 38,000 269 386 0
2017-12-10 06:30:58 GMT 52.48974 12.71157 38,000 269 386 0
2017-12-10 06:30:56 GMT 52.48984 12.71721 38,000 269 386 0
2017-12-10 06:30:53 GMT 52.49007 12.72842 38,000 269 386 0
2017-12-10 06:30:50 GMT 52.49021 12.73716 38,000 269 386 0
2017-12-10 06:30:48 GMT 52.49030 12.74147 38,000 269 386 0
2017-12-10 06:30:45 GMT 52.49049 12.75191 38,000 269 386 0
2017-12-10 06:30:41 GMT 52.49071 12.76146 38,000 269 386 0
2017-12-10 06:30:39 GMT 52.49080 12.76825 38,000 269 386 0
2017-12-10 06:30:37 GMT 52.49091 12.77263 38,000 269 386 0
2017-12-10 06:30:34 GMT 52.49107 12.78130 38,000 269 386 0
2017-12-10 06:30:32 GMT 52.49123 12.79005 38,000 269 386 0
2017-12-10 06:30:30 GMT 52.49126 12.79259 38,000 269 386 0
2017-12-10 06:30:28 GMT 52.49139 12.79999 38,000 269 386 0
2017-12-10 06:30:26 GMT 52.49146 12.80370 38,000 269 386 0
2017-12-10 06:30:24 GMT 52.49156 12.80873 38,000 269 386 64
2017-12-10 06:30:22 GMT 52.49175 12.81806 38,000 269 386 64
2017-12-10 06:30:20 GMT 52.49185 12.82425 38,000 269 387 -64
2017-12-10 06:30:18 GMT 52.49199 12.83112 38,000 269 386 64
2017-12-10 06:30:16 GMT 52.49207 12.83548 38,000 269 386 0
2017-12-10 06:30:14 GMT 52.49213 12.83928 38,000 269 387 -64
2017-12-10 06:30:12 GMT 52.49230 12.84851 38,000 269 387 -64
2017-12-10 06:30:10 GMT 52.49236 12.85111 38,000 269 387 -64
2017-12-10 06:30:08 GMT 52.49249 12.85919 38,000 269 387 -64
2017-12-10 06:30:06 GMT 52.49258 12.86483 38,000 269 387 -64
2017-12-10 06:30:03 GMT 52.49268 12.86980 38,000 269 387 -128
2017-12-10 06:30:01 GMT 52.49286 12.88032 38,025 269 387 -64
2017-12-10 06:29:59 GMT 52.49291 12.88225 38,025 269 387 -64
2017-12-10 06:29:57 GMT 52.49309 12.89261 38,025 269 386 0
2017-12-10 06:29:55 GMT 52.49309 12.89536 38,025 269 386 0
2017-12-10 06:29:53 GMT 52.49323 12.90161 38,025 269 386 0
2017-12-10 06:29:51 GMT 52.49327 12.90596 38,025 269 386 0
2017-12-10 06:29:49 GMT 52.49342 12.91404 38,025 269 386 64
2017-12-10 06:29:47 GMT 52.49351 12.92220 38,025 269 386 128
2017-12-10 06:29:45 GMT 52.49359 12.92839 38,025 269 386 64
2017-12-10 06:29:40 GMT 52.49379 12.94087 38,025 269 386 64
2017-12-10 06:29:38 GMT 52.49387 12.94464 38,000 269 387 64
2017-12-10 06:29:36 GMT 52.49393 12.95139 38,000 269 387 64
2017-12-10 06:29:33 GMT 52.49403 12.95955 38,025 269 387 0
2017-12-10 06:29:29 GMT 52.49421 12.97085 38,025 269 387 0
2017-12-10 06:29:27 GMT 52.49426 12.97572 38,000 269 387 0
2017-12-10 06:29:25 GMT 52.49440 12.98560 38,025 269 387 0
2017-12-10 06:29:23 GMT 52.49441 12.98698 38,000 269 387 0
2017-12-10 06:29:20 GMT 52.49460 12.99766 38,025 269 387 0
2017-12-10 06:29:18 GMT 52.49468 13.00271 38,000 269 387 64
2017-12-10 06:29:16 GMT 52.49483 13.01392 38,000 269 387 64
2017-12-10 06:29:13 GMT 52.49486 13.01770 38,000 269 387 64
2017-12-10 06:29:10 GMT 52.49510 13.03245 38,000 269 387 64
2017-12-10 06:29:08 GMT 52.49514 13.03646 38,000 269 387 64
2017-12-10 06:29:06 GMT 52.49514 13.03646 38,000 269 387 64
2017-12-10 06:29:04 GMT 52.49528 13.04579 38,000 269 387 64
2017-12-10 06:29:02 GMT 52.49533 13.04886 38,000 269 387 64
2017-12-10 06:28:59 GMT 52.49551 13.06198 38,000 269 387 64
2017-12-10 06:28:59 GMT 52.49551 13.06076 38,000 269 387 64
2017-12-10 06:28:57 GMT 52.49556 13.06573 38,000 269 388 64
2017-12-10 06:28:55 GMT 52.49565 13.07137 38,000 269 388 64
2017-12-10 06:28:53 GMT 52.49579 13.07953 37,975 269 388 64
2017-12-10 06:28:51 GMT 52.49583 13.08517 37,975 269 388 0
2017-12-10 06:28:48 GMT 52.49598 13.09194 37,975 269 388 0
2017-12-10 06:28:46 GMT 52.49602 13.09570 38,000 269 388 0
2017-12-10 06:28:44 GMT 52.49617 13.10700 37,975 269 388 0
2017-12-10 06:28:41 GMT 52.49625 13.11012 38,000 269 388 64
2017-12-10 06:28:38 GMT 52.49638 13.12019 38,000 269 387 64
2017-12-10 06:28:36 GMT 52.49649 13.12576 38,000 269 387 64
2017-12-10 06:28:34 GMT 52.49657 13.13209 38,000 269 387 64
2017-12-10 06:28:32 GMT 52.49663 13.13643 38,000 269 387 64
2017-12-10 06:28:30 GMT 52.49677 13.14443 37,975 269 387 64
2017-12-10 06:28:28 GMT 52.49684 13.15193 37,975 269 387 128
2017-12-10 06:28:26 GMT 52.49691 13.15644 37,975 269 387 128
2017-12-10 06:28:24 GMT 52.49703 13.16261 37,975 269 387 128
2017-12-10 06:28:22 GMT 52.49705 13.16578 37,975 269 387 128
2017-12-10 06:28:19 GMT 52.49721 13.17642 37,975 269 387 128
2017-12-10 06:28:17 GMT 52.49735 13.18382 37,950 269 387 128
2017-12-10 06:28:15 GMT 52.49744 13.19199 37,950 269 387 0
2017-12-10 06:28:13 GMT 52.49752 13.19505 37,950 269 387 64
2017-12-10 06:28:11 GMT 52.49761 13.20196 37,950 269 387 0
2017-12-10 06:28:09 GMT 52.49771 13.20946 37,950 269 387 -64
2017-12-10 06:28:07 GMT 52.49776 13.21190 37,950 269 387 -64
2017-12-10 06:28:04 GMT 52.49794 13.22258 37,975 269 387 0
2017-12-10 06:28:02 GMT 52.49798 13.22628 37,975 269 387 -64
2017-12-10 06:28:00 GMT 52.49812 13.23562 37,975 269 387 0
2017-12-10 06:27:58 GMT 52.49822 13.24127 37,975 269 387 0
2017-12-10 06:27:56 GMT 52.49826 13.24371 37,975 269 387 0
2017-12-10 06:27:54 GMT 52.49840 13.25320 37,975 269 386 0
2017-12-10 06:27:52 GMT 52.49845 13.25807 37,975 269 386 0
2017-12-10 06:27:49 GMT 52.49859 13.26662 37,975 269 386 0
2017-12-10 06:27:46 GMT 52.49872 13.27492 37,975 269 386 0
2017-12-10 06:27:44 GMT 52.49877 13.27808 37,975 269 386 0
2017-12-10 06:27:42 GMT 52.49887 13.28365 37,975 269 386 0
2017-12-10 06:27:40 GMT 52.49895 13.28926 37,975 269 386 0
2017-12-10 06:27:38 GMT 52.49910 13.29793 37,975 269 386 0
2017-12-10 06:27:35 GMT 52.49918 13.30292 37,975 269 386 0
2017-12-10 06:27:33 GMT 52.49929 13.31174 37,975 269 386 0
2017-12-10 06:27:31 GMT 52.49943 13.31849 37,975 269 386 0
2017-12-10 06:27:29 GMT 52.49950 13.32413 37,975 269 386 0
2017-12-10 06:27:26 GMT 52.49966 13.33285 37,975 269 386 0
2017-12-10 06:27:24 GMT 52.49972 13.33717 37,975 269 386 0
2017-12-10 06:27:22 GMT 52.49982 13.34534 37,975 269 386 64
2017-12-10 06:27:19 GMT 52.49989 13.35027 37,975 269 386 64
2017-12-10 06:27:17 GMT 52.50000 13.35586 37,975 269 387 64
2017-12-10 06:27:15 GMT 52.50012 13.36408 37,975 269 387 0
2017-12-10 06:27:13 GMT 52.50017 13.36895 37,975 269 388 -128
2017-12-10 06:27:11 GMT 52.50028 13.37524 37,975 269 387 -64
2017-12-10 06:27:08 GMT 52.50041 13.38585 37,975 269 387 -128
2017-12-10 06:27:05 GMT 52.50050 13.39273 37,975 269 388 -128
2017-12-10 06:27:03 GMT 52.50055 13.39775 37,975 269 387 -64
2017-12-10 06:27:03 GMT 52.50059 13.40081 38,000 269 388 -128
2017-12-10 06:27:01 GMT 52.50064 13.40575 38,000 269 387 -64
2017-12-10 06:26:58 GMT 52.50082 13.41839 38,000 269 387 0
2017-12-10 06:26:56 GMT 52.50087 13.42148 38,000 269 387 0
2017-12-10 06:26:54 GMT 52.50092 13.42705 38,000 269 387 0
2017-12-10 06:26:52 GMT 52.50096 13.43024 38,000 269 387 0
2017-12-10 06:26:49 GMT 52.50110 13.44017 38,000 269 387 64
2017-12-10 06:26:47 GMT 52.50120 13.44766 38,000 269 387 64
2017-12-10 06:26:45 GMT 52.50124 13.45331 38,000 269 388 64
2017-12-10 06:26:43 GMT 52.50129 13.45888 38,000 269 388 64
2017-12-10 06:26:41 GMT 52.50133 13.46207 38,000 269 388 64
2017-12-10 06:26:38 GMT 52.50143 13.46955 38,000 269 388 64
2017-12-10 06:26:34 GMT 52.50161 13.48517 38,000 269 388 0
2017-12-10 06:26:32 GMT 52.50171 13.49451 38,000 269 388 0
2017-12-10 06:26:30 GMT 52.50171 13.49451 38,000 269 388 0
2017-12-10 06:26:26 GMT 52.50188 13.50899 38,000 269 388 -64
2017-12-10 06:26:26 GMT 52.50188 13.50899 38,000 269 388 -64
2017-12-10 06:26:24 GMT 52.50189 13.51216 38,000 269 387 -64
2017-12-10 06:26:22 GMT 52.50199 13.52150 38,000 269 387 -64
2017-12-10 06:26:20 GMT 52.50203 13.52393 38,000 269 387 -64
2017-12-10 06:26:18 GMT 52.50208 13.52833 38,000 269 387 -64
2017-12-10 06:26:14 GMT 52.50224 13.54324 38,025 269 386 0
2017-12-10 06:26:11 GMT 52.50234 13.55202 38,025 269 386 64
2017-12-10 06:26:09 GMT 52.50234 13.55446 38,025 269 386 64
2017-12-10 06:26:05 GMT 52.50247 13.56758 38,000 269 387 128
2017-12-10 06:26:03 GMT 52.50254 13.57384 38,000 269 387 128
2017-12-10 06:26:00 GMT 52.50265 13.58383 38,000 269 388 64
2017-12-10 06:26:00 GMT 52.50265 13.58383 38,000 269 388 64
2017-12-10 06:25:57 GMT 52.50279 13.59367 38,000 269 388 64
2017-12-10 06:25:54 GMT 52.50287 13.60319 38,000 269 389 -64
2017-12-10 06:25:52 GMT 52.50293 13.60642 38,000 270 391 0
2017-12-10 06:25:50 GMT 52.50297 13.61206 38,000 270 390 -64
2017-12-10 06:25:48 GMT 52.50301 13.61646 38,000 270 390 -64
2017-12-10 06:25:44 GMT 52.50316 13.63098 38,000 270 391 64
2017-12-10 06:25:42 GMT 52.50320 13.63411 38,025 269 391 64
2017-12-10 06:25:40 GMT 52.50324 13.64227 38,000 269 390 64
2017-12-10 06:25:38 GMT 52.50334 13.64800 38,025 269 390 64
2017-12-10 06:25:33 GMT 52.50348 13.66310 38,000 269 390 128
2017-12-10 06:25:31 GMT 52.50357 13.67060 38,000 269 391 64
2017-12-10 06:25:29 GMT 52.50362 13.67311 38,000 269 391 64
2017-12-10 06:25:24 GMT 52.50385 13.69273 38,000 269 392 0
2017-12-10 06:25:22 GMT 52.50384 13.69461 38,000 269 392 0
2017-12-10 06:25:20 GMT 52.50394 13.70356 38,000 269 391 64
2017-12-10 06:25:14 GMT 52.50413 13.72043 38,000 269 390 64
2017-12-10 06:25:11 GMT 52.50431 13.73550 38,000 269 388 64
2017-12-10 06:25:09 GMT 52.50436 13.74115 38,000 269 388 0
2017-12-10 06:25:08 GMT 52.50440 13.74306 38,000 270 385 0
2017-12-10 06:25:08 GMT 52.50440 13.74306 38,000 269 388 0
2017-12-10 06:25:05 GMT 52.50441 13.74625 38,000 269 387 0
2017-12-10 06:25:02 GMT 52.50453 13.75374 38,000 269 387 -64
2017-12-10 06:25:00 GMT 52.50455 13.75810 38,000 270 386 -64
2017-12-10 06:24:57 GMT 52.50464 13.76869 38,000 270 385 0
2017-12-10 06:24:55 GMT 52.50473 13.77560 38,000 270 384 0
2017-12-10 06:24:53 GMT 52.50476 13.78174 38,000 270 384 0
2017-12-10 06:24:51 GMT 52.50485 13.78861 38,000 270 383 0
2017-12-10 06:24:51 GMT 52.50481 13.78731 38,000 270 383 0
2017-12-10 06:24:49 GMT 52.50487 13.79412 38,000 270 382 0
2017-12-10 06:24:45 GMT 52.50497 13.80652 38,000 270 381 0
2017-12-10 06:24:43 GMT 52.50499 13.80951 38,000 270 380 0
2017-12-10 06:24:41 GMT 52.50506 13.81813 38,000 270 379 0
2017-12-10 06:24:39 GMT 52.50508 13.82240 38,025 270 379 0
2017-12-10 06:24:36 GMT 52.50513 13.83034 38,000 270 378 64
2017-12-10 06:24:34 GMT 52.50520 13.83650 38,000 270 378 128
2017-12-10 06:24:32 GMT 52.50525 13.84254 38,000 270 377 192
2017-12-10 06:24:30 GMT 52.50525 13.84803 38,000 270 377 320
2017-12-10 06:24:28 GMT 52.50529 13.85352 38,000 270 377 448
2017-12-10 06:24:25 GMT 52.50536 13.86139 37,975 270 376 576
2017-12-10 06:24:23 GMT 52.50538 13.86498 37,950 270 376 704
2017-12-10 06:24:21 GMT 52.50545 13.87398 37,925 270 376 832
2017-12-10 06:24:18 GMT 52.50548 13.88319 37,875 270 376 960
2017-12-10 06:24:15 GMT 52.50554 13.88939 37,850 270 377 960
2017-12-10 06:24:12 GMT 52.50562 13.89904 37,800 270 377 960
2017-12-10 06:24:10 GMT 52.50563 13.90450 37,775 270 377 960
2017-12-10 06:24:08 GMT 52.50566 13.90940 37,725 270 377 960
2017-12-10 06:24:06 GMT 52.50576 13.92015 37,675 270 378 960
2017-12-10 06:24:04 GMT 52.50577 13.92036 37,675 270 378 960
2017-12-10 06:24:02 GMT 52.50581 13.92586 37,625 270 378 960
2017-12-10 06:24:00 GMT 52.50590 13.93433 37,600 270 378 960
2017-12-10 06:23:58 GMT 52.50594 13.94047 37,550 270 378 960
2017-12-10 06:23:56 GMT 52.50599 13.94353 37,525 270 378 960
2017-12-10 06:23:54 GMT 52.50600 13.94783 37,525 270 378 960
2017-12-10 06:23:52 GMT 52.50609 13.95569 37,475 270 378 960
2017-12-10 06:23:50 GMT 52.50613 13.95993 37,450 270 379 896
2017-12-10 06:23:48 GMT 52.50618 13.96484 37,425 270 379 960
2017-12-10 06:23:46 GMT 52.50627 13.97343 37,375 270 379 960
2017-12-10 06:23:44 GMT 52.50632 13.97948 37,350 270 379 896
2017-12-10 06:23:42 GMT 52.50636 13.98497 37,325 269 379 896
2017-12-10 06:23:38 GMT 52.50650 13.99841 37,250 270 379 896
2017-12-10 06:23:34 GMT 52.50659 14.00642 37,225 270 379 896
2017-12-10 06:23:32 GMT 52.50664 14.01192 37,175 270 379 896
2017-12-10 06:23:30 GMT 52.50673 14.02044 37,125 270 379 960
2017-12-10 06:23:28 GMT 52.50678 14.02609 37,100 270 379 960
2017-12-10 06:23:26 GMT 52.50682 14.02908 37,100 270 380 960
2017-12-10 06:23:24 GMT 52.50687 14.03762 37,050 270 380 960
2017-12-10 06:23:21 GMT 52.50692 14.04374 37,000 270 380 960
2017-12-10 06:23:18 GMT 52.50697 14.05049 36,975 270 380 1024
2017-12-10 06:23:16 GMT 52.50705 14.06029 36,900 270 380 1024
2017-12-10 06:23:13 GMT 52.50711 14.06642 36,875 270 380 1216
2017-12-10 06:23:11 GMT 52.50714 14.07501 36,800 270 381 1472
2017-12-10 06:23:09 GMT 52.50719 14.07745 36,800 270 381 1472
2017-12-10 06:23:07 GMT 52.50720 14.08126 36,750 270 381 1472
2017-12-10 06:23:05 GMT 52.50725 14.08981 36,675 270 382 1344
2017-12-10 06:23:02 GMT 52.50734 14.10260 36,600 270 383 1152
2017-12-10 06:23:00 GMT 52.50734 14.10590 36,550 270 383 1024
2017-12-10 06:22:57 GMT 52.50742 14.11446 36,500 270 383 896
2017-12-10 06:22:55 GMT 52.50743 14.11822 36,500 270 383 704
2017-12-10 06:22:52 GMT 52.50748 14.12999 36,425 270 383 576
2017-12-10 06:22:50 GMT 52.50751 14.13185 36,425 270 383 576
2017-12-10 06:22:50 GMT 52.50751 14.13185 36,425 270 383 576
2017-12-10 06:22:48 GMT 52.50751 14.13734 36,400 270 383 512
2017-12-10 06:22:46 GMT 52.50757 14.14537 36,400 270 382 448
2017-12-10 06:22:44 GMT 52.50760 14.14909 36,375 270 382 448
2017-12-10 06:22:42 GMT 52.50762 14.15769 36,350 270 381 576
2017-12-10 06:22:40 GMT 52.50764 14.16199 36,350 270 381 576
2017-12-10 06:22:40 GMT 52.50764 14.16199 36,350 270 381 576
2017-12-10 06:22:36 GMT 52.50769 14.17534 36,300 270 379 640
2017-12-10 06:22:34 GMT 52.50774 14.17915 36,275 270 380 704
2017-12-10 06:22:32 GMT 52.50774 14.18465 36,275 270 380 704
2017-12-10 06:22:32 GMT 52.50774 14.18465 36,275 270 380 704
2017-12-10 06:22:32 GMT 52.50774 14.18594 36,250 270 380 704
2017-12-10 06:22:30 GMT 52.50776 14.19018 36,250 270 379 704
2017-12-10 06:22:26 GMT 52.50780 14.20611 36,175 270 378 448
2017-12-10 06:22:24 GMT 52.50780 14.20736 36,175 270 378 448
2017-12-10 06:22:22 GMT 52.50785 14.21772 36,150 270 378 384
2017-12-10 06:22:20 GMT 52.50785 14.22078 36,150 270 377 384
2017-12-10 06:22:18 GMT 52.50787 14.22752 36,125 270 377 448
2017-12-10 06:22:15 GMT 52.50792 14.23660 36,100 270 376 768
2017-12-10 06:22:13 GMT 52.50792 14.24088 36,075 270 376 1152
2017-12-10 06:22:11 GMT 52.50792 14.24446 36,050 270 376 1216
2017-12-10 06:22:09 GMT 52.50794 14.25052 36,025 270 376 1472
2017-12-10 06:22:06 GMT 52.50799 14.26732 35,900 270 377 1856
2017-12-10 06:22:04 GMT 52.50801 14.26811 35,850 270 377 1856
2017-12-10 06:22:01 GMT 52.50799 14.27548 35,775 270 377 1984
2017-12-10 06:21:59 GMT 52.50801 14.27849 35,750 270 378 1984
2017-12-10 06:21:57 GMT 52.50804 14.28748 35,675 270 379 1984
2017-12-10 06:21:55 GMT 52.50806 14.29321 35,575 270 381 1792
2017-12-10 06:21:53 GMT 52.50804 14.29620 35,525 270 380 1920
2017-12-10 06:21:51 GMT 52.50806 14.30351 35,450 270 382 1728
2017-12-10 06:21:49 GMT 52.50804 14.30907 35,400 270 382 1664
2017-12-10 06:21:46 GMT 52.50804 14.31464 35,350 270 382 1600
2017-12-10 06:21:44 GMT 52.50806 14.32083 35,275 270 383 1472
2017-12-10 06:21:42 GMT 52.50806 14.32823 35,225 270 383 1344
2017-12-10 06:21:40 GMT 52.50806 14.33502 35,175 270 384 1216
2017-12-10 06:21:38 GMT 52.50804 14.33873 35,125 271 384 1024
2017-12-10 06:21:36 GMT 52.50806 14.34799 35,075 271 383 832
2017-12-10 06:21:33 GMT 52.50806 14.35898 35,025 271 383 704
2017-12-10 06:21:30 GMT 52.50804 14.36101 35,000 271 383 576
2017-12-10 06:21:28 GMT 52.50804 14.36910 34,975 271 383 384
2017-12-10 06:21:25 GMT 52.50801 14.38057 34,950 271 382 256
2017-12-10 06:21:23 GMT 52.50796 14.38332 34,950 271 381 256
2017-12-10 06:21:21 GMT 52.50799 14.38871 34,925 271 380 320
2017-12-10 06:21:19 GMT 52.50794 14.39680 34,925 271 379 384
2017-12-10 06:21:16 GMT 52.50794 14.40355 34,900 271 378 512
2017-12-10 06:21:13 GMT 52.50792 14.41261 34,875 270 377 704
2017-12-10 06:21:10 GMT 52.50792 14.41933 34,875 270 377 768
2017-12-10 06:21:08 GMT 52.50792 14.42482 34,825 270 377 896
2017-12-10 06:21:06 GMT 52.50792 14.43268 34,800 270 376 1024
2017-12-10 06:21:02 GMT 52.50792 14.44305 34,725 270 376 1280
2017-12-10 06:21:00 GMT 52.50794 14.44922 34,675 270 377 1536
2017-12-10 06:20:58 GMT 52.50799 14.45636 34,625 270 377 1536
2017-12-10 06:20:54 GMT 52.50804 14.46546 34,550 270 377 1472
2017-12-10 06:20:50 GMT 52.50810 14.47716 34,450 269 378 1536
2017-12-10 06:20:48 GMT 52.50819 14.48319 34,400 269 378 1536
2017-12-10 06:20:46 GMT 52.50832 14.49175 34,300 269 378 1600
2017-12-10 06:20:44 GMT 52.50832 14.49293 34,300 269 378 1664
2017-12-10 06:20:42 GMT 52.50850 14.50203 34,200 268 379 1792
2017-12-10 06:20:39 GMT 52.50874 14.51121 34,100 268 380 1792
2017-12-10 06:20:37 GMT 52.50883 14.51561 34,075 268 380 1728
2017-12-10 06:20:35 GMT 52.50897 14.52228 34,000 268 381 1664
2017-12-10 06:20:33 GMT 52.50915 14.52965 33,925 268 381 1728
2017-12-10 06:20:30 GMT 52.50934 14.53705 33,850 268 381 1664
2017-12-10 06:20:28 GMT 52.50948 14.54198 33,800 268 382 1600
2017-12-10 06:20:28 GMT 52.50948 14.54198 33,800 268 382 1664
2017-12-10 06:20:25 GMT 52.50971 14.55124 33,725 268 382 1536
2017-12-10 06:20:23 GMT 52.50971 14.55249 33,700 268 383 1472
2017-12-10 06:20:21 GMT 52.51002 14.56398 33,625 268 383 1280
2017-12-10 06:20:18 GMT 52.51021 14.57291 33,550 268 383 1216
2017-12-10 06:20:16 GMT 52.51032 14.57587 33,525 269 383 1216
2017-12-10 06:20:14 GMT 52.51044 14.58092 33,475 269 383 1152
2017-12-10 06:20:11 GMT 52.51067 14.59259 33,400 269 383 1216
2017-12-10 06:20:09 GMT 52.51071 14.59633 33,375 270 383 1280
2017-12-10 06:20:07 GMT 52.51080 14.60442 33,325 270 383 1344
2017-12-10 06:20:04 GMT 52.51078 14.61182 33,275 271 383 1408
2017-12-10 06:20:01 GMT 52.51071 14.62036 33,200 272 382 1280
2017-12-10 06:19:59 GMT 52.51064 14.62539 33,150 273 382 1152
2017-12-10 06:19:56 GMT 52.51044 14.63623 33,100 273 382 1152
2017-12-10 06:19:53 GMT 52.51027 14.64203 33,050 273 382 1216
2017-12-10 06:19:51 GMT 52.51016 14.64699 33,000 273 382 1216
2017-12-10 06:19:48 GMT 52.50995 14.65553 32,950 273 382 1280
2017-12-10 06:19:46 GMT 52.50981 14.66110 32,900 273 382 1344
2017-12-10 06:19:44 GMT 52.50962 14.66730 32,850 273 382 1408
2017-12-10 06:19:42 GMT 52.50948 14.67287 32,825 273 382 1600
2017-12-10 06:19:39 GMT 52.50920 14.68391 32,725 273 382 1600
2017-12-10 06:19:37 GMT 52.50906 14.68948 32,675 273 382 1728
2017-12-10 06:19:35 GMT 52.50902 14.69192 32,650 273 382 1728
2017-12-10 06:19:31 GMT 52.50870 14.70360 32,525 273 383 1216
2017-12-10 06:19:28 GMT 52.50838 14.71542 32,425 273 384 1664
2017-12-10 06:19:26 GMT 52.50824 14.72099 32,400 273 383 1216
2017-12-10 06:19:23 GMT 52.50801 14.73023 32,325 273 382 1344
2017-12-10 06:19:21 GMT 52.50785 14.73518 32,275 273 382 1472
2017-12-10 06:19:18 GMT 52.50757 14.74561 32,200 273 382 1664
2017-12-10 06:19:16 GMT 52.50743 14.75056 32,150 273 383 1728
2017-12-10 06:19:16 GMT 52.50739 14.75174 32,125 273 383 1728
2017-12-10 06:19:12 GMT 52.50719 14.76044 32,050 273 383 1728
2017-12-10 06:19:10 GMT 52.50701 14.76539 32,000 273 383 1728
2017-12-10 06:19:07 GMT 52.50677 14.77531 31,900 273 384 1664
2017-12-10 06:19:05 GMT 52.50664 14.77959 31,850 273 384 1600
2017-12-10 06:19:01 GMT 52.50627 14.79333 31,725 273 385 1600
2017-12-10 06:18:58 GMT 52.50604 14.80072 31,650 273 385 1408
2017-12-10 06:18:56 GMT 52.50585 14.80753 31,600 273 385 1408
2017-12-10 06:18:54 GMT 52.50577 14.81125 31,575 273 385 1280
2017-12-10 06:18:52 GMT 52.50554 14.81941 31,500 273 385 1280
2017-12-10 06:18:50 GMT 52.50536 14.82559 31,475 273 385 1280
2017-12-10 06:18:47 GMT 52.50513 14.83490 31,400 273 385 1280
2017-12-10 06:18:45 GMT 52.50492 14.84237 31,350 273 385 1280
2017-12-10 06:18:40 GMT 52.50458 14.85596 31,225 273 384 1280
2017-12-10 06:18:38 GMT 52.50436 14.86340 31,175 273 384 1216
2017-12-10 06:18:36 GMT 52.50421 14.86816 31,175 273 384 1216
2017-12-10 06:18:34 GMT 52.50417 14.87083 31,125 273 384 1152
2017-12-10 06:18:31 GMT 52.50390 14.88082 31,050 273 384 1024
2017-12-10 06:18:27 GMT 52.50352 14.89440 30,975 273 383 768
2017-12-10 06:18:25 GMT 52.50343 14.89868 30,950 273 382 768
2017-12-10 06:18:23 GMT 52.50334 14.90185 30,950 273 382 704
2017-12-10 06:18:21 GMT 52.50302 14.91341 30,900 273 381 512
2017-12-10 06:18:19 GMT 52.50293 14.91722 30,875 273 380 512
2017-12-10 06:18:16 GMT 52.50273 14.92453 30,850 273 379 448
2017-12-10 06:18:14 GMT 52.50259 14.92948 30,850 273 378 512
2017-12-10 06:18:09 GMT 52.50229 14.94102 30,825 273 376 704
2017-12-10 06:18:07 GMT 52.50206 14.94904 30,775 273 375 704
2017-12-10 06:18:05 GMT 52.50189 14.95451 30,775 273 374 640
2017-12-10 06:18:03 GMT 52.50165 14.96284 30,725 273 374 576
2017-12-10 06:18:00 GMT 52.50151 14.96826 30,725 273 372 448
2017-12-10 06:17:58 GMT 52.50129 14.97562 30,700 273 371 512
2017-12-10 06:17:55 GMT 52.50114 14.98093 30,675 273 370 768
2017-12-10 06:17:53 GMT 52.50096 14.98692 30,650 273 370 832
2017-12-10 06:17:51 GMT 52.50078 14.99288 30,625 273 369 1024
2017-12-10 06:17:49 GMT 52.50045 15.00458 30,575 273 369 1280
2017-12-10 06:17:47 GMT 52.50040 15.00717 30,525 273 368 1536
2017-12-10 06:17:44 GMT 52.50026 15.01250 30,475 273 368 1856
2017-12-10 06:17:42 GMT 52.50003 15.01965 30,400 273 368 1984
2017-12-10 06:17:39 GMT 52.49982 15.02678 30,325 273 369 2304
2017-12-10 06:17:36 GMT 52.49961 15.03510 30,225 273 369 2496
2017-12-10 06:17:34 GMT 52.49931 15.04463 30,075 273 370 2560
2017-12-10 06:17:32 GMT 52.49924 15.04821 30,000 273 371 2496
2017-12-10 06:17:29 GMT 52.49887 15.05959 29,825 273 372 2368
2017-12-10 06:17:27 GMT 52.49877 15.06312 29,775 273 373 2176
2017-12-10 06:17:25 GMT 52.49863 15.06798 29,725 273 373 2176
2017-12-10 06:17:23 GMT 52.49849 15.07400 29,650 273 374 2176
2017-12-10 06:17:21 GMT 52.49840 15.07646 29,600 273 374 2112
2017-12-10 06:17:18 GMT 52.49808 15.08736 29,475 273 375 1920
2017-12-10 06:17:16 GMT 52.49785 15.09491 29,400 273 375 1856
2017-12-10 06:17:13 GMT 52.49771 15.10002 29,325 273 375 1728
2017-12-10 06:17:11 GMT 52.49753 15.10666 29,250 273 375 1536
2017-12-10 06:17:09 GMT 52.49728 15.11389 29,175 273 375 1344
2017-12-10 06:17:05 GMT 52.49703 15.12367 29,075 273 375 1216
2017-12-10 06:17:03 GMT 52.49677 15.13092 29,025 273 375 1152
2017-12-10 06:17:01 GMT 52.49654 15.13979 28,975 273 374 1088
2017-12-10 06:16:59 GMT 52.49645 15.14238 28,950 273 374 1024
2017-12-10 06:16:57 GMT 52.49634 15.14542 28,925 273 374 960
2017-12-10 06:16:54 GMT 52.49607 15.15509 28,875 273 373 960
2017-12-10 06:16:52 GMT 52.49597 15.15869 28,850 273 372 1024
2017-12-10 06:16:50 GMT 52.49579 15.16533 28,800 273 372 1024
2017-12-10 06:16:47 GMT 52.49556 15.17250 28,750 273 371 1024
2017-12-10 06:16:44 GMT 52.49528 15.18271 28,700 273 370 960
2017-12-10 06:16:42 GMT 52.49505 15.19103 28,650 273 369 960
2017-12-10 06:16:38 GMT 52.49482 15.19872 28,600 273 368 1024
2017-12-10 06:16:36 GMT 52.49454 15.20767 28,550 273 367 1088
2017-12-10 06:16:34 GMT 52.49441 15.21248 28,500 273 367 1088
2017-12-10 06:16:32 GMT 52.49432 15.21599 28,500 273 367 1152
2017-12-10 06:16:30 GMT 52.49410 15.22362 28,450 273 366 1280
2017-12-10 06:16:27 GMT 52.49393 15.22838 28,400 273 366 1344
2017-12-10 06:16:25 GMT 52.49368 15.23674 28,325 273 365 1344
2017-12-10 06:16:23 GMT 52.49350 15.24254 28,275 273 365 1280
2017-12-10 06:16:23 GMT 52.49350 15.24254 28,275 273 365 1280
2017-12-10 06:16:21 GMT 52.49342 15.24612 28,250 273 364 1280
2017-12-10 06:16:18 GMT 52.49309 15.25665 28,175 273 364 1344
2017-12-10 06:16:15 GMT 52.49291 15.26314 28,100 274 362 1472
2017-12-10 06:16:13 GMT 52.49254 15.27405 28,050 273 363 1408
2017-12-10 06:16:11 GMT 52.49254 15.27484 28,025 273 363 1472
2017-12-10 06:16:08 GMT 52.49236 15.28008 27,975 274 362 1408
2017-12-10 06:16:04 GMT 52.49190 15.29533 27,825 274 361 1408
2017-12-10 06:16:01 GMT 52.49167 15.30174 27,775 274 361 1408
2017-12-10 06:15:59 GMT 52.49149 15.30808 27,700 274 361 1472
2017-12-10 06:15:56 GMT 52.49119 15.31730 27,650 274 360 1536
2017-12-10 06:15:54 GMT 52.49109 15.31981 27,600 274 360 1600
2017-12-10 06:15:52 GMT 52.49080 15.32906 27,500 274 360 1664
2017-12-10 06:15:50 GMT 52.49077 15.33079 27,475 274 360 1664
2017-12-10 06:15:48 GMT 52.49058 15.33597 27,425 274 360 1664
2017-12-10 06:15:45 GMT 52.49025 15.34649 27,325 274 360 1728
2017-12-10 06:15:42 GMT 52.49002 15.35347 27,250 274 360 1728
2017-12-10 06:15:40 GMT 52.48979 15.36041 27,175 274 360 1792
2017-12-10 06:15:38 GMT 52.48965 15.36454 27,125 274 360 1728
2017-12-10 06:15:36 GMT 52.48937 15.37325 27,025 274 360 1728
2017-12-10 06:15:33 GMT 52.48929 15.37605 27,000 274 360 1600
2017-12-10 06:15:31 GMT 52.48900 15.38596 26,900 274 359 1600
2017-12-10 06:15:28 GMT 52.48877 15.39294 26,825 274 359 1600
2017-12-10 06:15:26 GMT 52.48869 15.39520 26,800 274 359 1600
2017-12-10 06:15:21 GMT 52.48814 15.41145 26,625 274 358 1472
2017-12-10 06:15:19 GMT 52.48797 15.41664 26,575 274 358 1408
2017-12-10 06:15:17 GMT 52.48788 15.42072 26,550 274 357 1344
2017-12-10 06:15:15 GMT 52.48765 15.42763 26,500 274 353 1536
2017-12-10 06:15:13 GMT 52.48750 15.43220 26,450 274 356 1344
2017-12-10 06:15:11 GMT 52.48727 15.43968 26,375 274 355 1408
2017-12-10 06:15:09 GMT 52.48718 15.44254 26,350 274 355 1472
2017-12-10 06:15:07 GMT 52.48704 15.44654 26,325 274 355 1472
2017-12-10 06:15:05 GMT 52.48672 15.45563 26,225 274 353 1728
2017-12-10 06:15:02 GMT 52.48659 15.46028 26,175 274 354 1728
2017-12-10 06:14:59 GMT 52.48627 15.46997 26,075 274 353 1792
2017-12-10 06:14:56 GMT 52.48599 15.47737 26,000 274 353 1856
2017-12-10 06:14:53 GMT 52.48558 15.48973 25,875 274 353 1984
2017-12-10 06:14:51 GMT 52.48549 15.49332 25,800 274 353 1984
2017-12-10 06:14:51 GMT 52.48555 15.49159 25,825 274 353 1984
2017-12-10 06:14:49 GMT 52.48531 15.49843 25,725 274 353 1920
2017-12-10 06:14:46 GMT 52.48513 15.50351 25,675 274 353 1856
2017-12-10 06:14:43 GMT 52.48481 15.51324 25,550 274 353 1728
2017-12-10 06:14:40 GMT 52.48458 15.52062 25,450 274 353 1728
2017-12-10 06:14:37 GMT 52.48439 15.52690 25,375 274 353 1664
2017-12-10 06:14:35 GMT 52.48416 15.53261 25,325 274 353 1664
2017-12-10 06:14:32 GMT 52.48378 15.54401 25,200 274 352 1792
2017-12-10 06:14:30 GMT 52.48370 15.54688 25,175 274 352 1792
2017-12-10 06:14:28 GMT 52.48352 15.55199 25,100 274 352 1856
2017-12-10 06:14:26 GMT 52.48329 15.55931 25,000 274 352 1920
2017-12-10 06:14:22 GMT 52.48302 15.56786 24,900 274 352 1920
2017-12-10 06:14:20 GMT 52.48271 15.57563 24,850 274 352 1920
2017-12-10 06:14:18 GMT 52.48267 15.57806 24,775 274 352 1856
2017-12-10 06:14:16 GMT 52.48247 15.58258 24,725 274 352 1920
2017-12-10 06:14:14 GMT 52.48228 15.58823 24,650 274 352 1856
2017-12-10 06:14:11 GMT 52.48206 15.59563 24,575 274 351 1728
2017-12-10 06:14:09 GMT 52.48187 15.60066 24,500 274 351 1600
2017-12-10 06:14:07 GMT 52.48155 15.60921 24,425 274 351 1408
2017-12-10 06:14:05 GMT 52.48128 15.61760 24,350 274 350 1408
2017-12-10 06:14:00 GMT 52.48094 15.62782 24,250 274 348 1408
2017-12-10 06:13:58 GMT 52.48082 15.63072 24,225 274 348 1408
2017-12-10 06:13:56 GMT 52.48053 15.63967 24,125 274 347 1408
2017-12-10 06:13:54 GMT 52.48045 15.64194 24,100 274 347 1408
2017-12-10 06:13:51 GMT 52.48022 15.64865 24,050 274 346 1472
2017-12-10 06:13:49 GMT 52.48000 15.65475 23,975 274 345 1472
2017-12-10 06:13:46 GMT 52.47960 15.66650 23,875 274 344 1600
2017-12-10 06:13:43 GMT 52.47949 15.66925 23,850 274 343 1664
2017-12-10 06:13:41 GMT 52.47922 15.67702 23,750 274 343 1792
2017-12-10 06:13:39 GMT 52.47904 15.68141 23,700 274 342 1920
2017-12-10 06:13:37 GMT 52.47885 15.68636 23,650 274 342 1920
2017-12-10 06:13:35 GMT 52.47871 15.69146 23,575 274 342 2048
2017-12-10 06:13:33 GMT 52.47848 15.69797 23,500 274 342 2048
2017-12-10 06:13:31 GMT 52.47825 15.70401 23,400 274 341 2112
2017-12-10 06:13:27 GMT 52.47789 15.71396 23,275 274 341 2112
2017-12-10 06:13:25 GMT 52.47771 15.71892 23,200 274 341 2176
2017-12-10 06:13:25 GMT 52.47766 15.72006 23,175 274 341 2176
2017-12-10 06:13:23 GMT 52.47750 15.72442 23,125 274 340 2240
2017-12-10 06:13:18 GMT 52.47708 15.73705 22,925 274 341 2240
2017-12-10 06:13:16 GMT 52.47684 15.74348 22,875 274 341 2240
2017-12-10 06:13:14 GMT 52.47675 15.74529 22,800 274 341 2176
2017-12-10 06:13:12 GMT 52.47648 15.75408 22,675 274 340 1984
2017-12-10 06:13:09 GMT 52.47624 15.76067 22,575 274 341 1984
2017-12-10 06:13:06 GMT 52.47601 15.76630 22,500 274 341 1984
2017-12-10 06:13:04 GMT 52.47582 15.77119 22,450 274 340 2048
2017-12-10 06:13:02 GMT 52.47568 15.77503 22,375 274 340 2112
2017-12-10 06:12:58 GMT 52.47528 15.78606 22,225 274 340 2176
2017-12-10 06:12:58 GMT 52.47528 15.78705 22,225 274 340 2176
2017-12-10 06:12:54 GMT 52.47485 15.79810 22,075 274 340 2176
2017-12-10 06:12:52 GMT 52.47471 15.80305 21,975 274 340 2112
2017-12-10 06:12:48 GMT 52.47429 15.81341 21,825 274 339 1984
2017-12-10 06:12:46 GMT 52.47409 15.81993 21,750 274 338 1920
2017-12-10 06:12:44 GMT 52.47396 15.82329 21,700 274 338 1920
2017-12-10 06:12:41 GMT 52.47373 15.82879 21,625 274 338 1920
2017-12-10 06:12:37 GMT 52.47336 15.83970 21,500 274 336 1856
2017-12-10 06:12:34 GMT 52.47308 15.84723 21,400 274 334 2048
2017-12-10 06:12:32 GMT 52.47276 15.85586 21,275 274 335 1984
2017-12-10 06:12:27 GMT 52.47247 15.86504 21,150 274 334 2048
2017-12-10 06:12:24 GMT 52.47215 15.87422 21,025 274 333 2048
2017-12-10 06:12:22 GMT 52.47189 15.88066 20,925 274 333 2048
2017-12-10 06:12:20 GMT 52.47182 15.88231 20,900 274 333 2048
2017-12-10 06:12:18 GMT 52.47154 15.89133 20,775 274 332 2048
2017-12-10 06:12:15 GMT 52.47130 15.89775 20,700 274 331 2176
2017-12-10 06:12:11 GMT 52.47089 15.90904 20,525 274 331 2240
2017-12-10 06:12:07 GMT 52.47061 15.91652 20,400 274 330 2240
2017-12-10 06:12:05 GMT 52.47034 15.92400 20,300 274 330 2304
2017-12-10 06:12:00 GMT 52.46997 15.93407 20,125 274 329 2496
2017-12-10 06:11:57 GMT 52.46970 15.94093 20,000 274 329 2496
2017-12-10 06:11:54 GMT 52.46940 15.94846 19,875 274 329 2496
2017-12-10 06:11:52 GMT 52.46926 15.95223 19,800 274 329 2496
2017-12-10 06:11:50 GMT 52.46896 15.96069 19,650 274 329 2624
2017-12-10 06:11:47 GMT 52.46875 15.96643 19,550 274 329 2624
2017-12-10 06:11:43 GMT 52.46832 15.97755 19,350 274 329 2688
2017-12-10 06:11:39 GMT 52.46800 15.98613 19,175 274 328 2752
2017-12-10 06:11:37 GMT 52.46777 15.99243 19,075 274 328 2880
2017-12-10 06:11:34 GMT 52.46741 16.00143 18,875 274 329 3008
2017-12-10 06:11:29 GMT 52.46699 16.01257 18,650 274 329 3072
2017-12-10 06:11:27 GMT 52.46681 16.01730 18,550 274 330 3008
2017-12-10 06:11:27 GMT 52.46681 16.01845 18,525 274 330 3008
2017-12-10 06:11:23 GMT 52.46647 16.02693 18,350 274 331 2880
2017-12-10 06:11:19 GMT 52.46617 16.03439 18,200 274 331 2688
2017-12-10 06:11:17 GMT 52.46599 16.03973 18,100 274 331 2368
2017-12-10 06:11:16 GMT 52.46585 16.04355 18,025 274 331 2368
2017-12-10 06:11:15 GMT 52.46572 16.04616 17,975 274 331 2368
2017-12-10 06:11:13 GMT 52.46558 16.05095 17,900 274 330 2112
2017-12-10 06:11:12 GMT 52.46549 16.05362 17,850 274 330 2176
2017-12-10 06:11:08 GMT 52.46502 16.06484 17,700 274 328 1920
2017-12-10 06:11:06 GMT 52.46488 16.06907 17,650 274 326 1792
2017-12-10 06:11:03 GMT 52.46462 16.07643 17,550 274 326 1792
2017-12-10 06:10:59 GMT 52.46428 16.08587 17,425 274 324 1664
2017-12-10 06:10:57 GMT 52.46411 16.09009 17,375 274 323 1664
2017-12-10 06:10:55 GMT 52.46395 16.09371 17,325 274 322 1664
2017-12-10 06:10:53 GMT 52.46356 16.10451 17,225 274 320 1792
2017-12-10 06:10:47 GMT 52.46312 16.11600 17,050 274 317 2304
2017-12-10 06:10:45 GMT 52.46297 16.11999 16,975 274 316 2496
2017-12-10 06:10:42 GMT 52.46270 16.12714 16,850 274 316 2688
2017-12-10 06:10:38 GMT 52.46233 16.13632 16,650 274 315 3008
2017-12-10 06:10:36 GMT 52.46201 16.14395 16,500 274 316 3328
2017-12-10 06:10:34 GMT 52.46196 16.14601 16,425 274 316 3328
2017-12-10 06:10:32 GMT 52.46178 16.15059 16,325 274 316 3584
2017-12-10 06:10:29 GMT 52.46137 16.16028 16,075 274 318 3712
2017-12-10 06:10:27 GMT 52.46132 16.16127 16,050 274 318 3712
2017-12-10 06:10:25 GMT 52.46109 16.16692 15,900 274 319 3584
2017-12-10 06:10:23 GMT 52.46093 16.17156 15,775 274 319 3584
2017-12-10 06:10:21 GMT 52.46074 16.17619 15,650 274 320 3456
2017-12-10 06:10:19 GMT 52.46046 16.18349 15,450 274 321 2880
2017-12-10 06:10:17 GMT 52.46032 16.18600 15,400 274 321 3072
2017-12-10 06:10:15 GMT 52.46009 16.19173 15,275 274 322 2880
2017-12-10 06:10:12 GMT 52.45976 16.20003 15,100 274 322 2624
2017-12-10 06:10:07 GMT 52.45934 16.21041 14,925 274 321 2176
2017-12-10 06:10:05 GMT 52.45898 16.22017 14,800 274 320 2240
2017-12-10 06:10:01 GMT 52.45879 16.22492 14,675 274 319 2368
2017-12-10 06:09:57 GMT 52.45834 16.23573 14,475 274 318 2432
2017-12-10 06:09:54 GMT 52.45809 16.24195 14,375 274 317 2432
2017-12-10 06:09:52 GMT 52.45781 16.24964 14,250 274 316 2432
2017-12-10 06:09:48 GMT 52.45757 16.25568 14,150 274 315 2304
2017-12-10 06:09:46 GMT 52.45734 16.26083 14,050 274 315 2304
2017-12-10 06:09:44 GMT 52.45706 16.26785 13,925 274 314 2368
2017-12-10 06:09:41 GMT 52.45683 16.27342 13,825 274 313 2432
2017-12-10 06:09:39 GMT 52.45660 16.27899 13,750 274 312 2432
2017-12-10 06:09:37 GMT 52.45636 16.28503 13,625 274 311 2624
2017-12-10 06:09:34 GMT 52.45619 16.28899 13,550 274 310 2688
2017-12-10 06:09:32 GMT 52.45583 16.29753 13,375 274 310 2944
2017-12-10 06:09:29 GMT 52.45553 16.30457 13,225 274 310 3264
2017-12-10 06:09:26 GMT 52.45534 16.30952 13,100 274 309 3264
2017-12-10 06:09:23 GMT 52.45502 16.31760 12,900 274 310 3264
2017-12-10 06:09:20 GMT 52.45483 16.32152 12,800 274 310 3136
2017-12-10 06:09:14 GMT 52.45422 16.33705 12,450 274 310 2944
2017-12-10 06:09:11 GMT 52.45390 16.34453 12,275 274 310 2944
2017-12-10 06:09:06 GMT 52.45335 16.35750 12,000 274 309 2752
2017-12-10 06:09:04 GMT 52.45322 16.36154 11,925 274 309 2688
2017-12-10 06:09:02 GMT 52.45299 16.36696 11,800 274 308 2560
2017-12-10 06:09:00 GMT 52.45292 16.36845 11,775 274 307 2432
2017-12-10 06:08:57 GMT 52.45250 16.37842 11,600 274 305 2176
2017-12-10 06:08:55 GMT 52.45239 16.38184 11,525 274 305 2048
2017-12-10 06:08:53 GMT 52.45221 16.38535 11,475 274 304 1984
2017-12-10 06:08:50 GMT 52.45193 16.39214 11,375 274 301 1856
2017-12-10 06:08:44 GMT 52.45129 16.40816 11,150 274 295 1472
2017-12-10 06:08:41 GMT 52.45106 16.41397 11,075 274 293 1344
2017-12-10 06:08:35 GMT 52.45047 16.42799 10,950 274 284 1088
2017-12-10 06:08:33 GMT 52.45036 16.43076 10,925 274 283 1088
2017-12-10 06:08:30 GMT 52.45006 16.43814 10,875 274 279 1088
2017-12-10 06:08:24 GMT 52.44962 16.44928 10,750 274 270 1408
2017-12-10 06:08:22 GMT 52.44946 16.45325 10,725 274 269 1536
2017-12-10 06:08:20 GMT 52.44910 16.46137 10,650 274 265 2112
2017-12-10 06:08:13 GMT 52.44868 16.47212 10,400 274 261 2880
2017-12-10 06:08:09 GMT 52.44836 16.48041 10,175 274 259 3264
2017-12-10 06:08:02 GMT 52.44785 16.49260 9,825 274 259 3200
2017-12-10 06:07:59 GMT 52.44754 16.50047 9,575 274 259 3072
2017-12-10 06:07:52 GMT 52.44705 16.51261 9,225 274 258 3200
2017-12-10 06:07:48 GMT 52.44668 16.52132 8,975 275 257 3328
2017-12-10 06:07:43 GMT 52.44630 16.53091 8,675 275 256 3200
2017-12-10 06:07:41 GMT 52.44622 16.53293 8,625 275 256 3200
2017-12-10 06:07:38 GMT 52.44580 16.54243 8,350 275 255 3264
2017-12-10 06:07:32 GMT 52.44539 16.55189 8,075 275 254 3200
2017-12-10 06:07:30 GMT 52.44511 16.55807 7,900 275 254 3200
2017-12-10 06:07:27 GMT 52.44493 16.56174 7,775 275 253 3264
2017-12-10 06:07:21 GMT 52.44447 16.57188 7,475 275 252 3264
2017-12-10 06:07:19 GMT 52.44426 16.57680 7,350 275 251 3264
2017-12-10 06:07:17 GMT 52.44403 16.58206 7,175 275 251 3264
2017-12-10 06:07:11 GMT 52.44366 16.59132 6,900 274 249 3328
2017-12-10 06:07:09 GMT 52.44333 16.59889 6,725 274 249 3328
2017-12-10 06:07:06 GMT 52.44324 16.60183 6,575 274 248 3328
2017-12-10 06:07:01 GMT 52.44286 16.61062 6,300 274 247 3328
2017-12-10 06:06:58 GMT 52.44269 16.61575 6,125 274 247 3264
2017-12-10 06:06:56 GMT 52.44246 16.62102 5,975 274 246 3200
2017-12-10 06:06:51 GMT 52.44212 16.62930 5,725 274 244 2880
2017-12-10 06:06:47 GMT 52.44179 16.63754 5,525 274 241 2432
2017-12-10 06:06:45 GMT 52.44168 16.64062 5,450 274 239 2304
2017-12-10 06:06:40 GMT 52.44138 16.64837 5,275 274 234 1856
2017-12-10 06:06:38 GMT 52.44122 16.65291 5,200 274 231 1728
2017-12-10 06:06:35 GMT 52.44096 16.65967 5,075 274 227 1664
2017-12-10 06:06:31 GMT 52.44072 16.66542 4,975 274 221 1600
2017-12-10 06:06:29 GMT 52.44058 16.67015 4,900 274 217 1536
2017-12-10 06:06:24 GMT 52.44031 16.67709 4,800 274 211 1600
2017-12-10 06:06:20 GMT 52.44007 16.68384 4,675 274 207 1536
2017-12-10 06:06:18 GMT 52.43993 16.68713 4,625 274 200 960
2017-12-10 06:06:16 GMT 52.43980 16.69052 4,575 274 197 640
2017-12-10 06:06:14 GMT 52.43970 16.69310 4,550 274 188 704
2017-12-10 06:06:10 GMT 52.43947 16.69953 4,500 274 186 896
2017-12-10 06:06:08 GMT 52.43937 16.70134 4,500 274 183 1216
2017-12-10 06:06:04 GMT 52.43919 16.70573 4,425 274 179 1152
2017-12-10 06:06:02 GMT 52.43903 16.70982 4,375 274 173 1088
2017-12-10 06:06:00 GMT 52.43895 16.71146 4,350 274 172 1152
2017-12-10 06:05:57 GMT 52.43881 16.71515 4,300 274 169 1152
2017-12-10 06:05:53 GMT 52.43857 16.72157 4,200 274 162 1088
2017-12-10 06:05:50 GMT 52.43848 16.72455 4,150 274 159 1024
2017-12-10 06:05:48 GMT 52.43834 16.72707 4,100 275 156 1024
2017-12-10 06:05:44 GMT 52.43816 16.73139 4,050 275 150 1024
2017-12-10 06:05:39 GMT 52.43788 16.73767 3,950 275 145 1024
2017-12-10 06:05:37 GMT 52.43784 16.73927 3,925 275 143 1024
2017-12-10 06:05:34 GMT 52.43765 16.74301 3,875 275 138 960
2017-12-10 06:05:32 GMT 52.43747 16.74614 3,825 276 136 960
2017-12-10 06:05:29 GMT 52.43737 16.74811 3,775 276 130 1216
2017-12-10 06:05:27 GMT 52.43724 16.75018 3,750 276 130 1216
2017-12-10 06:05:24 GMT 52.43705 16.75313 3,675 276 127 1664
2017-12-10 06:05:21 GMT 52.43691 16.75580 3,600 277 127 1728
2017-12-10 06:05:18 GMT 52.43663 16.75972 3,475 283 127 1984
2017-12-10 06:05:14 GMT 52.43619 16.76338 3,350 287 128 2112
2017-12-10 06:05:07 GMT 52.43468 16.76956 3,075 296 134 2880
2017-12-10 06:04:56 GMT 52.43170 16.77948 2,500 297 143 3328

Making use of Plane Finder data

You are free to use the raw flight data, aircraft information and images provided in this report for your own purposes provided the data is correctly attributed to Plane Finder. We ask that you please credit Plane Finder and link to planefinder.net in close proximity to the content.

Optionally one of the following logos (no smaller then 150x24px) can be used and must link to planefinder.net

Embedding the Plane Finder map

You are welcome to embed the Plane Finder playback map on your website to offer visitors a more interactive experience. We suggest using the following HTML code:

<iframe src="//planefinder.net/data/report/W61901-HA-LWC-7700-squawk-2017-12-10/map" width="800" height="600" seamless="seamless"></iframe>

Where our data comes from

Plane Finder has a global network of data feeds and antenna radars that receive data broadcast directly from aircraft. The primary technologies used are ADS-B and MLAT. We also show feeds from the FAA and a FLARM glider feed.

Click here to find out more about the Plane Finder network.

How we collect our data